<?xml version="1.0" encoding="UTF-8" standalone="no" ?>
<gpx xmlns="http://www.topografix.com/GPX/1/1" xmlns:xsi="http://www.w3.org/2001/XMLSchema-instance" xsi:schemaLocation="http://www.topografix.com/GPX/1/1 http://www.topografix.com/GPX/1/1/gpx.xsd" version="1.1" creator="VisuGPX - https://www.visugpx.com">
  <metadata>
    <name>VTT pledran</name>
  </metadata>
  <trk>
    <name><![CDATA[2015-08-26-01_Circuit8]]></name>
    <extensions>
      <line xmlns="http://www.topografix.com/GPX/gpx_style/0/2">
        <color>0000FF</color>
        <width>4</width>
      </line>
    </extensions>
    <trkseg>
      <trkpt lat="48.48913" lon="-2.79326">
        <ele>137.4</ele>
        <time>2015-08-26T15:15:20Z</time>
      </trkpt>
      <trkpt lat="48.48913" lon="-2.79326">
        <ele>137.4</ele>
        <time>2015-08-26T15:15:21Z</time>
      </trkpt>
      <trkpt lat="48.48911" lon="-2.7931">
        <ele>137.1</ele>
        <time>2015-08-26T15:15:30Z</time>
      </trkpt>
      <trkpt lat="48.48912" lon="-2.79294">
        <ele>137</ele>
        <time>2015-08-26T15:15:34Z</time>
      </trkpt>
      <trkpt lat="48.4891" lon="-2.7928">
        <ele>136.6</ele>
        <time>2015-08-26T15:15:40Z</time>
      </trkpt>
      <trkpt lat="48.48912" lon="-2.79265">
        <ele>136.1</ele>
        <time>2015-08-26T15:15:45Z</time>
      </trkpt>
      <trkpt lat="48.48911" lon="-2.79249">
        <ele>135.7</ele>
        <time>2015-08-26T15:15:51Z</time>
      </trkpt>
      <trkpt lat="48.48913" lon="-2.79233">
        <ele>135.4</ele>
        <time>2015-08-26T15:15:55Z</time>
      </trkpt>
      <trkpt lat="48.48922" lon="-2.79227">
        <ele>135</ele>
        <time>2015-08-26T15:15:59Z</time>
      </trkpt>
      <trkpt lat="48.48934" lon="-2.79233">
        <ele>134.7</ele>
        <time>2015-08-26T15:16:03Z</time>
      </trkpt>
      <trkpt lat="48.48944" lon="-2.79238">
        <ele>134.5</ele>
        <time>2015-08-26T15:16:06Z</time>
      </trkpt>
      <trkpt lat="48.48953" lon="-2.79243">
        <ele>134.3</ele>
        <time>2015-08-26T15:16:09Z</time>
      </trkpt>
      <trkpt lat="48.48963" lon="-2.79248">
        <ele>134.1</ele>
        <time>2015-08-26T15:16:12Z</time>
      </trkpt>
      <trkpt lat="48.48972" lon="-2.79253">
        <ele>134</ele>
        <time>2015-08-26T15:16:15Z</time>
      </trkpt>
      <trkpt lat="48.48982" lon="-2.79257">
        <ele>133.9</ele>
        <time>2015-08-26T15:16:18Z</time>
      </trkpt>
      <trkpt lat="48.4899" lon="-2.79261">
        <ele>133.9</ele>
        <time>2015-08-26T15:16:21Z</time>
      </trkpt>
      <trkpt lat="48.48996" lon="-2.79245">
        <ele>133.8</ele>
        <time>2015-08-26T15:16:26Z</time>
      </trkpt>
      <trkpt lat="48.49002" lon="-2.79229">
        <ele>133.7</ele>
        <time>2015-08-26T15:16:29Z</time>
      </trkpt>
      <trkpt lat="48.49006" lon="-2.79216">
        <ele>133.6</ele>
        <time>2015-08-26T15:16:31Z</time>
      </trkpt>
      <trkpt lat="48.49011" lon="-2.79202">
        <ele>133.4</ele>
        <time>2015-08-26T15:16:33Z</time>
      </trkpt>
      <trkpt lat="48.49015" lon="-2.79187">
        <ele>133.2</ele>
        <time>2015-08-26T15:16:35Z</time>
      </trkpt>
      <trkpt lat="48.49021" lon="-2.79169">
        <ele>133</ele>
        <time>2015-08-26T15:16:37Z</time>
      </trkpt>
      <trkpt lat="48.49026" lon="-2.79151">
        <ele>132.7</ele>
        <time>2015-08-26T15:16:39Z</time>
      </trkpt>
      <trkpt lat="48.4903" lon="-2.79131">
        <ele>132.3</ele>
        <time>2015-08-26T15:16:41Z</time>
      </trkpt>
      <trkpt lat="48.49032" lon="-2.79116">
        <ele>132</ele>
        <time>2015-08-26T15:16:43Z</time>
      </trkpt>
      <trkpt lat="48.49033" lon="-2.79098">
        <ele>131.6</ele>
        <time>2015-08-26T15:16:46Z</time>
      </trkpt>
      <trkpt lat="48.49034" lon="-2.79079">
        <ele>131.2</ele>
        <time>2015-08-26T15:16:49Z</time>
      </trkpt>
      <trkpt lat="48.49034" lon="-2.79059">
        <ele>130.9</ele>
        <time>2015-08-26T15:16:52Z</time>
      </trkpt>
      <trkpt lat="48.49035" lon="-2.79044">
        <ele>130.6</ele>
        <time>2015-08-26T15:16:54Z</time>
      </trkpt>
      <trkpt lat="48.49036" lon="-2.79028">
        <ele>130.3</ele>
        <time>2015-08-26T15:16:56Z</time>
      </trkpt>
      <trkpt lat="48.49037" lon="-2.7901">
        <ele>130</ele>
        <time>2015-08-26T15:16:58Z</time>
      </trkpt>
      <trkpt lat="48.49038" lon="-2.78996">
        <ele>129.7</ele>
        <time>2015-08-26T15:17:00Z</time>
      </trkpt>
      <trkpt lat="48.49045" lon="-2.78979">
        <ele>129.1</ele>
        <time>2015-08-26T15:17:03Z</time>
      </trkpt>
      <trkpt lat="48.49052" lon="-2.78966">
        <ele>128.6</ele>
        <time>2015-08-26T15:17:05Z</time>
      </trkpt>
      <trkpt lat="48.49062" lon="-2.78956">
        <ele>128</ele>
        <time>2015-08-26T15:17:07Z</time>
      </trkpt>
      <trkpt lat="48.49072" lon="-2.78951">
        <ele>127.5</ele>
        <time>2015-08-26T15:17:09Z</time>
      </trkpt>
      <trkpt lat="48.49083" lon="-2.78945">
        <ele>127</ele>
        <time>2015-08-26T15:17:11Z</time>
      </trkpt>
      <trkpt lat="48.49093" lon="-2.78934">
        <ele>126.5</ele>
        <time>2015-08-26T15:17:13Z</time>
      </trkpt>
      <trkpt lat="48.49102" lon="-2.78918">
        <ele>126.1</ele>
        <time>2015-08-26T15:17:15Z</time>
      </trkpt>
      <trkpt lat="48.49112" lon="-2.78905">
        <ele>125.6</ele>
        <time>2015-08-26T15:17:17Z</time>
      </trkpt>
      <trkpt lat="48.49126" lon="-2.78898">
        <ele>125.2</ele>
        <time>2015-08-26T15:17:19Z</time>
      </trkpt>
      <trkpt lat="48.4914" lon="-2.78895">
        <ele>124.7</ele>
        <time>2015-08-26T15:17:21Z</time>
      </trkpt>
      <trkpt lat="48.49153" lon="-2.78894">
        <ele>124.2</ele>
        <time>2015-08-26T15:17:23Z</time>
      </trkpt>
      <trkpt lat="48.49167" lon="-2.78894">
        <ele>123.8</ele>
        <time>2015-08-26T15:17:25Z</time>
      </trkpt>
      <trkpt lat="48.49179" lon="-2.78892">
        <ele>123.5</ele>
        <time>2015-08-26T15:17:27Z</time>
      </trkpt>
      <trkpt lat="48.49191" lon="-2.78886">
        <ele>123.1</ele>
        <time>2015-08-26T15:17:29Z</time>
      </trkpt>
      <trkpt lat="48.49203" lon="-2.78879">
        <ele>122.8</ele>
        <time>2015-08-26T15:17:31Z</time>
      </trkpt>
      <trkpt lat="48.49216" lon="-2.78874">
        <ele>122.5</ele>
        <time>2015-08-26T15:17:33Z</time>
      </trkpt>
      <trkpt lat="48.49227" lon="-2.78875">
        <ele>122.3</ele>
        <time>2015-08-26T15:17:35Z</time>
      </trkpt>
      <trkpt lat="48.49236" lon="-2.78876">
        <ele>122.1</ele>
        <time>2015-08-26T15:17:37Z</time>
      </trkpt>
      <trkpt lat="48.49245" lon="-2.78877">
        <ele>121.9</ele>
        <time>2015-08-26T15:17:39Z</time>
      </trkpt>
      <trkpt lat="48.49256" lon="-2.78874">
        <ele>121.7</ele>
        <time>2015-08-26T15:17:41Z</time>
      </trkpt>
      <trkpt lat="48.49265" lon="-2.78856">
        <ele>121.3</ele>
        <time>2015-08-26T15:17:43Z</time>
      </trkpt>
      <trkpt lat="48.49275" lon="-2.78839">
        <ele>120.6</ele>
        <time>2015-08-26T15:17:45Z</time>
      </trkpt>
      <trkpt lat="48.49284" lon="-2.78824">
        <ele>120</ele>
        <time>2015-08-26T15:17:47Z</time>
      </trkpt>
      <trkpt lat="48.49288" lon="-2.78805">
        <ele>119.5</ele>
        <time>2015-08-26T15:17:49Z</time>
      </trkpt>
      <trkpt lat="48.49292" lon="-2.78788">
        <ele>119</ele>
        <time>2015-08-26T15:17:51Z</time>
      </trkpt>
      <trkpt lat="48.49296" lon="-2.7877">
        <ele>118.5</ele>
        <time>2015-08-26T15:17:53Z</time>
      </trkpt>
      <trkpt lat="48.49299" lon="-2.78753">
        <ele>118.1</ele>
        <time>2015-08-26T15:17:55Z</time>
      </trkpt>
      <trkpt lat="48.49303" lon="-2.78736">
        <ele>117.8</ele>
        <time>2015-08-26T15:17:57Z</time>
      </trkpt>
      <trkpt lat="48.49306" lon="-2.7872">
        <ele>117.5</ele>
        <time>2015-08-26T15:17:59Z</time>
      </trkpt>
      <trkpt lat="48.49309" lon="-2.78703">
        <ele>117.2</ele>
        <time>2015-08-26T15:18:01Z</time>
      </trkpt>
      <trkpt lat="48.49312" lon="-2.78686">
        <ele>117</ele>
        <time>2015-08-26T15:18:03Z</time>
      </trkpt>
      <trkpt lat="48.49315" lon="-2.78668">
        <ele>116.8</ele>
        <time>2015-08-26T15:18:05Z</time>
      </trkpt>
      <trkpt lat="48.49318" lon="-2.7865">
        <ele>116.6</ele>
        <time>2015-08-26T15:18:07Z</time>
      </trkpt>
      <trkpt lat="48.4932" lon="-2.78632">
        <ele>116.5</ele>
        <time>2015-08-26T15:18:09Z</time>
      </trkpt>
      <trkpt lat="48.49322" lon="-2.78614">
        <ele>116.4</ele>
        <time>2015-08-26T15:18:11Z</time>
      </trkpt>
      <trkpt lat="48.49324" lon="-2.78597">
        <ele>116.4</ele>
        <time>2015-08-26T15:18:13Z</time>
      </trkpt>
      <trkpt lat="48.49326" lon="-2.78579">
        <ele>116.4</ele>
        <time>2015-08-26T15:18:15Z</time>
      </trkpt>
      <trkpt lat="48.49328" lon="-2.78562">
        <ele>116.4</ele>
        <time>2015-08-26T15:18:17Z</time>
      </trkpt>
      <trkpt lat="48.4933" lon="-2.78544">
        <ele>116.4</ele>
        <time>2015-08-26T15:18:19Z</time>
      </trkpt>
      <trkpt lat="48.49333" lon="-2.78526">
        <ele>116.5</ele>
        <time>2015-08-26T15:18:21Z</time>
      </trkpt>
      <trkpt lat="48.49336" lon="-2.78509">
        <ele>116.6</ele>
        <time>2015-08-26T15:18:23Z</time>
      </trkpt>
      <trkpt lat="48.49338" lon="-2.78492">
        <ele>116.7</ele>
        <time>2015-08-26T15:18:25Z</time>
      </trkpt>
      <trkpt lat="48.4934" lon="-2.78475">
        <ele>116.8</ele>
        <time>2015-08-26T15:18:27Z</time>
      </trkpt>
      <trkpt lat="48.49342" lon="-2.78458">
        <ele>117</ele>
        <time>2015-08-26T15:18:29Z</time>
      </trkpt>
      <trkpt lat="48.49344" lon="-2.78442">
        <ele>117.1</ele>
        <time>2015-08-26T15:18:31Z</time>
      </trkpt>
      <trkpt lat="48.49346" lon="-2.78426">
        <ele>117.3</ele>
        <time>2015-08-26T15:18:33Z</time>
      </trkpt>
      <trkpt lat="48.49348" lon="-2.7841">
        <ele>117.5</ele>
        <time>2015-08-26T15:18:35Z</time>
      </trkpt>
      <trkpt lat="48.4935" lon="-2.78395">
        <ele>117.7</ele>
        <time>2015-08-26T15:18:37Z</time>
      </trkpt>
      <trkpt lat="48.49352" lon="-2.78379">
        <ele>117.8</ele>
        <time>2015-08-26T15:18:39Z</time>
      </trkpt>
      <trkpt lat="48.49355" lon="-2.78363">
        <ele>117.9</ele>
        <time>2015-08-26T15:18:41Z</time>
      </trkpt>
      <trkpt lat="48.49358" lon="-2.78346">
        <ele>118</ele>
        <time>2015-08-26T15:18:43Z</time>
      </trkpt>
      <trkpt lat="48.4936" lon="-2.78329">
        <ele>118.1</ele>
        <time>2015-08-26T15:18:45Z</time>
      </trkpt>
      <trkpt lat="48.49362" lon="-2.78312">
        <ele>118.2</ele>
        <time>2015-08-26T15:18:47Z</time>
      </trkpt>
      <trkpt lat="48.49364" lon="-2.78294">
        <ele>118.2</ele>
        <time>2015-08-26T15:18:49Z</time>
      </trkpt>
      <trkpt lat="48.49366" lon="-2.78277">
        <ele>118.3</ele>
        <time>2015-08-26T15:18:51Z</time>
      </trkpt>
      <trkpt lat="48.49369" lon="-2.78259">
        <ele>118.2</ele>
        <time>2015-08-26T15:18:53Z</time>
      </trkpt>
      <trkpt lat="48.49371" lon="-2.7824">
        <ele>118.1</ele>
        <time>2015-08-26T15:18:55Z</time>
      </trkpt>
      <trkpt lat="48.49373" lon="-2.78221">
        <ele>118</ele>
        <time>2015-08-26T15:18:57Z</time>
      </trkpt>
      <trkpt lat="48.49377" lon="-2.78202">
        <ele>117.9</ele>
        <time>2015-08-26T15:18:59Z</time>
      </trkpt>
      <trkpt lat="48.49379" lon="-2.78182">
        <ele>117.7</ele>
        <time>2015-08-26T15:19:01Z</time>
      </trkpt>
      <trkpt lat="48.49381" lon="-2.78163">
        <ele>117.5</ele>
        <time>2015-08-26T15:19:03Z</time>
      </trkpt>
      <trkpt lat="48.49384" lon="-2.78142">
        <ele>117.3</ele>
        <time>2015-08-26T15:19:05Z</time>
      </trkpt>
      <trkpt lat="48.49386" lon="-2.78122">
        <ele>117</ele>
        <time>2015-08-26T15:19:07Z</time>
      </trkpt>
      <trkpt lat="48.49389" lon="-2.78102">
        <ele>116.8</ele>
        <time>2015-08-26T15:19:09Z</time>
      </trkpt>
      <trkpt lat="48.49392" lon="-2.78081">
        <ele>116.4</ele>
        <time>2015-08-26T15:19:11Z</time>
      </trkpt>
      <trkpt lat="48.49395" lon="-2.7806">
        <ele>116.1</ele>
        <time>2015-08-26T15:19:13Z</time>
      </trkpt>
      <trkpt lat="48.49398" lon="-2.78039">
        <ele>115.8</ele>
        <time>2015-08-26T15:19:15Z</time>
      </trkpt>
      <trkpt lat="48.494" lon="-2.78018">
        <ele>115.4</ele>
        <time>2015-08-26T15:19:17Z</time>
      </trkpt>
      <trkpt lat="48.49402" lon="-2.77996">
        <ele>115.1</ele>
        <time>2015-08-26T15:19:19Z</time>
      </trkpt>
      <trkpt lat="48.49404" lon="-2.77974">
        <ele>114.8</ele>
        <time>2015-08-26T15:19:21Z</time>
      </trkpt>
      <trkpt lat="48.49406" lon="-2.77951">
        <ele>114.3</ele>
        <time>2015-08-26T15:19:23Z</time>
      </trkpt>
      <trkpt lat="48.49407" lon="-2.77929">
        <ele>113.9</ele>
        <time>2015-08-26T15:19:25Z</time>
      </trkpt>
      <trkpt lat="48.49407" lon="-2.77906">
        <ele>113.6</ele>
        <time>2015-08-26T15:19:27Z</time>
      </trkpt>
      <trkpt lat="48.49407" lon="-2.77883">
        <ele>113.2</ele>
        <time>2015-08-26T15:19:29Z</time>
      </trkpt>
      <trkpt lat="48.49407" lon="-2.77861">
        <ele>112.7</ele>
        <time>2015-08-26T15:19:31Z</time>
      </trkpt>
      <trkpt lat="48.49406" lon="-2.77839">
        <ele>112.3</ele>
        <time>2015-08-26T15:19:33Z</time>
      </trkpt>
      <trkpt lat="48.49405" lon="-2.77818">
        <ele>112</ele>
        <time>2015-08-26T15:19:35Z</time>
      </trkpt>
      <trkpt lat="48.49403" lon="-2.77797">
        <ele>111.7</ele>
        <time>2015-08-26T15:19:37Z</time>
      </trkpt>
      <trkpt lat="48.49401" lon="-2.77778">
        <ele>111.4</ele>
        <time>2015-08-26T15:19:39Z</time>
      </trkpt>
      <trkpt lat="48.494" lon="-2.7776">
        <ele>111.2</ele>
        <time>2015-08-26T15:19:41Z</time>
      </trkpt>
      <trkpt lat="48.49394" lon="-2.77745">
        <ele>111</ele>
        <time>2015-08-26T15:19:43Z</time>
      </trkpt>
      <trkpt lat="48.49388" lon="-2.77735">
        <ele>110.8</ele>
        <time>2015-08-26T15:19:45Z</time>
      </trkpt>
      <trkpt lat="48.49382" lon="-2.77724">
        <ele>110.6</ele>
        <time>2015-08-26T15:19:47Z</time>
      </trkpt>
      <trkpt lat="48.49378" lon="-2.77711">
        <ele>110.5</ele>
        <time>2015-08-26T15:19:49Z</time>
      </trkpt>
      <trkpt lat="48.4937" lon="-2.77702">
        <ele>110.3</ele>
        <time>2015-08-26T15:19:51Z</time>
      </trkpt>
      <trkpt lat="48.49359" lon="-2.77697">
        <ele>110.2</ele>
        <time>2015-08-26T15:19:53Z</time>
      </trkpt>
      <trkpt lat="48.49348" lon="-2.77694">
        <ele>109.9</ele>
        <time>2015-08-26T15:19:55Z</time>
      </trkpt>
      <trkpt lat="48.49337" lon="-2.77691">
        <ele>109.7</ele>
        <time>2015-08-26T15:19:57Z</time>
      </trkpt>
      <trkpt lat="48.49326" lon="-2.77687">
        <ele>109.5</ele>
        <time>2015-08-26T15:19:59Z</time>
      </trkpt>
      <trkpt lat="48.49315" lon="-2.77684">
        <ele>109.4</ele>
        <time>2015-08-26T15:20:01Z</time>
      </trkpt>
      <trkpt lat="48.49305" lon="-2.77682">
        <ele>109.2</ele>
        <time>2015-08-26T15:20:03Z</time>
      </trkpt>
      <trkpt lat="48.49294" lon="-2.77683">
        <ele>109.1</ele>
        <time>2015-08-26T15:20:05Z</time>
      </trkpt>
      <trkpt lat="48.49284" lon="-2.77684">
        <ele>109</ele>
        <time>2015-08-26T15:20:07Z</time>
      </trkpt>
      <trkpt lat="48.49273" lon="-2.77686">
        <ele>108.9</ele>
        <time>2015-08-26T15:20:09Z</time>
      </trkpt>
      <trkpt lat="48.49261" lon="-2.77687">
        <ele>108.7</ele>
        <time>2015-08-26T15:20:11Z</time>
      </trkpt>
      <trkpt lat="48.49248" lon="-2.77689">
        <ele>108.5</ele>
        <time>2015-08-26T15:20:13Z</time>
      </trkpt>
      <trkpt lat="48.49236" lon="-2.77689">
        <ele>108.3</ele>
        <time>2015-08-26T15:20:15Z</time>
      </trkpt>
      <trkpt lat="48.49224" lon="-2.77687">
        <ele>108</ele>
        <time>2015-08-26T15:20:17Z</time>
      </trkpt>
      <trkpt lat="48.49213" lon="-2.77684">
        <ele>107.8</ele>
        <time>2015-08-26T15:20:19Z</time>
      </trkpt>
      <trkpt lat="48.49202" lon="-2.77682">
        <ele>107.6</ele>
        <time>2015-08-26T15:20:21Z</time>
      </trkpt>
      <trkpt lat="48.49192" lon="-2.77679">
        <ele>107.4</ele>
        <time>2015-08-26T15:20:23Z</time>
      </trkpt>
      <trkpt lat="48.49183" lon="-2.77676">
        <ele>107.2</ele>
        <time>2015-08-26T15:20:25Z</time>
      </trkpt>
      <trkpt lat="48.49174" lon="-2.77674">
        <ele>107.1</ele>
        <time>2015-08-26T15:20:27Z</time>
      </trkpt>
      <trkpt lat="48.49164" lon="-2.77675">
        <ele>107</ele>
        <time>2015-08-26T15:20:29Z</time>
      </trkpt>
      <trkpt lat="48.49154" lon="-2.77679">
        <ele>106.8</ele>
        <time>2015-08-26T15:20:31Z</time>
      </trkpt>
      <trkpt lat="48.49144" lon="-2.77685">
        <ele>106.7</ele>
        <time>2015-08-26T15:20:33Z</time>
      </trkpt>
      <trkpt lat="48.49135" lon="-2.77693">
        <ele>106.7</ele>
        <time>2015-08-26T15:20:35Z</time>
      </trkpt>
      <trkpt lat="48.49127" lon="-2.77701">
        <ele>106.6</ele>
        <time>2015-08-26T15:20:37Z</time>
      </trkpt>
      <trkpt lat="48.49117" lon="-2.77709">
        <ele>106.5</ele>
        <time>2015-08-26T15:20:39Z</time>
      </trkpt>
      <trkpt lat="48.49109" lon="-2.77718">
        <ele>106.5</ele>
        <time>2015-08-26T15:20:41Z</time>
      </trkpt>
      <trkpt lat="48.49101" lon="-2.77728">
        <ele>106.4</ele>
        <time>2015-08-26T15:20:43Z</time>
      </trkpt>
      <trkpt lat="48.49091" lon="-2.77735">
        <ele>106.4</ele>
        <time>2015-08-26T15:20:45Z</time>
      </trkpt>
      <trkpt lat="48.49081" lon="-2.7774">
        <ele>106.4</ele>
        <time>2015-08-26T15:20:47Z</time>
      </trkpt>
      <trkpt lat="48.49071" lon="-2.77746">
        <ele>106.3</ele>
        <time>2015-08-26T15:20:49Z</time>
      </trkpt>
      <trkpt lat="48.49061" lon="-2.77754">
        <ele>106.3</ele>
        <time>2015-08-26T15:20:51Z</time>
      </trkpt>
      <trkpt lat="48.49052" lon="-2.77762">
        <ele>106.2</ele>
        <time>2015-08-26T15:20:53Z</time>
      </trkpt>
      <trkpt lat="48.49044" lon="-2.77771">
        <ele>106.1</ele>
        <time>2015-08-26T15:20:55Z</time>
      </trkpt>
      <trkpt lat="48.49036" lon="-2.77781">
        <ele>106.1</ele>
        <time>2015-08-26T15:20:57Z</time>
      </trkpt>
      <trkpt lat="48.49029" lon="-2.77791">
        <ele>106</ele>
        <time>2015-08-26T15:20:59Z</time>
      </trkpt>
      <trkpt lat="48.49022" lon="-2.77802">
        <ele>106</ele>
        <time>2015-08-26T15:21:01Z</time>
      </trkpt>
      <trkpt lat="48.49014" lon="-2.77813">
        <ele>106</ele>
        <time>2015-08-26T15:21:03Z</time>
      </trkpt>
      <trkpt lat="48.49006" lon="-2.77823">
        <ele>105.9</ele>
        <time>2015-08-26T15:21:05Z</time>
      </trkpt>
      <trkpt lat="48.48998" lon="-2.77834">
        <ele>105.9</ele>
        <time>2015-08-26T15:21:07Z</time>
      </trkpt>
      <trkpt lat="48.48991" lon="-2.77844">
        <ele>105.9</ele>
        <time>2015-08-26T15:21:09Z</time>
      </trkpt>
      <trkpt lat="48.48982" lon="-2.77853">
        <ele>105.8</ele>
        <time>2015-08-26T15:21:11Z</time>
      </trkpt>
      <trkpt lat="48.48974" lon="-2.77861">
        <ele>105.8</ele>
        <time>2015-08-26T15:21:13Z</time>
      </trkpt>
      <trkpt lat="48.48965" lon="-2.77869">
        <ele>105.8</ele>
        <time>2015-08-26T15:21:15Z</time>
      </trkpt>
      <trkpt lat="48.48957" lon="-2.77876">
        <ele>105.8</ele>
        <time>2015-08-26T15:21:17Z</time>
      </trkpt>
      <trkpt lat="48.48949" lon="-2.77884">
        <ele>105.8</ele>
        <time>2015-08-26T15:21:19Z</time>
      </trkpt>
      <trkpt lat="48.4894" lon="-2.77891">
        <ele>105.8</ele>
        <time>2015-08-26T15:21:21Z</time>
      </trkpt>
      <trkpt lat="48.48932" lon="-2.77899">
        <ele>105.8</ele>
        <time>2015-08-26T15:21:23Z</time>
      </trkpt>
      <trkpt lat="48.48924" lon="-2.77907">
        <ele>105.7</ele>
        <time>2015-08-26T15:21:25Z</time>
      </trkpt>
      <trkpt lat="48.48916" lon="-2.77914">
        <ele>105.8</ele>
        <time>2015-08-26T15:21:27Z</time>
      </trkpt>
      <trkpt lat="48.48906" lon="-2.77925">
        <ele>105.9</ele>
        <time>2015-08-26T15:21:30Z</time>
      </trkpt>
      <trkpt lat="48.48895" lon="-2.77934">
        <ele>105.9</ele>
        <time>2015-08-26T15:21:33Z</time>
      </trkpt>
      <trkpt lat="48.48883" lon="-2.77942">
        <ele>106</ele>
        <time>2015-08-26T15:21:36Z</time>
      </trkpt>
      <trkpt lat="48.48872" lon="-2.77939">
        <ele>106.1</ele>
        <time>2015-08-26T15:21:39Z</time>
      </trkpt>
      <trkpt lat="48.48864" lon="-2.77932">
        <ele>106.1</ele>
        <time>2015-08-26T15:21:41Z</time>
      </trkpt>
      <trkpt lat="48.48856" lon="-2.77925">
        <ele>106.1</ele>
        <time>2015-08-26T15:21:43Z</time>
      </trkpt>
      <trkpt lat="48.48847" lon="-2.77921">
        <ele>106.2</ele>
        <time>2015-08-26T15:21:45Z</time>
      </trkpt>
      <trkpt lat="48.48837" lon="-2.7792">
        <ele>106.3</ele>
        <time>2015-08-26T15:21:47Z</time>
      </trkpt>
      <trkpt lat="48.48827" lon="-2.77923">
        <ele>106.4</ele>
        <time>2015-08-26T15:21:50Z</time>
      </trkpt>
      <trkpt lat="48.48814" lon="-2.77923">
        <ele>106.6</ele>
        <time>2015-08-26T15:21:53Z</time>
      </trkpt>
      <trkpt lat="48.48805" lon="-2.77924">
        <ele>106.8</ele>
        <time>2015-08-26T15:21:55Z</time>
      </trkpt>
      <trkpt lat="48.48792" lon="-2.77925">
        <ele>107.1</ele>
        <time>2015-08-26T15:21:58Z</time>
      </trkpt>
      <trkpt lat="48.48779" lon="-2.77925">
        <ele>107.6</ele>
        <time>2015-08-26T15:22:01Z</time>
      </trkpt>
      <trkpt lat="48.48767" lon="-2.77926">
        <ele>108.1</ele>
        <time>2015-08-26T15:22:04Z</time>
      </trkpt>
      <trkpt lat="48.48755" lon="-2.77926">
        <ele>108.7</ele>
        <time>2015-08-26T15:22:07Z</time>
      </trkpt>
      <trkpt lat="48.48743" lon="-2.77925">
        <ele>109.2</ele>
        <time>2015-08-26T15:22:10Z</time>
      </trkpt>
      <trkpt lat="48.48732" lon="-2.7792">
        <ele>109.8</ele>
        <time>2015-08-26T15:22:13Z</time>
      </trkpt>
      <trkpt lat="48.48722" lon="-2.7791">
        <ele>110.4</ele>
        <time>2015-08-26T15:22:16Z</time>
      </trkpt>
      <trkpt lat="48.48713" lon="-2.77895">
        <ele>111</ele>
        <time>2015-08-26T15:22:19Z</time>
      </trkpt>
      <trkpt lat="48.48705" lon="-2.77879">
        <ele>111.4</ele>
        <time>2015-08-26T15:22:22Z</time>
      </trkpt>
      <trkpt lat="48.48698" lon="-2.77862">
        <ele>111.9</ele>
        <time>2015-08-26T15:22:25Z</time>
      </trkpt>
      <trkpt lat="48.48691" lon="-2.77845">
        <ele>112.3</ele>
        <time>2015-08-26T15:22:28Z</time>
      </trkpt>
      <trkpt lat="48.48686" lon="-2.77834">
        <ele>112.5</ele>
        <time>2015-08-26T15:22:30Z</time>
      </trkpt>
      <trkpt lat="48.48678" lon="-2.77817">
        <ele>113</ele>
        <time>2015-08-26T15:22:33Z</time>
      </trkpt>
      <trkpt lat="48.48671" lon="-2.77799">
        <ele>113.4</ele>
        <time>2015-08-26T15:22:36Z</time>
      </trkpt>
      <trkpt lat="48.48664" lon="-2.77782">
        <ele>113.8</ele>
        <time>2015-08-26T15:22:39Z</time>
      </trkpt>
      <trkpt lat="48.48659" lon="-2.77771">
        <ele>114</ele>
        <time>2015-08-26T15:22:41Z</time>
      </trkpt>
      <trkpt lat="48.48654" lon="-2.7776">
        <ele>114.3</ele>
        <time>2015-08-26T15:22:43Z</time>
      </trkpt>
      <trkpt lat="48.48647" lon="-2.7775">
        <ele>114.5</ele>
        <time>2015-08-26T15:22:45Z</time>
      </trkpt>
      <trkpt lat="48.48641" lon="-2.7774">
        <ele>114.7</ele>
        <time>2015-08-26T15:22:47Z</time>
      </trkpt>
      <trkpt lat="48.48634" lon="-2.7773">
        <ele>114.9</ele>
        <time>2015-08-26T15:22:49Z</time>
      </trkpt>
      <trkpt lat="48.48627" lon="-2.77721">
        <ele>115.1</ele>
        <time>2015-08-26T15:22:51Z</time>
      </trkpt>
      <trkpt lat="48.4862" lon="-2.77713">
        <ele>115.3</ele>
        <time>2015-08-26T15:22:53Z</time>
      </trkpt>
      <trkpt lat="48.48612" lon="-2.77705">
        <ele>115.4</ele>
        <time>2015-08-26T15:22:55Z</time>
      </trkpt>
      <trkpt lat="48.48605" lon="-2.77697">
        <ele>115.6</ele>
        <time>2015-08-26T15:22:57Z</time>
      </trkpt>
      <trkpt lat="48.48597" lon="-2.77687">
        <ele>115.9</ele>
        <time>2015-08-26T15:22:59Z</time>
      </trkpt>
      <trkpt lat="48.48591" lon="-2.77675">
        <ele>116</ele>
        <time>2015-08-26T15:23:01Z</time>
      </trkpt>
      <trkpt lat="48.48585" lon="-2.77664">
        <ele>116.2</ele>
        <time>2015-08-26T15:23:03Z</time>
      </trkpt>
      <trkpt lat="48.48579" lon="-2.77652">
        <ele>116.3</ele>
        <time>2015-08-26T15:23:05Z</time>
      </trkpt>
      <trkpt lat="48.48573" lon="-2.7764">
        <ele>116.5</ele>
        <time>2015-08-26T15:23:07Z</time>
      </trkpt>
      <trkpt lat="48.48567" lon="-2.77628">
        <ele>116.6</ele>
        <time>2015-08-26T15:23:09Z</time>
      </trkpt>
      <trkpt lat="48.4856" lon="-2.77617">
        <ele>116.7</ele>
        <time>2015-08-26T15:23:11Z</time>
      </trkpt>
      <trkpt lat="48.48553" lon="-2.77607">
        <ele>116.8</ele>
        <time>2015-08-26T15:23:13Z</time>
      </trkpt>
      <trkpt lat="48.48544" lon="-2.77592">
        <ele>116.9</ele>
        <time>2015-08-26T15:23:16Z</time>
      </trkpt>
      <trkpt lat="48.48536" lon="-2.77578">
        <ele>117.1</ele>
        <time>2015-08-26T15:23:19Z</time>
      </trkpt>
      <trkpt lat="48.48528" lon="-2.77568">
        <ele>117.3</ele>
        <time>2015-08-26T15:23:23Z</time>
      </trkpt>
      <trkpt lat="48.48521" lon="-2.77553">
        <ele>117.4</ele>
        <time>2015-08-26T15:23:26Z</time>
      </trkpt>
      <trkpt lat="48.48514" lon="-2.77537">
        <ele>117.5</ele>
        <time>2015-08-26T15:23:29Z</time>
      </trkpt>
      <trkpt lat="48.48509" lon="-2.77524">
        <ele>117.6</ele>
        <time>2015-08-26T15:23:31Z</time>
      </trkpt>
      <trkpt lat="48.48504" lon="-2.77512">
        <ele>117.6</ele>
        <time>2015-08-26T15:23:33Z</time>
      </trkpt>
      <trkpt lat="48.48499" lon="-2.77498">
        <ele>117.6</ele>
        <time>2015-08-26T15:23:35Z</time>
      </trkpt>
      <trkpt lat="48.48495" lon="-2.77483">
        <ele>117.7</ele>
        <time>2015-08-26T15:23:37Z</time>
      </trkpt>
      <trkpt lat="48.4849" lon="-2.77468">
        <ele>117.7</ele>
        <time>2015-08-26T15:23:39Z</time>
      </trkpt>
      <trkpt lat="48.48485" lon="-2.77451">
        <ele>117.5</ele>
        <time>2015-08-26T15:23:41Z</time>
      </trkpt>
      <trkpt lat="48.4848" lon="-2.77433">
        <ele>117.4</ele>
        <time>2015-08-26T15:23:43Z</time>
      </trkpt>
      <trkpt lat="48.48475" lon="-2.77413">
        <ele>117.2</ele>
        <time>2015-08-26T15:23:45Z</time>
      </trkpt>
      <trkpt lat="48.4847" lon="-2.77393">
        <ele>116.8</ele>
        <time>2015-08-26T15:23:47Z</time>
      </trkpt>
      <trkpt lat="48.48464" lon="-2.7737">
        <ele>116.4</ele>
        <time>2015-08-26T15:23:49Z</time>
      </trkpt>
      <trkpt lat="48.48458" lon="-2.77347">
        <ele>116</ele>
        <time>2015-08-26T15:23:51Z</time>
      </trkpt>
      <trkpt lat="48.48451" lon="-2.77325">
        <ele>115.5</ele>
        <time>2015-08-26T15:23:53Z</time>
      </trkpt>
      <trkpt lat="48.48441" lon="-2.77307">
        <ele>115.1</ele>
        <time>2015-08-26T15:23:55Z</time>
      </trkpt>
      <trkpt lat="48.48429" lon="-2.77296">
        <ele>114.6</ele>
        <time>2015-08-26T15:23:57Z</time>
      </trkpt>
      <trkpt lat="48.48417" lon="-2.77292">
        <ele>114.2</ele>
        <time>2015-08-26T15:23:59Z</time>
      </trkpt>
      <trkpt lat="48.48405" lon="-2.77292">
        <ele>113.9</ele>
        <time>2015-08-26T15:24:01Z</time>
      </trkpt>
      <trkpt lat="48.48394" lon="-2.77293">
        <ele>113.8</ele>
        <time>2015-08-26T15:24:03Z</time>
      </trkpt>
      <trkpt lat="48.48383" lon="-2.77294">
        <ele>113.6</ele>
        <time>2015-08-26T15:24:05Z</time>
      </trkpt>
      <trkpt lat="48.48373" lon="-2.77295">
        <ele>113.5</ele>
        <time>2015-08-26T15:24:07Z</time>
      </trkpt>
      <trkpt lat="48.48363" lon="-2.77296">
        <ele>113.4</ele>
        <time>2015-08-26T15:24:09Z</time>
      </trkpt>
      <trkpt lat="48.48353" lon="-2.77295">
        <ele>113.4</ele>
        <time>2015-08-26T15:24:11Z</time>
      </trkpt>
      <trkpt lat="48.48343" lon="-2.77293">
        <ele>113.4</ele>
        <time>2015-08-26T15:24:13Z</time>
      </trkpt>
      <trkpt lat="48.48334" lon="-2.7729">
        <ele>113.5</ele>
        <time>2015-08-26T15:24:15Z</time>
      </trkpt>
      <trkpt lat="48.48326" lon="-2.77285">
        <ele>113.6</ele>
        <time>2015-08-26T15:24:17Z</time>
      </trkpt>
      <trkpt lat="48.48317" lon="-2.77279">
        <ele>113.8</ele>
        <time>2015-08-26T15:24:19Z</time>
      </trkpt>
      <trkpt lat="48.48309" lon="-2.77271">
        <ele>113.9</ele>
        <time>2015-08-26T15:24:21Z</time>
      </trkpt>
      <trkpt lat="48.483" lon="-2.77265">
        <ele>114.1</ele>
        <time>2015-08-26T15:24:23Z</time>
      </trkpt>
      <trkpt lat="48.48291" lon="-2.77259">
        <ele>114.3</ele>
        <time>2015-08-26T15:24:25Z</time>
      </trkpt>
      <trkpt lat="48.48282" lon="-2.77254">
        <ele>114.5</ele>
        <time>2015-08-26T15:24:27Z</time>
      </trkpt>
      <trkpt lat="48.48273" lon="-2.77249">
        <ele>114.7</ele>
        <time>2015-08-26T15:24:29Z</time>
      </trkpt>
      <trkpt lat="48.48261" lon="-2.77243">
        <ele>115</ele>
        <time>2015-08-26T15:24:32Z</time>
      </trkpt>
      <trkpt lat="48.48252" lon="-2.77239">
        <ele>115.2</ele>
        <time>2015-08-26T15:24:35Z</time>
      </trkpt>
      <trkpt lat="48.4824" lon="-2.77236">
        <ele>115.6</ele>
        <time>2015-08-26T15:24:39Z</time>
      </trkpt>
      <trkpt lat="48.4823" lon="-2.77234">
        <ele>116.2</ele>
        <time>2015-08-26T15:24:43Z</time>
      </trkpt>
      <trkpt lat="48.4822" lon="-2.77242">
        <ele>117.1</ele>
        <time>2015-08-26T15:24:50Z</time>
      </trkpt>
      <trkpt lat="48.48212" lon="-2.77251">
        <ele>117.4</ele>
        <time>2015-08-26T15:24:53Z</time>
      </trkpt>
      <trkpt lat="48.48204" lon="-2.77259">
        <ele>117.7</ele>
        <time>2015-08-26T15:24:56Z</time>
      </trkpt>
      <trkpt lat="48.48193" lon="-2.77266">
        <ele>117.9</ele>
        <time>2015-08-26T15:24:59Z</time>
      </trkpt>
      <trkpt lat="48.48181" lon="-2.77274">
        <ele>118.1</ele>
        <time>2015-08-26T15:25:02Z</time>
      </trkpt>
      <trkpt lat="48.48173" lon="-2.77279">
        <ele>118.2</ele>
        <time>2015-08-26T15:25:04Z</time>
      </trkpt>
      <trkpt lat="48.48163" lon="-2.77283">
        <ele>118.2</ele>
        <time>2015-08-26T15:25:06Z</time>
      </trkpt>
      <trkpt lat="48.48154" lon="-2.77286">
        <ele>118.3</ele>
        <time>2015-08-26T15:25:08Z</time>
      </trkpt>
      <trkpt lat="48.48144" lon="-2.77289">
        <ele>118.3</ele>
        <time>2015-08-26T15:25:10Z</time>
      </trkpt>
      <trkpt lat="48.48135" lon="-2.77292">
        <ele>118.3</ele>
        <time>2015-08-26T15:25:12Z</time>
      </trkpt>
      <trkpt lat="48.48125" lon="-2.77295">
        <ele>118.4</ele>
        <time>2015-08-26T15:25:14Z</time>
      </trkpt>
      <trkpt lat="48.48116" lon="-2.77297">
        <ele>118.4</ele>
        <time>2015-08-26T15:25:16Z</time>
      </trkpt>
      <trkpt lat="48.48107" lon="-2.77299">
        <ele>118.4</ele>
        <time>2015-08-26T15:25:18Z</time>
      </trkpt>
      <trkpt lat="48.48097" lon="-2.77301">
        <ele>118.4</ele>
        <time>2015-08-26T15:25:20Z</time>
      </trkpt>
      <trkpt lat="48.48087" lon="-2.773">
        <ele>118.4</ele>
        <time>2015-08-26T15:25:22Z</time>
      </trkpt>
      <trkpt lat="48.48078" lon="-2.77297">
        <ele>118.3</ele>
        <time>2015-08-26T15:25:24Z</time>
      </trkpt>
      <trkpt lat="48.48069" lon="-2.77291">
        <ele>118.3</ele>
        <time>2015-08-26T15:25:26Z</time>
      </trkpt>
      <trkpt lat="48.48062" lon="-2.77284">
        <ele>118.3</ele>
        <time>2015-08-26T15:25:28Z</time>
      </trkpt>
      <trkpt lat="48.48054" lon="-2.77276">
        <ele>118.3</ele>
        <time>2015-08-26T15:25:30Z</time>
      </trkpt>
      <trkpt lat="48.48044" lon="-2.77264">
        <ele>118.4</ele>
        <time>2015-08-26T15:25:33Z</time>
      </trkpt>
      <trkpt lat="48.48035" lon="-2.77252">
        <ele>118.6</ele>
        <time>2015-08-26T15:25:36Z</time>
      </trkpt>
      <trkpt lat="48.48026" lon="-2.77239">
        <ele>118.9</ele>
        <time>2015-08-26T15:25:39Z</time>
      </trkpt>
      <trkpt lat="48.48018" lon="-2.77228">
        <ele>119.2</ele>
        <time>2015-08-26T15:25:42Z</time>
      </trkpt>
      <trkpt lat="48.48009" lon="-2.77215">
        <ele>119.7</ele>
        <time>2015-08-26T15:25:45Z</time>
      </trkpt>
      <trkpt lat="48.48001" lon="-2.77202">
        <ele>120.1</ele>
        <time>2015-08-26T15:25:48Z</time>
      </trkpt>
      <trkpt lat="48.47993" lon="-2.77189">
        <ele>120.7</ele>
        <time>2015-08-26T15:25:51Z</time>
      </trkpt>
      <trkpt lat="48.47983" lon="-2.77175">
        <ele>121.1</ele>
        <time>2015-08-26T15:25:54Z</time>
      </trkpt>
      <trkpt lat="48.47974" lon="-2.77161">
        <ele>121.5</ele>
        <time>2015-08-26T15:25:57Z</time>
      </trkpt>
      <trkpt lat="48.47966" lon="-2.77153">
        <ele>121.7</ele>
        <time>2015-08-26T15:25:59Z</time>
      </trkpt>
      <trkpt lat="48.47958" lon="-2.77145">
        <ele>121.9</ele>
        <time>2015-08-26T15:26:01Z</time>
      </trkpt>
      <trkpt lat="48.4795" lon="-2.77139">
        <ele>122.1</ele>
        <time>2015-08-26T15:26:03Z</time>
      </trkpt>
      <trkpt lat="48.47941" lon="-2.77133">
        <ele>122.3</ele>
        <time>2015-08-26T15:26:05Z</time>
      </trkpt>
      <trkpt lat="48.47933" lon="-2.77129">
        <ele>122.5</ele>
        <time>2015-08-26T15:26:07Z</time>
      </trkpt>
      <trkpt lat="48.4792" lon="-2.77125">
        <ele>122.7</ele>
        <time>2015-08-26T15:26:10Z</time>
      </trkpt>
      <trkpt lat="48.47911" lon="-2.77112">
        <ele>122.9</ele>
        <time>2015-08-26T15:26:13Z</time>
      </trkpt>
      <trkpt lat="48.47911" lon="-2.77098">
        <ele>123</ele>
        <time>2015-08-26T15:26:15Z</time>
      </trkpt>
      <trkpt lat="48.47914" lon="-2.77084">
        <ele>123.1</ele>
        <time>2015-08-26T15:26:17Z</time>
      </trkpt>
      <trkpt lat="48.47919" lon="-2.77071">
        <ele>123.2</ele>
        <time>2015-08-26T15:26:19Z</time>
      </trkpt>
      <trkpt lat="48.47924" lon="-2.77058">
        <ele>123.4</ele>
        <time>2015-08-26T15:26:21Z</time>
      </trkpt>
      <trkpt lat="48.47929" lon="-2.77045">
        <ele>123.6</ele>
        <time>2015-08-26T15:26:23Z</time>
      </trkpt>
      <trkpt lat="48.47934" lon="-2.77033">
        <ele>123.7</ele>
        <time>2015-08-26T15:26:25Z</time>
      </trkpt>
      <trkpt lat="48.47939" lon="-2.7702">
        <ele>123.9</ele>
        <time>2015-08-26T15:26:27Z</time>
      </trkpt>
      <trkpt lat="48.47944" lon="-2.77008">
        <ele>124.1</ele>
        <time>2015-08-26T15:26:29Z</time>
      </trkpt>
      <trkpt lat="48.4795" lon="-2.76996">
        <ele>124.5</ele>
        <time>2015-08-26T15:26:31Z</time>
      </trkpt>
      <trkpt lat="48.47955" lon="-2.76983">
        <ele>124.8</ele>
        <time>2015-08-26T15:26:33Z</time>
      </trkpt>
      <trkpt lat="48.4796" lon="-2.76971">
        <ele>125</ele>
        <time>2015-08-26T15:26:35Z</time>
      </trkpt>
      <trkpt lat="48.47966" lon="-2.76959">
        <ele>125.3</ele>
        <time>2015-08-26T15:26:37Z</time>
      </trkpt>
      <trkpt lat="48.47971" lon="-2.76946">
        <ele>125.6</ele>
        <time>2015-08-26T15:26:39Z</time>
      </trkpt>
      <trkpt lat="48.47976" lon="-2.76934">
        <ele>125.8</ele>
        <time>2015-08-26T15:26:41Z</time>
      </trkpt>
      <trkpt lat="48.47981" lon="-2.76922">
        <ele>126</ele>
        <time>2015-08-26T15:26:43Z</time>
      </trkpt>
      <trkpt lat="48.47986" lon="-2.7691">
        <ele>126.3</ele>
        <time>2015-08-26T15:26:45Z</time>
      </trkpt>
      <trkpt lat="48.47991" lon="-2.76898">
        <ele>126.5</ele>
        <time>2015-08-26T15:26:47Z</time>
      </trkpt>
      <trkpt lat="48.47996" lon="-2.76885">
        <ele>126.8</ele>
        <time>2015-08-26T15:26:49Z</time>
      </trkpt>
      <trkpt lat="48.48001" lon="-2.76873">
        <ele>127</ele>
        <time>2015-08-26T15:26:51Z</time>
      </trkpt>
      <trkpt lat="48.48005" lon="-2.7686">
        <ele>127.3</ele>
        <time>2015-08-26T15:26:53Z</time>
      </trkpt>
      <trkpt lat="48.48009" lon="-2.76846">
        <ele>127.6</ele>
        <time>2015-08-26T15:26:55Z</time>
      </trkpt>
      <trkpt lat="48.48012" lon="-2.76831">
        <ele>127.8</ele>
        <time>2015-08-26T15:26:57Z</time>
      </trkpt>
      <trkpt lat="48.48013" lon="-2.76816">
        <ele>128.1</ele>
        <time>2015-08-26T15:26:59Z</time>
      </trkpt>
      <trkpt lat="48.48014" lon="-2.76801">
        <ele>128.4</ele>
        <time>2015-08-26T15:27:01Z</time>
      </trkpt>
      <trkpt lat="48.48013" lon="-2.76787">
        <ele>128.7</ele>
        <time>2015-08-26T15:27:03Z</time>
      </trkpt>
      <trkpt lat="48.48012" lon="-2.76772">
        <ele>128.9</ele>
        <time>2015-08-26T15:27:05Z</time>
      </trkpt>
      <trkpt lat="48.4801" lon="-2.76758">
        <ele>129.2</ele>
        <time>2015-08-26T15:27:07Z</time>
      </trkpt>
      <trkpt lat="48.48008" lon="-2.76743">
        <ele>129.4</ele>
        <time>2015-08-26T15:27:09Z</time>
      </trkpt>
      <trkpt lat="48.48005" lon="-2.76729">
        <ele>129.7</ele>
        <time>2015-08-26T15:27:11Z</time>
      </trkpt>
      <trkpt lat="48.48002" lon="-2.76714">
        <ele>129.9</ele>
        <time>2015-08-26T15:27:13Z</time>
      </trkpt>
      <trkpt lat="48.48" lon="-2.767">
        <ele>130.1</ele>
        <time>2015-08-26T15:27:15Z</time>
      </trkpt>
      <trkpt lat="48.47997" lon="-2.76685">
        <ele>130.3</ele>
        <time>2015-08-26T15:27:17Z</time>
      </trkpt>
      <trkpt lat="48.47994" lon="-2.7667">
        <ele>130.5</ele>
        <time>2015-08-26T15:27:19Z</time>
      </trkpt>
      <trkpt lat="48.47991" lon="-2.76655">
        <ele>130.7</ele>
        <time>2015-08-26T15:27:21Z</time>
      </trkpt>
      <trkpt lat="48.47988" lon="-2.76641">
        <ele>130.9</ele>
        <time>2015-08-26T15:27:23Z</time>
      </trkpt>
      <trkpt lat="48.47984" lon="-2.76627">
        <ele>131.2</ele>
        <time>2015-08-26T15:27:25Z</time>
      </trkpt>
      <trkpt lat="48.47979" lon="-2.76613">
        <ele>131.4</ele>
        <time>2015-08-26T15:27:27Z</time>
      </trkpt>
      <trkpt lat="48.47974" lon="-2.766">
        <ele>131.6</ele>
        <time>2015-08-26T15:27:29Z</time>
      </trkpt>
      <trkpt lat="48.47967" lon="-2.76589">
        <ele>131.8</ele>
        <time>2015-08-26T15:27:31Z</time>
      </trkpt>
      <trkpt lat="48.4796" lon="-2.76578">
        <ele>131.9</ele>
        <time>2015-08-26T15:27:33Z</time>
      </trkpt>
      <trkpt lat="48.47952" lon="-2.76569">
        <ele>132.1</ele>
        <time>2015-08-26T15:27:35Z</time>
      </trkpt>
      <trkpt lat="48.47944" lon="-2.7656">
        <ele>132.2</ele>
        <time>2015-08-26T15:27:37Z</time>
      </trkpt>
      <trkpt lat="48.47935" lon="-2.76551">
        <ele>132.3</ele>
        <time>2015-08-26T15:27:39Z</time>
      </trkpt>
      <trkpt lat="48.47927" lon="-2.76543">
        <ele>132.5</ele>
        <time>2015-08-26T15:27:41Z</time>
      </trkpt>
      <trkpt lat="48.47919" lon="-2.76534">
        <ele>132.6</ele>
        <time>2015-08-26T15:27:43Z</time>
      </trkpt>
      <trkpt lat="48.47911" lon="-2.76525">
        <ele>132.8</ele>
        <time>2015-08-26T15:27:45Z</time>
      </trkpt>
      <trkpt lat="48.47904" lon="-2.76514">
        <ele>133</ele>
        <time>2015-08-26T15:27:47Z</time>
      </trkpt>
      <trkpt lat="48.47899" lon="-2.76502">
        <ele>133.1</ele>
        <time>2015-08-26T15:27:49Z</time>
      </trkpt>
      <trkpt lat="48.47894" lon="-2.76489">
        <ele>133.3</ele>
        <time>2015-08-26T15:27:51Z</time>
      </trkpt>
      <trkpt lat="48.47891" lon="-2.76474">
        <ele>133.4</ele>
        <time>2015-08-26T15:27:53Z</time>
      </trkpt>
      <trkpt lat="48.47888" lon="-2.76459">
        <ele>133.6</ele>
        <time>2015-08-26T15:27:55Z</time>
      </trkpt>
      <trkpt lat="48.47886" lon="-2.76445">
        <ele>133.7</ele>
        <time>2015-08-26T15:27:57Z</time>
      </trkpt>
      <trkpt lat="48.47883" lon="-2.7643">
        <ele>133.8</ele>
        <time>2015-08-26T15:27:59Z</time>
      </trkpt>
      <trkpt lat="48.47879" lon="-2.76416">
        <ele>133.8</ele>
        <time>2015-08-26T15:28:01Z</time>
      </trkpt>
      <trkpt lat="48.47873" lon="-2.76405">
        <ele>134</ele>
        <time>2015-08-26T15:28:03Z</time>
      </trkpt>
      <trkpt lat="48.47864" lon="-2.76397">
        <ele>134.1</ele>
        <time>2015-08-26T15:28:05Z</time>
      </trkpt>
      <trkpt lat="48.47855" lon="-2.76391">
        <ele>134.2</ele>
        <time>2015-08-26T15:28:07Z</time>
      </trkpt>
      <trkpt lat="48.47847" lon="-2.76385">
        <ele>134.4</ele>
        <time>2015-08-26T15:28:09Z</time>
      </trkpt>
      <trkpt lat="48.47838" lon="-2.76377">
        <ele>134.5</ele>
        <time>2015-08-26T15:28:11Z</time>
      </trkpt>
      <trkpt lat="48.47829" lon="-2.76369">
        <ele>134.6</ele>
        <time>2015-08-26T15:28:13Z</time>
      </trkpt>
      <trkpt lat="48.47822" lon="-2.7636">
        <ele>134.8</ele>
        <time>2015-08-26T15:28:15Z</time>
      </trkpt>
      <trkpt lat="48.47816" lon="-2.76348">
        <ele>134.9</ele>
        <time>2015-08-26T15:28:17Z</time>
      </trkpt>
      <trkpt lat="48.4781" lon="-2.76336">
        <ele>135</ele>
        <time>2015-08-26T15:28:19Z</time>
      </trkpt>
      <trkpt lat="48.47806" lon="-2.76322">
        <ele>135.1</ele>
        <time>2015-08-26T15:28:21Z</time>
      </trkpt>
      <trkpt lat="48.47803" lon="-2.76307">
        <ele>135.3</ele>
        <time>2015-08-26T15:28:23Z</time>
      </trkpt>
      <trkpt lat="48.478" lon="-2.76292">
        <ele>135.3</ele>
        <time>2015-08-26T15:28:25Z</time>
      </trkpt>
      <trkpt lat="48.47798" lon="-2.76276">
        <ele>135.4</ele>
        <time>2015-08-26T15:28:27Z</time>
      </trkpt>
      <trkpt lat="48.47796" lon="-2.76259">
        <ele>135.5</ele>
        <time>2015-08-26T15:28:29Z</time>
      </trkpt>
      <trkpt lat="48.47794" lon="-2.76242">
        <ele>135.6</ele>
        <time>2015-08-26T15:28:31Z</time>
      </trkpt>
      <trkpt lat="48.47791" lon="-2.76224">
        <ele>135.6</ele>
        <time>2015-08-26T15:28:33Z</time>
      </trkpt>
      <trkpt lat="48.47789" lon="-2.76206">
        <ele>135.7</ele>
        <time>2015-08-26T15:28:35Z</time>
      </trkpt>
      <trkpt lat="48.47787" lon="-2.76187">
        <ele>135.7</ele>
        <time>2015-08-26T15:28:37Z</time>
      </trkpt>
      <trkpt lat="48.47785" lon="-2.76168">
        <ele>135.7</ele>
        <time>2015-08-26T15:28:39Z</time>
      </trkpt>
      <trkpt lat="48.47783" lon="-2.7615">
        <ele>135.6</ele>
        <time>2015-08-26T15:28:41Z</time>
      </trkpt>
      <trkpt lat="48.47781" lon="-2.76132">
        <ele>135.5</ele>
        <time>2015-08-26T15:28:43Z</time>
      </trkpt>
      <trkpt lat="48.47779" lon="-2.76113">
        <ele>135.5</ele>
        <time>2015-08-26T15:28:45Z</time>
      </trkpt>
      <trkpt lat="48.47777" lon="-2.76095">
        <ele>135.4</ele>
        <time>2015-08-26T15:28:47Z</time>
      </trkpt>
      <trkpt lat="48.47775" lon="-2.76077">
        <ele>135.2</ele>
        <time>2015-08-26T15:28:49Z</time>
      </trkpt>
      <trkpt lat="48.47773" lon="-2.76059">
        <ele>135</ele>
        <time>2015-08-26T15:28:51Z</time>
      </trkpt>
      <trkpt lat="48.47772" lon="-2.76041">
        <ele>134.8</ele>
        <time>2015-08-26T15:28:53Z</time>
      </trkpt>
      <trkpt lat="48.47771" lon="-2.76024">
        <ele>134.6</ele>
        <time>2015-08-26T15:28:55Z</time>
      </trkpt>
      <trkpt lat="48.47768" lon="-2.76011">
        <ele>134.4</ele>
        <time>2015-08-26T15:28:57Z</time>
      </trkpt>
      <trkpt lat="48.47759" lon="-2.76004">
        <ele>134.2</ele>
        <time>2015-08-26T15:28:59Z</time>
      </trkpt>
      <trkpt lat="48.47749" lon="-2.76002">
        <ele>134.1</ele>
        <time>2015-08-26T15:29:01Z</time>
      </trkpt>
      <trkpt lat="48.47739" lon="-2.76">
        <ele>133.9</ele>
        <time>2015-08-26T15:29:03Z</time>
      </trkpt>
      <trkpt lat="48.47729" lon="-2.75997">
        <ele>133.8</ele>
        <time>2015-08-26T15:29:05Z</time>
      </trkpt>
      <trkpt lat="48.47719" lon="-2.75995">
        <ele>133.7</ele>
        <time>2015-08-26T15:29:07Z</time>
      </trkpt>
      <trkpt lat="48.47708" lon="-2.75993">
        <ele>133.5</ele>
        <time>2015-08-26T15:29:09Z</time>
      </trkpt>
      <trkpt lat="48.47698" lon="-2.75991">
        <ele>133.4</ele>
        <time>2015-08-26T15:29:11Z</time>
      </trkpt>
      <trkpt lat="48.47687" lon="-2.75997">
        <ele>133</ele>
        <time>2015-08-26T15:29:14Z</time>
      </trkpt>
      <trkpt lat="48.47688" lon="-2.76017">
        <ele>132.5</ele>
        <time>2015-08-26T15:29:17Z</time>
      </trkpt>
      <trkpt lat="48.47691" lon="-2.76031">
        <ele>132.2</ele>
        <time>2015-08-26T15:29:19Z</time>
      </trkpt>
      <trkpt lat="48.47694" lon="-2.76046">
        <ele>132</ele>
        <time>2015-08-26T15:29:21Z</time>
      </trkpt>
      <trkpt lat="48.47696" lon="-2.7606">
        <ele>131.7</ele>
        <time>2015-08-26T15:29:23Z</time>
      </trkpt>
      <trkpt lat="48.47698" lon="-2.76075">
        <ele>131.5</ele>
        <time>2015-08-26T15:29:25Z</time>
      </trkpt>
      <trkpt lat="48.47699" lon="-2.76088">
        <ele>131.3</ele>
        <time>2015-08-26T15:29:27Z</time>
      </trkpt>
      <trkpt lat="48.47701" lon="-2.76107">
        <ele>131.1</ele>
        <time>2015-08-26T15:29:30Z</time>
      </trkpt>
      <trkpt lat="48.47703" lon="-2.76126">
        <ele>131</ele>
        <time>2015-08-26T15:29:33Z</time>
      </trkpt>
      <trkpt lat="48.47705" lon="-2.76143">
        <ele>131.1</ele>
        <time>2015-08-26T15:29:36Z</time>
      </trkpt>
      <trkpt lat="48.47707" lon="-2.76162">
        <ele>131.2</ele>
        <time>2015-08-26T15:29:39Z</time>
      </trkpt>
      <trkpt lat="48.47709" lon="-2.7618">
        <ele>131.3</ele>
        <time>2015-08-26T15:29:42Z</time>
      </trkpt>
      <trkpt lat="48.47711" lon="-2.76198">
        <ele>131.6</ele>
        <time>2015-08-26T15:29:45Z</time>
      </trkpt>
      <trkpt lat="48.47713" lon="-2.76217">
        <ele>131.9</ele>
        <time>2015-08-26T15:29:48Z</time>
      </trkpt>
      <trkpt lat="48.47715" lon="-2.76236">
        <ele>132.2</ele>
        <time>2015-08-26T15:29:51Z</time>
      </trkpt>
      <trkpt lat="48.47717" lon="-2.76255">
        <ele>132.6</ele>
        <time>2015-08-26T15:29:54Z</time>
      </trkpt>
      <trkpt lat="48.47719" lon="-2.76273">
        <ele>133.1</ele>
        <time>2015-08-26T15:29:57Z</time>
      </trkpt>
      <trkpt lat="48.47722" lon="-2.76291">
        <ele>133.6</ele>
        <time>2015-08-26T15:30:00Z</time>
      </trkpt>
      <trkpt lat="48.47724" lon="-2.76309">
        <ele>134.1</ele>
        <time>2015-08-26T15:30:03Z</time>
      </trkpt>
      <trkpt lat="48.47727" lon="-2.76328">
        <ele>134.6</ele>
        <time>2015-08-26T15:30:06Z</time>
      </trkpt>
      <trkpt lat="48.4773" lon="-2.76348">
        <ele>135</ele>
        <time>2015-08-26T15:30:09Z</time>
      </trkpt>
      <trkpt lat="48.47732" lon="-2.76362">
        <ele>135.2</ele>
        <time>2015-08-26T15:30:11Z</time>
      </trkpt>
      <trkpt lat="48.47734" lon="-2.76376">
        <ele>135.5</ele>
        <time>2015-08-26T15:30:13Z</time>
      </trkpt>
      <trkpt lat="48.47736" lon="-2.76391">
        <ele>135.7</ele>
        <time>2015-08-26T15:30:15Z</time>
      </trkpt>
      <trkpt lat="48.47739" lon="-2.76407">
        <ele>135.8</ele>
        <time>2015-08-26T15:30:17Z</time>
      </trkpt>
      <trkpt lat="48.47741" lon="-2.76423">
        <ele>136</ele>
        <time>2015-08-26T15:30:19Z</time>
      </trkpt>
      <trkpt lat="48.47744" lon="-2.76439">
        <ele>136.1</ele>
        <time>2015-08-26T15:30:21Z</time>
      </trkpt>
      <trkpt lat="48.47746" lon="-2.76455">
        <ele>136.1</ele>
        <time>2015-08-26T15:30:23Z</time>
      </trkpt>
      <trkpt lat="48.47749" lon="-2.76471">
        <ele>136.1</ele>
        <time>2015-08-26T15:30:25Z</time>
      </trkpt>
      <trkpt lat="48.4775" lon="-2.76487">
        <ele>136.1</ele>
        <time>2015-08-26T15:30:27Z</time>
      </trkpt>
      <trkpt lat="48.47752" lon="-2.76503">
        <ele>136</ele>
        <time>2015-08-26T15:30:29Z</time>
      </trkpt>
      <trkpt lat="48.47753" lon="-2.7652">
        <ele>135.9</ele>
        <time>2015-08-26T15:30:31Z</time>
      </trkpt>
      <trkpt lat="48.47753" lon="-2.76537">
        <ele>135.8</ele>
        <time>2015-08-26T15:30:33Z</time>
      </trkpt>
      <trkpt lat="48.47754" lon="-2.76554">
        <ele>135.7</ele>
        <time>2015-08-26T15:30:35Z</time>
      </trkpt>
      <trkpt lat="48.47754" lon="-2.76571">
        <ele>135.6</ele>
        <time>2015-08-26T15:30:37Z</time>
      </trkpt>
      <trkpt lat="48.47754" lon="-2.76586">
        <ele>135.4</ele>
        <time>2015-08-26T15:30:39Z</time>
      </trkpt>
      <trkpt lat="48.47754" lon="-2.76605">
        <ele>135.3</ele>
        <time>2015-08-26T15:30:42Z</time>
      </trkpt>
      <trkpt lat="48.47755" lon="-2.76626">
        <ele>135.1</ele>
        <time>2015-08-26T15:30:45Z</time>
      </trkpt>
      <trkpt lat="48.47754" lon="-2.7664">
        <ele>135</ele>
        <time>2015-08-26T15:30:47Z</time>
      </trkpt>
      <trkpt lat="48.47754" lon="-2.76655">
        <ele>134.9</ele>
        <time>2015-08-26T15:30:49Z</time>
      </trkpt>
      <trkpt lat="48.47753" lon="-2.76669">
        <ele>134.8</ele>
        <time>2015-08-26T15:30:51Z</time>
      </trkpt>
      <trkpt lat="48.47752" lon="-2.76684">
        <ele>134.7</ele>
        <time>2015-08-26T15:30:53Z</time>
      </trkpt>
      <trkpt lat="48.4775" lon="-2.76698">
        <ele>134.7</ele>
        <time>2015-08-26T15:30:55Z</time>
      </trkpt>
      <trkpt lat="48.47747" lon="-2.76711">
        <ele>134.6</ele>
        <time>2015-08-26T15:30:57Z</time>
      </trkpt>
      <trkpt lat="48.47744" lon="-2.76724">
        <ele>134.5</ele>
        <time>2015-08-26T15:30:59Z</time>
      </trkpt>
      <trkpt lat="48.47741" lon="-2.76737">
        <ele>134.5</ele>
        <time>2015-08-26T15:31:01Z</time>
      </trkpt>
      <trkpt lat="48.47737" lon="-2.7675">
        <ele>134.5</ele>
        <time>2015-08-26T15:31:03Z</time>
      </trkpt>
      <trkpt lat="48.47733" lon="-2.76763">
        <ele>134.4</ele>
        <time>2015-08-26T15:31:05Z</time>
      </trkpt>
      <trkpt lat="48.47728" lon="-2.76775">
        <ele>134.4</ele>
        <time>2015-08-26T15:31:07Z</time>
      </trkpt>
      <trkpt lat="48.47723" lon="-2.76787">
        <ele>134.4</ele>
        <time>2015-08-26T15:31:09Z</time>
      </trkpt>
      <trkpt lat="48.47717" lon="-2.76798">
        <ele>134.3</ele>
        <time>2015-08-26T15:31:11Z</time>
      </trkpt>
      <trkpt lat="48.47711" lon="-2.76808">
        <ele>134.3</ele>
        <time>2015-08-26T15:31:13Z</time>
      </trkpt>
      <trkpt lat="48.47702" lon="-2.76823">
        <ele>134.3</ele>
        <time>2015-08-26T15:31:16Z</time>
      </trkpt>
      <trkpt lat="48.4769" lon="-2.76833">
        <ele>134.3</ele>
        <time>2015-08-26T15:31:19Z</time>
      </trkpt>
      <trkpt lat="48.47678" lon="-2.7684">
        <ele>134.3</ele>
        <time>2015-08-26T15:31:22Z</time>
      </trkpt>
      <trkpt lat="48.47666" lon="-2.76841">
        <ele>134.2</ele>
        <time>2015-08-26T15:31:25Z</time>
      </trkpt>
      <trkpt lat="48.47655" lon="-2.76835">
        <ele>134.2</ele>
        <time>2015-08-26T15:31:28Z</time>
      </trkpt>
      <trkpt lat="48.47643" lon="-2.76828">
        <ele>134.2</ele>
        <time>2015-08-26T15:31:31Z</time>
      </trkpt>
      <trkpt lat="48.47632" lon="-2.76822">
        <ele>134.2</ele>
        <time>2015-08-26T15:31:34Z</time>
      </trkpt>
      <trkpt lat="48.4762" lon="-2.76816">
        <ele>134.2</ele>
        <time>2015-08-26T15:31:37Z</time>
      </trkpt>
      <trkpt lat="48.47608" lon="-2.76811">
        <ele>134.2</ele>
        <time>2015-08-26T15:31:40Z</time>
      </trkpt>
      <trkpt lat="48.47597" lon="-2.76804">
        <ele>134.2</ele>
        <time>2015-08-26T15:31:43Z</time>
      </trkpt>
      <trkpt lat="48.47587" lon="-2.76796">
        <ele>134.2</ele>
        <time>2015-08-26T15:31:46Z</time>
      </trkpt>
      <trkpt lat="48.47578" lon="-2.76788">
        <ele>134.2</ele>
        <time>2015-08-26T15:31:49Z</time>
      </trkpt>
      <trkpt lat="48.47569" lon="-2.76782">
        <ele>134.2</ele>
        <time>2015-08-26T15:31:51Z</time>
      </trkpt>
      <trkpt lat="48.47561" lon="-2.76777">
        <ele>134.2</ele>
        <time>2015-08-26T15:31:53Z</time>
      </trkpt>
      <trkpt lat="48.47552" lon="-2.76772">
        <ele>134.1</ele>
        <time>2015-08-26T15:31:55Z</time>
      </trkpt>
      <trkpt lat="48.47543" lon="-2.76767">
        <ele>134.1</ele>
        <time>2015-08-26T15:31:57Z</time>
      </trkpt>
      <trkpt lat="48.47534" lon="-2.76761">
        <ele>134</ele>
        <time>2015-08-26T15:31:59Z</time>
      </trkpt>
      <trkpt lat="48.47522" lon="-2.76755">
        <ele>133.7</ele>
        <time>2015-08-26T15:32:02Z</time>
      </trkpt>
      <trkpt lat="48.47513" lon="-2.7675">
        <ele>133.5</ele>
        <time>2015-08-26T15:32:04Z</time>
      </trkpt>
      <trkpt lat="48.47503" lon="-2.76745">
        <ele>133.3</ele>
        <time>2015-08-26T15:32:06Z</time>
      </trkpt>
      <trkpt lat="48.47493" lon="-2.76739">
        <ele>133.2</ele>
        <time>2015-08-26T15:32:08Z</time>
      </trkpt>
      <trkpt lat="48.47483" lon="-2.76733">
        <ele>133</ele>
        <time>2015-08-26T15:32:10Z</time>
      </trkpt>
      <trkpt lat="48.47473" lon="-2.76726">
        <ele>132.7</ele>
        <time>2015-08-26T15:32:12Z</time>
      </trkpt>
      <trkpt lat="48.47463" lon="-2.76717">
        <ele>132.5</ele>
        <time>2015-08-26T15:32:14Z</time>
      </trkpt>
      <trkpt lat="48.47453" lon="-2.76707">
        <ele>132.2</ele>
        <time>2015-08-26T15:32:16Z</time>
      </trkpt>
      <trkpt lat="48.47441" lon="-2.76697">
        <ele>131.8</ele>
        <time>2015-08-26T15:32:18Z</time>
      </trkpt>
      <trkpt lat="48.4743" lon="-2.7669">
        <ele>131.4</ele>
        <time>2015-08-26T15:32:20Z</time>
      </trkpt>
      <trkpt lat="48.47418" lon="-2.76683">
        <ele>131.1</ele>
        <time>2015-08-26T15:32:22Z</time>
      </trkpt>
      <trkpt lat="48.47408" lon="-2.76679">
        <ele>130.7</ele>
        <time>2015-08-26T15:32:24Z</time>
      </trkpt>
      <trkpt lat="48.474" lon="-2.76666">
        <ele>130.1</ele>
        <time>2015-08-26T15:32:27Z</time>
      </trkpt>
      <trkpt lat="48.474" lon="-2.76648">
        <ele>129.6</ele>
        <time>2015-08-26T15:32:30Z</time>
      </trkpt>
      <trkpt lat="48.474" lon="-2.76627">
        <ele>129.1</ele>
        <time>2015-08-26T15:32:33Z</time>
      </trkpt>
      <trkpt lat="48.47398" lon="-2.76612">
        <ele>128.8</ele>
        <time>2015-08-26T15:32:35Z</time>
      </trkpt>
      <trkpt lat="48.47395" lon="-2.76596">
        <ele>128.6</ele>
        <time>2015-08-26T15:32:37Z</time>
      </trkpt>
      <trkpt lat="48.47392" lon="-2.76579">
        <ele>128.3</ele>
        <time>2015-08-26T15:32:39Z</time>
      </trkpt>
      <trkpt lat="48.47388" lon="-2.76562">
        <ele>128.1</ele>
        <time>2015-08-26T15:32:41Z</time>
      </trkpt>
      <trkpt lat="48.47386" lon="-2.76546">
        <ele>127.9</ele>
        <time>2015-08-26T15:32:43Z</time>
      </trkpt>
      <trkpt lat="48.47385" lon="-2.76529">
        <ele>127.7</ele>
        <time>2015-08-26T15:32:45Z</time>
      </trkpt>
      <trkpt lat="48.47385" lon="-2.76514">
        <ele>127.5</ele>
        <time>2015-08-26T15:32:47Z</time>
      </trkpt>
      <trkpt lat="48.47386" lon="-2.76498">
        <ele>127.3</ele>
        <time>2015-08-26T15:32:49Z</time>
      </trkpt>
      <trkpt lat="48.47387" lon="-2.76482">
        <ele>127.2</ele>
        <time>2015-08-26T15:32:51Z</time>
      </trkpt>
      <trkpt lat="48.47388" lon="-2.76466">
        <ele>127</ele>
        <time>2015-08-26T15:32:53Z</time>
      </trkpt>
      <trkpt lat="48.4739" lon="-2.7645">
        <ele>126.9</ele>
        <time>2015-08-26T15:32:55Z</time>
      </trkpt>
      <trkpt lat="48.47392" lon="-2.76434">
        <ele>126.7</ele>
        <time>2015-08-26T15:32:57Z</time>
      </trkpt>
      <trkpt lat="48.47391" lon="-2.76418">
        <ele>126.6</ele>
        <time>2015-08-26T15:32:59Z</time>
      </trkpt>
      <trkpt lat="48.47389" lon="-2.764">
        <ele>126.4</ele>
        <time>2015-08-26T15:33:01Z</time>
      </trkpt>
      <trkpt lat="48.47388" lon="-2.7638">
        <ele>126.1</ele>
        <time>2015-08-26T15:33:03Z</time>
      </trkpt>
      <trkpt lat="48.47388" lon="-2.7636">
        <ele>125.8</ele>
        <time>2015-08-26T15:33:05Z</time>
      </trkpt>
      <trkpt lat="48.47384" lon="-2.76339">
        <ele>125.3</ele>
        <time>2015-08-26T15:33:07Z</time>
      </trkpt>
      <trkpt lat="48.47377" lon="-2.76318">
        <ele>124.8</ele>
        <time>2015-08-26T15:33:09Z</time>
      </trkpt>
      <trkpt lat="48.47368" lon="-2.76299">
        <ele>124.3</ele>
        <time>2015-08-26T15:33:11Z</time>
      </trkpt>
      <trkpt lat="48.47356" lon="-2.76282">
        <ele>123.6</ele>
        <time>2015-08-26T15:33:13Z</time>
      </trkpt>
      <trkpt lat="48.47345" lon="-2.76265">
        <ele>122.9</ele>
        <time>2015-08-26T15:33:15Z</time>
      </trkpt>
      <trkpt lat="48.47334" lon="-2.76248">
        <ele>122.2</ele>
        <time>2015-08-26T15:33:17Z</time>
      </trkpt>
      <trkpt lat="48.47324" lon="-2.76229">
        <ele>121.4</ele>
        <time>2015-08-26T15:33:19Z</time>
      </trkpt>
      <trkpt lat="48.47315" lon="-2.7621">
        <ele>120.6</ele>
        <time>2015-08-26T15:33:21Z</time>
      </trkpt>
      <trkpt lat="48.47306" lon="-2.76192">
        <ele>119.8</ele>
        <time>2015-08-26T15:33:23Z</time>
      </trkpt>
      <trkpt lat="48.47301" lon="-2.76172">
        <ele>119.1</ele>
        <time>2015-08-26T15:33:25Z</time>
      </trkpt>
      <trkpt lat="48.47298" lon="-2.76152">
        <ele>118.3</ele>
        <time>2015-08-26T15:33:27Z</time>
      </trkpt>
      <trkpt lat="48.47296" lon="-2.76133">
        <ele>117.7</ele>
        <time>2015-08-26T15:33:29Z</time>
      </trkpt>
      <trkpt lat="48.47295" lon="-2.76117">
        <ele>117.2</ele>
        <time>2015-08-26T15:33:31Z</time>
      </trkpt>
      <trkpt lat="48.47293" lon="-2.76103">
        <ele>116.7</ele>
        <time>2015-08-26T15:33:33Z</time>
      </trkpt>
      <trkpt lat="48.47284" lon="-2.76097">
        <ele>116.1</ele>
        <time>2015-08-26T15:33:36Z</time>
      </trkpt>
      <trkpt lat="48.4727" lon="-2.76092">
        <ele>115.6</ele>
        <time>2015-08-26T15:33:39Z</time>
      </trkpt>
      <trkpt lat="48.4726" lon="-2.76087">
        <ele>115.3</ele>
        <time>2015-08-26T15:33:41Z</time>
      </trkpt>
      <trkpt lat="48.47249" lon="-2.76083">
        <ele>115</ele>
        <time>2015-08-26T15:33:43Z</time>
      </trkpt>
      <trkpt lat="48.47238" lon="-2.76078">
        <ele>114.7</ele>
        <time>2015-08-26T15:33:45Z</time>
      </trkpt>
      <trkpt lat="48.47227" lon="-2.76073">
        <ele>114.4</ele>
        <time>2015-08-26T15:33:47Z</time>
      </trkpt>
      <trkpt lat="48.47215" lon="-2.76068">
        <ele>114</ele>
        <time>2015-08-26T15:33:49Z</time>
      </trkpt>
      <trkpt lat="48.47203" lon="-2.76063">
        <ele>113.7</ele>
        <time>2015-08-26T15:33:51Z</time>
      </trkpt>
      <trkpt lat="48.47192" lon="-2.76058">
        <ele>113.3</ele>
        <time>2015-08-26T15:33:53Z</time>
      </trkpt>
      <trkpt lat="48.4718" lon="-2.76053">
        <ele>112.9</ele>
        <time>2015-08-26T15:33:55Z</time>
      </trkpt>
      <trkpt lat="48.47169" lon="-2.76046">
        <ele>112.6</ele>
        <time>2015-08-26T15:33:57Z</time>
      </trkpt>
      <trkpt lat="48.47159" lon="-2.76037">
        <ele>112.3</ele>
        <time>2015-08-26T15:33:59Z</time>
      </trkpt>
      <trkpt lat="48.47149" lon="-2.76026">
        <ele>112</ele>
        <time>2015-08-26T15:34:01Z</time>
      </trkpt>
      <trkpt lat="48.47141" lon="-2.76019">
        <ele>111.7</ele>
        <time>2015-08-26T15:34:03Z</time>
      </trkpt>
      <trkpt lat="48.47131" lon="-2.76026">
        <ele>111.1</ele>
        <time>2015-08-26T15:34:07Z</time>
      </trkpt>
      <trkpt lat="48.47123" lon="-2.76041">
        <ele>110.8</ele>
        <time>2015-08-26T15:34:10Z</time>
      </trkpt>
      <trkpt lat="48.47116" lon="-2.76053">
        <ele>110.6</ele>
        <time>2015-08-26T15:34:12Z</time>
      </trkpt>
      <trkpt lat="48.47109" lon="-2.76062">
        <ele>110.5</ele>
        <time>2015-08-26T15:34:14Z</time>
      </trkpt>
      <trkpt lat="48.47097" lon="-2.76068">
        <ele>110.3</ele>
        <time>2015-08-26T15:34:17Z</time>
      </trkpt>
      <trkpt lat="48.47085" lon="-2.76065">
        <ele>110.1</ele>
        <time>2015-08-26T15:34:20Z</time>
      </trkpt>
      <trkpt lat="48.47076" lon="-2.76059">
        <ele>110</ele>
        <time>2015-08-26T15:34:22Z</time>
      </trkpt>
      <trkpt lat="48.47065" lon="-2.76057">
        <ele>109.9</ele>
        <time>2015-08-26T15:34:24Z</time>
      </trkpt>
      <trkpt lat="48.47054" lon="-2.76065">
        <ele>109.7</ele>
        <time>2015-08-26T15:34:27Z</time>
      </trkpt>
      <trkpt lat="48.47047" lon="-2.76075">
        <ele>109.8</ele>
        <time>2015-08-26T15:34:31Z</time>
      </trkpt>
      <trkpt lat="48.47038" lon="-2.76073">
        <ele>110.2</ele>
        <time>2015-08-26T15:34:35Z</time>
      </trkpt>
      <trkpt lat="48.47027" lon="-2.76069">
        <ele>110.5</ele>
        <time>2015-08-26T15:34:38Z</time>
      </trkpt>
      <trkpt lat="48.47019" lon="-2.76062">
        <ele>110.9</ele>
        <time>2015-08-26T15:34:42Z</time>
      </trkpt>
      <trkpt lat="48.4702" lon="-2.76048">
        <ele>111.3</ele>
        <time>2015-08-26T15:34:46Z</time>
      </trkpt>
      <trkpt lat="48.47018" lon="-2.76029">
        <ele>111.5</ele>
        <time>2015-08-26T15:34:49Z</time>
      </trkpt>
      <trkpt lat="48.47009" lon="-2.76021">
        <ele>111.6</ele>
        <time>2015-08-26T15:34:51Z</time>
      </trkpt>
      <trkpt lat="48.46998" lon="-2.76019">
        <ele>111.6</ele>
        <time>2015-08-26T15:34:53Z</time>
      </trkpt>
      <trkpt lat="48.46988" lon="-2.76023">
        <ele>111.6</ele>
        <time>2015-08-26T15:34:55Z</time>
      </trkpt>
      <trkpt lat="48.46979" lon="-2.76028">
        <ele>111.5</ele>
        <time>2015-08-26T15:34:57Z</time>
      </trkpt>
      <trkpt lat="48.4697" lon="-2.76035">
        <ele>111.4</ele>
        <time>2015-08-26T15:34:59Z</time>
      </trkpt>
      <trkpt lat="48.46962" lon="-2.76042">
        <ele>111.4</ele>
        <time>2015-08-26T15:35:01Z</time>
      </trkpt>
      <trkpt lat="48.46957" lon="-2.76053">
        <ele>111.3</ele>
        <time>2015-08-26T15:35:03Z</time>
      </trkpt>
      <trkpt lat="48.46955" lon="-2.76067">
        <ele>111.5</ele>
        <time>2015-08-26T15:35:05Z</time>
      </trkpt>
      <trkpt lat="48.46949" lon="-2.76083">
        <ele>111.8</ele>
        <time>2015-08-26T15:35:08Z</time>
      </trkpt>
      <trkpt lat="48.46941" lon="-2.76095">
        <ele>112.2</ele>
        <time>2015-08-26T15:35:11Z</time>
      </trkpt>
      <trkpt lat="48.46936" lon="-2.76107">
        <ele>112.7</ele>
        <time>2015-08-26T15:35:14Z</time>
      </trkpt>
      <trkpt lat="48.46929" lon="-2.76116">
        <ele>113.3</ele>
        <time>2015-08-26T15:35:17Z</time>
      </trkpt>
      <trkpt lat="48.46921" lon="-2.76124">
        <ele>113.9</ele>
        <time>2015-08-26T15:35:20Z</time>
      </trkpt>
      <trkpt lat="48.46915" lon="-2.76133">
        <ele>114.4</ele>
        <time>2015-08-26T15:35:23Z</time>
      </trkpt>
      <trkpt lat="48.46905" lon="-2.76128">
        <ele>114.9</ele>
        <time>2015-08-26T15:35:26Z</time>
      </trkpt>
      <trkpt lat="48.46901" lon="-2.76116">
        <ele>115.1</ele>
        <time>2015-08-26T15:35:28Z</time>
      </trkpt>
      <trkpt lat="48.46896" lon="-2.76102">
        <ele>115.3</ele>
        <time>2015-08-26T15:35:30Z</time>
      </trkpt>
      <trkpt lat="48.46894" lon="-2.76084">
        <ele>115.3</ele>
        <time>2015-08-26T15:35:33Z</time>
      </trkpt>
      <trkpt lat="48.46898" lon="-2.76071">
        <ele>115.3</ele>
        <time>2015-08-26T15:35:35Z</time>
      </trkpt>
      <trkpt lat="48.46902" lon="-2.76055">
        <ele>115</ele>
        <time>2015-08-26T15:35:37Z</time>
      </trkpt>
      <trkpt lat="48.46904" lon="-2.76033">
        <ele>114.5</ele>
        <time>2015-08-26T15:35:39Z</time>
      </trkpt>
      <trkpt lat="48.46903" lon="-2.76009">
        <ele>113.8</ele>
        <time>2015-08-26T15:35:41Z</time>
      </trkpt>
      <trkpt lat="48.469" lon="-2.75984">
        <ele>113</ele>
        <time>2015-08-26T15:35:43Z</time>
      </trkpt>
      <trkpt lat="48.46898" lon="-2.75966">
        <ele>112</ele>
        <time>2015-08-26T15:35:45Z</time>
      </trkpt>
      <trkpt lat="48.46893" lon="-2.75951">
        <ele>111.1</ele>
        <time>2015-08-26T15:35:47Z</time>
      </trkpt>
      <trkpt lat="48.46886" lon="-2.75934">
        <ele>110.1</ele>
        <time>2015-08-26T15:35:49Z</time>
      </trkpt>
      <trkpt lat="48.46879" lon="-2.75917">
        <ele>108.9</ele>
        <time>2015-08-26T15:35:51Z</time>
      </trkpt>
      <trkpt lat="48.46875" lon="-2.75897">
        <ele>107.8</ele>
        <time>2015-08-26T15:35:53Z</time>
      </trkpt>
      <trkpt lat="48.4687" lon="-2.75875">
        <ele>106.7</ele>
        <time>2015-08-26T15:35:55Z</time>
      </trkpt>
      <trkpt lat="48.46863" lon="-2.75855">
        <ele>105.7</ele>
        <time>2015-08-26T15:35:57Z</time>
      </trkpt>
      <trkpt lat="48.46855" lon="-2.75839">
        <ele>104.8</ele>
        <time>2015-08-26T15:35:59Z</time>
      </trkpt>
      <trkpt lat="48.46851" lon="-2.7582">
        <ele>103.8</ele>
        <time>2015-08-26T15:36:01Z</time>
      </trkpt>
      <trkpt lat="48.46848" lon="-2.75805">
        <ele>103</ele>
        <time>2015-08-26T15:36:03Z</time>
      </trkpt>
      <trkpt lat="48.46845" lon="-2.75791">
        <ele>102.6</ele>
        <time>2015-08-26T15:36:04Z</time>
      </trkpt>
      <trkpt lat="48.46847" lon="-2.75764">
        <ele>101.9</ele>
        <time>2015-08-26T15:36:06Z</time>
      </trkpt>
      <trkpt lat="48.46842" lon="-2.75737">
        <ele>101</ele>
        <time>2015-08-26T15:36:08Z</time>
      </trkpt>
      <trkpt lat="48.46839" lon="-2.75716">
        <ele>100.2</ele>
        <time>2015-08-26T15:36:10Z</time>
      </trkpt>
      <trkpt lat="48.46836" lon="-2.75691">
        <ele>99.5</ele>
        <time>2015-08-26T15:36:12Z</time>
      </trkpt>
      <trkpt lat="48.46832" lon="-2.75677">
        <ele>99.1</ele>
        <time>2015-08-26T15:36:13Z</time>
      </trkpt>
      <trkpt lat="48.46829" lon="-2.75663">
        <ele>98.8</ele>
        <time>2015-08-26T15:36:14Z</time>
      </trkpt>
      <trkpt lat="48.46826" lon="-2.75642">
        <ele>98.2</ele>
        <time>2015-08-26T15:36:16Z</time>
      </trkpt>
      <trkpt lat="48.46827" lon="-2.7562">
        <ele>97.5</ele>
        <time>2015-08-26T15:36:18Z</time>
      </trkpt>
      <trkpt lat="48.46829" lon="-2.75607">
        <ele>97.2</ele>
        <time>2015-08-26T15:36:19Z</time>
      </trkpt>
      <trkpt lat="48.46835" lon="-2.75582">
        <ele>96.6</ele>
        <time>2015-08-26T15:36:21Z</time>
      </trkpt>
      <trkpt lat="48.46835" lon="-2.75559">
        <ele>95.9</ele>
        <time>2015-08-26T15:36:23Z</time>
      </trkpt>
      <trkpt lat="48.46836" lon="-2.75542">
        <ele>95.3</ele>
        <time>2015-08-26T15:36:25Z</time>
      </trkpt>
      <trkpt lat="48.46835" lon="-2.75524">
        <ele>94.2</ele>
        <time>2015-08-26T15:36:29Z</time>
      </trkpt>
      <trkpt lat="48.46829" lon="-2.75514">
        <ele>92.9</ele>
        <time>2015-08-26T15:36:34Z</time>
      </trkpt>
      <trkpt lat="48.46823" lon="-2.75504">
        <ele>91.9</ele>
        <time>2015-08-26T15:36:39Z</time>
      </trkpt>
      <trkpt lat="48.46814" lon="-2.75497">
        <ele>91.3</ele>
        <time>2015-08-26T15:36:47Z</time>
      </trkpt>
      <trkpt lat="48.46806" lon="-2.75491">
        <ele>91.7</ele>
        <time>2015-08-26T15:36:57Z</time>
      </trkpt>
      <trkpt lat="48.46796" lon="-2.75487">
        <ele>92.3</ele>
        <time>2015-08-26T15:37:05Z</time>
      </trkpt>
      <trkpt lat="48.46787" lon="-2.7548">
        <ele>92.9</ele>
        <time>2015-08-26T15:37:10Z</time>
      </trkpt>
      <trkpt lat="48.46777" lon="-2.75473">
        <ele>93.5</ele>
        <time>2015-08-26T15:37:15Z</time>
      </trkpt>
      <trkpt lat="48.46769" lon="-2.75465">
        <ele>94.1</ele>
        <time>2015-08-26T15:37:22Z</time>
      </trkpt>
      <trkpt lat="48.4676" lon="-2.75457">
        <ele>94.3</ele>
        <time>2015-08-26T15:37:26Z</time>
      </trkpt>
      <trkpt lat="48.4675" lon="-2.75451">
        <ele>94.4</ele>
        <time>2015-08-26T15:37:30Z</time>
      </trkpt>
      <trkpt lat="48.46748" lon="-2.75435">
        <ele>94.5</ele>
        <time>2015-08-26T15:37:33Z</time>
      </trkpt>
      <trkpt lat="48.46746" lon="-2.75417">
        <ele>94.3</ele>
        <time>2015-08-26T15:37:35Z</time>
      </trkpt>
      <trkpt lat="48.46742" lon="-2.75396">
        <ele>94.1</ele>
        <time>2015-08-26T15:37:37Z</time>
      </trkpt>
      <trkpt lat="48.46736" lon="-2.7537">
        <ele>93.6</ele>
        <time>2015-08-26T15:37:39Z</time>
      </trkpt>
      <trkpt lat="48.46733" lon="-2.75357">
        <ele>93.3</ele>
        <time>2015-08-26T15:37:40Z</time>
      </trkpt>
      <trkpt lat="48.4673" lon="-2.75343">
        <ele>92.9</ele>
        <time>2015-08-26T15:37:41Z</time>
      </trkpt>
      <trkpt lat="48.46727" lon="-2.75328">
        <ele>92.5</ele>
        <time>2015-08-26T15:37:42Z</time>
      </trkpt>
      <trkpt lat="48.46725" lon="-2.75313">
        <ele>92</ele>
        <time>2015-08-26T15:37:43Z</time>
      </trkpt>
      <trkpt lat="48.46723" lon="-2.75297">
        <ele>91.6</ele>
        <time>2015-08-26T15:37:44Z</time>
      </trkpt>
      <trkpt lat="48.46722" lon="-2.7528">
        <ele>91</ele>
        <time>2015-08-26T15:37:45Z</time>
      </trkpt>
      <trkpt lat="48.46723" lon="-2.75263">
        <ele>90.5</ele>
        <time>2015-08-26T15:37:46Z</time>
      </trkpt>
      <trkpt lat="48.46724" lon="-2.75249">
        <ele>90</ele>
        <time>2015-08-26T15:37:47Z</time>
      </trkpt>
      <trkpt lat="48.46724" lon="-2.75232">
        <ele>88.9</ele>
        <time>2015-08-26T15:37:49Z</time>
      </trkpt>
      <trkpt lat="48.46718" lon="-2.75245">
        <ele>85.6</ele>
        <time>2015-08-26T15:37:57Z</time>
      </trkpt>
      <trkpt lat="48.4671" lon="-2.75255">
        <ele>84.6</ele>
        <time>2015-08-26T15:38:00Z</time>
      </trkpt>
      <trkpt lat="48.46704" lon="-2.75265">
        <ele>84.1</ele>
        <time>2015-08-26T15:38:02Z</time>
      </trkpt>
      <trkpt lat="48.46697" lon="-2.75276">
        <ele>83.6</ele>
        <time>2015-08-26T15:38:04Z</time>
      </trkpt>
      <trkpt lat="48.4669" lon="-2.7529">
        <ele>83</ele>
        <time>2015-08-26T15:38:07Z</time>
      </trkpt>
      <trkpt lat="48.46683" lon="-2.75308">
        <ele>82.4</ele>
        <time>2015-08-26T15:38:10Z</time>
      </trkpt>
      <trkpt lat="48.46677" lon="-2.75319">
        <ele>82.1</ele>
        <time>2015-08-26T15:38:12Z</time>
      </trkpt>
      <trkpt lat="48.4667" lon="-2.75333">
        <ele>81.9</ele>
        <time>2015-08-26T15:38:14Z</time>
      </trkpt>
      <trkpt lat="48.46662" lon="-2.75346">
        <ele>81.6</ele>
        <time>2015-08-26T15:38:16Z</time>
      </trkpt>
      <trkpt lat="48.46653" lon="-2.75357">
        <ele>81.4</ele>
        <time>2015-08-26T15:38:18Z</time>
      </trkpt>
      <trkpt lat="48.46645" lon="-2.75366">
        <ele>81.2</ele>
        <time>2015-08-26T15:38:20Z</time>
      </trkpt>
      <trkpt lat="48.46636" lon="-2.75375">
        <ele>81</ele>
        <time>2015-08-26T15:38:22Z</time>
      </trkpt>
      <trkpt lat="48.46627" lon="-2.75386">
        <ele>80.9</ele>
        <time>2015-08-26T15:38:24Z</time>
      </trkpt>
      <trkpt lat="48.46617" lon="-2.75395">
        <ele>80.7</ele>
        <time>2015-08-26T15:38:26Z</time>
      </trkpt>
      <trkpt lat="48.46603" lon="-2.75402">
        <ele>80.6</ele>
        <time>2015-08-26T15:38:28Z</time>
      </trkpt>
      <trkpt lat="48.46594" lon="-2.7541">
        <ele>80.5</ele>
        <time>2015-08-26T15:38:30Z</time>
      </trkpt>
      <trkpt lat="48.46585" lon="-2.75411">
        <ele>80.4</ele>
        <time>2015-08-26T15:38:32Z</time>
      </trkpt>
      <trkpt lat="48.46575" lon="-2.75409">
        <ele>80.2</ele>
        <time>2015-08-26T15:38:34Z</time>
      </trkpt>
      <trkpt lat="48.46565" lon="-2.75407">
        <ele>80</ele>
        <time>2015-08-26T15:38:38Z</time>
      </trkpt>
      <trkpt lat="48.46556" lon="-2.754">
        <ele>79.8</ele>
        <time>2015-08-26T15:38:42Z</time>
      </trkpt>
      <trkpt lat="48.46547" lon="-2.75399">
        <ele>79.7</ele>
        <time>2015-08-26T15:38:45Z</time>
      </trkpt>
      <trkpt lat="48.46536" lon="-2.75395">
        <ele>79.6</ele>
        <time>2015-08-26T15:38:48Z</time>
      </trkpt>
      <trkpt lat="48.46525" lon="-2.75388">
        <ele>79.6</ele>
        <time>2015-08-26T15:38:51Z</time>
      </trkpt>
      <trkpt lat="48.46515" lon="-2.75378">
        <ele>79.7</ele>
        <time>2015-08-26T15:38:54Z</time>
      </trkpt>
      <trkpt lat="48.46506" lon="-2.75369">
        <ele>80</ele>
        <time>2015-08-26T15:38:57Z</time>
      </trkpt>
      <trkpt lat="48.46497" lon="-2.75359">
        <ele>80.5</ele>
        <time>2015-08-26T15:39:00Z</time>
      </trkpt>
      <trkpt lat="48.46489" lon="-2.75351">
        <ele>81.2</ele>
        <time>2015-08-26T15:39:03Z</time>
      </trkpt>
      <trkpt lat="48.46479" lon="-2.75344">
        <ele>85.3</ele>
        <time>2015-08-26T15:39:24Z</time>
      </trkpt>
      <trkpt lat="48.46471" lon="-2.75331">
        <ele>85.6</ele>
        <time>2015-08-26T15:39:28Z</time>
      </trkpt>
      <trkpt lat="48.46463" lon="-2.7532">
        <ele>86</ele>
        <time>2015-08-26T15:39:32Z</time>
      </trkpt>
      <trkpt lat="48.46456" lon="-2.7531">
        <ele>86.8</ele>
        <time>2015-08-26T15:39:37Z</time>
      </trkpt>
      <trkpt lat="48.46446" lon="-2.75302">
        <ele>87.6</ele>
        <time>2015-08-26T15:39:42Z</time>
      </trkpt>
      <trkpt lat="48.46438" lon="-2.75297">
        <ele>88.4</ele>
        <time>2015-08-26T15:39:46Z</time>
      </trkpt>
      <trkpt lat="48.46427" lon="-2.75293">
        <ele>89.4</ele>
        <time>2015-08-26T15:39:51Z</time>
      </trkpt>
      <trkpt lat="48.46418" lon="-2.75289">
        <ele>90.2</ele>
        <time>2015-08-26T15:39:55Z</time>
      </trkpt>
      <trkpt lat="48.46409" lon="-2.75285">
        <ele>91.2</ele>
        <time>2015-08-26T15:39:59Z</time>
      </trkpt>
      <trkpt lat="48.46399" lon="-2.75282">
        <ele>92.2</ele>
        <time>2015-08-26T15:40:03Z</time>
      </trkpt>
      <trkpt lat="48.4639" lon="-2.75277">
        <ele>93.1</ele>
        <time>2015-08-26T15:40:07Z</time>
      </trkpt>
      <trkpt lat="48.46381" lon="-2.75272">
        <ele>94</ele>
        <time>2015-08-26T15:40:11Z</time>
      </trkpt>
      <trkpt lat="48.46372" lon="-2.75267">
        <ele>95</ele>
        <time>2015-08-26T15:40:15Z</time>
      </trkpt>
      <trkpt lat="48.46364" lon="-2.75261">
        <ele>95.9</ele>
        <time>2015-08-26T15:40:19Z</time>
      </trkpt>
      <trkpt lat="48.46354" lon="-2.75254">
        <ele>97.3</ele>
        <time>2015-08-26T15:40:24Z</time>
      </trkpt>
      <trkpt lat="48.46345" lon="-2.75249">
        <ele>98.3</ele>
        <time>2015-08-26T15:40:28Z</time>
      </trkpt>
      <trkpt lat="48.46337" lon="-2.75242">
        <ele>99.5</ele>
        <time>2015-08-26T15:40:32Z</time>
      </trkpt>
      <trkpt lat="48.46329" lon="-2.75237">
        <ele>100.7</ele>
        <time>2015-08-26T15:40:36Z</time>
      </trkpt>
      <trkpt lat="48.46319" lon="-2.75229">
        <ele>101.9</ele>
        <time>2015-08-26T15:40:41Z</time>
      </trkpt>
      <trkpt lat="48.46309" lon="-2.75221">
        <ele>103.1</ele>
        <time>2015-08-26T15:40:46Z</time>
      </trkpt>
      <trkpt lat="48.463" lon="-2.75216">
        <ele>104.5</ele>
        <time>2015-08-26T15:40:51Z</time>
      </trkpt>
      <trkpt lat="48.46291" lon="-2.7521">
        <ele>105.9</ele>
        <time>2015-08-26T15:40:56Z</time>
      </trkpt>
      <trkpt lat="48.46284" lon="-2.75201">
        <ele>108</ele>
        <time>2015-08-26T15:41:04Z</time>
      </trkpt>
      <trkpt lat="48.46275" lon="-2.75191">
        <ele>110.2</ele>
        <time>2015-08-26T15:41:12Z</time>
      </trkpt>
      <trkpt lat="48.46268" lon="-2.75179">
        <ele>111.5</ele>
        <time>2015-08-26T15:41:17Z</time>
      </trkpt>
      <trkpt lat="48.4626" lon="-2.75167">
        <ele>112.7</ele>
        <time>2015-08-26T15:41:22Z</time>
      </trkpt>
      <trkpt lat="48.46252" lon="-2.7516">
        <ele>113.6</ele>
        <time>2015-08-26T15:41:26Z</time>
      </trkpt>
      <trkpt lat="48.46243" lon="-2.75153">
        <ele>114.7</ele>
        <time>2015-08-26T15:41:31Z</time>
      </trkpt>
      <trkpt lat="48.46236" lon="-2.75144">
        <ele>115.7</ele>
        <time>2015-08-26T15:41:35Z</time>
      </trkpt>
      <trkpt lat="48.46227" lon="-2.75135">
        <ele>116.9</ele>
        <time>2015-08-26T15:41:40Z</time>
      </trkpt>
      <trkpt lat="48.46219" lon="-2.7513">
        <ele>118</ele>
        <time>2015-08-26T15:41:45Z</time>
      </trkpt>
      <trkpt lat="48.4621" lon="-2.75127">
        <ele>119.1</ele>
        <time>2015-08-26T15:41:50Z</time>
      </trkpt>
      <trkpt lat="48.46199" lon="-2.75124">
        <ele>120.5</ele>
        <time>2015-08-26T15:41:56Z</time>
      </trkpt>
      <trkpt lat="48.46189" lon="-2.75121">
        <ele>121.9</ele>
        <time>2015-08-26T15:42:02Z</time>
      </trkpt>
      <trkpt lat="48.4618" lon="-2.75118">
        <ele>123.6</ele>
        <time>2015-08-26T15:42:08Z</time>
      </trkpt>
      <trkpt lat="48.46171" lon="-2.75113">
        <ele>125</ele>
        <time>2015-08-26T15:42:14Z</time>
      </trkpt>
      <trkpt lat="48.46163" lon="-2.75108">
        <ele>126.4</ele>
        <time>2015-08-26T15:42:20Z</time>
      </trkpt>
      <trkpt lat="48.46155" lon="-2.751">
        <ele>127.8</ele>
        <time>2015-08-26T15:42:26Z</time>
      </trkpt>
      <trkpt lat="48.46146" lon="-2.75091">
        <ele>129.2</ele>
        <time>2015-08-26T15:42:32Z</time>
      </trkpt>
      <trkpt lat="48.46137" lon="-2.75082">
        <ele>130.7</ele>
        <time>2015-08-26T15:42:38Z</time>
      </trkpt>
      <trkpt lat="48.4613" lon="-2.75075">
        <ele>131.9</ele>
        <time>2015-08-26T15:42:43Z</time>
      </trkpt>
      <trkpt lat="48.46121" lon="-2.75068">
        <ele>133</ele>
        <time>2015-08-26T15:42:48Z</time>
      </trkpt>
      <trkpt lat="48.46112" lon="-2.7506">
        <ele>134.2</ele>
        <time>2015-08-26T15:42:53Z</time>
      </trkpt>
      <trkpt lat="48.46103" lon="-2.75054">
        <ele>135.3</ele>
        <time>2015-08-26T15:42:58Z</time>
      </trkpt>
      <trkpt lat="48.46094" lon="-2.75047">
        <ele>136.6</ele>
        <time>2015-08-26T15:43:03Z</time>
      </trkpt>
      <trkpt lat="48.46087" lon="-2.75039">
        <ele>138.3</ele>
        <time>2015-08-26T15:43:09Z</time>
      </trkpt>
      <trkpt lat="48.46079" lon="-2.75028">
        <ele>140.4</ele>
        <time>2015-08-26T15:43:19Z</time>
      </trkpt>
      <trkpt lat="48.46071" lon="-2.75019">
        <ele>141.2</ele>
        <time>2015-08-26T15:43:24Z</time>
      </trkpt>
      <trkpt lat="48.46062" lon="-2.7501">
        <ele>142</ele>
        <time>2015-08-26T15:43:30Z</time>
      </trkpt>
      <trkpt lat="48.46053" lon="-2.75004">
        <ele>143.1</ele>
        <time>2015-08-26T15:43:36Z</time>
      </trkpt>
      <trkpt lat="48.46045" lon="-2.74997">
        <ele>144</ele>
        <time>2015-08-26T15:43:41Z</time>
      </trkpt>
      <trkpt lat="48.46036" lon="-2.7499">
        <ele>145</ele>
        <time>2015-08-26T15:43:46Z</time>
      </trkpt>
      <trkpt lat="48.46026" lon="-2.74984">
        <ele>145.9</ele>
        <time>2015-08-26T15:43:51Z</time>
      </trkpt>
      <trkpt lat="48.46016" lon="-2.7498">
        <ele>146.7</ele>
        <time>2015-08-26T15:43:56Z</time>
      </trkpt>
      <trkpt lat="48.46007" lon="-2.74976">
        <ele>147.4</ele>
        <time>2015-08-26T15:44:01Z</time>
      </trkpt>
      <trkpt lat="48.45998" lon="-2.74972">
        <ele>147.9</ele>
        <time>2015-08-26T15:44:05Z</time>
      </trkpt>
      <trkpt lat="48.45988" lon="-2.74971">
        <ele>148.3</ele>
        <time>2015-08-26T15:44:09Z</time>
      </trkpt>
      <trkpt lat="48.45978" lon="-2.74969">
        <ele>148.8</ele>
        <time>2015-08-26T15:44:13Z</time>
      </trkpt>
      <trkpt lat="48.45967" lon="-2.7497">
        <ele>149.4</ele>
        <time>2015-08-26T15:44:17Z</time>
      </trkpt>
      <trkpt lat="48.45956" lon="-2.74971">
        <ele>150</ele>
        <time>2015-08-26T15:44:21Z</time>
      </trkpt>
      <trkpt lat="48.45946" lon="-2.74971">
        <ele>150.4</ele>
        <time>2015-08-26T15:44:25Z</time>
      </trkpt>
      <trkpt lat="48.45936" lon="-2.74972">
        <ele>150.9</ele>
        <time>2015-08-26T15:44:29Z</time>
      </trkpt>
      <trkpt lat="48.45926" lon="-2.74971">
        <ele>151.3</ele>
        <time>2015-08-26T15:44:33Z</time>
      </trkpt>
      <trkpt lat="48.45915" lon="-2.74973">
        <ele>151.8</ele>
        <time>2015-08-26T15:44:37Z</time>
      </trkpt>
      <trkpt lat="48.45905" lon="-2.74973">
        <ele>152.1</ele>
        <time>2015-08-26T15:44:40Z</time>
      </trkpt>
      <trkpt lat="48.45895" lon="-2.74973">
        <ele>152.3</ele>
        <time>2015-08-26T15:44:43Z</time>
      </trkpt>
      <trkpt lat="48.45883" lon="-2.74973">
        <ele>152.6</ele>
        <time>2015-08-26T15:44:47Z</time>
      </trkpt>
      <trkpt lat="48.45872" lon="-2.74975">
        <ele>152.8</ele>
        <time>2015-08-26T15:44:50Z</time>
      </trkpt>
      <trkpt lat="48.4586" lon="-2.74975">
        <ele>153</ele>
        <time>2015-08-26T15:44:54Z</time>
      </trkpt>
      <trkpt lat="48.45849" lon="-2.74976">
        <ele>153.2</ele>
        <time>2015-08-26T15:44:57Z</time>
      </trkpt>
      <trkpt lat="48.45838" lon="-2.74976">
        <ele>153.4</ele>
        <time>2015-08-26T15:45:00Z</time>
      </trkpt>
      <trkpt lat="48.45826" lon="-2.74977">
        <ele>153.5</ele>
        <time>2015-08-26T15:45:03Z</time>
      </trkpt>
      <trkpt lat="48.45814" lon="-2.74978">
        <ele>153.7</ele>
        <time>2015-08-26T15:45:06Z</time>
      </trkpt>
      <trkpt lat="48.45801" lon="-2.74979">
        <ele>153.9</ele>
        <time>2015-08-26T15:45:09Z</time>
      </trkpt>
      <trkpt lat="48.45789" lon="-2.7498">
        <ele>154.1</ele>
        <time>2015-08-26T15:45:12Z</time>
      </trkpt>
      <trkpt lat="48.45776" lon="-2.74979">
        <ele>154.3</ele>
        <time>2015-08-26T15:45:16Z</time>
      </trkpt>
      <trkpt lat="48.45766" lon="-2.74979">
        <ele>154.4</ele>
        <time>2015-08-26T15:45:19Z</time>
      </trkpt>
      <trkpt lat="48.45758" lon="-2.74981">
        <ele>154.4</ele>
        <time>2015-08-26T15:45:21Z</time>
      </trkpt>
      <trkpt lat="48.45746" lon="-2.7498">
        <ele>154.5</ele>
        <time>2015-08-26T15:45:24Z</time>
      </trkpt>
      <trkpt lat="48.45734" lon="-2.7498">
        <ele>154.6</ele>
        <time>2015-08-26T15:45:27Z</time>
      </trkpt>
      <trkpt lat="48.45724" lon="-2.74979">
        <ele>154.7</ele>
        <time>2015-08-26T15:45:30Z</time>
      </trkpt>
      <trkpt lat="48.45713" lon="-2.74979">
        <ele>154.7</ele>
        <time>2015-08-26T15:45:33Z</time>
      </trkpt>
      <trkpt lat="48.45702" lon="-2.74976">
        <ele>154.8</ele>
        <time>2015-08-26T15:45:36Z</time>
      </trkpt>
      <trkpt lat="48.45692" lon="-2.74978">
        <ele>154.8</ele>
        <time>2015-08-26T15:45:39Z</time>
      </trkpt>
      <trkpt lat="48.45681" lon="-2.74981">
        <ele>154.9</ele>
        <time>2015-08-26T15:45:41Z</time>
      </trkpt>
      <trkpt lat="48.45671" lon="-2.74983">
        <ele>155</ele>
        <time>2015-08-26T15:45:43Z</time>
      </trkpt>
      <trkpt lat="48.45661" lon="-2.74976">
        <ele>155.1</ele>
        <time>2015-08-26T15:45:46Z</time>
      </trkpt>
      <trkpt lat="48.45659" lon="-2.74961">
        <ele>155.4</ele>
        <time>2015-08-26T15:45:51Z</time>
      </trkpt>
      <trkpt lat="48.45657" lon="-2.74945">
        <ele>155.7</ele>
        <time>2015-08-26T15:45:55Z</time>
      </trkpt>
      <trkpt lat="48.45652" lon="-2.74931">
        <ele>155.9</ele>
        <time>2015-08-26T15:45:58Z</time>
      </trkpt>
      <trkpt lat="48.45649" lon="-2.74917">
        <ele>156.2</ele>
        <time>2015-08-26T15:46:01Z</time>
      </trkpt>
      <trkpt lat="48.45645" lon="-2.74905">
        <ele>156.5</ele>
        <time>2015-08-26T15:46:04Z</time>
      </trkpt>
      <trkpt lat="48.45644" lon="-2.74888">
        <ele>157</ele>
        <time>2015-08-26T15:46:08Z</time>
      </trkpt>
      <trkpt lat="48.45644" lon="-2.74872">
        <ele>157.6</ele>
        <time>2015-08-26T15:46:13Z</time>
      </trkpt>
      <trkpt lat="48.45645" lon="-2.74858">
        <ele>158</ele>
        <time>2015-08-26T15:46:17Z</time>
      </trkpt>
      <trkpt lat="48.45644" lon="-2.74842">
        <ele>158.6</ele>
        <time>2015-08-26T15:46:22Z</time>
      </trkpt>
      <trkpt lat="48.45643" lon="-2.74827">
        <ele>159.1</ele>
        <time>2015-08-26T15:46:27Z</time>
      </trkpt>
      <trkpt lat="48.45642" lon="-2.74812">
        <ele>159.6</ele>
        <time>2015-08-26T15:46:31Z</time>
      </trkpt>
      <trkpt lat="48.45642" lon="-2.74796">
        <ele>160</ele>
        <time>2015-08-26T15:46:35Z</time>
      </trkpt>
      <trkpt lat="48.45642" lon="-2.74779">
        <ele>160.5</ele>
        <time>2015-08-26T15:46:39Z</time>
      </trkpt>
      <trkpt lat="48.45639" lon="-2.74766">
        <ele>160.8</ele>
        <time>2015-08-26T15:46:42Z</time>
      </trkpt>
      <trkpt lat="48.45636" lon="-2.74752">
        <ele>161.1</ele>
        <time>2015-08-26T15:46:45Z</time>
      </trkpt>
      <trkpt lat="48.45633" lon="-2.74735">
        <ele>161.5</ele>
        <time>2015-08-26T15:46:49Z</time>
      </trkpt>
      <trkpt lat="48.45631" lon="-2.7472">
        <ele>161.8</ele>
        <time>2015-08-26T15:46:52Z</time>
      </trkpt>
      <trkpt lat="48.4563" lon="-2.74704">
        <ele>162.2</ele>
        <time>2015-08-26T15:46:55Z</time>
      </trkpt>
      <trkpt lat="48.45629" lon="-2.74691">
        <ele>162.6</ele>
        <time>2015-08-26T15:46:58Z</time>
      </trkpt>
      <trkpt lat="48.45627" lon="-2.74676">
        <ele>163</ele>
        <time>2015-08-26T15:47:01Z</time>
      </trkpt>
      <trkpt lat="48.45624" lon="-2.74664">
        <ele>163.3</ele>
        <time>2015-08-26T15:47:04Z</time>
      </trkpt>
      <trkpt lat="48.45624" lon="-2.74649">
        <ele>163.6</ele>
        <time>2015-08-26T15:47:07Z</time>
      </trkpt>
      <trkpt lat="48.45626" lon="-2.74635">
        <ele>164.1</ele>
        <time>2015-08-26T15:47:11Z</time>
      </trkpt>
      <trkpt lat="48.45629" lon="-2.7462">
        <ele>164.5</ele>
        <time>2015-08-26T15:47:16Z</time>
      </trkpt>
      <trkpt lat="48.45639" lon="-2.74616">
        <ele>164.7</ele>
        <time>2015-08-26T15:47:19Z</time>
      </trkpt>
      <trkpt lat="48.45648" lon="-2.74613">
        <ele>164.9</ele>
        <time>2015-08-26T15:47:22Z</time>
      </trkpt>
      <trkpt lat="48.45659" lon="-2.74611">
        <ele>165.1</ele>
        <time>2015-08-26T15:47:26Z</time>
      </trkpt>
      <trkpt lat="48.45672" lon="-2.74608">
        <ele>165.3</ele>
        <time>2015-08-26T15:47:30Z</time>
      </trkpt>
      <trkpt lat="48.45681" lon="-2.74603">
        <ele>165.3</ele>
        <time>2015-08-26T15:47:34Z</time>
      </trkpt>
      <trkpt lat="48.45692" lon="-2.746">
        <ele>165.3</ele>
        <time>2015-08-26T15:47:38Z</time>
      </trkpt>
      <trkpt lat="48.45703" lon="-2.74596">
        <ele>165.3</ele>
        <time>2015-08-26T15:47:41Z</time>
      </trkpt>
      <trkpt lat="48.45712" lon="-2.74593">
        <ele>165.4</ele>
        <time>2015-08-26T15:47:44Z</time>
      </trkpt>
      <trkpt lat="48.45722" lon="-2.74588">
        <ele>165.4</ele>
        <time>2015-08-26T15:47:47Z</time>
      </trkpt>
      <trkpt lat="48.45733" lon="-2.74586">
        <ele>165.4</ele>
        <time>2015-08-26T15:47:50Z</time>
      </trkpt>
      <trkpt lat="48.45743" lon="-2.74584">
        <ele>165.4</ele>
        <time>2015-08-26T15:47:53Z</time>
      </trkpt>
      <trkpt lat="48.45753" lon="-2.74583">
        <ele>165.5</ele>
        <time>2015-08-26T15:47:56Z</time>
      </trkpt>
      <trkpt lat="48.45762" lon="-2.74579">
        <ele>165.6</ele>
        <time>2015-08-26T15:47:59Z</time>
      </trkpt>
      <trkpt lat="48.45772" lon="-2.74576">
        <ele>165.8</ele>
        <time>2015-08-26T15:48:02Z</time>
      </trkpt>
      <trkpt lat="48.45781" lon="-2.74573">
        <ele>165.9</ele>
        <time>2015-08-26T15:48:04Z</time>
      </trkpt>
      <trkpt lat="48.45793" lon="-2.74567">
        <ele>166</ele>
        <time>2015-08-26T15:48:07Z</time>
      </trkpt>
      <trkpt lat="48.45802" lon="-2.74556">
        <ele>166.2</ele>
        <time>2015-08-26T15:48:10Z</time>
      </trkpt>
      <trkpt lat="48.458" lon="-2.74541">
        <ele>166.3</ele>
        <time>2015-08-26T15:48:13Z</time>
      </trkpt>
      <trkpt lat="48.45792" lon="-2.74531">
        <ele>166.4</ele>
        <time>2015-08-26T15:48:17Z</time>
      </trkpt>
      <trkpt lat="48.4579" lon="-2.74517">
        <ele>166.2</ele>
        <time>2015-08-26T15:48:26Z</time>
      </trkpt>
      <trkpt lat="48.45792" lon="-2.74502">
        <ele>166</ele>
        <time>2015-08-26T15:48:31Z</time>
      </trkpt>
      <trkpt lat="48.45802" lon="-2.74495">
        <ele>165.7</ele>
        <time>2015-08-26T15:48:38Z</time>
      </trkpt>
      <trkpt lat="48.45808" lon="-2.74484">
        <ele>165.6</ele>
        <time>2015-08-26T15:48:41Z</time>
      </trkpt>
      <trkpt lat="48.45817" lon="-2.74471">
        <ele>165.5</ele>
        <time>2015-08-26T15:48:44Z</time>
      </trkpt>
      <trkpt lat="48.45821" lon="-2.74457">
        <ele>165.4</ele>
        <time>2015-08-26T15:48:47Z</time>
      </trkpt>
      <trkpt lat="48.45827" lon="-2.74442">
        <ele>165.4</ele>
        <time>2015-08-26T15:48:50Z</time>
      </trkpt>
      <trkpt lat="48.45834" lon="-2.74427">
        <ele>165.1</ele>
        <time>2015-08-26T15:48:54Z</time>
      </trkpt>
      <trkpt lat="48.45839" lon="-2.74412">
        <ele>165</ele>
        <time>2015-08-26T15:48:57Z</time>
      </trkpt>
      <trkpt lat="48.45845" lon="-2.744">
        <ele>164.9</ele>
        <time>2015-08-26T15:48:59Z</time>
      </trkpt>
      <trkpt lat="48.45854" lon="-2.74385">
        <ele>164.7</ele>
        <time>2015-08-26T15:49:02Z</time>
      </trkpt>
      <trkpt lat="48.45859" lon="-2.74373">
        <ele>164.5</ele>
        <time>2015-08-26T15:49:04Z</time>
      </trkpt>
      <trkpt lat="48.4586" lon="-2.74359">
        <ele>164.2</ele>
        <time>2015-08-26T15:49:07Z</time>
      </trkpt>
      <trkpt lat="48.45865" lon="-2.74343">
        <ele>163.9</ele>
        <time>2015-08-26T15:49:10Z</time>
      </trkpt>
      <trkpt lat="48.45871" lon="-2.74329">
        <ele>163.5</ele>
        <time>2015-08-26T15:49:15Z</time>
      </trkpt>
      <trkpt lat="48.45879" lon="-2.74325">
        <ele>163</ele>
        <time>2015-08-26T15:49:20Z</time>
      </trkpt>
      <trkpt lat="48.45889" lon="-2.74331">
        <ele>162.7</ele>
        <time>2015-08-26T15:49:25Z</time>
      </trkpt>
      <trkpt lat="48.45901" lon="-2.74327">
        <ele>162.5</ele>
        <time>2015-08-26T15:49:29Z</time>
      </trkpt>
      <trkpt lat="48.45911" lon="-2.74316">
        <ele>162.3</ele>
        <time>2015-08-26T15:49:32Z</time>
      </trkpt>
      <trkpt lat="48.4592" lon="-2.74303">
        <ele>162.1</ele>
        <time>2015-08-26T15:49:35Z</time>
      </trkpt>
      <trkpt lat="48.45929" lon="-2.74295">
        <ele>161.9</ele>
        <time>2015-08-26T15:49:38Z</time>
      </trkpt>
      <trkpt lat="48.45936" lon="-2.74286">
        <ele>161.7</ele>
        <time>2015-08-26T15:49:41Z</time>
      </trkpt>
      <trkpt lat="48.45943" lon="-2.74274">
        <ele>161.6</ele>
        <time>2015-08-26T15:49:44Z</time>
      </trkpt>
      <trkpt lat="48.45953" lon="-2.74262">
        <ele>161.4</ele>
        <time>2015-08-26T15:49:48Z</time>
      </trkpt>
      <trkpt lat="48.4596" lon="-2.74245">
        <ele>161.4</ele>
        <time>2015-08-26T15:49:51Z</time>
      </trkpt>
      <trkpt lat="48.45964" lon="-2.74231">
        <ele>161.2</ele>
        <time>2015-08-26T15:49:55Z</time>
      </trkpt>
      <trkpt lat="48.45969" lon="-2.74215">
        <ele>161.1</ele>
        <time>2015-08-26T15:49:58Z</time>
      </trkpt>
      <trkpt lat="48.45975" lon="-2.74198">
        <ele>161</ele>
        <time>2015-08-26T15:50:01Z</time>
      </trkpt>
      <trkpt lat="48.45982" lon="-2.74181">
        <ele>160.9</ele>
        <time>2015-08-26T15:50:04Z</time>
      </trkpt>
      <trkpt lat="48.45985" lon="-2.74168">
        <ele>160.9</ele>
        <time>2015-08-26T15:50:07Z</time>
      </trkpt>
      <trkpt lat="48.4599" lon="-2.7415">
        <ele>160.8</ele>
        <time>2015-08-26T15:50:10Z</time>
      </trkpt>
      <trkpt lat="48.45995" lon="-2.74135">
        <ele>160.8</ele>
        <time>2015-08-26T15:50:13Z</time>
      </trkpt>
      <trkpt lat="48.46001" lon="-2.74121">
        <ele>160.7</ele>
        <time>2015-08-26T15:50:17Z</time>
      </trkpt>
      <trkpt lat="48.46006" lon="-2.74106">
        <ele>160.6</ele>
        <time>2015-08-26T15:50:21Z</time>
      </trkpt>
      <trkpt lat="48.46006" lon="-2.74092">
        <ele>160.5</ele>
        <time>2015-08-26T15:50:25Z</time>
      </trkpt>
      <trkpt lat="48.46008" lon="-2.74074">
        <ele>160.4</ele>
        <time>2015-08-26T15:50:29Z</time>
      </trkpt>
      <trkpt lat="48.46014" lon="-2.74057">
        <ele>160.2</ele>
        <time>2015-08-26T15:50:32Z</time>
      </trkpt>
      <trkpt lat="48.46014" lon="-2.74041">
        <ele>160.1</ele>
        <time>2015-08-26T15:50:35Z</time>
      </trkpt>
      <trkpt lat="48.4601" lon="-2.74026">
        <ele>160</ele>
        <time>2015-08-26T15:50:39Z</time>
      </trkpt>
      <trkpt lat="48.46002" lon="-2.74019">
        <ele>159.9</ele>
        <time>2015-08-26T15:50:43Z</time>
      </trkpt>
      <trkpt lat="48.45993" lon="-2.7401">
        <ele>159.6</ele>
        <time>2015-08-26T15:50:47Z</time>
      </trkpt>
      <trkpt lat="48.45985" lon="-2.74001">
        <ele>159.4</ele>
        <time>2015-08-26T15:50:50Z</time>
      </trkpt>
      <trkpt lat="48.45982" lon="-2.73989">
        <ele>159.1</ele>
        <time>2015-08-26T15:50:54Z</time>
      </trkpt>
      <trkpt lat="48.45978" lon="-2.73973">
        <ele>159</ele>
        <time>2015-08-26T15:50:58Z</time>
      </trkpt>
      <trkpt lat="48.45981" lon="-2.73959">
        <ele>158.9</ele>
        <time>2015-08-26T15:51:02Z</time>
      </trkpt>
      <trkpt lat="48.45978" lon="-2.73945">
        <ele>158.7</ele>
        <time>2015-08-26T15:51:07Z</time>
      </trkpt>
      <trkpt lat="48.45978" lon="-2.7393">
        <ele>158.7</ele>
        <time>2015-08-26T15:51:10Z</time>
      </trkpt>
      <trkpt lat="48.45972" lon="-2.73913">
        <ele>158.6</ele>
        <time>2015-08-26T15:51:13Z</time>
      </trkpt>
      <trkpt lat="48.45966" lon="-2.73897">
        <ele>158.6</ele>
        <time>2015-08-26T15:51:16Z</time>
      </trkpt>
      <trkpt lat="48.45958" lon="-2.73883">
        <ele>158.6</ele>
        <time>2015-08-26T15:51:19Z</time>
      </trkpt>
      <trkpt lat="48.45953" lon="-2.73867">
        <ele>158.5</ele>
        <time>2015-08-26T15:51:22Z</time>
      </trkpt>
      <trkpt lat="48.45951" lon="-2.73854">
        <ele>158.6</ele>
        <time>2015-08-26T15:51:24Z</time>
      </trkpt>
      <trkpt lat="48.45942" lon="-2.73841">
        <ele>158.6</ele>
        <time>2015-08-26T15:51:27Z</time>
      </trkpt>
      <trkpt lat="48.45934" lon="-2.73831">
        <ele>158.6</ele>
        <time>2015-08-26T15:51:30Z</time>
      </trkpt>
      <trkpt lat="48.45925" lon="-2.73826">
        <ele>158.6</ele>
        <time>2015-08-26T15:51:33Z</time>
      </trkpt>
      <trkpt lat="48.45916" lon="-2.73821">
        <ele>158.6</ele>
        <time>2015-08-26T15:51:36Z</time>
      </trkpt>
      <trkpt lat="48.45908" lon="-2.73815">
        <ele>158.7</ele>
        <time>2015-08-26T15:51:39Z</time>
      </trkpt>
      <trkpt lat="48.45898" lon="-2.73811">
        <ele>158.8</ele>
        <time>2015-08-26T15:51:42Z</time>
      </trkpt>
      <trkpt lat="48.45889" lon="-2.73806">
        <ele>159</ele>
        <time>2015-08-26T15:51:46Z</time>
      </trkpt>
      <trkpt lat="48.45878" lon="-2.73801">
        <ele>159.3</ele>
        <time>2015-08-26T15:51:52Z</time>
      </trkpt>
      <trkpt lat="48.45867" lon="-2.73796">
        <ele>159.6</ele>
        <time>2015-08-26T15:51:57Z</time>
      </trkpt>
      <trkpt lat="48.45859" lon="-2.73788">
        <ele>159.9</ele>
        <time>2015-08-26T15:52:01Z</time>
      </trkpt>
      <trkpt lat="48.45848" lon="-2.73781">
        <ele>160.2</ele>
        <time>2015-08-26T15:52:04Z</time>
      </trkpt>
      <trkpt lat="48.45841" lon="-2.73773">
        <ele>160.4</ele>
        <time>2015-08-26T15:52:07Z</time>
      </trkpt>
      <trkpt lat="48.45836" lon="-2.73762">
        <ele>160.6</ele>
        <time>2015-08-26T15:52:10Z</time>
      </trkpt>
      <trkpt lat="48.45834" lon="-2.73747">
        <ele>160.8</ele>
        <time>2015-08-26T15:52:13Z</time>
      </trkpt>
      <trkpt lat="48.45837" lon="-2.73733">
        <ele>161</ele>
        <time>2015-08-26T15:52:17Z</time>
      </trkpt>
      <trkpt lat="48.45845" lon="-2.73726">
        <ele>161.1</ele>
        <time>2015-08-26T15:52:21Z</time>
      </trkpt>
      <trkpt lat="48.45858" lon="-2.73728">
        <ele>161.2</ele>
        <time>2015-08-26T15:52:24Z</time>
      </trkpt>
      <trkpt lat="48.45867" lon="-2.7373">
        <ele>161.1</ele>
        <time>2015-08-26T15:52:26Z</time>
      </trkpt>
      <trkpt lat="48.45878" lon="-2.73734">
        <ele>161</ele>
        <time>2015-08-26T15:52:29Z</time>
      </trkpt>
      <trkpt lat="48.45887" lon="-2.73737">
        <ele>160.8</ele>
        <time>2015-08-26T15:52:32Z</time>
      </trkpt>
      <trkpt lat="48.45899" lon="-2.73742">
        <ele>160.6</ele>
        <time>2015-08-26T15:52:35Z</time>
      </trkpt>
      <trkpt lat="48.45911" lon="-2.73745">
        <ele>160.4</ele>
        <time>2015-08-26T15:52:38Z</time>
      </trkpt>
      <trkpt lat="48.45921" lon="-2.73747">
        <ele>160.3</ele>
        <time>2015-08-26T15:52:40Z</time>
      </trkpt>
      <trkpt lat="48.4593" lon="-2.73751">
        <ele>160.2</ele>
        <time>2015-08-26T15:52:42Z</time>
      </trkpt>
      <trkpt lat="48.45941" lon="-2.73755">
        <ele>160</ele>
        <time>2015-08-26T15:52:44Z</time>
      </trkpt>
      <trkpt lat="48.45951" lon="-2.7376">
        <ele>159.9</ele>
        <time>2015-08-26T15:52:46Z</time>
      </trkpt>
      <trkpt lat="48.45961" lon="-2.73762">
        <ele>159.7</ele>
        <time>2015-08-26T15:52:48Z</time>
      </trkpt>
      <trkpt lat="48.45972" lon="-2.73769">
        <ele>159.5</ele>
        <time>2015-08-26T15:52:51Z</time>
      </trkpt>
      <trkpt lat="48.45982" lon="-2.73769">
        <ele>159.3</ele>
        <time>2015-08-26T15:52:53Z</time>
      </trkpt>
      <trkpt lat="48.45996" lon="-2.73771">
        <ele>159.1</ele>
        <time>2015-08-26T15:52:56Z</time>
      </trkpt>
      <trkpt lat="48.46009" lon="-2.73771">
        <ele>158.9</ele>
        <time>2015-08-26T15:52:59Z</time>
      </trkpt>
      <trkpt lat="48.4602" lon="-2.73759">
        <ele>158.6</ele>
        <time>2015-08-26T15:53:02Z</time>
      </trkpt>
      <trkpt lat="48.46025" lon="-2.73746">
        <ele>158.5</ele>
        <time>2015-08-26T15:53:04Z</time>
      </trkpt>
      <trkpt lat="48.46032" lon="-2.73735">
        <ele>158.3</ele>
        <time>2015-08-26T15:53:06Z</time>
      </trkpt>
      <trkpt lat="48.46036" lon="-2.73721">
        <ele>158.1</ele>
        <time>2015-08-26T15:53:09Z</time>
      </trkpt>
      <trkpt lat="48.4603" lon="-2.73706">
        <ele>157.6</ele>
        <time>2015-08-26T15:53:13Z</time>
      </trkpt>
      <trkpt lat="48.46028" lon="-2.73686">
        <ele>157.1</ele>
        <time>2015-08-26T15:53:17Z</time>
      </trkpt>
      <trkpt lat="48.46029" lon="-2.73671">
        <ele>157</ele>
        <time>2015-08-26T15:53:19Z</time>
      </trkpt>
      <trkpt lat="48.46028" lon="-2.73653">
        <ele>156.7</ele>
        <time>2015-08-26T15:53:22Z</time>
      </trkpt>
      <trkpt lat="48.46035" lon="-2.73641">
        <ele>156.3</ele>
        <time>2015-08-26T15:53:26Z</time>
      </trkpt>
      <trkpt lat="48.46047" lon="-2.73645">
        <ele>155.9</ele>
        <time>2015-08-26T15:53:30Z</time>
      </trkpt>
      <trkpt lat="48.46059" lon="-2.73644">
        <ele>155.6</ele>
        <time>2015-08-26T15:53:33Z</time>
      </trkpt>
      <trkpt lat="48.46067" lon="-2.73636">
        <ele>155.4</ele>
        <time>2015-08-26T15:53:35Z</time>
      </trkpt>
      <trkpt lat="48.46074" lon="-2.73624">
        <ele>155.1</ele>
        <time>2015-08-26T15:53:38Z</time>
      </trkpt>
      <trkpt lat="48.46073" lon="-2.73603">
        <ele>154.8</ele>
        <time>2015-08-26T15:53:42Z</time>
      </trkpt>
      <trkpt lat="48.46074" lon="-2.73588">
        <ele>154.5</ele>
        <time>2015-08-26T15:53:45Z</time>
      </trkpt>
      <trkpt lat="48.46079" lon="-2.73574">
        <ele>154.3</ele>
        <time>2015-08-26T15:53:48Z</time>
      </trkpt>
      <trkpt lat="48.46084" lon="-2.73563">
        <ele>154.2</ele>
        <time>2015-08-26T15:53:50Z</time>
      </trkpt>
      <trkpt lat="48.46088" lon="-2.7355">
        <ele>154</ele>
        <time>2015-08-26T15:53:53Z</time>
      </trkpt>
      <trkpt lat="48.46091" lon="-2.73533">
        <ele>153.8</ele>
        <time>2015-08-26T15:53:57Z</time>
      </trkpt>
      <trkpt lat="48.46094" lon="-2.73519">
        <ele>153.7</ele>
        <time>2015-08-26T15:54:00Z</time>
      </trkpt>
      <trkpt lat="48.46093" lon="-2.73504">
        <ele>153.6</ele>
        <time>2015-08-26T15:54:03Z</time>
      </trkpt>
      <trkpt lat="48.46097" lon="-2.7349">
        <ele>153.6</ele>
        <time>2015-08-26T15:54:05Z</time>
      </trkpt>
      <trkpt lat="48.46101" lon="-2.73474">
        <ele>153.5</ele>
        <time>2015-08-26T15:54:08Z</time>
      </trkpt>
      <trkpt lat="48.46101" lon="-2.73455">
        <ele>153.5</ele>
        <time>2015-08-26T15:54:11Z</time>
      </trkpt>
      <trkpt lat="48.46093" lon="-2.73446">
        <ele>153.4</ele>
        <time>2015-08-26T15:54:15Z</time>
      </trkpt>
      <trkpt lat="48.46082" lon="-2.73449">
        <ele>153.1</ele>
        <time>2015-08-26T15:54:21Z</time>
      </trkpt>
      <trkpt lat="48.4607" lon="-2.73456">
        <ele>152.9</ele>
        <time>2015-08-26T15:54:24Z</time>
      </trkpt>
      <trkpt lat="48.46061" lon="-2.73461">
        <ele>152.6</ele>
        <time>2015-08-26T15:54:27Z</time>
      </trkpt>
      <trkpt lat="48.46057" lon="-2.73447">
        <ele>152.2</ele>
        <time>2015-08-26T15:54:31Z</time>
      </trkpt>
      <trkpt lat="48.46053" lon="-2.73432">
        <ele>151.9</ele>
        <time>2015-08-26T15:54:34Z</time>
      </trkpt>
      <trkpt lat="48.46045" lon="-2.73418">
        <ele>151.5</ele>
        <time>2015-08-26T15:54:37Z</time>
      </trkpt>
      <trkpt lat="48.46036" lon="-2.73408">
        <ele>151</ele>
        <time>2015-08-26T15:54:41Z</time>
      </trkpt>
      <trkpt lat="48.46025" lon="-2.73399">
        <ele>150.7</ele>
        <time>2015-08-26T15:54:44Z</time>
      </trkpt>
      <trkpt lat="48.46016" lon="-2.73399">
        <ele>150.5</ele>
        <time>2015-08-26T15:54:47Z</time>
      </trkpt>
      <trkpt lat="48.46007" lon="-2.73406">
        <ele>150.2</ele>
        <time>2015-08-26T15:54:51Z</time>
      </trkpt>
      <trkpt lat="48.45996" lon="-2.7341">
        <ele>150</ele>
        <time>2015-08-26T15:54:55Z</time>
      </trkpt>
      <trkpt lat="48.45984" lon="-2.73402">
        <ele>149.9</ele>
        <time>2015-08-26T15:54:58Z</time>
      </trkpt>
      <trkpt lat="48.45975" lon="-2.73396">
        <ele>149.8</ele>
        <time>2015-08-26T15:55:00Z</time>
      </trkpt>
      <trkpt lat="48.45964" lon="-2.73398">
        <ele>149.7</ele>
        <time>2015-08-26T15:55:03Z</time>
      </trkpt>
      <trkpt lat="48.45954" lon="-2.73402">
        <ele>149.6</ele>
        <time>2015-08-26T15:55:08Z</time>
      </trkpt>
      <trkpt lat="48.45944" lon="-2.73399">
        <ele>149.5</ele>
        <time>2015-08-26T15:55:13Z</time>
      </trkpt>
      <trkpt lat="48.45935" lon="-2.73394">
        <ele>149.4</ele>
        <time>2015-08-26T15:55:16Z</time>
      </trkpt>
      <trkpt lat="48.45922" lon="-2.73392">
        <ele>149.2</ele>
        <time>2015-08-26T15:55:19Z</time>
      </trkpt>
      <trkpt lat="48.45913" lon="-2.7339">
        <ele>149.1</ele>
        <time>2015-08-26T15:55:21Z</time>
      </trkpt>
      <trkpt lat="48.45904" lon="-2.73384">
        <ele>149</ele>
        <time>2015-08-26T15:55:23Z</time>
      </trkpt>
      <trkpt lat="48.45892" lon="-2.73379">
        <ele>148.7</ele>
        <time>2015-08-26T15:55:26Z</time>
      </trkpt>
      <trkpt lat="48.45881" lon="-2.73376">
        <ele>148.4</ele>
        <time>2015-08-26T15:55:29Z</time>
      </trkpt>
      <trkpt lat="48.45872" lon="-2.73373">
        <ele>148.2</ele>
        <time>2015-08-26T15:55:31Z</time>
      </trkpt>
      <trkpt lat="48.45863" lon="-2.73376">
        <ele>147.9</ele>
        <time>2015-08-26T15:55:34Z</time>
      </trkpt>
      <trkpt lat="48.45853" lon="-2.73381">
        <ele>147.7</ele>
        <time>2015-08-26T15:55:36Z</time>
      </trkpt>
      <trkpt lat="48.45844" lon="-2.73386">
        <ele>147.6</ele>
        <time>2015-08-26T15:55:38Z</time>
      </trkpt>
      <trkpt lat="48.45835" lon="-2.73388">
        <ele>147.4</ele>
        <time>2015-08-26T15:55:40Z</time>
      </trkpt>
      <trkpt lat="48.45826" lon="-2.73393">
        <ele>147.2</ele>
        <time>2015-08-26T15:55:43Z</time>
      </trkpt>
      <trkpt lat="48.45816" lon="-2.73384">
        <ele>147.1</ele>
        <time>2015-08-26T15:55:46Z</time>
      </trkpt>
      <trkpt lat="48.45815" lon="-2.73368">
        <ele>146.9</ele>
        <time>2015-08-26T15:55:50Z</time>
      </trkpt>
      <trkpt lat="48.4582" lon="-2.73353">
        <ele>146.7</ele>
        <time>2015-08-26T15:55:53Z</time>
      </trkpt>
      <trkpt lat="48.45822" lon="-2.73337">
        <ele>146.5</ele>
        <time>2015-08-26T15:55:55Z</time>
      </trkpt>
      <trkpt lat="48.45824" lon="-2.73319">
        <ele>146.1</ele>
        <time>2015-08-26T15:55:57Z</time>
      </trkpt>
      <trkpt lat="48.45829" lon="-2.73301">
        <ele>145.8</ele>
        <time>2015-08-26T15:55:59Z</time>
      </trkpt>
      <trkpt lat="48.45832" lon="-2.73284">
        <ele>145.3</ele>
        <time>2015-08-26T15:56:01Z</time>
      </trkpt>
      <trkpt lat="48.45837" lon="-2.73266">
        <ele>144.9</ele>
        <time>2015-08-26T15:56:03Z</time>
      </trkpt>
      <trkpt lat="48.4584" lon="-2.73248">
        <ele>144.3</ele>
        <time>2015-08-26T15:56:05Z</time>
      </trkpt>
      <trkpt lat="48.45842" lon="-2.73231">
        <ele>143.8</ele>
        <time>2015-08-26T15:56:07Z</time>
      </trkpt>
      <trkpt lat="48.45844" lon="-2.73212">
        <ele>143.2</ele>
        <time>2015-08-26T15:56:09Z</time>
      </trkpt>
      <trkpt lat="48.45847" lon="-2.73196">
        <ele>142.7</ele>
        <time>2015-08-26T15:56:11Z</time>
      </trkpt>
      <trkpt lat="48.4585" lon="-2.73176">
        <ele>142.2</ele>
        <time>2015-08-26T15:56:13Z</time>
      </trkpt>
      <trkpt lat="48.45854" lon="-2.73157">
        <ele>141.7</ele>
        <time>2015-08-26T15:56:15Z</time>
      </trkpt>
      <trkpt lat="48.45858" lon="-2.73134">
        <ele>141.1</ele>
        <time>2015-08-26T15:56:17Z</time>
      </trkpt>
      <trkpt lat="48.45865" lon="-2.73114">
        <ele>140.6</ele>
        <time>2015-08-26T15:56:19Z</time>
      </trkpt>
      <trkpt lat="48.45868" lon="-2.73092">
        <ele>140</ele>
        <time>2015-08-26T15:56:21Z</time>
      </trkpt>
      <trkpt lat="48.4587" lon="-2.73072">
        <ele>139.4</ele>
        <time>2015-08-26T15:56:23Z</time>
      </trkpt>
      <trkpt lat="48.45877" lon="-2.73055">
        <ele>138.8</ele>
        <time>2015-08-26T15:56:25Z</time>
      </trkpt>
      <trkpt lat="48.45882" lon="-2.73035">
        <ele>138.3</ele>
        <time>2015-08-26T15:56:27Z</time>
      </trkpt>
      <trkpt lat="48.45887" lon="-2.73014">
        <ele>137.9</ele>
        <time>2015-08-26T15:56:29Z</time>
      </trkpt>
      <trkpt lat="48.4589" lon="-2.72996">
        <ele>137.5</ele>
        <time>2015-08-26T15:56:31Z</time>
      </trkpt>
      <trkpt lat="48.45898" lon="-2.73002">
        <ele>136.1</ele>
        <time>2015-08-26T15:56:39Z</time>
      </trkpt>
      <trkpt lat="48.45905" lon="-2.73012">
        <ele>135.8</ele>
        <time>2015-08-26T15:56:42Z</time>
      </trkpt>
      <trkpt lat="48.45914" lon="-2.73023">
        <ele>135.6</ele>
        <time>2015-08-26T15:56:46Z</time>
      </trkpt>
      <trkpt lat="48.45921" lon="-2.73035">
        <ele>135.6</ele>
        <time>2015-08-26T15:56:53Z</time>
      </trkpt>
      <trkpt lat="48.45926" lon="-2.73048">
        <ele>135.7</ele>
        <time>2015-08-26T15:56:57Z</time>
      </trkpt>
      <trkpt lat="48.45932" lon="-2.73059">
        <ele>136</ele>
        <time>2015-08-26T15:57:01Z</time>
      </trkpt>
      <trkpt lat="48.45942" lon="-2.73069">
        <ele>136.4</ele>
        <time>2015-08-26T15:57:05Z</time>
      </trkpt>
      <trkpt lat="48.45952" lon="-2.73072">
        <ele>136.7</ele>
        <time>2015-08-26T15:57:08Z</time>
      </trkpt>
      <trkpt lat="48.45963" lon="-2.73076">
        <ele>137.1</ele>
        <time>2015-08-26T15:57:11Z</time>
      </trkpt>
      <trkpt lat="48.45974" lon="-2.73076">
        <ele>137.9</ele>
        <time>2015-08-26T15:57:15Z</time>
      </trkpt>
      <trkpt lat="48.45976" lon="-2.7306">
        <ele>138.7</ele>
        <time>2015-08-26T15:57:19Z</time>
      </trkpt>
      <trkpt lat="48.45977" lon="-2.73043">
        <ele>139.2</ele>
        <time>2015-08-26T15:57:22Z</time>
      </trkpt>
      <trkpt lat="48.45979" lon="-2.73026">
        <ele>139.8</ele>
        <time>2015-08-26T15:57:26Z</time>
      </trkpt>
      <trkpt lat="48.45978" lon="-2.73008">
        <ele>140.5</ele>
        <time>2015-08-26T15:57:31Z</time>
      </trkpt>
      <trkpt lat="48.45979" lon="-2.72991">
        <ele>141</ele>
        <time>2015-08-26T15:57:35Z</time>
      </trkpt>
      <trkpt lat="48.45981" lon="-2.72975">
        <ele>141.5</ele>
        <time>2015-08-26T15:57:39Z</time>
      </trkpt>
      <trkpt lat="48.45983" lon="-2.72961">
        <ele>141.8</ele>
        <time>2015-08-26T15:57:42Z</time>
      </trkpt>
      <trkpt lat="48.45985" lon="-2.72945">
        <ele>142.1</ele>
        <time>2015-08-26T15:57:45Z</time>
      </trkpt>
      <trkpt lat="48.45988" lon="-2.72931">
        <ele>142.4</ele>
        <time>2015-08-26T15:57:48Z</time>
      </trkpt>
      <trkpt lat="48.45991" lon="-2.72917">
        <ele>142.7</ele>
        <time>2015-08-26T15:57:51Z</time>
      </trkpt>
      <trkpt lat="48.45996" lon="-2.729">
        <ele>142.9</ele>
        <time>2015-08-26T15:57:55Z</time>
      </trkpt>
      <trkpt lat="48.46002" lon="-2.72886">
        <ele>143.1</ele>
        <time>2015-08-26T15:57:58Z</time>
      </trkpt>
      <trkpt lat="48.46006" lon="-2.7287">
        <ele>143.2</ele>
        <time>2015-08-26T15:58:01Z</time>
      </trkpt>
      <trkpt lat="48.46011" lon="-2.72855">
        <ele>143.3</ele>
        <time>2015-08-26T15:58:04Z</time>
      </trkpt>
      <trkpt lat="48.46016" lon="-2.72841">
        <ele>143.4</ele>
        <time>2015-08-26T15:58:07Z</time>
      </trkpt>
      <trkpt lat="48.46023" lon="-2.7283">
        <ele>143.5</ele>
        <time>2015-08-26T15:58:10Z</time>
      </trkpt>
      <trkpt lat="48.46028" lon="-2.72817">
        <ele>143.5</ele>
        <time>2015-08-26T15:58:13Z</time>
      </trkpt>
      <trkpt lat="48.46035" lon="-2.72807">
        <ele>143.5</ele>
        <time>2015-08-26T15:58:15Z</time>
      </trkpt>
      <trkpt lat="48.46037" lon="-2.72791">
        <ele>143.6</ele>
        <time>2015-08-26T15:58:18Z</time>
      </trkpt>
      <trkpt lat="48.46041" lon="-2.72774">
        <ele>143.6</ele>
        <time>2015-08-26T15:58:22Z</time>
      </trkpt>
      <trkpt lat="48.46044" lon="-2.72759">
        <ele>143.7</ele>
        <time>2015-08-26T15:58:25Z</time>
      </trkpt>
      <trkpt lat="48.46049" lon="-2.72745">
        <ele>143.7</ele>
        <time>2015-08-26T15:58:29Z</time>
      </trkpt>
      <trkpt lat="48.46052" lon="-2.72729">
        <ele>143.7</ele>
        <time>2015-08-26T15:58:34Z</time>
      </trkpt>
      <trkpt lat="48.46058" lon="-2.72717">
        <ele>143.8</ele>
        <time>2015-08-26T15:58:37Z</time>
      </trkpt>
      <trkpt lat="48.46065" lon="-2.72703">
        <ele>143.8</ele>
        <time>2015-08-26T15:58:39Z</time>
      </trkpt>
      <trkpt lat="48.46071" lon="-2.72688">
        <ele>143.9</ele>
        <time>2015-08-26T15:58:42Z</time>
      </trkpt>
      <trkpt lat="48.46075" lon="-2.72674">
        <ele>144</ele>
        <time>2015-08-26T15:58:45Z</time>
      </trkpt>
      <trkpt lat="48.46078" lon="-2.72661">
        <ele>144.2</ele>
        <time>2015-08-26T15:58:54Z</time>
      </trkpt>
      <trkpt lat="48.46075" lon="-2.72647">
        <ele>144.4</ele>
        <time>2015-08-26T15:59:09Z</time>
      </trkpt>
      <trkpt lat="48.46066" lon="-2.72639">
        <ele>144.4</ele>
        <time>2015-08-26T15:59:13Z</time>
      </trkpt>
      <trkpt lat="48.46058" lon="-2.72629">
        <ele>144.3</ele>
        <time>2015-08-26T15:59:17Z</time>
      </trkpt>
      <trkpt lat="48.46049" lon="-2.72622">
        <ele>144</ele>
        <time>2015-08-26T15:59:21Z</time>
      </trkpt>
      <trkpt lat="48.46039" lon="-2.72611">
        <ele>143.7</ele>
        <time>2015-08-26T15:59:24Z</time>
      </trkpt>
      <trkpt lat="48.46032" lon="-2.72601">
        <ele>143.4</ele>
        <time>2015-08-26T15:59:26Z</time>
      </trkpt>
      <trkpt lat="48.46023" lon="-2.72588">
        <ele>143.1</ele>
        <time>2015-08-26T15:59:28Z</time>
      </trkpt>
      <trkpt lat="48.46013" lon="-2.72572">
        <ele>142.6</ele>
        <time>2015-08-26T15:59:30Z</time>
      </trkpt>
      <trkpt lat="48.46004" lon="-2.72553">
        <ele>142</ele>
        <time>2015-08-26T15:59:32Z</time>
      </trkpt>
      <trkpt lat="48.45996" lon="-2.72538">
        <ele>141.3</ele>
        <time>2015-08-26T15:59:34Z</time>
      </trkpt>
      <trkpt lat="48.45992" lon="-2.72525">
        <ele>140.6</ele>
        <time>2015-08-26T15:59:36Z</time>
      </trkpt>
      <trkpt lat="48.45993" lon="-2.72508">
        <ele>139.6</ele>
        <time>2015-08-26T15:59:39Z</time>
      </trkpt>
      <trkpt lat="48.45993" lon="-2.72492">
        <ele>138.6</ele>
        <time>2015-08-26T15:59:42Z</time>
      </trkpt>
      <trkpt lat="48.45995" lon="-2.72473">
        <ele>137.8</ele>
        <time>2015-08-26T15:59:45Z</time>
      </trkpt>
      <trkpt lat="48.45997" lon="-2.72457">
        <ele>137</ele>
        <time>2015-08-26T15:59:48Z</time>
      </trkpt>
      <trkpt lat="48.45997" lon="-2.72442">
        <ele>136.5</ele>
        <time>2015-08-26T15:59:50Z</time>
      </trkpt>
      <trkpt lat="48.45997" lon="-2.72423">
        <ele>136</ele>
        <time>2015-08-26T15:59:52Z</time>
      </trkpt>
      <trkpt lat="48.45998" lon="-2.72406">
        <ele>135.5</ele>
        <time>2015-08-26T15:59:54Z</time>
      </trkpt>
      <trkpt lat="48.46" lon="-2.72389">
        <ele>135</ele>
        <time>2015-08-26T15:59:56Z</time>
      </trkpt>
      <trkpt lat="48.46001" lon="-2.72374">
        <ele>134.6</ele>
        <time>2015-08-26T15:59:58Z</time>
      </trkpt>
      <trkpt lat="48.46002" lon="-2.72361">
        <ele>134.1</ele>
        <time>2015-08-26T16:00:00Z</time>
      </trkpt>
      <trkpt lat="48.46002" lon="-2.72342">
        <ele>133.5</ele>
        <time>2015-08-26T16:00:03Z</time>
      </trkpt>
      <trkpt lat="48.46004" lon="-2.72326">
        <ele>132.7</ele>
        <time>2015-08-26T16:00:07Z</time>
      </trkpt>
      <trkpt lat="48.46003" lon="-2.72309">
        <ele>132.2</ele>
        <time>2015-08-26T16:00:10Z</time>
      </trkpt>
      <trkpt lat="48.46005" lon="-2.72296">
        <ele>131.7</ele>
        <time>2015-08-26T16:00:13Z</time>
      </trkpt>
      <trkpt lat="48.46001" lon="-2.72282">
        <ele>130.9</ele>
        <time>2015-08-26T16:00:19Z</time>
      </trkpt>
      <trkpt lat="48.45994" lon="-2.72273">
        <ele>130.4</ele>
        <time>2015-08-26T16:00:24Z</time>
      </trkpt>
      <trkpt lat="48.45986" lon="-2.72263">
        <ele>129.7</ele>
        <time>2015-08-26T16:00:30Z</time>
      </trkpt>
      <trkpt lat="48.45977" lon="-2.72258">
        <ele>129.3</ele>
        <time>2015-08-26T16:00:34Z</time>
      </trkpt>
      <trkpt lat="48.45969" lon="-2.72252">
        <ele>129</ele>
        <time>2015-08-26T16:00:38Z</time>
      </trkpt>
      <trkpt lat="48.45959" lon="-2.72244">
        <ele>128.6</ele>
        <time>2015-08-26T16:00:43Z</time>
      </trkpt>
      <trkpt lat="48.45951" lon="-2.72237">
        <ele>128.2</ele>
        <time>2015-08-26T16:00:46Z</time>
      </trkpt>
      <trkpt lat="48.45942" lon="-2.72232">
        <ele>127.8</ele>
        <time>2015-08-26T16:00:49Z</time>
      </trkpt>
      <trkpt lat="48.45936" lon="-2.72221">
        <ele>127.4</ele>
        <time>2015-08-26T16:00:52Z</time>
      </trkpt>
      <trkpt lat="48.45925" lon="-2.72209">
        <ele>127.1</ele>
        <time>2015-08-26T16:00:55Z</time>
      </trkpt>
      <trkpt lat="48.45915" lon="-2.72204">
        <ele>126.7</ele>
        <time>2015-08-26T16:00:58Z</time>
      </trkpt>
      <trkpt lat="48.45907" lon="-2.72194">
        <ele>126.3</ele>
        <time>2015-08-26T16:01:01Z</time>
      </trkpt>
      <trkpt lat="48.45901" lon="-2.72184">
        <ele>125.9</ele>
        <time>2015-08-26T16:01:04Z</time>
      </trkpt>
      <trkpt lat="48.45892" lon="-2.72177">
        <ele>125.5</ele>
        <time>2015-08-26T16:01:07Z</time>
      </trkpt>
      <trkpt lat="48.45883" lon="-2.72166">
        <ele>125</ele>
        <time>2015-08-26T16:01:11Z</time>
      </trkpt>
      <trkpt lat="48.45871" lon="-2.7216">
        <ele>124.4</ele>
        <time>2015-08-26T16:01:15Z</time>
      </trkpt>
      <trkpt lat="48.45861" lon="-2.72158">
        <ele>123.9</ele>
        <time>2015-08-26T16:01:19Z</time>
      </trkpt>
      <trkpt lat="48.45854" lon="-2.72146">
        <ele>123.1</ele>
        <time>2015-08-26T16:01:27Z</time>
      </trkpt>
      <trkpt lat="48.45849" lon="-2.72134">
        <ele>122.7</ele>
        <time>2015-08-26T16:01:32Z</time>
      </trkpt>
      <trkpt lat="48.45846" lon="-2.72117">
        <ele>122.4</ele>
        <time>2015-08-26T16:01:36Z</time>
      </trkpt>
      <trkpt lat="48.45844" lon="-2.72096">
        <ele>122</ele>
        <time>2015-08-26T16:01:39Z</time>
      </trkpt>
      <trkpt lat="48.45838" lon="-2.72085">
        <ele>121.5</ele>
        <time>2015-08-26T16:01:42Z</time>
      </trkpt>
      <trkpt lat="48.45825" lon="-2.72084">
        <ele>120.9</ele>
        <time>2015-08-26T16:01:45Z</time>
      </trkpt>
      <trkpt lat="48.45814" lon="-2.72082">
        <ele>120.5</ele>
        <time>2015-08-26T16:01:47Z</time>
      </trkpt>
      <trkpt lat="48.45805" lon="-2.72072">
        <ele>120</ele>
        <time>2015-08-26T16:01:49Z</time>
      </trkpt>
      <trkpt lat="48.45798" lon="-2.72058">
        <ele>119.4</ele>
        <time>2015-08-26T16:01:51Z</time>
      </trkpt>
      <trkpt lat="48.4579" lon="-2.72041">
        <ele>118.9</ele>
        <time>2015-08-26T16:01:53Z</time>
      </trkpt>
      <trkpt lat="48.45779" lon="-2.72031">
        <ele>118.3</ele>
        <time>2015-08-26T16:01:55Z</time>
      </trkpt>
      <trkpt lat="48.4577" lon="-2.72027">
        <ele>117.6</ele>
        <time>2015-08-26T16:01:57Z</time>
      </trkpt>
      <trkpt lat="48.45765" lon="-2.72014">
        <ele>117</ele>
        <time>2015-08-26T16:01:59Z</time>
      </trkpt>
      <trkpt lat="48.45757" lon="-2.72003">
        <ele>116.4</ele>
        <time>2015-08-26T16:02:01Z</time>
      </trkpt>
      <trkpt lat="48.45744" lon="-2.72005">
        <ele>115.5</ele>
        <time>2015-08-26T16:02:04Z</time>
      </trkpt>
      <trkpt lat="48.45735" lon="-2.72011">
        <ele>114.9</ele>
        <time>2015-08-26T16:02:06Z</time>
      </trkpt>
      <trkpt lat="48.45725" lon="-2.72009">
        <ele>114.4</ele>
        <time>2015-08-26T16:02:08Z</time>
      </trkpt>
      <trkpt lat="48.45714" lon="-2.7201">
        <ele>113.5</ele>
        <time>2015-08-26T16:02:11Z</time>
      </trkpt>
      <trkpt lat="48.45708" lon="-2.72022">
        <ele>112.6</ele>
        <time>2015-08-26T16:02:15Z</time>
      </trkpt>
      <trkpt lat="48.45696" lon="-2.72025">
        <ele>112</ele>
        <time>2015-08-26T16:02:18Z</time>
      </trkpt>
      <trkpt lat="48.45684" lon="-2.72021">
        <ele>111.5</ele>
        <time>2015-08-26T16:02:21Z</time>
      </trkpt>
      <trkpt lat="48.45675" lon="-2.72019">
        <ele>111.2</ele>
        <time>2015-08-26T16:02:23Z</time>
      </trkpt>
      <trkpt lat="48.45662" lon="-2.72012">
        <ele>110.7</ele>
        <time>2015-08-26T16:02:26Z</time>
      </trkpt>
      <trkpt lat="48.45653" lon="-2.72008">
        <ele>110.3</ele>
        <time>2015-08-26T16:02:28Z</time>
      </trkpt>
      <trkpt lat="48.45641" lon="-2.72004">
        <ele>109.8</ele>
        <time>2015-08-26T16:02:31Z</time>
      </trkpt>
      <trkpt lat="48.45632" lon="-2.72003">
        <ele>109.3</ele>
        <time>2015-08-26T16:02:34Z</time>
      </trkpt>
      <trkpt lat="48.45622" lon="-2.72001">
        <ele>108.8</ele>
        <time>2015-08-26T16:02:37Z</time>
      </trkpt>
      <trkpt lat="48.45613" lon="-2.71994">
        <ele>108.5</ele>
        <time>2015-08-26T16:02:40Z</time>
      </trkpt>
      <trkpt lat="48.45603" lon="-2.7199">
        <ele>108</ele>
        <time>2015-08-26T16:02:43Z</time>
      </trkpt>
      <trkpt lat="48.45596" lon="-2.71973">
        <ele>107.4</ele>
        <time>2015-08-26T16:02:46Z</time>
      </trkpt>
      <trkpt lat="48.45594" lon="-2.71955">
        <ele>106.9</ele>
        <time>2015-08-26T16:02:49Z</time>
      </trkpt>
      <trkpt lat="48.45591" lon="-2.71937">
        <ele>106.3</ele>
        <time>2015-08-26T16:02:52Z</time>
      </trkpt>
      <trkpt lat="48.4559" lon="-2.71921">
        <ele>105.8</ele>
        <time>2015-08-26T16:02:55Z</time>
      </trkpt>
      <trkpt lat="48.45589" lon="-2.71907">
        <ele>105.4</ele>
        <time>2015-08-26T16:02:57Z</time>
      </trkpt>
      <trkpt lat="48.45591" lon="-2.71892">
        <ele>104.9</ele>
        <time>2015-08-26T16:03:00Z</time>
      </trkpt>
      <trkpt lat="48.45591" lon="-2.71877">
        <ele>104.4</ele>
        <time>2015-08-26T16:03:04Z</time>
      </trkpt>
      <trkpt lat="48.45595" lon="-2.71864">
        <ele>104</ele>
        <time>2015-08-26T16:03:08Z</time>
      </trkpt>
      <trkpt lat="48.45593" lon="-2.71849">
        <ele>103.3</ele>
        <time>2015-08-26T16:03:14Z</time>
      </trkpt>
      <trkpt lat="48.45591" lon="-2.71834">
        <ele>102.9</ele>
        <time>2015-08-26T16:03:19Z</time>
      </trkpt>
      <trkpt lat="48.4559" lon="-2.7182">
        <ele>102.4</ele>
        <time>2015-08-26T16:03:25Z</time>
      </trkpt>
      <trkpt lat="48.4559" lon="-2.71806">
        <ele>101.5</ele>
        <time>2015-08-26T16:03:49Z</time>
      </trkpt>
      <trkpt lat="48.45587" lon="-2.71792">
        <ele>101.4</ele>
        <time>2015-08-26T16:03:54Z</time>
      </trkpt>
      <trkpt lat="48.45584" lon="-2.71776">
        <ele>101.3</ele>
        <time>2015-08-26T16:03:58Z</time>
      </trkpt>
      <trkpt lat="48.45584" lon="-2.71759">
        <ele>101.1</ele>
        <time>2015-08-26T16:04:02Z</time>
      </trkpt>
      <trkpt lat="48.4558" lon="-2.71743">
        <ele>100.9</ele>
        <time>2015-08-26T16:04:06Z</time>
      </trkpt>
      <trkpt lat="48.45576" lon="-2.71725">
        <ele>100.7</ele>
        <time>2015-08-26T16:04:10Z</time>
      </trkpt>
      <trkpt lat="48.45574" lon="-2.71712">
        <ele>100.7</ele>
        <time>2015-08-26T16:04:12Z</time>
      </trkpt>
      <trkpt lat="48.4557" lon="-2.71693">
        <ele>100.5</ele>
        <time>2015-08-26T16:04:15Z</time>
      </trkpt>
      <trkpt lat="48.45566" lon="-2.7168">
        <ele>100.4</ele>
        <time>2015-08-26T16:04:17Z</time>
      </trkpt>
      <trkpt lat="48.45563" lon="-2.71663">
        <ele>100.2</ele>
        <time>2015-08-26T16:04:20Z</time>
      </trkpt>
      <trkpt lat="48.45563" lon="-2.71644">
        <ele>100</ele>
        <time>2015-08-26T16:04:23Z</time>
      </trkpt>
      <trkpt lat="48.45563" lon="-2.71625">
        <ele>99.8</ele>
        <time>2015-08-26T16:04:25Z</time>
      </trkpt>
      <trkpt lat="48.45565" lon="-2.71609">
        <ele>99.6</ele>
        <time>2015-08-26T16:04:27Z</time>
      </trkpt>
      <trkpt lat="48.45568" lon="-2.71596">
        <ele>99.4</ele>
        <time>2015-08-26T16:04:29Z</time>
      </trkpt>
      <trkpt lat="48.45574" lon="-2.7158">
        <ele>99.3</ele>
        <time>2015-08-26T16:04:32Z</time>
      </trkpt>
      <trkpt lat="48.4558" lon="-2.71565">
        <ele>99.2</ele>
        <time>2015-08-26T16:04:35Z</time>
      </trkpt>
      <trkpt lat="48.45584" lon="-2.71552">
        <ele>99.2</ele>
        <time>2015-08-26T16:04:38Z</time>
      </trkpt>
      <trkpt lat="48.45573" lon="-2.71549">
        <ele>99.6</ele>
        <time>2015-08-26T16:04:46Z</time>
      </trkpt>
      <trkpt lat="48.45568" lon="-2.71536">
        <ele>99.9</ele>
        <time>2015-08-26T16:04:51Z</time>
      </trkpt>
      <trkpt lat="48.45573" lon="-2.71525">
        <ele>100</ele>
        <time>2015-08-26T16:05:19Z</time>
      </trkpt>
      <trkpt lat="48.45572" lon="-2.71539">
        <ele>99.7</ele>
        <time>2015-08-26T16:10:08Z</time>
      </trkpt>
      <trkpt lat="48.45572" lon="-2.71557">
        <ele>99.7</ele>
        <time>2015-08-26T16:10:12Z</time>
      </trkpt>
      <trkpt lat="48.45571" lon="-2.71571">
        <ele>99.8</ele>
        <time>2015-08-26T16:10:15Z</time>
      </trkpt>
      <trkpt lat="48.45568" lon="-2.71588">
        <ele>99.8</ele>
        <time>2015-08-26T16:10:18Z</time>
      </trkpt>
      <trkpt lat="48.45563" lon="-2.71606">
        <ele>99.8</ele>
        <time>2015-08-26T16:10:21Z</time>
      </trkpt>
      <trkpt lat="48.45553" lon="-2.71608">
        <ele>99.3</ele>
        <time>2015-08-26T16:10:32Z</time>
      </trkpt>
      <trkpt lat="48.45543" lon="-2.716">
        <ele>99</ele>
        <time>2015-08-26T16:10:36Z</time>
      </trkpt>
      <trkpt lat="48.45534" lon="-2.71596">
        <ele>98.8</ele>
        <time>2015-08-26T16:10:40Z</time>
      </trkpt>
      <trkpt lat="48.45525" lon="-2.71587">
        <ele>98.5</ele>
        <time>2015-08-26T16:10:44Z</time>
      </trkpt>
      <trkpt lat="48.45513" lon="-2.71579">
        <ele>98.2</ele>
        <time>2015-08-26T16:10:48Z</time>
      </trkpt>
      <trkpt lat="48.45504" lon="-2.71572">
        <ele>98</ele>
        <time>2015-08-26T16:10:50Z</time>
      </trkpt>
      <trkpt lat="48.45493" lon="-2.71562">
        <ele>97.6</ele>
        <time>2015-08-26T16:10:53Z</time>
      </trkpt>
      <trkpt lat="48.45484" lon="-2.71556">
        <ele>97.4</ele>
        <time>2015-08-26T16:10:55Z</time>
      </trkpt>
      <trkpt lat="48.45476" lon="-2.71549">
        <ele>97.2</ele>
        <time>2015-08-26T16:10:57Z</time>
      </trkpt>
      <trkpt lat="48.4547" lon="-2.71539">
        <ele>97</ele>
        <time>2015-08-26T16:10:59Z</time>
      </trkpt>
      <trkpt lat="48.45463" lon="-2.71528">
        <ele>96.8</ele>
        <time>2015-08-26T16:11:01Z</time>
      </trkpt>
      <trkpt lat="48.45456" lon="-2.71516">
        <ele>96.6</ele>
        <time>2015-08-26T16:11:03Z</time>
      </trkpt>
      <trkpt lat="48.45449" lon="-2.71508">
        <ele>96.5</ele>
        <time>2015-08-26T16:11:05Z</time>
      </trkpt>
      <trkpt lat="48.45439" lon="-2.71507">
        <ele>96.3</ele>
        <time>2015-08-26T16:11:09Z</time>
      </trkpt>
      <trkpt lat="48.4543" lon="-2.71508">
        <ele>96.2</ele>
        <time>2015-08-26T16:11:12Z</time>
      </trkpt>
      <trkpt lat="48.45421" lon="-2.71514">
        <ele>96.2</ele>
        <time>2015-08-26T16:11:15Z</time>
      </trkpt>
      <trkpt lat="48.45414" lon="-2.71525">
        <ele>96.3</ele>
        <time>2015-08-26T16:11:19Z</time>
      </trkpt>
      <trkpt lat="48.4541" lon="-2.71542">
        <ele>96.5</ele>
        <time>2015-08-26T16:11:23Z</time>
      </trkpt>
      <trkpt lat="48.45405" lon="-2.71553">
        <ele>96.3</ele>
        <time>2015-08-26T16:11:25Z</time>
      </trkpt>
      <trkpt lat="48.45395" lon="-2.71566">
        <ele>96</ele>
        <time>2015-08-26T16:11:28Z</time>
      </trkpt>
      <trkpt lat="48.45382" lon="-2.71575">
        <ele>95.7</ele>
        <time>2015-08-26T16:11:31Z</time>
      </trkpt>
      <trkpt lat="48.45371" lon="-2.71581">
        <ele>95.4</ele>
        <time>2015-08-26T16:11:33Z</time>
      </trkpt>
      <trkpt lat="48.4536" lon="-2.71584">
        <ele>95.1</ele>
        <time>2015-08-26T16:11:35Z</time>
      </trkpt>
      <trkpt lat="48.45349" lon="-2.71588">
        <ele>94.8</ele>
        <time>2015-08-26T16:11:37Z</time>
      </trkpt>
      <trkpt lat="48.45338" lon="-2.71585">
        <ele>94.6</ele>
        <time>2015-08-26T16:11:39Z</time>
      </trkpt>
      <trkpt lat="48.45328" lon="-2.71586">
        <ele>94.3</ele>
        <time>2015-08-26T16:11:41Z</time>
      </trkpt>
      <trkpt lat="48.45315" lon="-2.71584">
        <ele>93.7</ele>
        <time>2015-08-26T16:11:44Z</time>
      </trkpt>
      <trkpt lat="48.45305" lon="-2.71577">
        <ele>93.3</ele>
        <time>2015-08-26T16:11:46Z</time>
      </trkpt>
      <trkpt lat="48.45297" lon="-2.71569">
        <ele>92.9</ele>
        <time>2015-08-26T16:11:48Z</time>
      </trkpt>
      <trkpt lat="48.4529" lon="-2.71558">
        <ele>92.6</ele>
        <time>2015-08-26T16:11:50Z</time>
      </trkpt>
      <trkpt lat="48.45284" lon="-2.71545">
        <ele>92.4</ele>
        <time>2015-08-26T16:11:52Z</time>
      </trkpt>
      <trkpt lat="48.4528" lon="-2.71529">
        <ele>92.1</ele>
        <time>2015-08-26T16:11:54Z</time>
      </trkpt>
      <trkpt lat="48.45277" lon="-2.71513">
        <ele>91.9</ele>
        <time>2015-08-26T16:11:56Z</time>
      </trkpt>
      <trkpt lat="48.45274" lon="-2.71499">
        <ele>91.6</ele>
        <time>2015-08-26T16:11:58Z</time>
      </trkpt>
      <trkpt lat="48.45271" lon="-2.71484">
        <ele>91.4</ele>
        <time>2015-08-26T16:12:00Z</time>
      </trkpt>
      <trkpt lat="48.45269" lon="-2.71466">
        <ele>91</ele>
        <time>2015-08-26T16:12:02Z</time>
      </trkpt>
      <trkpt lat="48.45268" lon="-2.71449">
        <ele>90.5</ele>
        <time>2015-08-26T16:12:04Z</time>
      </trkpt>
      <trkpt lat="48.45267" lon="-2.71429">
        <ele>90.1</ele>
        <time>2015-08-26T16:12:06Z</time>
      </trkpt>
      <trkpt lat="48.45267" lon="-2.7141">
        <ele>89.8</ele>
        <time>2015-08-26T16:12:08Z</time>
      </trkpt>
      <trkpt lat="48.45266" lon="-2.71393">
        <ele>89.4</ele>
        <time>2015-08-26T16:12:10Z</time>
      </trkpt>
      <trkpt lat="48.45264" lon="-2.71377">
        <ele>89.2</ele>
        <time>2015-08-26T16:12:12Z</time>
      </trkpt>
      <trkpt lat="48.45262" lon="-2.71361">
        <ele>88.8</ele>
        <time>2015-08-26T16:12:14Z</time>
      </trkpt>
      <trkpt lat="48.45263" lon="-2.71342">
        <ele>88.4</ele>
        <time>2015-08-26T16:12:16Z</time>
      </trkpt>
      <trkpt lat="48.45265" lon="-2.71322">
        <ele>87.9</ele>
        <time>2015-08-26T16:12:19Z</time>
      </trkpt>
      <trkpt lat="48.45264" lon="-2.71307">
        <ele>87.6</ele>
        <time>2015-08-26T16:12:21Z</time>
      </trkpt>
      <trkpt lat="48.45265" lon="-2.71288">
        <ele>87.3</ele>
        <time>2015-08-26T16:12:23Z</time>
      </trkpt>
      <trkpt lat="48.45265" lon="-2.71269">
        <ele>87</ele>
        <time>2015-08-26T16:12:25Z</time>
      </trkpt>
      <trkpt lat="48.45265" lon="-2.71249">
        <ele>86.7</ele>
        <time>2015-08-26T16:12:27Z</time>
      </trkpt>
      <trkpt lat="48.45263" lon="-2.71231">
        <ele>86.5</ele>
        <time>2015-08-26T16:12:29Z</time>
      </trkpt>
      <trkpt lat="48.45257" lon="-2.71219">
        <ele>86.2</ele>
        <time>2015-08-26T16:12:31Z</time>
      </trkpt>
      <trkpt lat="48.45249" lon="-2.71211">
        <ele>85.9</ele>
        <time>2015-08-26T16:12:33Z</time>
      </trkpt>
      <trkpt lat="48.45237" lon="-2.71205">
        <ele>85.5</ele>
        <time>2015-08-26T16:12:35Z</time>
      </trkpt>
      <trkpt lat="48.45226" lon="-2.71201">
        <ele>85</ele>
        <time>2015-08-26T16:12:37Z</time>
      </trkpt>
      <trkpt lat="48.45215" lon="-2.71199">
        <ele>84.2</ele>
        <time>2015-08-26T16:12:40Z</time>
      </trkpt>
      <trkpt lat="48.45215" lon="-2.7118">
        <ele>83.2</ele>
        <time>2015-08-26T16:12:44Z</time>
      </trkpt>
      <trkpt lat="48.45216" lon="-2.71166">
        <ele>82.6</ele>
        <time>2015-08-26T16:12:47Z</time>
      </trkpt>
      <trkpt lat="48.45215" lon="-2.71148">
        <ele>81.9</ele>
        <time>2015-08-26T16:12:51Z</time>
      </trkpt>
      <trkpt lat="48.45215" lon="-2.71133">
        <ele>81.5</ele>
        <time>2015-08-26T16:12:54Z</time>
      </trkpt>
      <trkpt lat="48.45217" lon="-2.71113">
        <ele>81.1</ele>
        <time>2015-08-26T16:12:57Z</time>
      </trkpt>
      <trkpt lat="48.45216" lon="-2.71099">
        <ele>80.9</ele>
        <time>2015-08-26T16:12:59Z</time>
      </trkpt>
      <trkpt lat="48.45216" lon="-2.71078">
        <ele>80.6</ele>
        <time>2015-08-26T16:13:02Z</time>
      </trkpt>
      <trkpt lat="48.45216" lon="-2.71063">
        <ele>80.4</ele>
        <time>2015-08-26T16:13:04Z</time>
      </trkpt>
      <trkpt lat="48.45217" lon="-2.71048">
        <ele>80.2</ele>
        <time>2015-08-26T16:13:06Z</time>
      </trkpt>
      <trkpt lat="48.45217" lon="-2.71032">
        <ele>80</ele>
        <time>2015-08-26T16:13:08Z</time>
      </trkpt>
      <trkpt lat="48.45219" lon="-2.71016">
        <ele>79.8</ele>
        <time>2015-08-26T16:13:10Z</time>
      </trkpt>
      <trkpt lat="48.4522" lon="-2.71">
        <ele>79.6</ele>
        <time>2015-08-26T16:13:12Z</time>
      </trkpt>
      <trkpt lat="48.45223" lon="-2.70986">
        <ele>79.4</ele>
        <time>2015-08-26T16:13:15Z</time>
      </trkpt>
      <trkpt lat="48.45229" lon="-2.70974">
        <ele>79.1</ele>
        <time>2015-08-26T16:13:18Z</time>
      </trkpt>
      <trkpt lat="48.45236" lon="-2.70961">
        <ele>78.9</ele>
        <time>2015-08-26T16:13:21Z</time>
      </trkpt>
      <trkpt lat="48.45239" lon="-2.70947">
        <ele>78.8</ele>
        <time>2015-08-26T16:13:23Z</time>
      </trkpt>
      <trkpt lat="48.45244" lon="-2.70931">
        <ele>78.6</ele>
        <time>2015-08-26T16:13:25Z</time>
      </trkpt>
      <trkpt lat="48.45248" lon="-2.70916">
        <ele>78.5</ele>
        <time>2015-08-26T16:13:27Z</time>
      </trkpt>
      <trkpt lat="48.45252" lon="-2.70903">
        <ele>78.4</ele>
        <time>2015-08-26T16:13:29Z</time>
      </trkpt>
      <trkpt lat="48.45257" lon="-2.70887">
        <ele>78.4</ele>
        <time>2015-08-26T16:13:31Z</time>
      </trkpt>
      <trkpt lat="48.45263" lon="-2.70871">
        <ele>78.3</ele>
        <time>2015-08-26T16:13:33Z</time>
      </trkpt>
      <trkpt lat="48.45268" lon="-2.70855">
        <ele>78.2</ele>
        <time>2015-08-26T16:13:35Z</time>
      </trkpt>
      <trkpt lat="48.45273" lon="-2.70838">
        <ele>78.2</ele>
        <time>2015-08-26T16:13:37Z</time>
      </trkpt>
      <trkpt lat="48.45277" lon="-2.70821">
        <ele>78</ele>
        <time>2015-08-26T16:13:39Z</time>
      </trkpt>
      <trkpt lat="48.45281" lon="-2.70804">
        <ele>77.9</ele>
        <time>2015-08-26T16:13:41Z</time>
      </trkpt>
      <trkpt lat="48.45285" lon="-2.70788">
        <ele>77.8</ele>
        <time>2015-08-26T16:13:43Z</time>
      </trkpt>
      <trkpt lat="48.45288" lon="-2.70772">
        <ele>77.6</ele>
        <time>2015-08-26T16:13:45Z</time>
      </trkpt>
      <trkpt lat="48.45291" lon="-2.70757">
        <ele>77.5</ele>
        <time>2015-08-26T16:13:47Z</time>
      </trkpt>
      <trkpt lat="48.45294" lon="-2.70743">
        <ele>77.4</ele>
        <time>2015-08-26T16:13:49Z</time>
      </trkpt>
      <trkpt lat="48.45297" lon="-2.70724">
        <ele>77.3</ele>
        <time>2015-08-26T16:13:52Z</time>
      </trkpt>
      <trkpt lat="48.45297" lon="-2.70708">
        <ele>77.2</ele>
        <time>2015-08-26T16:13:56Z</time>
      </trkpt>
      <trkpt lat="48.45287" lon="-2.70711">
        <ele>77.3</ele>
        <time>2015-08-26T16:14:00Z</time>
      </trkpt>
      <trkpt lat="48.45273" lon="-2.70714">
        <ele>77.3</ele>
        <time>2015-08-26T16:14:03Z</time>
      </trkpt>
      <trkpt lat="48.45263" lon="-2.70715">
        <ele>77.3</ele>
        <time>2015-08-26T16:14:05Z</time>
      </trkpt>
      <trkpt lat="48.45252" lon="-2.70714">
        <ele>77.4</ele>
        <time>2015-08-26T16:14:07Z</time>
      </trkpt>
      <trkpt lat="48.45241" lon="-2.70712">
        <ele>77.4</ele>
        <time>2015-08-26T16:14:09Z</time>
      </trkpt>
      <trkpt lat="48.4523" lon="-2.70707">
        <ele>77.4</ele>
        <time>2015-08-26T16:14:11Z</time>
      </trkpt>
      <trkpt lat="48.45219" lon="-2.70701">
        <ele>77.4</ele>
        <time>2015-08-26T16:14:13Z</time>
      </trkpt>
      <trkpt lat="48.45208" lon="-2.70694">
        <ele>77.4</ele>
        <time>2015-08-26T16:14:15Z</time>
      </trkpt>
      <trkpt lat="48.45197" lon="-2.70686">
        <ele>77.4</ele>
        <time>2015-08-26T16:14:17Z</time>
      </trkpt>
      <trkpt lat="48.45187" lon="-2.70677">
        <ele>77.4</ele>
        <time>2015-08-26T16:14:19Z</time>
      </trkpt>
      <trkpt lat="48.45176" lon="-2.70667">
        <ele>77.3</ele>
        <time>2015-08-26T16:14:21Z</time>
      </trkpt>
      <trkpt lat="48.45166" lon="-2.70656">
        <ele>77.3</ele>
        <time>2015-08-26T16:14:23Z</time>
      </trkpt>
      <trkpt lat="48.45157" lon="-2.70643">
        <ele>77.2</ele>
        <time>2015-08-26T16:14:25Z</time>
      </trkpt>
      <trkpt lat="48.45148" lon="-2.7063">
        <ele>77.2</ele>
        <time>2015-08-26T16:14:27Z</time>
      </trkpt>
      <trkpt lat="48.45139" lon="-2.70615">
        <ele>77.1</ele>
        <time>2015-08-26T16:14:29Z</time>
      </trkpt>
      <trkpt lat="48.45132" lon="-2.706">
        <ele>77</ele>
        <time>2015-08-26T16:14:31Z</time>
      </trkpt>
      <trkpt lat="48.45122" lon="-2.70587">
        <ele>77</ele>
        <time>2015-08-26T16:14:33Z</time>
      </trkpt>
      <trkpt lat="48.4511" lon="-2.70587">
        <ele>76.9</ele>
        <time>2015-08-26T16:14:35Z</time>
      </trkpt>
      <trkpt lat="48.45098" lon="-2.70595">
        <ele>76.7</ele>
        <time>2015-08-26T16:14:37Z</time>
      </trkpt>
      <trkpt lat="48.45088" lon="-2.70605">
        <ele>76.4</ele>
        <time>2015-08-26T16:14:39Z</time>
      </trkpt>
      <trkpt lat="48.45078" lon="-2.70614">
        <ele>76.2</ele>
        <time>2015-08-26T16:14:41Z</time>
      </trkpt>
      <trkpt lat="48.45068" lon="-2.70623">
        <ele>76</ele>
        <time>2015-08-26T16:14:43Z</time>
      </trkpt>
      <trkpt lat="48.45058" lon="-2.70632">
        <ele>75.9</ele>
        <time>2015-08-26T16:14:45Z</time>
      </trkpt>
      <trkpt lat="48.45048" lon="-2.7064">
        <ele>75.7</ele>
        <time>2015-08-26T16:14:47Z</time>
      </trkpt>
      <trkpt lat="48.45039" lon="-2.70649">
        <ele>75.6</ele>
        <time>2015-08-26T16:14:49Z</time>
      </trkpt>
      <trkpt lat="48.45029" lon="-2.70657">
        <ele>75.5</ele>
        <time>2015-08-26T16:14:51Z</time>
      </trkpt>
      <trkpt lat="48.45021" lon="-2.70664">
        <ele>75.4</ele>
        <time>2015-08-26T16:14:53Z</time>
      </trkpt>
      <trkpt lat="48.45013" lon="-2.70672">
        <ele>75.4</ele>
        <time>2015-08-26T16:14:55Z</time>
      </trkpt>
      <trkpt lat="48.45005" lon="-2.70682">
        <ele>75.5</ele>
        <time>2015-08-26T16:14:58Z</time>
      </trkpt>
      <trkpt lat="48.44995" lon="-2.70679">
        <ele>75.7</ele>
        <time>2015-08-26T16:15:03Z</time>
      </trkpt>
      <trkpt lat="48.44989" lon="-2.70661">
        <ele>75.8</ele>
        <time>2015-08-26T16:15:06Z</time>
      </trkpt>
      <trkpt lat="48.44983" lon="-2.70644">
        <ele>75.9</ele>
        <time>2015-08-26T16:15:09Z</time>
      </trkpt>
      <trkpt lat="48.44978" lon="-2.7063">
        <ele>76.2</ele>
        <time>2015-08-26T16:15:12Z</time>
      </trkpt>
      <trkpt lat="48.44973" lon="-2.70616">
        <ele>76.4</ele>
        <time>2015-08-26T16:15:15Z</time>
      </trkpt>
      <trkpt lat="48.44968" lon="-2.70601">
        <ele>76.9</ele>
        <time>2015-08-26T16:15:18Z</time>
      </trkpt>
      <trkpt lat="48.44963" lon="-2.70588">
        <ele>77.5</ele>
        <time>2015-08-26T16:15:21Z</time>
      </trkpt>
      <trkpt lat="48.44959" lon="-2.70574">
        <ele>78.2</ele>
        <time>2015-08-26T16:15:24Z</time>
      </trkpt>
      <trkpt lat="48.44953" lon="-2.70559">
        <ele>78.9</ele>
        <time>2015-08-26T16:15:27Z</time>
      </trkpt>
      <trkpt lat="48.44942" lon="-2.70553">
        <ele>79.7</ele>
        <time>2015-08-26T16:15:30Z</time>
      </trkpt>
      <trkpt lat="48.44933" lon="-2.70553">
        <ele>80.5</ele>
        <time>2015-08-26T16:15:33Z</time>
      </trkpt>
      <trkpt lat="48.44924" lon="-2.70552">
        <ele>81.4</ele>
        <time>2015-08-26T16:15:36Z</time>
      </trkpt>
      <trkpt lat="48.44914" lon="-2.70552">
        <ele>82.1</ele>
        <time>2015-08-26T16:15:39Z</time>
      </trkpt>
      <trkpt lat="48.44904" lon="-2.70551">
        <ele>82.8</ele>
        <time>2015-08-26T16:15:42Z</time>
      </trkpt>
      <trkpt lat="48.44894" lon="-2.70551">
        <ele>83.4</ele>
        <time>2015-08-26T16:15:45Z</time>
      </trkpt>
      <trkpt lat="48.44883" lon="-2.70551">
        <ele>84</ele>
        <time>2015-08-26T16:15:48Z</time>
      </trkpt>
      <trkpt lat="48.44873" lon="-2.7055">
        <ele>84.6</ele>
        <time>2015-08-26T16:15:51Z</time>
      </trkpt>
      <trkpt lat="48.44861" lon="-2.70549">
        <ele>85.6</ele>
        <time>2015-08-26T16:15:55Z</time>
      </trkpt>
      <trkpt lat="48.4485" lon="-2.70549">
        <ele>86.5</ele>
        <time>2015-08-26T16:15:59Z</time>
      </trkpt>
      <trkpt lat="48.44838" lon="-2.70549">
        <ele>87.5</ele>
        <time>2015-08-26T16:16:03Z</time>
      </trkpt>
      <trkpt lat="48.44827" lon="-2.70549">
        <ele>88.4</ele>
        <time>2015-08-26T16:16:07Z</time>
      </trkpt>
      <trkpt lat="48.44815" lon="-2.70549">
        <ele>89.3</ele>
        <time>2015-08-26T16:16:11Z</time>
      </trkpt>
      <trkpt lat="48.44804" lon="-2.70551">
        <ele>90.2</ele>
        <time>2015-08-26T16:16:15Z</time>
      </trkpt>
      <trkpt lat="48.44793" lon="-2.70552">
        <ele>91</ele>
        <time>2015-08-26T16:16:19Z</time>
      </trkpt>
      <trkpt lat="48.44781" lon="-2.70554">
        <ele>91.7</ele>
        <time>2015-08-26T16:16:23Z</time>
      </trkpt>
      <trkpt lat="48.44771" lon="-2.70556">
        <ele>92.4</ele>
        <time>2015-08-26T16:16:27Z</time>
      </trkpt>
      <trkpt lat="48.4476" lon="-2.70559">
        <ele>93</ele>
        <time>2015-08-26T16:16:31Z</time>
      </trkpt>
      <trkpt lat="48.44748" lon="-2.70561">
        <ele>93.5</ele>
        <time>2015-08-26T16:16:35Z</time>
      </trkpt>
      <trkpt lat="48.44737" lon="-2.70565">
        <ele>94.1</ele>
        <time>2015-08-26T16:16:39Z</time>
      </trkpt>
      <trkpt lat="48.44728" lon="-2.70564">
        <ele>94.6</ele>
        <time>2015-08-26T16:16:42Z</time>
      </trkpt>
      <trkpt lat="48.44718" lon="-2.70562">
        <ele>95.1</ele>
        <time>2015-08-26T16:16:45Z</time>
      </trkpt>
      <trkpt lat="48.44708" lon="-2.70562">
        <ele>95.5</ele>
        <time>2015-08-26T16:16:48Z</time>
      </trkpt>
      <trkpt lat="48.44699" lon="-2.70564">
        <ele>95.9</ele>
        <time>2015-08-26T16:16:51Z</time>
      </trkpt>
      <trkpt lat="48.4469" lon="-2.70564">
        <ele>96.3</ele>
        <time>2015-08-26T16:16:54Z</time>
      </trkpt>
      <trkpt lat="48.44679" lon="-2.70564">
        <ele>96.7</ele>
        <time>2015-08-26T16:16:57Z</time>
      </trkpt>
      <trkpt lat="48.4467" lon="-2.70564">
        <ele>97.2</ele>
        <time>2015-08-26T16:17:00Z</time>
      </trkpt>
      <trkpt lat="48.4466" lon="-2.70564">
        <ele>97.7</ele>
        <time>2015-08-26T16:17:03Z</time>
      </trkpt>
      <trkpt lat="48.44651" lon="-2.70564">
        <ele>98.2</ele>
        <time>2015-08-26T16:17:06Z</time>
      </trkpt>
      <trkpt lat="48.44641" lon="-2.70562">
        <ele>98.6</ele>
        <time>2015-08-26T16:17:09Z</time>
      </trkpt>
      <trkpt lat="48.44631" lon="-2.70559">
        <ele>98.9</ele>
        <time>2015-08-26T16:17:12Z</time>
      </trkpt>
      <trkpt lat="48.44623" lon="-2.70548">
        <ele>99.5</ele>
        <time>2015-08-26T16:17:16Z</time>
      </trkpt>
      <trkpt lat="48.4463" lon="-2.70534">
        <ele>100</ele>
        <time>2015-08-26T16:17:20Z</time>
      </trkpt>
      <trkpt lat="48.44639" lon="-2.70522">
        <ele>100.3</ele>
        <time>2015-08-26T16:17:23Z</time>
      </trkpt>
      <trkpt lat="48.44645" lon="-2.70512">
        <ele>100.4</ele>
        <time>2015-08-26T16:17:25Z</time>
      </trkpt>
      <trkpt lat="48.44652" lon="-2.70501">
        <ele>100.5</ele>
        <time>2015-08-26T16:17:27Z</time>
      </trkpt>
      <trkpt lat="48.4466" lon="-2.7049">
        <ele>100.5</ele>
        <time>2015-08-26T16:17:29Z</time>
      </trkpt>
      <trkpt lat="48.44668" lon="-2.70478">
        <ele>100.6</ele>
        <time>2015-08-26T16:17:31Z</time>
      </trkpt>
      <trkpt lat="48.44677" lon="-2.70465">
        <ele>100.5</ele>
        <time>2015-08-26T16:17:33Z</time>
      </trkpt>
      <trkpt lat="48.44687" lon="-2.7045">
        <ele>100.4</ele>
        <time>2015-08-26T16:17:35Z</time>
      </trkpt>
      <trkpt lat="48.44696" lon="-2.70435">
        <ele>100.3</ele>
        <time>2015-08-26T16:17:37Z</time>
      </trkpt>
      <trkpt lat="48.44705" lon="-2.70419">
        <ele>100.2</ele>
        <time>2015-08-26T16:17:39Z</time>
      </trkpt>
      <trkpt lat="48.44713" lon="-2.70402">
        <ele>99.9</ele>
        <time>2015-08-26T16:17:41Z</time>
      </trkpt>
      <trkpt lat="48.44722" lon="-2.70383">
        <ele>99.6</ele>
        <time>2015-08-26T16:17:43Z</time>
      </trkpt>
      <trkpt lat="48.4473" lon="-2.70363">
        <ele>99.2</ele>
        <time>2015-08-26T16:17:45Z</time>
      </trkpt>
      <trkpt lat="48.44739" lon="-2.70344">
        <ele>98.9</ele>
        <time>2015-08-26T16:17:47Z</time>
      </trkpt>
      <trkpt lat="48.4475" lon="-2.70326">
        <ele>98.5</ele>
        <time>2015-08-26T16:17:49Z</time>
      </trkpt>
      <trkpt lat="48.44763" lon="-2.7031">
        <ele>98.1</ele>
        <time>2015-08-26T16:17:51Z</time>
      </trkpt>
      <trkpt lat="48.44777" lon="-2.70295">
        <ele>97.6</ele>
        <time>2015-08-26T16:17:53Z</time>
      </trkpt>
      <trkpt lat="48.4479" lon="-2.7028">
        <ele>97.2</ele>
        <time>2015-08-26T16:17:55Z</time>
      </trkpt>
      <trkpt lat="48.44803" lon="-2.70265">
        <ele>96.8</ele>
        <time>2015-08-26T16:17:57Z</time>
      </trkpt>
      <trkpt lat="48.44816" lon="-2.7025">
        <ele>96.4</ele>
        <time>2015-08-26T16:17:59Z</time>
      </trkpt>
      <trkpt lat="48.44829" lon="-2.70235">
        <ele>95.9</ele>
        <time>2015-08-26T16:18:01Z</time>
      </trkpt>
      <trkpt lat="48.44842" lon="-2.7022">
        <ele>95.5</ele>
        <time>2015-08-26T16:18:03Z</time>
      </trkpt>
      <trkpt lat="48.44854" lon="-2.70205">
        <ele>95.1</ele>
        <time>2015-08-26T16:18:05Z</time>
      </trkpt>
      <trkpt lat="48.44866" lon="-2.70191">
        <ele>94.7</ele>
        <time>2015-08-26T16:18:07Z</time>
      </trkpt>
      <trkpt lat="48.44878" lon="-2.70177">
        <ele>94.3</ele>
        <time>2015-08-26T16:18:09Z</time>
      </trkpt>
      <trkpt lat="48.4489" lon="-2.70164">
        <ele>93.9</ele>
        <time>2015-08-26T16:18:11Z</time>
      </trkpt>
      <trkpt lat="48.44901" lon="-2.7015">
        <ele>93.6</ele>
        <time>2015-08-26T16:18:13Z</time>
      </trkpt>
      <trkpt lat="48.44912" lon="-2.70139">
        <ele>93.3</ele>
        <time>2015-08-26T16:18:15Z</time>
      </trkpt>
      <trkpt lat="48.44923" lon="-2.70126">
        <ele>93</ele>
        <time>2015-08-26T16:18:17Z</time>
      </trkpt>
      <trkpt lat="48.44933" lon="-2.70115">
        <ele>92.7</ele>
        <time>2015-08-26T16:18:19Z</time>
      </trkpt>
      <trkpt lat="48.44942" lon="-2.70102">
        <ele>92.4</ele>
        <time>2015-08-26T16:18:21Z</time>
      </trkpt>
      <trkpt lat="48.44952" lon="-2.7009">
        <ele>92.1</ele>
        <time>2015-08-26T16:18:23Z</time>
      </trkpt>
      <trkpt lat="48.44961" lon="-2.70078">
        <ele>91.8</ele>
        <time>2015-08-26T16:18:25Z</time>
      </trkpt>
      <trkpt lat="48.44968" lon="-2.70064">
        <ele>91.6</ele>
        <time>2015-08-26T16:18:27Z</time>
      </trkpt>
      <trkpt lat="48.44975" lon="-2.7005">
        <ele>91.3</ele>
        <time>2015-08-26T16:18:29Z</time>
      </trkpt>
      <trkpt lat="48.44982" lon="-2.70037">
        <ele>91</ele>
        <time>2015-08-26T16:18:31Z</time>
      </trkpt>
      <trkpt lat="48.44988" lon="-2.70024">
        <ele>90.8</ele>
        <time>2015-08-26T16:18:33Z</time>
      </trkpt>
      <trkpt lat="48.44994" lon="-2.70013">
        <ele>90.5</ele>
        <time>2015-08-26T16:18:35Z</time>
      </trkpt>
      <trkpt lat="48.44999" lon="-2.70002">
        <ele>90.3</ele>
        <time>2015-08-26T16:18:37Z</time>
      </trkpt>
      <trkpt lat="48.45004" lon="-2.6999">
        <ele>90.2</ele>
        <time>2015-08-26T16:18:39Z</time>
      </trkpt>
      <trkpt lat="48.45009" lon="-2.69979">
        <ele>90</ele>
        <time>2015-08-26T16:18:41Z</time>
      </trkpt>
      <trkpt lat="48.45015" lon="-2.69967">
        <ele>89.8</ele>
        <time>2015-08-26T16:18:43Z</time>
      </trkpt>
      <trkpt lat="48.4502" lon="-2.69955">
        <ele>89.6</ele>
        <time>2015-08-26T16:18:45Z</time>
      </trkpt>
      <trkpt lat="48.45026" lon="-2.69943">
        <ele>89.5</ele>
        <time>2015-08-26T16:18:47Z</time>
      </trkpt>
      <trkpt lat="48.45031" lon="-2.69931">
        <ele>89.4</ele>
        <time>2015-08-26T16:18:49Z</time>
      </trkpt>
      <trkpt lat="48.45035" lon="-2.69918">
        <ele>89.3</ele>
        <time>2015-08-26T16:18:51Z</time>
      </trkpt>
      <trkpt lat="48.45033" lon="-2.69904">
        <ele>89.2</ele>
        <time>2015-08-26T16:18:53Z</time>
      </trkpt>
      <trkpt lat="48.45028" lon="-2.69892">
        <ele>89.1</ele>
        <time>2015-08-26T16:18:55Z</time>
      </trkpt>
      <trkpt lat="48.45022" lon="-2.69874">
        <ele>89</ele>
        <time>2015-08-26T16:18:58Z</time>
      </trkpt>
      <trkpt lat="48.45015" lon="-2.69857">
        <ele>89</ele>
        <time>2015-08-26T16:19:01Z</time>
      </trkpt>
      <trkpt lat="48.45011" lon="-2.69844">
        <ele>89</ele>
        <time>2015-08-26T16:19:03Z</time>
      </trkpt>
      <trkpt lat="48.45007" lon="-2.69831">
        <ele>88.9</ele>
        <time>2015-08-26T16:19:05Z</time>
      </trkpt>
      <trkpt lat="48.45003" lon="-2.69818">
        <ele>89</ele>
        <time>2015-08-26T16:19:07Z</time>
      </trkpt>
      <trkpt lat="48.44999" lon="-2.69805">
        <ele>89</ele>
        <time>2015-08-26T16:19:09Z</time>
      </trkpt>
      <trkpt lat="48.44995" lon="-2.69791">
        <ele>89.1</ele>
        <time>2015-08-26T16:19:11Z</time>
      </trkpt>
      <trkpt lat="48.44992" lon="-2.69777">
        <ele>89.2</ele>
        <time>2015-08-26T16:19:13Z</time>
      </trkpt>
      <trkpt lat="48.44988" lon="-2.69764">
        <ele>89.2</ele>
        <time>2015-08-26T16:19:15Z</time>
      </trkpt>
      <trkpt lat="48.44984" lon="-2.69751">
        <ele>89.3</ele>
        <time>2015-08-26T16:19:17Z</time>
      </trkpt>
      <trkpt lat="48.4498" lon="-2.69737">
        <ele>89.3</ele>
        <time>2015-08-26T16:19:19Z</time>
      </trkpt>
      <trkpt lat="48.44977" lon="-2.69723">
        <ele>89.3</ele>
        <time>2015-08-26T16:19:21Z</time>
      </trkpt>
      <trkpt lat="48.44973" lon="-2.69709">
        <ele>89.3</ele>
        <time>2015-08-26T16:19:23Z</time>
      </trkpt>
      <trkpt lat="48.44969" lon="-2.69694">
        <ele>89.3</ele>
        <time>2015-08-26T16:19:25Z</time>
      </trkpt>
      <trkpt lat="48.44965" lon="-2.6968">
        <ele>89.2</ele>
        <time>2015-08-26T16:19:27Z</time>
      </trkpt>
      <trkpt lat="48.4496" lon="-2.69666">
        <ele>89.1</ele>
        <time>2015-08-26T16:19:29Z</time>
      </trkpt>
      <trkpt lat="48.44956" lon="-2.6965">
        <ele>88.9</ele>
        <time>2015-08-26T16:19:31Z</time>
      </trkpt>
      <trkpt lat="48.44952" lon="-2.69631">
        <ele>88.7</ele>
        <time>2015-08-26T16:19:33Z</time>
      </trkpt>
      <trkpt lat="48.44947" lon="-2.69611">
        <ele>88.3</ele>
        <time>2015-08-26T16:19:35Z</time>
      </trkpt>
      <trkpt lat="48.44943" lon="-2.69591">
        <ele>87.9</ele>
        <time>2015-08-26T16:19:37Z</time>
      </trkpt>
      <trkpt lat="48.44939" lon="-2.6957">
        <ele>87.4</ele>
        <time>2015-08-26T16:19:39Z</time>
      </trkpt>
      <trkpt lat="48.44934" lon="-2.69549">
        <ele>86.8</ele>
        <time>2015-08-26T16:19:41Z</time>
      </trkpt>
      <trkpt lat="48.4493" lon="-2.69527">
        <ele>86.3</ele>
        <time>2015-08-26T16:19:43Z</time>
      </trkpt>
      <trkpt lat="48.44926" lon="-2.69506">
        <ele>85.7</ele>
        <time>2015-08-26T16:19:45Z</time>
      </trkpt>
      <trkpt lat="48.44922" lon="-2.69484">
        <ele>85.1</ele>
        <time>2015-08-26T16:19:47Z</time>
      </trkpt>
      <trkpt lat="48.44918" lon="-2.69461">
        <ele>84.4</ele>
        <time>2015-08-26T16:19:49Z</time>
      </trkpt>
      <trkpt lat="48.44913" lon="-2.69438">
        <ele>83.8</ele>
        <time>2015-08-26T16:19:51Z</time>
      </trkpt>
      <trkpt lat="48.44909" lon="-2.69417">
        <ele>82.9</ele>
        <time>2015-08-26T16:19:53Z</time>
      </trkpt>
      <trkpt lat="48.44905" lon="-2.69403">
        <ele>82</ele>
        <time>2015-08-26T16:19:55Z</time>
      </trkpt>
      <trkpt lat="48.44902" lon="-2.69383">
        <ele>80.3</ele>
        <time>2015-08-26T16:19:58Z</time>
      </trkpt>
      <trkpt lat="48.44901" lon="-2.69366">
        <ele>79.3</ele>
        <time>2015-08-26T16:20:00Z</time>
      </trkpt>
      <trkpt lat="48.44903" lon="-2.69352">
        <ele>78.5</ele>
        <time>2015-08-26T16:20:02Z</time>
      </trkpt>
      <trkpt lat="48.44906" lon="-2.69337">
        <ele>77.7</ele>
        <time>2015-08-26T16:20:04Z</time>
      </trkpt>
      <trkpt lat="48.44909" lon="-2.69322">
        <ele>77.1</ele>
        <time>2015-08-26T16:20:06Z</time>
      </trkpt>
      <trkpt lat="48.44913" lon="-2.69307">
        <ele>76.5</ele>
        <time>2015-08-26T16:20:08Z</time>
      </trkpt>
      <trkpt lat="48.44917" lon="-2.69294">
        <ele>76</ele>
        <time>2015-08-26T16:20:10Z</time>
      </trkpt>
      <trkpt lat="48.44922" lon="-2.69282">
        <ele>75.6</ele>
        <time>2015-08-26T16:20:12Z</time>
      </trkpt>
      <trkpt lat="48.44926" lon="-2.6927">
        <ele>75.2</ele>
        <time>2015-08-26T16:20:14Z</time>
      </trkpt>
      <trkpt lat="48.44931" lon="-2.69258">
        <ele>75</ele>
        <time>2015-08-26T16:20:16Z</time>
      </trkpt>
      <trkpt lat="48.44937" lon="-2.69246">
        <ele>74.7</ele>
        <time>2015-08-26T16:20:18Z</time>
      </trkpt>
      <trkpt lat="48.44943" lon="-2.69236">
        <ele>74.6</ele>
        <time>2015-08-26T16:20:20Z</time>
      </trkpt>
      <trkpt lat="48.44952" lon="-2.69221">
        <ele>74.5</ele>
        <time>2015-08-26T16:20:23Z</time>
      </trkpt>
      <trkpt lat="48.44962" lon="-2.69207">
        <ele>74.5</ele>
        <time>2015-08-26T16:20:26Z</time>
      </trkpt>
      <trkpt lat="48.44968" lon="-2.69197">
        <ele>74.6</ele>
        <time>2015-08-26T16:20:28Z</time>
      </trkpt>
      <trkpt lat="48.44975" lon="-2.69182">
        <ele>74.8</ele>
        <time>2015-08-26T16:20:31Z</time>
      </trkpt>
      <trkpt lat="48.44982" lon="-2.69165">
        <ele>75.1</ele>
        <time>2015-08-26T16:20:34Z</time>
      </trkpt>
      <trkpt lat="48.44986" lon="-2.69153">
        <ele>75.3</ele>
        <time>2015-08-26T16:20:36Z</time>
      </trkpt>
      <trkpt lat="48.4499" lon="-2.6914">
        <ele>75.5</ele>
        <time>2015-08-26T16:20:38Z</time>
      </trkpt>
      <trkpt lat="48.44996" lon="-2.69122">
        <ele>75.7</ele>
        <time>2015-08-26T16:20:41Z</time>
      </trkpt>
      <trkpt lat="48.45001" lon="-2.69104">
        <ele>76</ele>
        <time>2015-08-26T16:20:44Z</time>
      </trkpt>
      <trkpt lat="48.4501" lon="-2.69089">
        <ele>76.5</ele>
        <time>2015-08-26T16:20:47Z</time>
      </trkpt>
      <trkpt lat="48.45019" lon="-2.69086">
        <ele>76.9</ele>
        <time>2015-08-26T16:20:49Z</time>
      </trkpt>
      <trkpt lat="48.45032" lon="-2.69089">
        <ele>77.5</ele>
        <time>2015-08-26T16:20:52Z</time>
      </trkpt>
      <trkpt lat="48.45043" lon="-2.69093">
        <ele>78.3</ele>
        <time>2015-08-26T16:20:55Z</time>
      </trkpt>
      <trkpt lat="48.45055" lon="-2.69096">
        <ele>79</ele>
        <time>2015-08-26T16:20:58Z</time>
      </trkpt>
      <trkpt lat="48.45066" lon="-2.691">
        <ele>79.7</ele>
        <time>2015-08-26T16:21:01Z</time>
      </trkpt>
      <trkpt lat="48.45076" lon="-2.69102">
        <ele>80.2</ele>
        <time>2015-08-26T16:21:04Z</time>
      </trkpt>
      <trkpt lat="48.45088" lon="-2.69104">
        <ele>80.8</ele>
        <time>2015-08-26T16:21:07Z</time>
      </trkpt>
      <trkpt lat="48.451" lon="-2.69108">
        <ele>81.2</ele>
        <time>2015-08-26T16:21:10Z</time>
      </trkpt>
      <trkpt lat="48.45113" lon="-2.69113">
        <ele>81.6</ele>
        <time>2015-08-26T16:21:13Z</time>
      </trkpt>
      <trkpt lat="48.45125" lon="-2.69116">
        <ele>82</ele>
        <time>2015-08-26T16:21:16Z</time>
      </trkpt>
      <trkpt lat="48.45137" lon="-2.6912">
        <ele>82.3</ele>
        <time>2015-08-26T16:21:19Z</time>
      </trkpt>
      <trkpt lat="48.4515" lon="-2.69122">
        <ele>82.7</ele>
        <time>2015-08-26T16:21:22Z</time>
      </trkpt>
      <trkpt lat="48.45164" lon="-2.69124">
        <ele>83</ele>
        <time>2015-08-26T16:21:25Z</time>
      </trkpt>
      <trkpt lat="48.45173" lon="-2.69122">
        <ele>83.2</ele>
        <time>2015-08-26T16:21:27Z</time>
      </trkpt>
      <trkpt lat="48.45182" lon="-2.6912">
        <ele>83.3</ele>
        <time>2015-08-26T16:21:29Z</time>
      </trkpt>
      <trkpt lat="48.45191" lon="-2.69116">
        <ele>83.4</ele>
        <time>2015-08-26T16:21:31Z</time>
      </trkpt>
      <trkpt lat="48.45201" lon="-2.69113">
        <ele>83.5</ele>
        <time>2015-08-26T16:21:33Z</time>
      </trkpt>
      <trkpt lat="48.4521" lon="-2.69108">
        <ele>83.6</ele>
        <time>2015-08-26T16:21:35Z</time>
      </trkpt>
      <trkpt lat="48.4522" lon="-2.69103">
        <ele>83.7</ele>
        <time>2015-08-26T16:21:37Z</time>
      </trkpt>
      <trkpt lat="48.4523" lon="-2.69099">
        <ele>83.7</ele>
        <time>2015-08-26T16:21:39Z</time>
      </trkpt>
      <trkpt lat="48.45241" lon="-2.69095">
        <ele>83.6</ele>
        <time>2015-08-26T16:21:41Z</time>
      </trkpt>
      <trkpt lat="48.45252" lon="-2.69091">
        <ele>83.5</ele>
        <time>2015-08-26T16:21:43Z</time>
      </trkpt>
      <trkpt lat="48.45263" lon="-2.69088">
        <ele>83.4</ele>
        <time>2015-08-26T16:21:45Z</time>
      </trkpt>
      <trkpt lat="48.45274" lon="-2.69085">
        <ele>83.3</ele>
        <time>2015-08-26T16:21:47Z</time>
      </trkpt>
      <trkpt lat="48.45285" lon="-2.69082">
        <ele>83.1</ele>
        <time>2015-08-26T16:21:49Z</time>
      </trkpt>
      <trkpt lat="48.45296" lon="-2.69081">
        <ele>82.9</ele>
        <time>2015-08-26T16:21:51Z</time>
      </trkpt>
      <trkpt lat="48.45307" lon="-2.6908">
        <ele>82.8</ele>
        <time>2015-08-26T16:21:53Z</time>
      </trkpt>
      <trkpt lat="48.45318" lon="-2.6908">
        <ele>82.6</ele>
        <time>2015-08-26T16:21:55Z</time>
      </trkpt>
      <trkpt lat="48.45329" lon="-2.69079">
        <ele>82.4</ele>
        <time>2015-08-26T16:21:57Z</time>
      </trkpt>
      <trkpt lat="48.4534" lon="-2.69081">
        <ele>82.3</ele>
        <time>2015-08-26T16:21:59Z</time>
      </trkpt>
      <trkpt lat="48.45349" lon="-2.69083">
        <ele>82.1</ele>
        <time>2015-08-26T16:22:01Z</time>
      </trkpt>
      <trkpt lat="48.45359" lon="-2.69086">
        <ele>81.9</ele>
        <time>2015-08-26T16:22:03Z</time>
      </trkpt>
      <trkpt lat="48.45368" lon="-2.69089">
        <ele>81.7</ele>
        <time>2015-08-26T16:22:05Z</time>
      </trkpt>
      <trkpt lat="48.45377" lon="-2.69092">
        <ele>81.5</ele>
        <time>2015-08-26T16:22:07Z</time>
      </trkpt>
      <trkpt lat="48.45384" lon="-2.69078">
        <ele>81.2</ele>
        <time>2015-08-26T16:22:11Z</time>
      </trkpt>
      <trkpt lat="48.45383" lon="-2.69092">
        <ele>80.9</ele>
        <time>2015-08-26T16:22:16Z</time>
      </trkpt>
      <trkpt lat="48.45382" lon="-2.69109">
        <ele>80.8</ele>
        <time>2015-08-26T16:22:19Z</time>
      </trkpt>
      <trkpt lat="48.45381" lon="-2.69127">
        <ele>80.7</ele>
        <time>2015-08-26T16:22:22Z</time>
      </trkpt>
      <trkpt lat="48.4538" lon="-2.69143">
        <ele>80.5</ele>
        <time>2015-08-26T16:22:26Z</time>
      </trkpt>
      <trkpt lat="48.4538" lon="-2.69158">
        <ele>80.3</ele>
        <time>2015-08-26T16:22:30Z</time>
      </trkpt>
      <trkpt lat="48.45381" lon="-2.69176">
        <ele>80</ele>
        <time>2015-08-26T16:22:34Z</time>
      </trkpt>
      <trkpt lat="48.45383" lon="-2.6919">
        <ele>79.8</ele>
        <time>2015-08-26T16:22:37Z</time>
      </trkpt>
      <trkpt lat="48.45388" lon="-2.69202">
        <ele>79.5</ele>
        <time>2015-08-26T16:22:40Z</time>
      </trkpt>
      <trkpt lat="48.45396" lon="-2.69213">
        <ele>79.3</ele>
        <time>2015-08-26T16:22:44Z</time>
      </trkpt>
      <trkpt lat="48.45403" lon="-2.69223">
        <ele>79.1</ele>
        <time>2015-08-26T16:22:48Z</time>
      </trkpt>
      <trkpt lat="48.45409" lon="-2.69234">
        <ele>78.6</ele>
        <time>2015-08-26T16:23:02Z</time>
      </trkpt>
      <trkpt lat="48.45419" lon="-2.69243">
        <ele>78.4</ele>
        <time>2015-08-26T16:23:07Z</time>
      </trkpt>
      <trkpt lat="48.45427" lon="-2.69253">
        <ele>78.3</ele>
        <time>2015-08-26T16:23:11Z</time>
      </trkpt>
      <trkpt lat="48.45435" lon="-2.69261">
        <ele>78.2</ele>
        <time>2015-08-26T16:23:15Z</time>
      </trkpt>
      <trkpt lat="48.45444" lon="-2.69276">
        <ele>78.2</ele>
        <time>2015-08-26T16:23:18Z</time>
      </trkpt>
      <trkpt lat="48.45441" lon="-2.69295">
        <ele>78.1</ele>
        <time>2015-08-26T16:23:21Z</time>
      </trkpt>
      <trkpt lat="48.45442" lon="-2.69309">
        <ele>78</ele>
        <time>2015-08-26T16:23:23Z</time>
      </trkpt>
      <trkpt lat="48.45446" lon="-2.69323">
        <ele>77.9</ele>
        <time>2015-08-26T16:23:25Z</time>
      </trkpt>
      <trkpt lat="48.45451" lon="-2.69337">
        <ele>77.8</ele>
        <time>2015-08-26T16:23:27Z</time>
      </trkpt>
      <trkpt lat="48.45456" lon="-2.69351">
        <ele>77.6</ele>
        <time>2015-08-26T16:23:29Z</time>
      </trkpt>
      <trkpt lat="48.45459" lon="-2.69366">
        <ele>77.4</ele>
        <time>2015-08-26T16:23:31Z</time>
      </trkpt>
      <trkpt lat="48.45462" lon="-2.69382">
        <ele>77.1</ele>
        <time>2015-08-26T16:23:33Z</time>
      </trkpt>
      <trkpt lat="48.45464" lon="-2.69401">
        <ele>76.7</ele>
        <time>2015-08-26T16:23:35Z</time>
      </trkpt>
      <trkpt lat="48.45465" lon="-2.69423">
        <ele>76.4</ele>
        <time>2015-08-26T16:23:37Z</time>
      </trkpt>
      <trkpt lat="48.45467" lon="-2.69446">
        <ele>75.9</ele>
        <time>2015-08-26T16:23:39Z</time>
      </trkpt>
      <trkpt lat="48.45469" lon="-2.6947">
        <ele>75.3</ele>
        <time>2015-08-26T16:23:41Z</time>
      </trkpt>
      <trkpt lat="48.45471" lon="-2.69495">
        <ele>74.6</ele>
        <time>2015-08-26T16:23:43Z</time>
      </trkpt>
      <trkpt lat="48.45475" lon="-2.69517">
        <ele>73.8</ele>
        <time>2015-08-26T16:23:45Z</time>
      </trkpt>
      <trkpt lat="48.45483" lon="-2.69534">
        <ele>72.8</ele>
        <time>2015-08-26T16:23:47Z</time>
      </trkpt>
      <trkpt lat="48.45495" lon="-2.69541">
        <ele>71.9</ele>
        <time>2015-08-26T16:23:49Z</time>
      </trkpt>
      <trkpt lat="48.45504" lon="-2.69549">
        <ele>70.9</ele>
        <time>2015-08-26T16:23:51Z</time>
      </trkpt>
      <trkpt lat="48.45513" lon="-2.69557">
        <ele>70</ele>
        <time>2015-08-26T16:23:53Z</time>
      </trkpt>
      <trkpt lat="48.45522" lon="-2.69562">
        <ele>69.3</ele>
        <time>2015-08-26T16:23:55Z</time>
      </trkpt>
      <trkpt lat="48.45534" lon="-2.69568">
        <ele>68.4</ele>
        <time>2015-08-26T16:23:58Z</time>
      </trkpt>
      <trkpt lat="48.45545" lon="-2.69572">
        <ele>67.8</ele>
        <time>2015-08-26T16:24:01Z</time>
      </trkpt>
      <trkpt lat="48.45556" lon="-2.69576">
        <ele>67.5</ele>
        <time>2015-08-26T16:24:04Z</time>
      </trkpt>
      <trkpt lat="48.45568" lon="-2.69572">
        <ele>67.4</ele>
        <time>2015-08-26T16:24:07Z</time>
      </trkpt>
      <trkpt lat="48.45577" lon="-2.69559">
        <ele>67.5</ele>
        <time>2015-08-26T16:24:10Z</time>
      </trkpt>
      <trkpt lat="48.45586" lon="-2.69545">
        <ele>67.6</ele>
        <time>2015-08-26T16:24:13Z</time>
      </trkpt>
      <trkpt lat="48.45597" lon="-2.69537">
        <ele>67.7</ele>
        <time>2015-08-26T16:24:16Z</time>
      </trkpt>
      <trkpt lat="48.45609" lon="-2.69534">
        <ele>67.9</ele>
        <time>2015-08-26T16:24:19Z</time>
      </trkpt>
      <trkpt lat="48.4562" lon="-2.69535">
        <ele>68.3</ele>
        <time>2015-08-26T16:24:22Z</time>
      </trkpt>
      <trkpt lat="48.45632" lon="-2.69538">
        <ele>68.8</ele>
        <time>2015-08-26T16:24:25Z</time>
      </trkpt>
      <trkpt lat="48.45643" lon="-2.6954">
        <ele>69.3</ele>
        <time>2015-08-26T16:24:28Z</time>
      </trkpt>
      <trkpt lat="48.45654" lon="-2.69543">
        <ele>69.7</ele>
        <time>2015-08-26T16:24:31Z</time>
      </trkpt>
      <trkpt lat="48.45664" lon="-2.69547">
        <ele>70.1</ele>
        <time>2015-08-26T16:24:34Z</time>
      </trkpt>
      <trkpt lat="48.45674" lon="-2.69551">
        <ele>70.6</ele>
        <time>2015-08-26T16:24:37Z</time>
      </trkpt>
      <trkpt lat="48.45684" lon="-2.69551">
        <ele>71</ele>
        <time>2015-08-26T16:24:40Z</time>
      </trkpt>
      <trkpt lat="48.45695" lon="-2.69544">
        <ele>71.3</ele>
        <time>2015-08-26T16:24:43Z</time>
      </trkpt>
      <trkpt lat="48.45704" lon="-2.69544">
        <ele>71.5</ele>
        <time>2015-08-26T16:24:46Z</time>
      </trkpt>
      <trkpt lat="48.45714" lon="-2.69551">
        <ele>71.8</ele>
        <time>2015-08-26T16:24:50Z</time>
      </trkpt>
      <trkpt lat="48.45722" lon="-2.69558">
        <ele>71.9</ele>
        <time>2015-08-26T16:24:53Z</time>
      </trkpt>
      <trkpt lat="48.45731" lon="-2.69565">
        <ele>72.1</ele>
        <time>2015-08-26T16:24:56Z</time>
      </trkpt>
      <trkpt lat="48.45739" lon="-2.69574">
        <ele>72.2</ele>
        <time>2015-08-26T16:24:59Z</time>
      </trkpt>
      <trkpt lat="48.4575" lon="-2.69583">
        <ele>72.2</ele>
        <time>2015-08-26T16:25:03Z</time>
      </trkpt>
      <trkpt lat="48.4576" lon="-2.69588">
        <ele>72.1</ele>
        <time>2015-08-26T16:25:05Z</time>
      </trkpt>
      <trkpt lat="48.45769" lon="-2.69593">
        <ele>71.9</ele>
        <time>2015-08-26T16:25:07Z</time>
      </trkpt>
      <trkpt lat="48.45777" lon="-2.69602">
        <ele>71.7</ele>
        <time>2015-08-26T16:25:09Z</time>
      </trkpt>
      <trkpt lat="48.45785" lon="-2.69612">
        <ele>71.6</ele>
        <time>2015-08-26T16:25:11Z</time>
      </trkpt>
      <trkpt lat="48.45792" lon="-2.69621">
        <ele>71.4</ele>
        <time>2015-08-26T16:25:13Z</time>
      </trkpt>
      <trkpt lat="48.45801" lon="-2.69627">
        <ele>71.4</ele>
        <time>2015-08-26T16:25:15Z</time>
      </trkpt>
      <trkpt lat="48.45812" lon="-2.69631">
        <ele>71.7</ele>
        <time>2015-08-26T16:25:19Z</time>
      </trkpt>
      <trkpt lat="48.45823" lon="-2.69634">
        <ele>72.2</ele>
        <time>2015-08-26T16:25:23Z</time>
      </trkpt>
      <trkpt lat="48.45834" lon="-2.69635">
        <ele>72.9</ele>
        <time>2015-08-26T16:25:27Z</time>
      </trkpt>
      <trkpt lat="48.45844" lon="-2.69636">
        <ele>73.5</ele>
        <time>2015-08-26T16:25:31Z</time>
      </trkpt>
      <trkpt lat="48.45854" lon="-2.69638">
        <ele>74.2</ele>
        <time>2015-08-26T16:25:35Z</time>
      </trkpt>
      <trkpt lat="48.45863" lon="-2.69639">
        <ele>75</ele>
        <time>2015-08-26T16:25:39Z</time>
      </trkpt>
      <trkpt lat="48.45873" lon="-2.69643">
        <ele>75.8</ele>
        <time>2015-08-26T16:25:43Z</time>
      </trkpt>
      <trkpt lat="48.45883" lon="-2.69648">
        <ele>76.7</ele>
        <time>2015-08-26T16:25:47Z</time>
      </trkpt>
      <trkpt lat="48.45893" lon="-2.69653">
        <ele>77.4</ele>
        <time>2015-08-26T16:25:51Z</time>
      </trkpt>
      <trkpt lat="48.45903" lon="-2.6966">
        <ele>78.2</ele>
        <time>2015-08-26T16:25:55Z</time>
      </trkpt>
      <trkpt lat="48.45912" lon="-2.69669">
        <ele>79</ele>
        <time>2015-08-26T16:25:59Z</time>
      </trkpt>
      <trkpt lat="48.45922" lon="-2.69677">
        <ele>79.9</ele>
        <time>2015-08-26T16:26:03Z</time>
      </trkpt>
      <trkpt lat="48.45932" lon="-2.69684">
        <ele>80.7</ele>
        <time>2015-08-26T16:26:07Z</time>
      </trkpt>
      <trkpt lat="48.45942" lon="-2.69687">
        <ele>81.6</ele>
        <time>2015-08-26T16:26:11Z</time>
      </trkpt>
      <trkpt lat="48.45954" lon="-2.69687">
        <ele>82.2</ele>
        <time>2015-08-26T16:26:14Z</time>
      </trkpt>
      <trkpt lat="48.45965" lon="-2.6969">
        <ele>82.4</ele>
        <time>2015-08-26T16:26:16Z</time>
      </trkpt>
      <trkpt lat="48.45975" lon="-2.69698">
        <ele>82.5</ele>
        <time>2015-08-26T16:26:18Z</time>
      </trkpt>
      <trkpt lat="48.45985" lon="-2.69708">
        <ele>82.5</ele>
        <time>2015-08-26T16:26:20Z</time>
      </trkpt>
      <trkpt lat="48.45995" lon="-2.69719">
        <ele>82.5</ele>
        <time>2015-08-26T16:26:22Z</time>
      </trkpt>
      <trkpt lat="48.46006" lon="-2.69722">
        <ele>82.4</ele>
        <time>2015-08-26T16:26:24Z</time>
      </trkpt>
      <trkpt lat="48.46015" lon="-2.69722">
        <ele>82.4</ele>
        <time>2015-08-26T16:26:26Z</time>
      </trkpt>
      <trkpt lat="48.46027" lon="-2.69724">
        <ele>82.3</ele>
        <time>2015-08-26T16:26:29Z</time>
      </trkpt>
      <trkpt lat="48.46039" lon="-2.69727">
        <ele>82.3</ele>
        <time>2015-08-26T16:26:32Z</time>
      </trkpt>
      <trkpt lat="48.4605" lon="-2.69731">
        <ele>82.5</ele>
        <time>2015-08-26T16:26:35Z</time>
      </trkpt>
      <trkpt lat="48.46059" lon="-2.69733">
        <ele>82.8</ele>
        <time>2015-08-26T16:26:38Z</time>
      </trkpt>
      <trkpt lat="48.46069" lon="-2.69738">
        <ele>83.3</ele>
        <time>2015-08-26T16:26:42Z</time>
      </trkpt>
      <trkpt lat="48.46078" lon="-2.69741">
        <ele>83.9</ele>
        <time>2015-08-26T16:26:45Z</time>
      </trkpt>
      <trkpt lat="48.46088" lon="-2.69744">
        <ele>84.5</ele>
        <time>2015-08-26T16:26:48Z</time>
      </trkpt>
      <trkpt lat="48.46099" lon="-2.69746">
        <ele>85.1</ele>
        <time>2015-08-26T16:26:51Z</time>
      </trkpt>
      <trkpt lat="48.4611" lon="-2.69747">
        <ele>86.1</ele>
        <time>2015-08-26T16:26:55Z</time>
      </trkpt>
      <trkpt lat="48.4612" lon="-2.6975">
        <ele>86.9</ele>
        <time>2015-08-26T16:26:58Z</time>
      </trkpt>
      <trkpt lat="48.46131" lon="-2.69752">
        <ele>87.7</ele>
        <time>2015-08-26T16:27:01Z</time>
      </trkpt>
      <trkpt lat="48.46143" lon="-2.69756">
        <ele>88.5</ele>
        <time>2015-08-26T16:27:04Z</time>
      </trkpt>
      <trkpt lat="48.46153" lon="-2.69765">
        <ele>89.2</ele>
        <time>2015-08-26T16:27:07Z</time>
      </trkpt>
      <trkpt lat="48.46162" lon="-2.69776">
        <ele>89.8</ele>
        <time>2015-08-26T16:27:10Z</time>
      </trkpt>
      <trkpt lat="48.46171" lon="-2.69787">
        <ele>90.4</ele>
        <time>2015-08-26T16:27:13Z</time>
      </trkpt>
      <trkpt lat="48.46179" lon="-2.69797">
        <ele>90.8</ele>
        <time>2015-08-26T16:27:16Z</time>
      </trkpt>
      <trkpt lat="48.46187" lon="-2.69808">
        <ele>91.3</ele>
        <time>2015-08-26T16:27:19Z</time>
      </trkpt>
      <trkpt lat="48.46195" lon="-2.69817">
        <ele>91.8</ele>
        <time>2015-08-26T16:27:22Z</time>
      </trkpt>
      <trkpt lat="48.46203" lon="-2.69827">
        <ele>92.3</ele>
        <time>2015-08-26T16:27:25Z</time>
      </trkpt>
      <trkpt lat="48.46211" lon="-2.69836">
        <ele>92.8</ele>
        <time>2015-08-26T16:27:28Z</time>
      </trkpt>
      <trkpt lat="48.46219" lon="-2.69845">
        <ele>93.3</ele>
        <time>2015-08-26T16:27:31Z</time>
      </trkpt>
      <trkpt lat="48.46229" lon="-2.69853">
        <ele>93.9</ele>
        <time>2015-08-26T16:27:35Z</time>
      </trkpt>
      <trkpt lat="48.4624" lon="-2.69847">
        <ele>94.4</ele>
        <time>2015-08-26T16:27:39Z</time>
      </trkpt>
      <trkpt lat="48.46248" lon="-2.69838">
        <ele>94.8</ele>
        <time>2015-08-26T16:27:42Z</time>
      </trkpt>
      <trkpt lat="48.46256" lon="-2.69826">
        <ele>95.1</ele>
        <time>2015-08-26T16:27:45Z</time>
      </trkpt>
      <trkpt lat="48.46263" lon="-2.69813">
        <ele>95.3</ele>
        <time>2015-08-26T16:27:48Z</time>
      </trkpt>
      <trkpt lat="48.46271" lon="-2.698">
        <ele>95.5</ele>
        <time>2015-08-26T16:27:51Z</time>
      </trkpt>
      <trkpt lat="48.46277" lon="-2.69785">
        <ele>95.7</ele>
        <time>2015-08-26T16:27:54Z</time>
      </trkpt>
      <trkpt lat="48.46284" lon="-2.69769">
        <ele>95.9</ele>
        <time>2015-08-26T16:27:57Z</time>
      </trkpt>
      <trkpt lat="48.4629" lon="-2.69753">
        <ele>96.1</ele>
        <time>2015-08-26T16:28:00Z</time>
      </trkpt>
      <trkpt lat="48.46297" lon="-2.69735">
        <ele>96.2</ele>
        <time>2015-08-26T16:28:03Z</time>
      </trkpt>
      <trkpt lat="48.46302" lon="-2.69722">
        <ele>96.3</ele>
        <time>2015-08-26T16:28:05Z</time>
      </trkpt>
      <trkpt lat="48.46307" lon="-2.6971">
        <ele>96.4</ele>
        <time>2015-08-26T16:28:07Z</time>
      </trkpt>
      <trkpt lat="48.46311" lon="-2.69697">
        <ele>96.5</ele>
        <time>2015-08-26T16:28:09Z</time>
      </trkpt>
      <trkpt lat="48.46315" lon="-2.69685">
        <ele>96.5</ele>
        <time>2015-08-26T16:28:11Z</time>
      </trkpt>
      <trkpt lat="48.46322" lon="-2.69668">
        <ele>96.6</ele>
        <time>2015-08-26T16:28:14Z</time>
      </trkpt>
      <trkpt lat="48.46329" lon="-2.69652">
        <ele>96.7</ele>
        <time>2015-08-26T16:28:17Z</time>
      </trkpt>
      <trkpt lat="48.46335" lon="-2.69634">
        <ele>96.7</ele>
        <time>2015-08-26T16:28:20Z</time>
      </trkpt>
      <trkpt lat="48.46339" lon="-2.69622">
        <ele>96.7</ele>
        <time>2015-08-26T16:28:22Z</time>
      </trkpt>
      <trkpt lat="48.46343" lon="-2.69609">
        <ele>96.8</ele>
        <time>2015-08-26T16:28:24Z</time>
      </trkpt>
      <trkpt lat="48.46348" lon="-2.69597">
        <ele>96.8</ele>
        <time>2015-08-26T16:28:26Z</time>
      </trkpt>
      <trkpt lat="48.46352" lon="-2.69584">
        <ele>96.8</ele>
        <time>2015-08-26T16:28:28Z</time>
      </trkpt>
      <trkpt lat="48.46356" lon="-2.69572">
        <ele>96.8</ele>
        <time>2015-08-26T16:28:30Z</time>
      </trkpt>
      <trkpt lat="48.4636" lon="-2.6956">
        <ele>96.8</ele>
        <time>2015-08-26T16:28:32Z</time>
      </trkpt>
      <trkpt lat="48.46363" lon="-2.69547">
        <ele>96.9</ele>
        <time>2015-08-26T16:28:34Z</time>
      </trkpt>
      <trkpt lat="48.46366" lon="-2.69533">
        <ele>96.9</ele>
        <time>2015-08-26T16:28:36Z</time>
      </trkpt>
      <trkpt lat="48.46369" lon="-2.6952">
        <ele>96.9</ele>
        <time>2015-08-26T16:28:38Z</time>
      </trkpt>
      <trkpt lat="48.46373" lon="-2.69507">
        <ele>96.9</ele>
        <time>2015-08-26T16:28:40Z</time>
      </trkpt>
      <trkpt lat="48.46379" lon="-2.6949">
        <ele>96.9</ele>
        <time>2015-08-26T16:28:43Z</time>
      </trkpt>
      <trkpt lat="48.46386" lon="-2.69482">
        <ele>96.9</ele>
        <time>2015-08-26T16:28:46Z</time>
      </trkpt>
      <trkpt lat="48.46394" lon="-2.69472">
        <ele>96.9</ele>
        <time>2015-08-26T16:28:51Z</time>
      </trkpt>
      <trkpt lat="48.46401" lon="-2.69481">
        <ele>96.9</ele>
        <time>2015-08-26T16:28:54Z</time>
      </trkpt>
      <trkpt lat="48.46407" lon="-2.695">
        <ele>96.9</ele>
        <time>2015-08-26T16:28:57Z</time>
      </trkpt>
      <trkpt lat="48.46411" lon="-2.69514">
        <ele>96.9</ele>
        <time>2015-08-26T16:28:59Z</time>
      </trkpt>
      <trkpt lat="48.46415" lon="-2.69528">
        <ele>96.9</ele>
        <time>2015-08-26T16:29:01Z</time>
      </trkpt>
      <trkpt lat="48.46419" lon="-2.69543">
        <ele>96.9</ele>
        <time>2015-08-26T16:29:03Z</time>
      </trkpt>
      <trkpt lat="48.46424" lon="-2.69558">
        <ele>96.9</ele>
        <time>2015-08-26T16:29:05Z</time>
      </trkpt>
      <trkpt lat="48.46429" lon="-2.69573">
        <ele>96.9</ele>
        <time>2015-08-26T16:29:07Z</time>
      </trkpt>
      <trkpt lat="48.46433" lon="-2.69588">
        <ele>96.9</ele>
        <time>2015-08-26T16:29:09Z</time>
      </trkpt>
      <trkpt lat="48.46438" lon="-2.69602">
        <ele>97</ele>
        <time>2015-08-26T16:29:11Z</time>
      </trkpt>
      <trkpt lat="48.46443" lon="-2.69617">
        <ele>97</ele>
        <time>2015-08-26T16:29:13Z</time>
      </trkpt>
      <trkpt lat="48.46448" lon="-2.69632">
        <ele>97</ele>
        <time>2015-08-26T16:29:15Z</time>
      </trkpt>
      <trkpt lat="48.46453" lon="-2.69646">
        <ele>97</ele>
        <time>2015-08-26T16:29:17Z</time>
      </trkpt>
      <trkpt lat="48.46457" lon="-2.69661">
        <ele>97</ele>
        <time>2015-08-26T16:29:19Z</time>
      </trkpt>
      <trkpt lat="48.46462" lon="-2.69675">
        <ele>97</ele>
        <time>2015-08-26T16:29:21Z</time>
      </trkpt>
      <trkpt lat="48.46466" lon="-2.6969">
        <ele>97</ele>
        <time>2015-08-26T16:29:23Z</time>
      </trkpt>
      <trkpt lat="48.46471" lon="-2.69704">
        <ele>97</ele>
        <time>2015-08-26T16:29:25Z</time>
      </trkpt>
      <trkpt lat="48.46475" lon="-2.69718">
        <ele>97</ele>
        <time>2015-08-26T16:29:27Z</time>
      </trkpt>
      <trkpt lat="48.4648" lon="-2.69733">
        <ele>97</ele>
        <time>2015-08-26T16:29:29Z</time>
      </trkpt>
      <trkpt lat="48.46484" lon="-2.69747">
        <ele>97</ele>
        <time>2015-08-26T16:29:31Z</time>
      </trkpt>
      <trkpt lat="48.46488" lon="-2.69762">
        <ele>97</ele>
        <time>2015-08-26T16:29:33Z</time>
      </trkpt>
      <trkpt lat="48.46493" lon="-2.69777">
        <ele>97</ele>
        <time>2015-08-26T16:29:35Z</time>
      </trkpt>
      <trkpt lat="48.46498" lon="-2.69791">
        <ele>97</ele>
        <time>2015-08-26T16:29:37Z</time>
      </trkpt>
      <trkpt lat="48.46502" lon="-2.69806">
        <ele>97</ele>
        <time>2015-08-26T16:29:39Z</time>
      </trkpt>
      <trkpt lat="48.46507" lon="-2.69821">
        <ele>97</ele>
        <time>2015-08-26T16:29:41Z</time>
      </trkpt>
      <trkpt lat="48.46512" lon="-2.69835">
        <ele>97</ele>
        <time>2015-08-26T16:29:43Z</time>
      </trkpt>
      <trkpt lat="48.46516" lon="-2.6985">
        <ele>97</ele>
        <time>2015-08-26T16:29:45Z</time>
      </trkpt>
      <trkpt lat="48.4652" lon="-2.69864">
        <ele>97</ele>
        <time>2015-08-26T16:29:47Z</time>
      </trkpt>
      <trkpt lat="48.46525" lon="-2.69879">
        <ele>97</ele>
        <time>2015-08-26T16:29:49Z</time>
      </trkpt>
      <trkpt lat="48.4653" lon="-2.69892">
        <ele>97</ele>
        <time>2015-08-26T16:29:51Z</time>
      </trkpt>
      <trkpt lat="48.46535" lon="-2.69905">
        <ele>97</ele>
        <time>2015-08-26T16:29:53Z</time>
      </trkpt>
      <trkpt lat="48.4654" lon="-2.69916">
        <ele>97</ele>
        <time>2015-08-26T16:29:55Z</time>
      </trkpt>
      <trkpt lat="48.46543" lon="-2.69931">
        <ele>97</ele>
        <time>2015-08-26T16:30:01Z</time>
      </trkpt>
      <trkpt lat="48.46536" lon="-2.69944">
        <ele>97</ele>
        <time>2015-08-26T16:30:05Z</time>
      </trkpt>
      <trkpt lat="48.46527" lon="-2.69957">
        <ele>97</ele>
        <time>2015-08-26T16:30:08Z</time>
      </trkpt>
      <trkpt lat="48.46518" lon="-2.69971">
        <ele>97</ele>
        <time>2015-08-26T16:30:11Z</time>
      </trkpt>
      <trkpt lat="48.46512" lon="-2.69983">
        <ele>97</ele>
        <time>2015-08-26T16:30:13Z</time>
      </trkpt>
      <trkpt lat="48.46506" lon="-2.69994">
        <ele>97</ele>
        <time>2015-08-26T16:30:15Z</time>
      </trkpt>
      <trkpt lat="48.46499" lon="-2.7001">
        <ele>97</ele>
        <time>2015-08-26T16:30:18Z</time>
      </trkpt>
      <trkpt lat="48.46494" lon="-2.70027">
        <ele>97</ele>
        <time>2015-08-26T16:30:21Z</time>
      </trkpt>
      <trkpt lat="48.46495" lon="-2.70045">
        <ele>97.1</ele>
        <time>2015-08-26T16:30:24Z</time>
      </trkpt>
      <trkpt lat="48.46504" lon="-2.70056">
        <ele>97.2</ele>
        <time>2015-08-26T16:30:26Z</time>
      </trkpt>
      <trkpt lat="48.46514" lon="-2.70065">
        <ele>97.3</ele>
        <time>2015-08-26T16:30:28Z</time>
      </trkpt>
      <trkpt lat="48.46525" lon="-2.70073">
        <ele>97.3</ele>
        <time>2015-08-26T16:30:30Z</time>
      </trkpt>
      <trkpt lat="48.46536" lon="-2.70082">
        <ele>97.2</ele>
        <time>2015-08-26T16:30:32Z</time>
      </trkpt>
      <trkpt lat="48.46547" lon="-2.70091">
        <ele>97.1</ele>
        <time>2015-08-26T16:30:34Z</time>
      </trkpt>
      <trkpt lat="48.46558" lon="-2.701">
        <ele>97</ele>
        <time>2015-08-26T16:30:36Z</time>
      </trkpt>
      <trkpt lat="48.4657" lon="-2.70109">
        <ele>96.7</ele>
        <time>2015-08-26T16:30:38Z</time>
      </trkpt>
      <trkpt lat="48.46582" lon="-2.70119">
        <ele>96.5</ele>
        <time>2015-08-26T16:30:40Z</time>
      </trkpt>
      <trkpt lat="48.46594" lon="-2.7013">
        <ele>96.2</ele>
        <time>2015-08-26T16:30:42Z</time>
      </trkpt>
      <trkpt lat="48.46608" lon="-2.70141">
        <ele>95.9</ele>
        <time>2015-08-26T16:30:44Z</time>
      </trkpt>
      <trkpt lat="48.46621" lon="-2.70152">
        <ele>95.5</ele>
        <time>2015-08-26T16:30:46Z</time>
      </trkpt>
      <trkpt lat="48.46635" lon="-2.70163">
        <ele>95</ele>
        <time>2015-08-26T16:30:48Z</time>
      </trkpt>
      <trkpt lat="48.4665" lon="-2.70174">
        <ele>94.5</ele>
        <time>2015-08-26T16:30:50Z</time>
      </trkpt>
      <trkpt lat="48.46665" lon="-2.70185">
        <ele>93.8</ele>
        <time>2015-08-26T16:30:52Z</time>
      </trkpt>
      <trkpt lat="48.46679" lon="-2.70196">
        <ele>93.2</ele>
        <time>2015-08-26T16:30:54Z</time>
      </trkpt>
      <trkpt lat="48.46691" lon="-2.70206">
        <ele>92.7</ele>
        <time>2015-08-26T16:30:56Z</time>
      </trkpt>
      <trkpt lat="48.46703" lon="-2.70214">
        <ele>92.1</ele>
        <time>2015-08-26T16:30:58Z</time>
      </trkpt>
      <trkpt lat="48.46712" lon="-2.70226">
        <ele>91.6</ele>
        <time>2015-08-26T16:31:00Z</time>
      </trkpt>
      <trkpt lat="48.46718" lon="-2.70242">
        <ele>91.1</ele>
        <time>2015-08-26T16:31:02Z</time>
      </trkpt>
      <trkpt lat="48.46724" lon="-2.70258">
        <ele>90.7</ele>
        <time>2015-08-26T16:31:04Z</time>
      </trkpt>
      <trkpt lat="48.46731" lon="-2.70274">
        <ele>90.2</ele>
        <time>2015-08-26T16:31:06Z</time>
      </trkpt>
      <trkpt lat="48.46739" lon="-2.7029">
        <ele>89.7</ele>
        <time>2015-08-26T16:31:08Z</time>
      </trkpt>
      <trkpt lat="48.46748" lon="-2.70305">
        <ele>89.1</ele>
        <time>2015-08-26T16:31:10Z</time>
      </trkpt>
      <trkpt lat="48.46757" lon="-2.70321">
        <ele>88.5</ele>
        <time>2015-08-26T16:31:12Z</time>
      </trkpt>
      <trkpt lat="48.46766" lon="-2.70337">
        <ele>88</ele>
        <time>2015-08-26T16:31:14Z</time>
      </trkpt>
      <trkpt lat="48.46776" lon="-2.70352">
        <ele>87.4</ele>
        <time>2015-08-26T16:31:16Z</time>
      </trkpt>
      <trkpt lat="48.46785" lon="-2.70367">
        <ele>86.8</ele>
        <time>2015-08-26T16:31:18Z</time>
      </trkpt>
      <trkpt lat="48.46793" lon="-2.70382">
        <ele>86.3</ele>
        <time>2015-08-26T16:31:20Z</time>
      </trkpt>
      <trkpt lat="48.46802" lon="-2.70397">
        <ele>85.8</ele>
        <time>2015-08-26T16:31:22Z</time>
      </trkpt>
      <trkpt lat="48.4681" lon="-2.70411">
        <ele>85.3</ele>
        <time>2015-08-26T16:31:24Z</time>
      </trkpt>
      <trkpt lat="48.46818" lon="-2.70425">
        <ele>84.8</ele>
        <time>2015-08-26T16:31:26Z</time>
      </trkpt>
      <trkpt lat="48.46826" lon="-2.70438">
        <ele>84.2</ele>
        <time>2015-08-26T16:31:28Z</time>
      </trkpt>
      <trkpt lat="48.46834" lon="-2.70451">
        <ele>83.7</ele>
        <time>2015-08-26T16:31:30Z</time>
      </trkpt>
      <trkpt lat="48.46842" lon="-2.70465">
        <ele>83.2</ele>
        <time>2015-08-26T16:31:32Z</time>
      </trkpt>
      <trkpt lat="48.4685" lon="-2.70478">
        <ele>82.6</ele>
        <time>2015-08-26T16:31:34Z</time>
      </trkpt>
      <trkpt lat="48.46858" lon="-2.70492">
        <ele>82.2</ele>
        <time>2015-08-26T16:31:36Z</time>
      </trkpt>
      <trkpt lat="48.46866" lon="-2.70505">
        <ele>81.6</ele>
        <time>2015-08-26T16:31:38Z</time>
      </trkpt>
      <trkpt lat="48.46873" lon="-2.70518">
        <ele>81.1</ele>
        <time>2015-08-26T16:31:40Z</time>
      </trkpt>
      <trkpt lat="48.46881" lon="-2.70531">
        <ele>80.7</ele>
        <time>2015-08-26T16:31:42Z</time>
      </trkpt>
      <trkpt lat="48.4689" lon="-2.70542">
        <ele>80</ele>
        <time>2015-08-26T16:31:45Z</time>
      </trkpt>
      <trkpt lat="48.469" lon="-2.70535">
        <ele>79.3</ele>
        <time>2015-08-26T16:31:49Z</time>
      </trkpt>
      <trkpt lat="48.46907" lon="-2.70524">
        <ele>78.9</ele>
        <time>2015-08-26T16:31:53Z</time>
      </trkpt>
      <trkpt lat="48.46914" lon="-2.70513">
        <ele>78.9</ele>
        <time>2015-08-26T16:31:57Z</time>
      </trkpt>
      <trkpt lat="48.46918" lon="-2.70498">
        <ele>79.6</ele>
        <time>2015-08-26T16:32:04Z</time>
      </trkpt>
      <trkpt lat="48.46923" lon="-2.70484">
        <ele>80.2</ele>
        <time>2015-08-26T16:32:08Z</time>
      </trkpt>
      <trkpt lat="48.46927" lon="-2.7047">
        <ele>80.7</ele>
        <time>2015-08-26T16:32:11Z</time>
      </trkpt>
      <trkpt lat="48.46931" lon="-2.70457">
        <ele>81.3</ele>
        <time>2015-08-26T16:32:14Z</time>
      </trkpt>
      <trkpt lat="48.46935" lon="-2.70443">
        <ele>81.9</ele>
        <time>2015-08-26T16:32:17Z</time>
      </trkpt>
      <trkpt lat="48.46939" lon="-2.70431">
        <ele>82.5</ele>
        <time>2015-08-26T16:32:20Z</time>
      </trkpt>
      <trkpt lat="48.46942" lon="-2.70418">
        <ele>83.2</ele>
        <time>2015-08-26T16:32:23Z</time>
      </trkpt>
      <trkpt lat="48.46946" lon="-2.70406">
        <ele>83.8</ele>
        <time>2015-08-26T16:32:26Z</time>
      </trkpt>
      <trkpt lat="48.4695" lon="-2.70392">
        <ele>84.4</ele>
        <time>2015-08-26T16:32:29Z</time>
      </trkpt>
      <trkpt lat="48.46954" lon="-2.70379">
        <ele>85</ele>
        <time>2015-08-26T16:32:32Z</time>
      </trkpt>
      <trkpt lat="48.46959" lon="-2.70364">
        <ele>85.6</ele>
        <time>2015-08-26T16:32:35Z</time>
      </trkpt>
      <trkpt lat="48.46963" lon="-2.70349">
        <ele>86.2</ele>
        <time>2015-08-26T16:32:38Z</time>
      </trkpt>
      <trkpt lat="48.46968" lon="-2.70334">
        <ele>86.8</ele>
        <time>2015-08-26T16:32:41Z</time>
      </trkpt>
      <trkpt lat="48.46973" lon="-2.70319">
        <ele>87.2</ele>
        <time>2015-08-26T16:32:44Z</time>
      </trkpt>
      <trkpt lat="48.46978" lon="-2.70305">
        <ele>87.6</ele>
        <time>2015-08-26T16:32:47Z</time>
      </trkpt>
      <trkpt lat="48.46984" lon="-2.70291">
        <ele>88</ele>
        <time>2015-08-26T16:32:50Z</time>
      </trkpt>
      <trkpt lat="48.46989" lon="-2.70275">
        <ele>88.3</ele>
        <time>2015-08-26T16:32:53Z</time>
      </trkpt>
      <trkpt lat="48.46995" lon="-2.70259">
        <ele>88.6</ele>
        <time>2015-08-26T16:32:56Z</time>
      </trkpt>
      <trkpt lat="48.47001" lon="-2.70244">
        <ele>88.9</ele>
        <time>2015-08-26T16:32:59Z</time>
      </trkpt>
      <trkpt lat="48.4701" lon="-2.70232">
        <ele>89.2</ele>
        <time>2015-08-26T16:33:02Z</time>
      </trkpt>
      <trkpt lat="48.47019" lon="-2.70218">
        <ele>89.4</ele>
        <time>2015-08-26T16:33:05Z</time>
      </trkpt>
      <trkpt lat="48.47028" lon="-2.70205">
        <ele>89.8</ele>
        <time>2015-08-26T16:33:08Z</time>
      </trkpt>
      <trkpt lat="48.47038" lon="-2.70191">
        <ele>90</ele>
        <time>2015-08-26T16:33:11Z</time>
      </trkpt>
      <trkpt lat="48.47044" lon="-2.70181">
        <ele>90.2</ele>
        <time>2015-08-26T16:33:13Z</time>
      </trkpt>
      <trkpt lat="48.47054" lon="-2.70167">
        <ele>90.4</ele>
        <time>2015-08-26T16:33:16Z</time>
      </trkpt>
      <trkpt lat="48.4706" lon="-2.70156">
        <ele>90.5</ele>
        <time>2015-08-26T16:33:18Z</time>
      </trkpt>
      <trkpt lat="48.47069" lon="-2.70141">
        <ele>90.6</ele>
        <time>2015-08-26T16:33:21Z</time>
      </trkpt>
      <trkpt lat="48.47077" lon="-2.70126">
        <ele>90.8</ele>
        <time>2015-08-26T16:33:24Z</time>
      </trkpt>
      <trkpt lat="48.47083" lon="-2.70115">
        <ele>90.9</ele>
        <time>2015-08-26T16:33:26Z</time>
      </trkpt>
      <trkpt lat="48.47089" lon="-2.70104">
        <ele>90.9</ele>
        <time>2015-08-26T16:33:28Z</time>
      </trkpt>
      <trkpt lat="48.47095" lon="-2.70092">
        <ele>91</ele>
        <time>2015-08-26T16:33:30Z</time>
      </trkpt>
      <trkpt lat="48.47101" lon="-2.70078">
        <ele>91.1</ele>
        <time>2015-08-26T16:33:32Z</time>
      </trkpt>
      <trkpt lat="48.47106" lon="-2.70064">
        <ele>91.1</ele>
        <time>2015-08-26T16:33:34Z</time>
      </trkpt>
      <trkpt lat="48.47111" lon="-2.7005">
        <ele>91.2</ele>
        <time>2015-08-26T16:33:36Z</time>
      </trkpt>
      <trkpt lat="48.47116" lon="-2.70035">
        <ele>91.2</ele>
        <time>2015-08-26T16:33:38Z</time>
      </trkpt>
      <trkpt lat="48.47121" lon="-2.7002">
        <ele>91.2</ele>
        <time>2015-08-26T16:33:40Z</time>
      </trkpt>
      <trkpt lat="48.47124" lon="-2.70005">
        <ele>91.1</ele>
        <time>2015-08-26T16:33:42Z</time>
      </trkpt>
      <trkpt lat="48.47125" lon="-2.69987">
        <ele>91</ele>
        <time>2015-08-26T16:33:44Z</time>
      </trkpt>
      <trkpt lat="48.47125" lon="-2.6997">
        <ele>90.8</ele>
        <time>2015-08-26T16:33:46Z</time>
      </trkpt>
      <trkpt lat="48.47127" lon="-2.69956">
        <ele>90.5</ele>
        <time>2015-08-26T16:33:48Z</time>
      </trkpt>
      <trkpt lat="48.47136" lon="-2.69942">
        <ele>90.3</ele>
        <time>2015-08-26T16:33:51Z</time>
      </trkpt>
      <trkpt lat="48.47142" lon="-2.69931">
        <ele>90.1</ele>
        <time>2015-08-26T16:33:53Z</time>
      </trkpt>
      <trkpt lat="48.47148" lon="-2.6992">
        <ele>90</ele>
        <time>2015-08-26T16:33:55Z</time>
      </trkpt>
      <trkpt lat="48.47154" lon="-2.6991">
        <ele>89.9</ele>
        <time>2015-08-26T16:33:57Z</time>
      </trkpt>
      <trkpt lat="48.4716" lon="-2.69899">
        <ele>89.8</ele>
        <time>2015-08-26T16:33:59Z</time>
      </trkpt>
      <trkpt lat="48.47166" lon="-2.69889">
        <ele>89.8</ele>
        <time>2015-08-26T16:34:01Z</time>
      </trkpt>
      <trkpt lat="48.47174" lon="-2.69874">
        <ele>89.8</ele>
        <time>2015-08-26T16:34:04Z</time>
      </trkpt>
      <trkpt lat="48.47183" lon="-2.6986">
        <ele>89.9</ele>
        <time>2015-08-26T16:34:07Z</time>
      </trkpt>
      <trkpt lat="48.47191" lon="-2.69846">
        <ele>90</ele>
        <time>2015-08-26T16:34:10Z</time>
      </trkpt>
      <trkpt lat="48.472" lon="-2.69833">
        <ele>90.2</ele>
        <time>2015-08-26T16:34:13Z</time>
      </trkpt>
      <trkpt lat="48.4721" lon="-2.6982">
        <ele>90.5</ele>
        <time>2015-08-26T16:34:16Z</time>
      </trkpt>
      <trkpt lat="48.4722" lon="-2.69806">
        <ele>90.7</ele>
        <time>2015-08-26T16:34:19Z</time>
      </trkpt>
      <trkpt lat="48.47227" lon="-2.69796">
        <ele>90.9</ele>
        <time>2015-08-26T16:34:21Z</time>
      </trkpt>
      <trkpt lat="48.47234" lon="-2.69786">
        <ele>91.1</ele>
        <time>2015-08-26T16:34:23Z</time>
      </trkpt>
      <trkpt lat="48.47242" lon="-2.69776">
        <ele>91.3</ele>
        <time>2015-08-26T16:34:25Z</time>
      </trkpt>
      <trkpt lat="48.47249" lon="-2.69766">
        <ele>91.4</ele>
        <time>2015-08-26T16:34:27Z</time>
      </trkpt>
      <trkpt lat="48.47257" lon="-2.69756">
        <ele>91.6</ele>
        <time>2015-08-26T16:34:29Z</time>
      </trkpt>
      <trkpt lat="48.47265" lon="-2.69746">
        <ele>91.7</ele>
        <time>2015-08-26T16:34:31Z</time>
      </trkpt>
      <trkpt lat="48.47272" lon="-2.69736">
        <ele>91.8</ele>
        <time>2015-08-26T16:34:33Z</time>
      </trkpt>
      <trkpt lat="48.47279" lon="-2.69727">
        <ele>91.9</ele>
        <time>2015-08-26T16:34:35Z</time>
      </trkpt>
      <trkpt lat="48.47286" lon="-2.69717">
        <ele>92.1</ele>
        <time>2015-08-26T16:34:37Z</time>
      </trkpt>
      <trkpt lat="48.47293" lon="-2.69708">
        <ele>92.2</ele>
        <time>2015-08-26T16:34:39Z</time>
      </trkpt>
      <trkpt lat="48.473" lon="-2.69698">
        <ele>92.4</ele>
        <time>2015-08-26T16:34:41Z</time>
      </trkpt>
      <trkpt lat="48.47306" lon="-2.69689">
        <ele>92.5</ele>
        <time>2015-08-26T16:34:43Z</time>
      </trkpt>
      <trkpt lat="48.47313" lon="-2.69679">
        <ele>92.7</ele>
        <time>2015-08-26T16:34:45Z</time>
      </trkpt>
      <trkpt lat="48.47323" lon="-2.69666">
        <ele>93</ele>
        <time>2015-08-26T16:34:48Z</time>
      </trkpt>
      <trkpt lat="48.47333" lon="-2.69654">
        <ele>93.3</ele>
        <time>2015-08-26T16:34:51Z</time>
      </trkpt>
      <trkpt lat="48.47345" lon="-2.69645">
        <ele>93.7</ele>
        <time>2015-08-26T16:34:54Z</time>
      </trkpt>
      <trkpt lat="48.47352" lon="-2.69638">
        <ele>93.9</ele>
        <time>2015-08-26T16:34:56Z</time>
      </trkpt>
      <trkpt lat="48.4736" lon="-2.69629">
        <ele>94.1</ele>
        <time>2015-08-26T16:34:58Z</time>
      </trkpt>
      <trkpt lat="48.47367" lon="-2.69618">
        <ele>94.3</ele>
        <time>2015-08-26T16:35:00Z</time>
      </trkpt>
      <trkpt lat="48.47374" lon="-2.69608">
        <ele>94.4</ele>
        <time>2015-08-26T16:35:02Z</time>
      </trkpt>
      <trkpt lat="48.4738" lon="-2.69598">
        <ele>94.6</ele>
        <time>2015-08-26T16:35:04Z</time>
      </trkpt>
      <trkpt lat="48.47387" lon="-2.69588">
        <ele>94.7</ele>
        <time>2015-08-26T16:35:06Z</time>
      </trkpt>
      <trkpt lat="48.47393" lon="-2.69578">
        <ele>94.8</ele>
        <time>2015-08-26T16:35:08Z</time>
      </trkpt>
      <trkpt lat="48.47402" lon="-2.69563">
        <ele>95</ele>
        <time>2015-08-26T16:35:11Z</time>
      </trkpt>
      <trkpt lat="48.47408" lon="-2.69553">
        <ele>95</ele>
        <time>2015-08-26T16:35:13Z</time>
      </trkpt>
      <trkpt lat="48.47415" lon="-2.69543">
        <ele>95.1</ele>
        <time>2015-08-26T16:35:15Z</time>
      </trkpt>
      <trkpt lat="48.47421" lon="-2.69532">
        <ele>95.2</ele>
        <time>2015-08-26T16:35:17Z</time>
      </trkpt>
      <trkpt lat="48.47428" lon="-2.69522">
        <ele>95.2</ele>
        <time>2015-08-26T16:35:19Z</time>
      </trkpt>
      <trkpt lat="48.47435" lon="-2.69511">
        <ele>95.2</ele>
        <time>2015-08-26T16:35:21Z</time>
      </trkpt>
      <trkpt lat="48.47442" lon="-2.695">
        <ele>95.2</ele>
        <time>2015-08-26T16:35:23Z</time>
      </trkpt>
      <trkpt lat="48.47449" lon="-2.69489">
        <ele>95.2</ele>
        <time>2015-08-26T16:35:25Z</time>
      </trkpt>
      <trkpt lat="48.47457" lon="-2.69479">
        <ele>95.1</ele>
        <time>2015-08-26T16:35:27Z</time>
      </trkpt>
      <trkpt lat="48.47465" lon="-2.69469">
        <ele>95.1</ele>
        <time>2015-08-26T16:35:29Z</time>
      </trkpt>
      <trkpt lat="48.47473" lon="-2.6946">
        <ele>95</ele>
        <time>2015-08-26T16:35:31Z</time>
      </trkpt>
      <trkpt lat="48.47482" lon="-2.6945">
        <ele>94.9</ele>
        <time>2015-08-26T16:35:33Z</time>
      </trkpt>
      <trkpt lat="48.47492" lon="-2.69441">
        <ele>94.8</ele>
        <time>2015-08-26T16:35:35Z</time>
      </trkpt>
      <trkpt lat="48.47501" lon="-2.69431">
        <ele>94.5</ele>
        <time>2015-08-26T16:35:37Z</time>
      </trkpt>
      <trkpt lat="48.47512" lon="-2.69421">
        <ele>94.3</ele>
        <time>2015-08-26T16:35:39Z</time>
      </trkpt>
      <trkpt lat="48.47522" lon="-2.69411">
        <ele>94.1</ele>
        <time>2015-08-26T16:35:41Z</time>
      </trkpt>
      <trkpt lat="48.47531" lon="-2.69401">
        <ele>93.8</ele>
        <time>2015-08-26T16:35:43Z</time>
      </trkpt>
      <trkpt lat="48.4754" lon="-2.6939">
        <ele>93.5</ele>
        <time>2015-08-26T16:35:45Z</time>
      </trkpt>
      <trkpt lat="48.47548" lon="-2.69377">
        <ele>93.2</ele>
        <time>2015-08-26T16:35:47Z</time>
      </trkpt>
      <trkpt lat="48.47555" lon="-2.69366">
        <ele>92.9</ele>
        <time>2015-08-26T16:35:49Z</time>
      </trkpt>
      <trkpt lat="48.47562" lon="-2.69355">
        <ele>92.6</ele>
        <time>2015-08-26T16:35:51Z</time>
      </trkpt>
      <trkpt lat="48.47569" lon="-2.69344">
        <ele>92.4</ele>
        <time>2015-08-26T16:35:53Z</time>
      </trkpt>
      <trkpt lat="48.47575" lon="-2.69332">
        <ele>92.2</ele>
        <time>2015-08-26T16:35:55Z</time>
      </trkpt>
      <trkpt lat="48.47581" lon="-2.69318">
        <ele>92.1</ele>
        <time>2015-08-26T16:35:57Z</time>
      </trkpt>
      <trkpt lat="48.47586" lon="-2.69303">
        <ele>91.9</ele>
        <time>2015-08-26T16:35:59Z</time>
      </trkpt>
      <trkpt lat="48.47591" lon="-2.69288">
        <ele>91.7</ele>
        <time>2015-08-26T16:36:01Z</time>
      </trkpt>
      <trkpt lat="48.47595" lon="-2.69272">
        <ele>91.5</ele>
        <time>2015-08-26T16:36:03Z</time>
      </trkpt>
      <trkpt lat="48.476" lon="-2.69255">
        <ele>91.3</ele>
        <time>2015-08-26T16:36:05Z</time>
      </trkpt>
      <trkpt lat="48.47605" lon="-2.69238">
        <ele>91.2</ele>
        <time>2015-08-26T16:36:07Z</time>
      </trkpt>
      <trkpt lat="48.4761" lon="-2.6922">
        <ele>91.1</ele>
        <time>2015-08-26T16:36:09Z</time>
      </trkpt>
      <trkpt lat="48.47615" lon="-2.69203">
        <ele>90.9</ele>
        <time>2015-08-26T16:36:11Z</time>
      </trkpt>
      <trkpt lat="48.4762" lon="-2.69185">
        <ele>90.6</ele>
        <time>2015-08-26T16:36:13Z</time>
      </trkpt>
      <trkpt lat="48.47624" lon="-2.6917">
        <ele>90.4</ele>
        <time>2015-08-26T16:36:15Z</time>
      </trkpt>
      <trkpt lat="48.47627" lon="-2.69156">
        <ele>89.6</ele>
        <time>2015-08-26T16:36:23Z</time>
      </trkpt>
      <trkpt lat="48.47635" lon="-2.69147">
        <ele>89.3</ele>
        <time>2015-08-26T16:36:27Z</time>
      </trkpt>
      <trkpt lat="48.47645" lon="-2.69136">
        <ele>89</ele>
        <time>2015-08-26T16:36:30Z</time>
      </trkpt>
      <trkpt lat="48.47653" lon="-2.69126">
        <ele>88.8</ele>
        <time>2015-08-26T16:36:32Z</time>
      </trkpt>
      <trkpt lat="48.4766" lon="-2.69115">
        <ele>88.7</ele>
        <time>2015-08-26T16:36:34Z</time>
      </trkpt>
      <trkpt lat="48.47667" lon="-2.69103">
        <ele>88.5</ele>
        <time>2015-08-26T16:36:36Z</time>
      </trkpt>
      <trkpt lat="48.47673" lon="-2.69093">
        <ele>88.3</ele>
        <time>2015-08-26T16:36:38Z</time>
      </trkpt>
      <trkpt lat="48.4768" lon="-2.69078">
        <ele>88.1</ele>
        <time>2015-08-26T16:36:41Z</time>
      </trkpt>
      <trkpt lat="48.47693" lon="-2.69074">
        <ele>87.9</ele>
        <time>2015-08-26T16:36:44Z</time>
      </trkpt>
      <trkpt lat="48.47702" lon="-2.69073">
        <ele>87.8</ele>
        <time>2015-08-26T16:36:46Z</time>
      </trkpt>
      <trkpt lat="48.47714" lon="-2.69066">
        <ele>87.4</ele>
        <time>2015-08-26T16:36:49Z</time>
      </trkpt>
      <trkpt lat="48.47723" lon="-2.69062">
        <ele>87.2</ele>
        <time>2015-08-26T16:36:51Z</time>
      </trkpt>
      <trkpt lat="48.47732" lon="-2.69058">
        <ele>87</ele>
        <time>2015-08-26T16:36:53Z</time>
      </trkpt>
      <trkpt lat="48.47746" lon="-2.69052">
        <ele>86.8</ele>
        <time>2015-08-26T16:36:56Z</time>
      </trkpt>
      <trkpt lat="48.47757" lon="-2.69047">
        <ele>86.7</ele>
        <time>2015-08-26T16:36:58Z</time>
      </trkpt>
      <trkpt lat="48.47768" lon="-2.69041">
        <ele>86.5</ele>
        <time>2015-08-26T16:37:00Z</time>
      </trkpt>
      <trkpt lat="48.47778" lon="-2.69035">
        <ele>86.4</ele>
        <time>2015-08-26T16:37:02Z</time>
      </trkpt>
      <trkpt lat="48.47788" lon="-2.69029">
        <ele>86.3</ele>
        <time>2015-08-26T16:37:04Z</time>
      </trkpt>
      <trkpt lat="48.47797" lon="-2.69022">
        <ele>86.3</ele>
        <time>2015-08-26T16:37:06Z</time>
      </trkpt>
      <trkpt lat="48.47808" lon="-2.69014">
        <ele>86.2</ele>
        <time>2015-08-26T16:37:08Z</time>
      </trkpt>
      <trkpt lat="48.47816" lon="-2.69003">
        <ele>86.1</ele>
        <time>2015-08-26T16:37:10Z</time>
      </trkpt>
      <trkpt lat="48.47823" lon="-2.68992">
        <ele>86.1</ele>
        <time>2015-08-26T16:37:12Z</time>
      </trkpt>
      <trkpt lat="48.4783" lon="-2.68981">
        <ele>86</ele>
        <time>2015-08-26T16:37:14Z</time>
      </trkpt>
      <trkpt lat="48.47836" lon="-2.68969">
        <ele>86</ele>
        <time>2015-08-26T16:37:16Z</time>
      </trkpt>
      <trkpt lat="48.47843" lon="-2.68956">
        <ele>85.9</ele>
        <time>2015-08-26T16:37:18Z</time>
      </trkpt>
      <trkpt lat="48.47853" lon="-2.68943">
        <ele>85.6</ele>
        <time>2015-08-26T16:37:20Z</time>
      </trkpt>
      <trkpt lat="48.47862" lon="-2.6893">
        <ele>85.3</ele>
        <time>2015-08-26T16:37:22Z</time>
      </trkpt>
      <trkpt lat="48.47871" lon="-2.68938">
        <ele>84.6</ele>
        <time>2015-08-26T16:37:26Z</time>
      </trkpt>
      <trkpt lat="48.47872" lon="-2.68957">
        <ele>84.1</ele>
        <time>2015-08-26T16:37:29Z</time>
      </trkpt>
      <trkpt lat="48.47872" lon="-2.68971">
        <ele>83.8</ele>
        <time>2015-08-26T16:37:31Z</time>
      </trkpt>
      <trkpt lat="48.47872" lon="-2.68986">
        <ele>83.5</ele>
        <time>2015-08-26T16:37:33Z</time>
      </trkpt>
      <trkpt lat="48.47872" lon="-2.69002">
        <ele>83.2</ele>
        <time>2015-08-26T16:37:35Z</time>
      </trkpt>
      <trkpt lat="48.47871" lon="-2.69018">
        <ele>82.9</ele>
        <time>2015-08-26T16:37:37Z</time>
      </trkpt>
      <trkpt lat="48.47871" lon="-2.69033">
        <ele>82.6</ele>
        <time>2015-08-26T16:37:39Z</time>
      </trkpt>
      <trkpt lat="48.47871" lon="-2.6905">
        <ele>82.3</ele>
        <time>2015-08-26T16:37:41Z</time>
      </trkpt>
      <trkpt lat="48.47871" lon="-2.69066">
        <ele>82</ele>
        <time>2015-08-26T16:37:43Z</time>
      </trkpt>
      <trkpt lat="48.47871" lon="-2.69083">
        <ele>81.8</ele>
        <time>2015-08-26T16:37:45Z</time>
      </trkpt>
      <trkpt lat="48.47871" lon="-2.69102">
        <ele>81.5</ele>
        <time>2015-08-26T16:37:47Z</time>
      </trkpt>
      <trkpt lat="48.47869" lon="-2.6912">
        <ele>81.2</ele>
        <time>2015-08-26T16:37:49Z</time>
      </trkpt>
      <trkpt lat="48.47868" lon="-2.6914">
        <ele>80.8</ele>
        <time>2015-08-26T16:37:51Z</time>
      </trkpt>
      <trkpt lat="48.47866" lon="-2.69159">
        <ele>80.4</ele>
        <time>2015-08-26T16:37:53Z</time>
      </trkpt>
      <trkpt lat="48.47864" lon="-2.69178">
        <ele>80</ele>
        <time>2015-08-26T16:37:55Z</time>
      </trkpt>
      <trkpt lat="48.47862" lon="-2.69197">
        <ele>79.6</ele>
        <time>2015-08-26T16:37:57Z</time>
      </trkpt>
      <trkpt lat="48.47858" lon="-2.69214">
        <ele>79.3</ele>
        <time>2015-08-26T16:37:59Z</time>
      </trkpt>
      <trkpt lat="48.47855" lon="-2.6923">
        <ele>78.9</ele>
        <time>2015-08-26T16:38:01Z</time>
      </trkpt>
      <trkpt lat="48.47852" lon="-2.69246">
        <ele>78.6</ele>
        <time>2015-08-26T16:38:03Z</time>
      </trkpt>
      <trkpt lat="48.47849" lon="-2.69261">
        <ele>78.4</ele>
        <time>2015-08-26T16:38:05Z</time>
      </trkpt>
      <trkpt lat="48.47845" lon="-2.69275">
        <ele>78.1</ele>
        <time>2015-08-26T16:38:07Z</time>
      </trkpt>
      <trkpt lat="48.47842" lon="-2.69289">
        <ele>77.9</ele>
        <time>2015-08-26T16:38:09Z</time>
      </trkpt>
      <trkpt lat="48.47838" lon="-2.69302">
        <ele>77.7</ele>
        <time>2015-08-26T16:38:11Z</time>
      </trkpt>
      <trkpt lat="48.47834" lon="-2.69316">
        <ele>77.6</ele>
        <time>2015-08-26T16:38:13Z</time>
      </trkpt>
      <trkpt lat="48.4783" lon="-2.6933">
        <ele>77.4</ele>
        <time>2015-08-26T16:38:15Z</time>
      </trkpt>
      <trkpt lat="48.47825" lon="-2.69345">
        <ele>77.3</ele>
        <time>2015-08-26T16:38:17Z</time>
      </trkpt>
      <trkpt lat="48.47821" lon="-2.69361">
        <ele>77.2</ele>
        <time>2015-08-26T16:38:19Z</time>
      </trkpt>
      <trkpt lat="48.47816" lon="-2.69377">
        <ele>77.1</ele>
        <time>2015-08-26T16:38:21Z</time>
      </trkpt>
      <trkpt lat="48.47812" lon="-2.69394">
        <ele>76.9</ele>
        <time>2015-08-26T16:38:23Z</time>
      </trkpt>
      <trkpt lat="48.47809" lon="-2.6941">
        <ele>76.7</ele>
        <time>2015-08-26T16:38:25Z</time>
      </trkpt>
      <trkpt lat="48.47805" lon="-2.69425">
        <ele>76.5</ele>
        <time>2015-08-26T16:38:27Z</time>
      </trkpt>
      <trkpt lat="48.47802" lon="-2.69439">
        <ele>76.3</ele>
        <time>2015-08-26T16:38:29Z</time>
      </trkpt>
      <trkpt lat="48.47799" lon="-2.69455">
        <ele>76.1</ele>
        <time>2015-08-26T16:38:32Z</time>
      </trkpt>
      <trkpt lat="48.47796" lon="-2.69474">
        <ele>76.1</ele>
        <time>2015-08-26T16:38:35Z</time>
      </trkpt>
      <trkpt lat="48.47792" lon="-2.69491">
        <ele>76.3</ele>
        <time>2015-08-26T16:38:38Z</time>
      </trkpt>
      <trkpt lat="48.47782" lon="-2.69502">
        <ele>76.7</ele>
        <time>2015-08-26T16:38:41Z</time>
      </trkpt>
      <trkpt lat="48.47772" lon="-2.69511">
        <ele>77.1</ele>
        <time>2015-08-26T16:38:44Z</time>
      </trkpt>
      <trkpt lat="48.47768" lon="-2.69527">
        <ele>77.6</ele>
        <time>2015-08-26T16:38:47Z</time>
      </trkpt>
      <trkpt lat="48.47763" lon="-2.69542">
        <ele>78.2</ele>
        <time>2015-08-26T16:38:50Z</time>
      </trkpt>
      <trkpt lat="48.47758" lon="-2.69556">
        <ele>78.7</ele>
        <time>2015-08-26T16:38:53Z</time>
      </trkpt>
      <trkpt lat="48.47754" lon="-2.6957">
        <ele>79.4</ele>
        <time>2015-08-26T16:38:56Z</time>
      </trkpt>
      <trkpt lat="48.47748" lon="-2.69584">
        <ele>80</ele>
        <time>2015-08-26T16:38:59Z</time>
      </trkpt>
      <trkpt lat="48.47743" lon="-2.69597">
        <ele>80.7</ele>
        <time>2015-08-26T16:39:02Z</time>
      </trkpt>
      <trkpt lat="48.47742" lon="-2.69614">
        <ele>81.5</ele>
        <time>2015-08-26T16:39:06Z</time>
      </trkpt>
      <trkpt lat="48.47747" lon="-2.69627">
        <ele>82</ele>
        <time>2015-08-26T16:39:09Z</time>
      </trkpt>
      <trkpt lat="48.47752" lon="-2.6964">
        <ele>82.5</ele>
        <time>2015-08-26T16:39:12Z</time>
      </trkpt>
      <trkpt lat="48.47761" lon="-2.69653">
        <ele>82.8</ele>
        <time>2015-08-26T16:39:15Z</time>
      </trkpt>
      <trkpt lat="48.47772" lon="-2.69664">
        <ele>83.1</ele>
        <time>2015-08-26T16:39:18Z</time>
      </trkpt>
      <trkpt lat="48.4778" lon="-2.69669">
        <ele>83.3</ele>
        <time>2015-08-26T16:39:20Z</time>
      </trkpt>
      <trkpt lat="48.47789" lon="-2.69673">
        <ele>83.4</ele>
        <time>2015-08-26T16:39:22Z</time>
      </trkpt>
      <trkpt lat="48.47798" lon="-2.69678">
        <ele>83.4</ele>
        <time>2015-08-26T16:39:24Z</time>
      </trkpt>
      <trkpt lat="48.47807" lon="-2.69683">
        <ele>83.5</ele>
        <time>2015-08-26T16:39:26Z</time>
      </trkpt>
      <trkpt lat="48.47816" lon="-2.69689">
        <ele>83.5</ele>
        <time>2015-08-26T16:39:28Z</time>
      </trkpt>
      <trkpt lat="48.47819" lon="-2.69703">
        <ele>83.4</ele>
        <time>2015-08-26T16:39:31Z</time>
      </trkpt>
      <trkpt lat="48.47817" lon="-2.69719">
        <ele>83.2</ele>
        <time>2015-08-26T16:39:35Z</time>
      </trkpt>
      <trkpt lat="48.47816" lon="-2.69737">
        <ele>83.1</ele>
        <time>2015-08-26T16:39:39Z</time>
      </trkpt>
      <trkpt lat="48.47816" lon="-2.69753">
        <ele>83.1</ele>
        <time>2015-08-26T16:39:42Z</time>
      </trkpt>
      <trkpt lat="48.47817" lon="-2.69769">
        <ele>83.1</ele>
        <time>2015-08-26T16:39:45Z</time>
      </trkpt>
      <trkpt lat="48.47818" lon="-2.69784">
        <ele>83.2</ele>
        <time>2015-08-26T16:39:48Z</time>
      </trkpt>
      <trkpt lat="48.47816" lon="-2.698">
        <ele>83.4</ele>
        <time>2015-08-26T16:39:51Z</time>
      </trkpt>
      <trkpt lat="48.47815" lon="-2.69815">
        <ele>83.6</ele>
        <time>2015-08-26T16:39:54Z</time>
      </trkpt>
      <trkpt lat="48.47812" lon="-2.69832">
        <ele>83.7</ele>
        <time>2015-08-26T16:39:57Z</time>
      </trkpt>
      <trkpt lat="48.47803" lon="-2.69843">
        <ele>83.8</ele>
        <time>2015-08-26T16:40:00Z</time>
      </trkpt>
      <trkpt lat="48.47799" lon="-2.69859">
        <ele>83.8</ele>
        <time>2015-08-26T16:40:03Z</time>
      </trkpt>
      <trkpt lat="48.47797" lon="-2.69874">
        <ele>83.7</ele>
        <time>2015-08-26T16:40:05Z</time>
      </trkpt>
      <trkpt lat="48.4779" lon="-2.69884">
        <ele>83.4</ele>
        <time>2015-08-26T16:40:07Z</time>
      </trkpt>
      <trkpt lat="48.47779" lon="-2.69889">
        <ele>83.1</ele>
        <time>2015-08-26T16:40:10Z</time>
      </trkpt>
      <trkpt lat="48.4777" lon="-2.69901">
        <ele>82.7</ele>
        <time>2015-08-26T16:40:13Z</time>
      </trkpt>
      <trkpt lat="48.47764" lon="-2.69918">
        <ele>82.3</ele>
        <time>2015-08-26T16:40:15Z</time>
      </trkpt>
      <trkpt lat="48.47759" lon="-2.6993">
        <ele>81.8</ele>
        <time>2015-08-26T16:40:17Z</time>
      </trkpt>
      <trkpt lat="48.47751" lon="-2.69944">
        <ele>81.3</ele>
        <time>2015-08-26T16:40:20Z</time>
      </trkpt>
      <trkpt lat="48.47744" lon="-2.69958">
        <ele>80.9</ele>
        <time>2015-08-26T16:40:23Z</time>
      </trkpt>
      <trkpt lat="48.47737" lon="-2.69971">
        <ele>80.7</ele>
        <time>2015-08-26T16:40:25Z</time>
      </trkpt>
      <trkpt lat="48.47732" lon="-2.69988">
        <ele>80.6</ele>
        <time>2015-08-26T16:40:27Z</time>
      </trkpt>
      <trkpt lat="48.47728" lon="-2.70003">
        <ele>80.2</ele>
        <time>2015-08-26T16:40:29Z</time>
      </trkpt>
      <trkpt lat="48.47721" lon="-2.70014">
        <ele>79.7</ele>
        <time>2015-08-26T16:40:31Z</time>
      </trkpt>
      <trkpt lat="48.47714" lon="-2.70025">
        <ele>79.1</ele>
        <time>2015-08-26T16:40:33Z</time>
      </trkpt>
      <trkpt lat="48.47705" lon="-2.70038">
        <ele>78.2</ele>
        <time>2015-08-26T16:40:35Z</time>
      </trkpt>
      <trkpt lat="48.47693" lon="-2.70053">
        <ele>77.3</ele>
        <time>2015-08-26T16:40:37Z</time>
      </trkpt>
      <trkpt lat="48.47683" lon="-2.70067">
        <ele>76.3</ele>
        <time>2015-08-26T16:40:39Z</time>
      </trkpt>
      <trkpt lat="48.47672" lon="-2.70068">
        <ele>74.6</ele>
        <time>2015-08-26T16:40:42Z</time>
      </trkpt>
      <trkpt lat="48.4766" lon="-2.70062">
        <ele>73.1</ele>
        <time>2015-08-26T16:40:45Z</time>
      </trkpt>
      <trkpt lat="48.47651" lon="-2.70053">
        <ele>71.9</ele>
        <time>2015-08-26T16:40:48Z</time>
      </trkpt>
      <trkpt lat="48.4764" lon="-2.70048">
        <ele>71.1</ele>
        <time>2015-08-26T16:40:51Z</time>
      </trkpt>
      <trkpt lat="48.4764" lon="-2.70062">
        <ele>70.2</ele>
        <time>2015-08-26T16:40:55Z</time>
      </trkpt>
      <trkpt lat="48.47632" lon="-2.70071">
        <ele>69.3</ele>
        <time>2015-08-26T16:40:58Z</time>
      </trkpt>
      <trkpt lat="48.47624" lon="-2.70081">
        <ele>68.6</ele>
        <time>2015-08-26T16:41:00Z</time>
      </trkpt>
      <trkpt lat="48.47617" lon="-2.70094">
        <ele>67.6</ele>
        <time>2015-08-26T16:41:02Z</time>
      </trkpt>
      <trkpt lat="48.47605" lon="-2.70101">
        <ele>66.4</ele>
        <time>2015-08-26T16:41:04Z</time>
      </trkpt>
      <trkpt lat="48.47595" lon="-2.70102">
        <ele>65</ele>
        <time>2015-08-26T16:41:06Z</time>
      </trkpt>
      <trkpt lat="48.47585" lon="-2.70105">
        <ele>63.1</ele>
        <time>2015-08-26T16:41:09Z</time>
      </trkpt>
      <trkpt lat="48.47575" lon="-2.70104">
        <ele>61.1</ele>
        <time>2015-08-26T16:41:12Z</time>
      </trkpt>
      <trkpt lat="48.47566" lon="-2.70098">
        <ele>58.1</ele>
        <time>2015-08-26T16:41:18Z</time>
      </trkpt>
      <trkpt lat="48.47554" lon="-2.70096">
        <ele>56.1</ele>
        <time>2015-08-26T16:41:24Z</time>
      </trkpt>
      <trkpt lat="48.47542" lon="-2.70093">
        <ele>55.4</ele>
        <time>2015-08-26T16:41:27Z</time>
      </trkpt>
      <trkpt lat="48.47533" lon="-2.70089">
        <ele>54.9</ele>
        <time>2015-08-26T16:41:30Z</time>
      </trkpt>
      <trkpt lat="48.47524" lon="-2.7009">
        <ele>54.6</ele>
        <time>2015-08-26T16:41:33Z</time>
      </trkpt>
      <trkpt lat="48.47514" lon="-2.70095">
        <ele>54.4</ele>
        <time>2015-08-26T16:41:36Z</time>
      </trkpt>
      <trkpt lat="48.47503" lon="-2.70098">
        <ele>54.1</ele>
        <time>2015-08-26T16:41:40Z</time>
      </trkpt>
      <trkpt lat="48.47493" lon="-2.70102">
        <ele>53.7</ele>
        <time>2015-08-26T16:41:43Z</time>
      </trkpt>
      <trkpt lat="48.47481" lon="-2.70107">
        <ele>53.4</ele>
        <time>2015-08-26T16:41:46Z</time>
      </trkpt>
      <trkpt lat="48.47469" lon="-2.70111">
        <ele>53.2</ele>
        <time>2015-08-26T16:41:49Z</time>
      </trkpt>
      <trkpt lat="48.4746" lon="-2.70113">
        <ele>53.1</ele>
        <time>2015-08-26T16:41:51Z</time>
      </trkpt>
      <trkpt lat="48.4745" lon="-2.7012">
        <ele>53</ele>
        <time>2015-08-26T16:41:54Z</time>
      </trkpt>
      <trkpt lat="48.47441" lon="-2.70129">
        <ele>53</ele>
        <time>2015-08-26T16:41:57Z</time>
      </trkpt>
      <trkpt lat="48.47432" lon="-2.70135">
        <ele>53</ele>
        <time>2015-08-26T16:42:00Z</time>
      </trkpt>
      <trkpt lat="48.47424" lon="-2.70142">
        <ele>53</ele>
        <time>2015-08-26T16:42:04Z</time>
      </trkpt>
      <trkpt lat="48.47414" lon="-2.70149">
        <ele>53</ele>
        <time>2015-08-26T16:42:08Z</time>
      </trkpt>
      <trkpt lat="48.47406" lon="-2.70158">
        <ele>53.8</ele>
        <time>2015-08-26T16:42:12Z</time>
      </trkpt>
      <trkpt lat="48.47396" lon="-2.70167">
        <ele>54.3</ele>
        <time>2015-08-26T16:42:16Z</time>
      </trkpt>
      <trkpt lat="48.47387" lon="-2.70172">
        <ele>55</ele>
        <time>2015-08-26T16:42:20Z</time>
      </trkpt>
      <trkpt lat="48.47378" lon="-2.70168">
        <ele>56.2</ele>
        <time>2015-08-26T16:42:25Z</time>
      </trkpt>
      <trkpt lat="48.47373" lon="-2.70156">
        <ele>57.2</ele>
        <time>2015-08-26T16:42:30Z</time>
      </trkpt>
      <trkpt lat="48.47369" lon="-2.70143">
        <ele>57.9</ele>
        <time>2015-08-26T16:42:34Z</time>
      </trkpt>
      <trkpt lat="48.4736" lon="-2.70137">
        <ele>58.7</ele>
        <time>2015-08-26T16:42:39Z</time>
      </trkpt>
      <trkpt lat="48.47362" lon="-2.70151">
        <ele>59.4</ele>
        <time>2015-08-26T16:42:46Z</time>
      </trkpt>
      <trkpt lat="48.47367" lon="-2.70164">
        <ele>59.4</ele>
        <time>2015-08-26T16:42:50Z</time>
      </trkpt>
      <trkpt lat="48.47373" lon="-2.70179">
        <ele>58.8</ele>
        <time>2015-08-26T16:42:53Z</time>
      </trkpt>
      <trkpt lat="48.4738" lon="-2.70192">
        <ele>57.9</ele>
        <time>2015-08-26T16:42:57Z</time>
      </trkpt>
      <trkpt lat="48.47381" lon="-2.70208">
        <ele>56.6</ele>
        <time>2015-08-26T16:43:02Z</time>
      </trkpt>
      <trkpt lat="48.4738" lon="-2.70222">
        <ele>55.9</ele>
        <time>2015-08-26T16:43:05Z</time>
      </trkpt>
      <trkpt lat="48.47378" lon="-2.70238">
        <ele>55</ele>
        <time>2015-08-26T16:43:10Z</time>
      </trkpt>
      <trkpt lat="48.47378" lon="-2.70255">
        <ele>54.6</ele>
        <time>2015-08-26T16:43:14Z</time>
      </trkpt>
      <trkpt lat="48.47378" lon="-2.7027">
        <ele>54.4</ele>
        <time>2015-08-26T16:43:17Z</time>
      </trkpt>
      <trkpt lat="48.47376" lon="-2.70289">
        <ele>54.3</ele>
        <time>2015-08-26T16:43:20Z</time>
      </trkpt>
      <trkpt lat="48.47375" lon="-2.70307">
        <ele>54.2</ele>
        <time>2015-08-26T16:43:23Z</time>
      </trkpt>
      <trkpt lat="48.47374" lon="-2.70321">
        <ele>54.1</ele>
        <time>2015-08-26T16:43:25Z</time>
      </trkpt>
      <trkpt lat="48.47374" lon="-2.70336">
        <ele>54.1</ele>
        <time>2015-08-26T16:43:27Z</time>
      </trkpt>
      <trkpt lat="48.47373" lon="-2.70352">
        <ele>54.1</ele>
        <time>2015-08-26T16:43:29Z</time>
      </trkpt>
      <trkpt lat="48.47374" lon="-2.70366">
        <ele>54</ele>
        <time>2015-08-26T16:43:31Z</time>
      </trkpt>
      <trkpt lat="48.47375" lon="-2.7038">
        <ele>54</ele>
        <time>2015-08-26T16:43:33Z</time>
      </trkpt>
      <trkpt lat="48.47375" lon="-2.70395">
        <ele>54</ele>
        <time>2015-08-26T16:43:36Z</time>
      </trkpt>
      <trkpt lat="48.47371" lon="-2.70408">
        <ele>54</ele>
        <time>2015-08-26T16:43:38Z</time>
      </trkpt>
      <trkpt lat="48.47364" lon="-2.70419">
        <ele>54</ele>
        <time>2015-08-26T16:43:41Z</time>
      </trkpt>
      <trkpt lat="48.47353" lon="-2.70429">
        <ele>54</ele>
        <time>2015-08-26T16:43:45Z</time>
      </trkpt>
      <trkpt lat="48.47344" lon="-2.70435">
        <ele>54.3</ele>
        <time>2015-08-26T16:43:48Z</time>
      </trkpt>
      <trkpt lat="48.47336" lon="-2.70442">
        <ele>54.6</ele>
        <time>2015-08-26T16:43:51Z</time>
      </trkpt>
      <trkpt lat="48.47327" lon="-2.70447">
        <ele>55</ele>
        <time>2015-08-26T16:43:54Z</time>
      </trkpt>
      <trkpt lat="48.47319" lon="-2.70456">
        <ele>55.8</ele>
        <time>2015-08-26T16:43:58Z</time>
      </trkpt>
      <trkpt lat="48.47311" lon="-2.7047">
        <ele>56.4</ele>
        <time>2015-08-26T16:44:02Z</time>
      </trkpt>
      <trkpt lat="48.47307" lon="-2.70486">
        <ele>57</ele>
        <time>2015-08-26T16:44:06Z</time>
      </trkpt>
      <trkpt lat="48.47305" lon="-2.70501">
        <ele>57.2</ele>
        <time>2015-08-26T16:44:10Z</time>
      </trkpt>
      <trkpt lat="48.47301" lon="-2.70518">
        <ele>57.3</ele>
        <time>2015-08-26T16:44:14Z</time>
      </trkpt>
      <trkpt lat="48.47295" lon="-2.70533">
        <ele>57.3</ele>
        <time>2015-08-26T16:44:17Z</time>
      </trkpt>
      <trkpt lat="48.47289" lon="-2.70547">
        <ele>57.3</ele>
        <time>2015-08-26T16:44:20Z</time>
      </trkpt>
      <trkpt lat="48.47282" lon="-2.70564">
        <ele>57.3</ele>
        <time>2015-08-26T16:44:23Z</time>
      </trkpt>
      <trkpt lat="48.47275" lon="-2.70576">
        <ele>57.3</ele>
        <time>2015-08-26T16:44:26Z</time>
      </trkpt>
      <trkpt lat="48.47279" lon="-2.7059">
        <ele>57.3</ele>
        <time>2015-08-26T16:44:30Z</time>
      </trkpt>
      <trkpt lat="48.47288" lon="-2.70597">
        <ele>57.2</ele>
        <time>2015-08-26T16:44:34Z</time>
      </trkpt>
      <trkpt lat="48.47297" lon="-2.70603">
        <ele>56.7</ele>
        <time>2015-08-26T16:44:44Z</time>
      </trkpt>
      <trkpt lat="48.47307" lon="-2.70606">
        <ele>55.6</ele>
        <time>2015-08-26T16:44:53Z</time>
      </trkpt>
      <trkpt lat="48.47317" lon="-2.70605">
        <ele>55.2</ele>
        <time>2015-08-26T16:44:57Z</time>
      </trkpt>
      <trkpt lat="48.47327" lon="-2.70604">
        <ele>54.9</ele>
        <time>2015-08-26T16:45:00Z</time>
      </trkpt>
      <trkpt lat="48.47338" lon="-2.706">
        <ele>54.7</ele>
        <time>2015-08-26T16:45:04Z</time>
      </trkpt>
      <trkpt lat="48.47347" lon="-2.70598">
        <ele>54.4</ele>
        <time>2015-08-26T16:45:08Z</time>
      </trkpt>
      <trkpt lat="48.47356" lon="-2.70593">
        <ele>54.3</ele>
        <time>2015-08-26T16:45:12Z</time>
      </trkpt>
      <trkpt lat="48.47367" lon="-2.70588">
        <ele>54.4</ele>
        <time>2015-08-26T16:45:17Z</time>
      </trkpt>
      <trkpt lat="48.47374" lon="-2.70599">
        <ele>54.9</ele>
        <time>2015-08-26T16:45:22Z</time>
      </trkpt>
      <trkpt lat="48.47377" lon="-2.70615">
        <ele>55.5</ele>
        <time>2015-08-26T16:45:27Z</time>
      </trkpt>
      <trkpt lat="48.47377" lon="-2.70628">
        <ele>55.9</ele>
        <time>2015-08-26T16:45:30Z</time>
      </trkpt>
      <trkpt lat="48.47376" lon="-2.70642">
        <ele>56.2</ele>
        <time>2015-08-26T16:45:33Z</time>
      </trkpt>
      <trkpt lat="48.47377" lon="-2.70656">
        <ele>56.4</ele>
        <time>2015-08-26T16:45:36Z</time>
      </trkpt>
      <trkpt lat="48.47379" lon="-2.70671">
        <ele>56.9</ele>
        <time>2015-08-26T16:45:39Z</time>
      </trkpt>
      <trkpt lat="48.47383" lon="-2.70686">
        <ele>57.3</ele>
        <time>2015-08-26T16:45:42Z</time>
      </trkpt>
      <trkpt lat="48.47387" lon="-2.70701">
        <ele>57.7</ele>
        <time>2015-08-26T16:45:45Z</time>
      </trkpt>
      <trkpt lat="48.47392" lon="-2.70714">
        <ele>58.1</ele>
        <time>2015-08-26T16:45:48Z</time>
      </trkpt>
      <trkpt lat="48.47399" lon="-2.70726">
        <ele>58.7</ele>
        <time>2015-08-26T16:45:51Z</time>
      </trkpt>
      <trkpt lat="48.47407" lon="-2.70741">
        <ele>59.2</ele>
        <time>2015-08-26T16:45:54Z</time>
      </trkpt>
      <trkpt lat="48.47413" lon="-2.70751">
        <ele>59.5</ele>
        <time>2015-08-26T16:45:56Z</time>
      </trkpt>
      <trkpt lat="48.47422" lon="-2.70764">
        <ele>59.9</ele>
        <time>2015-08-26T16:45:59Z</time>
      </trkpt>
      <trkpt lat="48.47427" lon="-2.70775">
        <ele>60.1</ele>
        <time>2015-08-26T16:46:01Z</time>
      </trkpt>
      <trkpt lat="48.47436" lon="-2.70785">
        <ele>60.1</ele>
        <time>2015-08-26T16:46:03Z</time>
      </trkpt>
      <trkpt lat="48.47445" lon="-2.70789">
        <ele>60</ele>
        <time>2015-08-26T16:46:05Z</time>
      </trkpt>
      <trkpt lat="48.47454" lon="-2.70794">
        <ele>59.9</ele>
        <time>2015-08-26T16:46:07Z</time>
      </trkpt>
      <trkpt lat="48.47465" lon="-2.70801">
        <ele>59.9</ele>
        <time>2015-08-26T16:46:10Z</time>
      </trkpt>
      <trkpt lat="48.47473" lon="-2.7081">
        <ele>60</ele>
        <time>2015-08-26T16:46:13Z</time>
      </trkpt>
      <trkpt lat="48.47482" lon="-2.70821">
        <ele>60</ele>
        <time>2015-08-26T16:46:17Z</time>
      </trkpt>
      <trkpt lat="48.47489" lon="-2.70835">
        <ele>60</ele>
        <time>2015-08-26T16:46:19Z</time>
      </trkpt>
      <trkpt lat="48.47499" lon="-2.70846">
        <ele>60</ele>
        <time>2015-08-26T16:46:22Z</time>
      </trkpt>
      <trkpt lat="48.47503" lon="-2.70858">
        <ele>59.8</ele>
        <time>2015-08-26T16:46:25Z</time>
      </trkpt>
      <trkpt lat="48.47493" lon="-2.70871">
        <ele>59.3</ele>
        <time>2015-08-26T16:46:29Z</time>
      </trkpt>
      <trkpt lat="48.47487" lon="-2.70885">
        <ele>59</ele>
        <time>2015-08-26T16:46:32Z</time>
      </trkpt>
      <trkpt lat="48.47491" lon="-2.70899">
        <ele>58.7</ele>
        <time>2015-08-26T16:46:35Z</time>
      </trkpt>
      <trkpt lat="48.47497" lon="-2.7091">
        <ele>58.5</ele>
        <time>2015-08-26T16:46:37Z</time>
      </trkpt>
      <trkpt lat="48.47502" lon="-2.70921">
        <ele>58.4</ele>
        <time>2015-08-26T16:46:39Z</time>
      </trkpt>
      <trkpt lat="48.47509" lon="-2.70935">
        <ele>58.2</ele>
        <time>2015-08-26T16:46:42Z</time>
      </trkpt>
      <trkpt lat="48.47515" lon="-2.70947">
        <ele>58.2</ele>
        <time>2015-08-26T16:46:45Z</time>
      </trkpt>
      <trkpt lat="48.47512" lon="-2.70964">
        <ele>58.4</ele>
        <time>2015-08-26T16:46:49Z</time>
      </trkpt>
      <trkpt lat="48.47502" lon="-2.70977">
        <ele>58.6</ele>
        <time>2015-08-26T16:46:52Z</time>
      </trkpt>
      <trkpt lat="48.47492" lon="-2.70989">
        <ele>58.7</ele>
        <time>2015-08-26T16:46:55Z</time>
      </trkpt>
      <trkpt lat="48.47486" lon="-2.71008">
        <ele>58.8</ele>
        <time>2015-08-26T16:46:58Z</time>
      </trkpt>
      <trkpt lat="48.47481" lon="-2.71022">
        <ele>58.8</ele>
        <time>2015-08-26T16:47:00Z</time>
      </trkpt>
      <trkpt lat="48.47475" lon="-2.71033">
        <ele>58.9</ele>
        <time>2015-08-26T16:47:02Z</time>
      </trkpt>
      <trkpt lat="48.47466" lon="-2.71044">
        <ele>58.9</ele>
        <time>2015-08-26T16:47:05Z</time>
      </trkpt>
      <trkpt lat="48.47458" lon="-2.71054">
        <ele>59</ele>
        <time>2015-08-26T16:47:07Z</time>
      </trkpt>
      <trkpt lat="48.47452" lon="-2.71064">
        <ele>59</ele>
        <time>2015-08-26T16:47:09Z</time>
      </trkpt>
      <trkpt lat="48.47446" lon="-2.71078">
        <ele>59</ele>
        <time>2015-08-26T16:47:11Z</time>
      </trkpt>
      <trkpt lat="48.47441" lon="-2.71091">
        <ele>59</ele>
        <time>2015-08-26T16:47:13Z</time>
      </trkpt>
      <trkpt lat="48.47436" lon="-2.71104">
        <ele>59</ele>
        <time>2015-08-26T16:47:15Z</time>
      </trkpt>
      <trkpt lat="48.47433" lon="-2.71118">
        <ele>59</ele>
        <time>2015-08-26T16:47:17Z</time>
      </trkpt>
      <trkpt lat="48.47429" lon="-2.71134">
        <ele>59</ele>
        <time>2015-08-26T16:47:19Z</time>
      </trkpt>
      <trkpt lat="48.47425" lon="-2.71149">
        <ele>58.9</ele>
        <time>2015-08-26T16:47:21Z</time>
      </trkpt>
      <trkpt lat="48.47423" lon="-2.71165">
        <ele>58.9</ele>
        <time>2015-08-26T16:47:23Z</time>
      </trkpt>
      <trkpt lat="48.47418" lon="-2.7118">
        <ele>58.8</ele>
        <time>2015-08-26T16:47:25Z</time>
      </trkpt>
      <trkpt lat="48.47415" lon="-2.71195">
        <ele>58.8</ele>
        <time>2015-08-26T16:47:27Z</time>
      </trkpt>
      <trkpt lat="48.47414" lon="-2.71211">
        <ele>58.8</ele>
        <time>2015-08-26T16:47:29Z</time>
      </trkpt>
      <trkpt lat="48.47414" lon="-2.71225">
        <ele>58.7</ele>
        <time>2015-08-26T16:47:31Z</time>
      </trkpt>
      <trkpt lat="48.47415" lon="-2.71242">
        <ele>58.7</ele>
        <time>2015-08-26T16:47:34Z</time>
      </trkpt>
      <trkpt lat="48.47415" lon="-2.71259">
        <ele>58.7</ele>
        <time>2015-08-26T16:47:37Z</time>
      </trkpt>
      <trkpt lat="48.47415" lon="-2.71278">
        <ele>58.6</ele>
        <time>2015-08-26T16:47:40Z</time>
      </trkpt>
      <trkpt lat="48.47417" lon="-2.71292">
        <ele>58.6</ele>
        <time>2015-08-26T16:47:42Z</time>
      </trkpt>
      <trkpt lat="48.47417" lon="-2.71307">
        <ele>58.6</ele>
        <time>2015-08-26T16:47:44Z</time>
      </trkpt>
      <trkpt lat="48.47416" lon="-2.71321">
        <ele>58.6</ele>
        <time>2015-08-26T16:47:47Z</time>
      </trkpt>
      <trkpt lat="48.4741" lon="-2.71331">
        <ele>58.6</ele>
        <time>2015-08-26T16:47:49Z</time>
      </trkpt>
      <trkpt lat="48.474" lon="-2.71347">
        <ele>58.6</ele>
        <time>2015-08-26T16:47:52Z</time>
      </trkpt>
      <trkpt lat="48.47392" lon="-2.7136">
        <ele>58.6</ele>
        <time>2015-08-26T16:47:55Z</time>
      </trkpt>
      <trkpt lat="48.47388" lon="-2.71375">
        <ele>58.6</ele>
        <time>2015-08-26T16:47:58Z</time>
      </trkpt>
      <trkpt lat="48.47389" lon="-2.71396">
        <ele>58.6</ele>
        <time>2015-08-26T16:48:01Z</time>
      </trkpt>
      <trkpt lat="48.47392" lon="-2.71411">
        <ele>58.7</ele>
        <time>2015-08-26T16:48:03Z</time>
      </trkpt>
      <trkpt lat="48.47393" lon="-2.71428">
        <ele>58.8</ele>
        <time>2015-08-26T16:48:05Z</time>
      </trkpt>
      <trkpt lat="48.47392" lon="-2.71442">
        <ele>58.9</ele>
        <time>2015-08-26T16:48:07Z</time>
      </trkpt>
      <trkpt lat="48.47391" lon="-2.71456">
        <ele>58.9</ele>
        <time>2015-08-26T16:48:09Z</time>
      </trkpt>
      <trkpt lat="48.47389" lon="-2.71475">
        <ele>59</ele>
        <time>2015-08-26T16:48:12Z</time>
      </trkpt>
      <trkpt lat="48.47386" lon="-2.71492">
        <ele>59.1</ele>
        <time>2015-08-26T16:48:15Z</time>
      </trkpt>
      <trkpt lat="48.47382" lon="-2.71506">
        <ele>59.2</ele>
        <time>2015-08-26T16:48:17Z</time>
      </trkpt>
      <trkpt lat="48.4738" lon="-2.71523">
        <ele>59.2</ele>
        <time>2015-08-26T16:48:20Z</time>
      </trkpt>
      <trkpt lat="48.47378" lon="-2.71539">
        <ele>59.4</ele>
        <time>2015-08-26T16:48:23Z</time>
      </trkpt>
      <trkpt lat="48.47372" lon="-2.71554">
        <ele>59.6</ele>
        <time>2015-08-26T16:48:26Z</time>
      </trkpt>
      <trkpt lat="48.4737" lon="-2.71572">
        <ele>59.8</ele>
        <time>2015-08-26T16:48:29Z</time>
      </trkpt>
      <trkpt lat="48.47369" lon="-2.71587">
        <ele>59.8</ele>
        <time>2015-08-26T16:48:31Z</time>
      </trkpt>
      <trkpt lat="48.4737" lon="-2.71602">
        <ele>59.9</ele>
        <time>2015-08-26T16:48:33Z</time>
      </trkpt>
      <trkpt lat="48.47374" lon="-2.71619">
        <ele>60.1</ele>
        <time>2015-08-26T16:48:36Z</time>
      </trkpt>
      <trkpt lat="48.4737" lon="-2.71637">
        <ele>60.2</ele>
        <time>2015-08-26T16:48:38Z</time>
      </trkpt>
      <trkpt lat="48.4737" lon="-2.71655">
        <ele>60.3</ele>
        <time>2015-08-26T16:48:40Z</time>
      </trkpt>
      <trkpt lat="48.47372" lon="-2.71674">
        <ele>60.4</ele>
        <time>2015-08-26T16:48:42Z</time>
      </trkpt>
      <trkpt lat="48.47374" lon="-2.71691">
        <ele>60.5</ele>
        <time>2015-08-26T16:48:44Z</time>
      </trkpt>
      <trkpt lat="48.47377" lon="-2.71707">
        <ele>60.6</ele>
        <time>2015-08-26T16:48:46Z</time>
      </trkpt>
      <trkpt lat="48.4738" lon="-2.71721">
        <ele>60.6</ele>
        <time>2015-08-26T16:48:48Z</time>
      </trkpt>
      <trkpt lat="48.47381" lon="-2.71736">
        <ele>60.7</ele>
        <time>2015-08-26T16:48:50Z</time>
      </trkpt>
      <trkpt lat="48.47379" lon="-2.71755">
        <ele>60.8</ele>
        <time>2015-08-26T16:48:53Z</time>
      </trkpt>
      <trkpt lat="48.47381" lon="-2.7177">
        <ele>60.9</ele>
        <time>2015-08-26T16:48:55Z</time>
      </trkpt>
      <trkpt lat="48.47381" lon="-2.71789">
        <ele>61.1</ele>
        <time>2015-08-26T16:48:58Z</time>
      </trkpt>
      <trkpt lat="48.47381" lon="-2.71803">
        <ele>61.2</ele>
        <time>2015-08-26T16:49:00Z</time>
      </trkpt>
      <trkpt lat="48.47381" lon="-2.71819">
        <ele>61.4</ele>
        <time>2015-08-26T16:49:02Z</time>
      </trkpt>
      <trkpt lat="48.47381" lon="-2.71836">
        <ele>61.5</ele>
        <time>2015-08-26T16:49:04Z</time>
      </trkpt>
      <trkpt lat="48.47382" lon="-2.71853">
        <ele>61.6</ele>
        <time>2015-08-26T16:49:06Z</time>
      </trkpt>
      <trkpt lat="48.47382" lon="-2.71866">
        <ele>61.7</ele>
        <time>2015-08-26T16:49:08Z</time>
      </trkpt>
      <trkpt lat="48.47382" lon="-2.71881">
        <ele>61.9</ele>
        <time>2015-08-26T16:49:10Z</time>
      </trkpt>
      <trkpt lat="48.47384" lon="-2.71897">
        <ele>62</ele>
        <time>2015-08-26T16:49:12Z</time>
      </trkpt>
      <trkpt lat="48.47385" lon="-2.71912">
        <ele>62.1</ele>
        <time>2015-08-26T16:49:14Z</time>
      </trkpt>
      <trkpt lat="48.47387" lon="-2.71927">
        <ele>62.1</ele>
        <time>2015-08-26T16:49:16Z</time>
      </trkpt>
      <trkpt lat="48.47387" lon="-2.71941">
        <ele>62.2</ele>
        <time>2015-08-26T16:49:18Z</time>
      </trkpt>
      <trkpt lat="48.47387" lon="-2.71955">
        <ele>62.4</ele>
        <time>2015-08-26T16:49:20Z</time>
      </trkpt>
      <trkpt lat="48.47386" lon="-2.71975">
        <ele>62.5</ele>
        <time>2015-08-26T16:49:23Z</time>
      </trkpt>
      <trkpt lat="48.47386" lon="-2.71989">
        <ele>62.6</ele>
        <time>2015-08-26T16:49:25Z</time>
      </trkpt>
      <trkpt lat="48.47385" lon="-2.72006">
        <ele>62.8</ele>
        <time>2015-08-26T16:49:28Z</time>
      </trkpt>
      <trkpt lat="48.47379" lon="-2.72018">
        <ele>63.4</ele>
        <time>2015-08-26T16:49:32Z</time>
      </trkpt>
      <trkpt lat="48.47369" lon="-2.72025">
        <ele>64.3</ele>
        <time>2015-08-26T16:49:36Z</time>
      </trkpt>
      <trkpt lat="48.47358" lon="-2.72022">
        <ele>65.2</ele>
        <time>2015-08-26T16:49:40Z</time>
      </trkpt>
      <trkpt lat="48.47349" lon="-2.72014">
        <ele>66.1</ele>
        <time>2015-08-26T16:49:44Z</time>
      </trkpt>
      <trkpt lat="48.47344" lon="-2.72001">
        <ele>67</ele>
        <time>2015-08-26T16:49:48Z</time>
      </trkpt>
      <trkpt lat="48.47339" lon="-2.71988">
        <ele>67.8</ele>
        <time>2015-08-26T16:49:52Z</time>
      </trkpt>
      <trkpt lat="48.47335" lon="-2.72002">
        <ele>68.7</ele>
        <time>2015-08-26T16:49:56Z</time>
      </trkpt>
      <trkpt lat="48.47336" lon="-2.72017">
        <ele>69.3</ele>
        <time>2015-08-26T16:49:59Z</time>
      </trkpt>
      <trkpt lat="48.47334" lon="-2.72033">
        <ele>69.9</ele>
        <time>2015-08-26T16:50:02Z</time>
      </trkpt>
      <trkpt lat="48.47331" lon="-2.72053">
        <ele>70.3</ele>
        <time>2015-08-26T16:50:05Z</time>
      </trkpt>
      <trkpt lat="48.47329" lon="-2.72069">
        <ele>70.6</ele>
        <time>2015-08-26T16:50:07Z</time>
      </trkpt>
      <trkpt lat="48.47326" lon="-2.72086">
        <ele>70.7</ele>
        <time>2015-08-26T16:50:09Z</time>
      </trkpt>
      <trkpt lat="48.47323" lon="-2.72103">
        <ele>70.7</ele>
        <time>2015-08-26T16:50:11Z</time>
      </trkpt>
      <trkpt lat="48.47321" lon="-2.72121">
        <ele>70.7</ele>
        <time>2015-08-26T16:50:13Z</time>
      </trkpt>
      <trkpt lat="48.47319" lon="-2.7214">
        <ele>70.6</ele>
        <time>2015-08-26T16:50:15Z</time>
      </trkpt>
      <trkpt lat="48.47319" lon="-2.72162">
        <ele>70.3</ele>
        <time>2015-08-26T16:50:17Z</time>
      </trkpt>
      <trkpt lat="48.47324" lon="-2.72183">
        <ele>70.1</ele>
        <time>2015-08-26T16:50:19Z</time>
      </trkpt>
      <trkpt lat="48.47333" lon="-2.72198">
        <ele>69.8</ele>
        <time>2015-08-26T16:50:21Z</time>
      </trkpt>
      <trkpt lat="48.47344" lon="-2.72208">
        <ele>69.5</ele>
        <time>2015-08-26T16:50:23Z</time>
      </trkpt>
      <trkpt lat="48.47355" lon="-2.72214">
        <ele>69.2</ele>
        <time>2015-08-26T16:50:25Z</time>
      </trkpt>
      <trkpt lat="48.47366" lon="-2.7222">
        <ele>69</ele>
        <time>2015-08-26T16:50:27Z</time>
      </trkpt>
      <trkpt lat="48.47375" lon="-2.72223">
        <ele>68.8</ele>
        <time>2015-08-26T16:50:29Z</time>
      </trkpt>
      <trkpt lat="48.47384" lon="-2.72221">
        <ele>68.6</ele>
        <time>2015-08-26T16:50:31Z</time>
      </trkpt>
      <trkpt lat="48.47395" lon="-2.72214">
        <ele>68.4</ele>
        <time>2015-08-26T16:50:34Z</time>
      </trkpt>
      <trkpt lat="48.47399" lon="-2.72229">
        <ele>68.4</ele>
        <time>2015-08-26T16:50:38Z</time>
      </trkpt>
      <trkpt lat="48.47393" lon="-2.72244">
        <ele>68.4</ele>
        <time>2015-08-26T16:50:40Z</time>
      </trkpt>
      <trkpt lat="48.47389" lon="-2.72261">
        <ele>68.2</ele>
        <time>2015-08-26T16:50:42Z</time>
      </trkpt>
      <trkpt lat="48.47389" lon="-2.72279">
        <ele>68</ele>
        <time>2015-08-26T16:50:44Z</time>
      </trkpt>
      <trkpt lat="48.47389" lon="-2.72295">
        <ele>67.8</ele>
        <time>2015-08-26T16:50:46Z</time>
      </trkpt>
      <trkpt lat="48.4739" lon="-2.72312">
        <ele>67.6</ele>
        <time>2015-08-26T16:50:48Z</time>
      </trkpt>
      <trkpt lat="48.47391" lon="-2.72328">
        <ele>67.5</ele>
        <time>2015-08-26T16:50:50Z</time>
      </trkpt>
      <trkpt lat="48.47393" lon="-2.72344">
        <ele>67.3</ele>
        <time>2015-08-26T16:50:52Z</time>
      </trkpt>
      <trkpt lat="48.47393" lon="-2.72358">
        <ele>67.2</ele>
        <time>2015-08-26T16:50:54Z</time>
      </trkpt>
      <trkpt lat="48.47392" lon="-2.72374">
        <ele>67.2</ele>
        <time>2015-08-26T16:50:56Z</time>
      </trkpt>
      <trkpt lat="48.47392" lon="-2.72391">
        <ele>67</ele>
        <time>2015-08-26T16:50:58Z</time>
      </trkpt>
      <trkpt lat="48.47392" lon="-2.72414">
        <ele>67</ele>
        <time>2015-08-26T16:51:01Z</time>
      </trkpt>
      <trkpt lat="48.47391" lon="-2.7243">
        <ele>66.9</ele>
        <time>2015-08-26T16:51:03Z</time>
      </trkpt>
      <trkpt lat="48.4739" lon="-2.72446">
        <ele>66.9</ele>
        <time>2015-08-26T16:51:05Z</time>
      </trkpt>
      <trkpt lat="48.47389" lon="-2.72461">
        <ele>66.8</ele>
        <time>2015-08-26T16:51:07Z</time>
      </trkpt>
      <trkpt lat="48.47389" lon="-2.72477">
        <ele>66.8</ele>
        <time>2015-08-26T16:51:09Z</time>
      </trkpt>
      <trkpt lat="48.47389" lon="-2.72494">
        <ele>66.8</ele>
        <time>2015-08-26T16:51:11Z</time>
      </trkpt>
      <trkpt lat="48.47389" lon="-2.72511">
        <ele>66.7</ele>
        <time>2015-08-26T16:51:13Z</time>
      </trkpt>
      <trkpt lat="48.47389" lon="-2.72527">
        <ele>66.7</ele>
        <time>2015-08-26T16:51:15Z</time>
      </trkpt>
      <trkpt lat="48.47388" lon="-2.72544">
        <ele>66.7</ele>
        <time>2015-08-26T16:51:17Z</time>
      </trkpt>
      <trkpt lat="48.47388" lon="-2.72561">
        <ele>66.7</ele>
        <time>2015-08-26T16:51:19Z</time>
      </trkpt>
      <trkpt lat="48.47387" lon="-2.72585">
        <ele>66</ele>
        <time>2015-08-26T16:51:22Z</time>
      </trkpt>
      <trkpt lat="48.47384" lon="-2.7261">
        <ele>66.7</ele>
        <time>2015-08-26T16:51:25Z</time>
      </trkpt>
      <trkpt lat="48.47383" lon="-2.72628">
        <ele>66.7</ele>
        <time>2015-08-26T16:51:27Z</time>
      </trkpt>
      <trkpt lat="48.47381" lon="-2.72644">
        <ele>66.7</ele>
        <time>2015-08-26T16:51:29Z</time>
      </trkpt>
      <trkpt lat="48.47381" lon="-2.72661">
        <ele>66.7</ele>
        <time>2015-08-26T16:51:31Z</time>
      </trkpt>
      <trkpt lat="48.47379" lon="-2.72678">
        <ele>66.7</ele>
        <time>2015-08-26T16:51:33Z</time>
      </trkpt>
      <trkpt lat="48.47378" lon="-2.72694">
        <ele>66.7</ele>
        <time>2015-08-26T16:51:35Z</time>
      </trkpt>
      <trkpt lat="48.47376" lon="-2.7271">
        <ele>66.7</ele>
        <time>2015-08-26T16:51:37Z</time>
      </trkpt>
      <trkpt lat="48.47375" lon="-2.72725">
        <ele>66.7</ele>
        <time>2015-08-26T16:51:39Z</time>
      </trkpt>
      <trkpt lat="48.47375" lon="-2.72741">
        <ele>66.7</ele>
        <time>2015-08-26T16:51:41Z</time>
      </trkpt>
      <trkpt lat="48.47375" lon="-2.72756">
        <ele>66.7</ele>
        <time>2015-08-26T16:51:43Z</time>
      </trkpt>
      <trkpt lat="48.47375" lon="-2.72771">
        <ele>66.7</ele>
        <time>2015-08-26T16:51:45Z</time>
      </trkpt>
      <trkpt lat="48.47373" lon="-2.72789">
        <ele>66.8</ele>
        <time>2015-08-26T16:51:48Z</time>
      </trkpt>
      <trkpt lat="48.47372" lon="-2.72803">
        <ele>66.9</ele>
        <time>2015-08-26T16:51:50Z</time>
      </trkpt>
      <trkpt lat="48.47372" lon="-2.72819">
        <ele>67.1</ele>
        <time>2015-08-26T16:51:53Z</time>
      </trkpt>
      <trkpt lat="48.4737" lon="-2.72832">
        <ele>67.2</ele>
        <time>2015-08-26T16:51:55Z</time>
      </trkpt>
      <trkpt lat="48.47368" lon="-2.7285">
        <ele>67.3</ele>
        <time>2015-08-26T16:51:57Z</time>
      </trkpt>
      <trkpt lat="48.47369" lon="-2.72865">
        <ele>67.4</ele>
        <time>2015-08-26T16:51:59Z</time>
      </trkpt>
      <trkpt lat="48.47369" lon="-2.7288">
        <ele>67.5</ele>
        <time>2015-08-26T16:52:01Z</time>
      </trkpt>
      <trkpt lat="48.47367" lon="-2.72895">
        <ele>67.6</ele>
        <time>2015-08-26T16:52:04Z</time>
      </trkpt>
      <trkpt lat="48.47366" lon="-2.72913">
        <ele>67.5</ele>
        <time>2015-08-26T16:52:08Z</time>
      </trkpt>
      <trkpt lat="48.47367" lon="-2.72931">
        <ele>67.4</ele>
        <time>2015-08-26T16:52:11Z</time>
      </trkpt>
      <trkpt lat="48.47368" lon="-2.72949">
        <ele>67.3</ele>
        <time>2015-08-26T16:52:14Z</time>
      </trkpt>
      <trkpt lat="48.4737" lon="-2.72965">
        <ele>67.3</ele>
        <time>2015-08-26T16:52:17Z</time>
      </trkpt>
      <trkpt lat="48.47372" lon="-2.72982">
        <ele>67.3</ele>
        <time>2015-08-26T16:52:20Z</time>
      </trkpt>
      <trkpt lat="48.47375" lon="-2.72999">
        <ele>67.4</ele>
        <time>2015-08-26T16:52:23Z</time>
      </trkpt>
      <trkpt lat="48.47378" lon="-2.73014">
        <ele>67.7</ele>
        <time>2015-08-26T16:52:26Z</time>
      </trkpt>
      <trkpt lat="48.47386" lon="-2.73027">
        <ele>68.2</ele>
        <time>2015-08-26T16:52:29Z</time>
      </trkpt>
      <trkpt lat="48.47396" lon="-2.73034">
        <ele>68.7</ele>
        <time>2015-08-26T16:52:32Z</time>
      </trkpt>
      <trkpt lat="48.47402" lon="-2.73023">
        <ele>70.7</ele>
        <time>2015-08-26T16:52:39Z</time>
      </trkpt>
      <trkpt lat="48.47408" lon="-2.73012">
        <ele>72.4</ele>
        <time>2015-08-26T16:52:44Z</time>
      </trkpt>
      <trkpt lat="48.47414" lon="-2.73">
        <ele>74.1</ele>
        <time>2015-08-26T16:52:49Z</time>
      </trkpt>
      <trkpt lat="48.47419" lon="-2.72986">
        <ele>75.6</ele>
        <time>2015-08-26T16:52:54Z</time>
      </trkpt>
      <trkpt lat="48.47423" lon="-2.72973">
        <ele>77</ele>
        <time>2015-08-26T16:52:58Z</time>
      </trkpt>
      <trkpt lat="48.47426" lon="-2.72959">
        <ele>78.4</ele>
        <time>2015-08-26T16:53:02Z</time>
      </trkpt>
      <trkpt lat="48.47429" lon="-2.72945">
        <ele>80</ele>
        <time>2015-08-26T16:53:07Z</time>
      </trkpt>
      <trkpt lat="48.47431" lon="-2.7293">
        <ele>81.6</ele>
        <time>2015-08-26T16:53:13Z</time>
      </trkpt>
      <trkpt lat="48.47431" lon="-2.72913">
        <ele>82.8</ele>
        <time>2015-08-26T16:53:19Z</time>
      </trkpt>
      <trkpt lat="48.47432" lon="-2.72898">
        <ele>83.8</ele>
        <time>2015-08-26T16:53:24Z</time>
      </trkpt>
      <trkpt lat="48.47434" lon="-2.72883">
        <ele>84.8</ele>
        <time>2015-08-26T16:53:29Z</time>
      </trkpt>
      <trkpt lat="48.47442" lon="-2.72874">
        <ele>85.8</ele>
        <time>2015-08-26T16:53:34Z</time>
      </trkpt>
      <trkpt lat="48.47451" lon="-2.72871">
        <ele>86.7</ele>
        <time>2015-08-26T16:53:39Z</time>
      </trkpt>
      <trkpt lat="48.47472" lon="-2.72868">
        <ele>88</ele>
        <time>2015-08-26T16:53:50Z</time>
      </trkpt>
      <trkpt lat="48.47486" lon="-2.72861">
        <ele>88.8</ele>
        <time>2015-08-26T16:53:55Z</time>
      </trkpt>
      <trkpt lat="48.47494" lon="-2.72847">
        <ele>89.2</ele>
        <time>2015-08-26T16:53:59Z</time>
      </trkpt>
      <trkpt lat="48.47498" lon="-2.72833">
        <ele>89.8</ele>
        <time>2015-08-26T16:54:03Z</time>
      </trkpt>
      <trkpt lat="48.47502" lon="-2.72817">
        <ele>90.6</ele>
        <time>2015-08-26T16:54:07Z</time>
      </trkpt>
      <trkpt lat="48.47506" lon="-2.72804">
        <ele>91.5</ele>
        <time>2015-08-26T16:54:10Z</time>
      </trkpt>
      <trkpt lat="48.4751" lon="-2.72787">
        <ele>92.8</ele>
        <time>2015-08-26T16:54:14Z</time>
      </trkpt>
      <trkpt lat="48.47514" lon="-2.72771">
        <ele>94.3</ele>
        <time>2015-08-26T16:54:18Z</time>
      </trkpt>
      <trkpt lat="48.47517" lon="-2.72755">
        <ele>95.8</ele>
        <time>2015-08-26T16:54:22Z</time>
      </trkpt>
      <trkpt lat="48.47521" lon="-2.7274">
        <ele>97.1</ele>
        <time>2015-08-26T16:54:26Z</time>
      </trkpt>
      <trkpt lat="48.47524" lon="-2.72723">
        <ele>98.2</ele>
        <time>2015-08-26T16:54:30Z</time>
      </trkpt>
      <trkpt lat="48.47527" lon="-2.7271">
        <ele>98.9</ele>
        <time>2015-08-26T16:54:33Z</time>
      </trkpt>
      <trkpt lat="48.4753" lon="-2.72696">
        <ele>99.6</ele>
        <time>2015-08-26T16:54:36Z</time>
      </trkpt>
      <trkpt lat="48.47533" lon="-2.72682">
        <ele>100.1</ele>
        <time>2015-08-26T16:54:39Z</time>
      </trkpt>
      <trkpt lat="48.47538" lon="-2.72668">
        <ele>100.5</ele>
        <time>2015-08-26T16:54:42Z</time>
      </trkpt>
      <trkpt lat="48.47547" lon="-2.72663">
        <ele>101</ele>
        <time>2015-08-26T16:54:46Z</time>
      </trkpt>
      <trkpt lat="48.47556" lon="-2.72665">
        <ele>101.3</ele>
        <time>2015-08-26T16:54:49Z</time>
      </trkpt>
      <trkpt lat="48.47568" lon="-2.72668">
        <ele>101.5</ele>
        <time>2015-08-26T16:54:53Z</time>
      </trkpt>
      <trkpt lat="48.47579" lon="-2.72668">
        <ele>101.9</ele>
        <time>2015-08-26T16:54:57Z</time>
      </trkpt>
      <trkpt lat="48.4759" lon="-2.72665">
        <ele>102.1</ele>
        <time>2015-08-26T16:55:00Z</time>
      </trkpt>
      <trkpt lat="48.476" lon="-2.72665">
        <ele>102.3</ele>
        <time>2015-08-26T16:55:03Z</time>
      </trkpt>
      <trkpt lat="48.47612" lon="-2.72669">
        <ele>102.4</ele>
        <time>2015-08-26T16:55:06Z</time>
      </trkpt>
      <trkpt lat="48.47624" lon="-2.72674">
        <ele>102.5</ele>
        <time>2015-08-26T16:55:09Z</time>
      </trkpt>
      <trkpt lat="48.47635" lon="-2.72679">
        <ele>102.6</ele>
        <time>2015-08-26T16:55:12Z</time>
      </trkpt>
      <trkpt lat="48.47646" lon="-2.72684">
        <ele>102.7</ele>
        <time>2015-08-26T16:55:15Z</time>
      </trkpt>
      <trkpt lat="48.47657" lon="-2.72689">
        <ele>102.8</ele>
        <time>2015-08-26T16:55:18Z</time>
      </trkpt>
      <trkpt lat="48.47667" lon="-2.72693">
        <ele>102.9</ele>
        <time>2015-08-26T16:55:21Z</time>
      </trkpt>
      <trkpt lat="48.47677" lon="-2.72698">
        <ele>102.9</ele>
        <time>2015-08-26T16:55:24Z</time>
      </trkpt>
      <trkpt lat="48.47687" lon="-2.72701">
        <ele>103</ele>
        <time>2015-08-26T16:55:27Z</time>
      </trkpt>
      <trkpt lat="48.47697" lon="-2.72701">
        <ele>103</ele>
        <time>2015-08-26T16:55:31Z</time>
      </trkpt>
      <trkpt lat="48.47705" lon="-2.72712">
        <ele>103.5</ele>
        <time>2015-08-26T16:55:42Z</time>
      </trkpt>
      <trkpt lat="48.47706" lon="-2.72729">
        <ele>103.8</ele>
        <time>2015-08-26T16:55:46Z</time>
      </trkpt>
      <trkpt lat="48.47705" lon="-2.72747">
        <ele>103.9</ele>
        <time>2015-08-26T16:55:50Z</time>
      </trkpt>
      <trkpt lat="48.47704" lon="-2.72762">
        <ele>104.4</ele>
        <time>2015-08-26T16:55:53Z</time>
      </trkpt>
      <trkpt lat="48.47704" lon="-2.72779">
        <ele>104.7</ele>
        <time>2015-08-26T16:55:56Z</time>
      </trkpt>
      <trkpt lat="48.47703" lon="-2.72796">
        <ele>105</ele>
        <time>2015-08-26T16:55:59Z</time>
      </trkpt>
      <trkpt lat="48.47702" lon="-2.72814">
        <ele>105.2</ele>
        <time>2015-08-26T16:56:02Z</time>
      </trkpt>
      <trkpt lat="48.477" lon="-2.72831">
        <ele>105.3</ele>
        <time>2015-08-26T16:56:05Z</time>
      </trkpt>
      <trkpt lat="48.47702" lon="-2.72846">
        <ele>105.5</ele>
        <time>2015-08-26T16:56:08Z</time>
      </trkpt>
      <trkpt lat="48.47711" lon="-2.72857">
        <ele>105.6</ele>
        <time>2015-08-26T16:56:11Z</time>
      </trkpt>
      <trkpt lat="48.47722" lon="-2.72866">
        <ele>105.7</ele>
        <time>2015-08-26T16:56:14Z</time>
      </trkpt>
      <trkpt lat="48.47732" lon="-2.7287">
        <ele>105.8</ele>
        <time>2015-08-26T16:56:16Z</time>
      </trkpt>
      <trkpt lat="48.47742" lon="-2.72873">
        <ele>105.8</ele>
        <time>2015-08-26T16:56:18Z</time>
      </trkpt>
      <trkpt lat="48.47753" lon="-2.72877">
        <ele>105.7</ele>
        <time>2015-08-26T16:56:20Z</time>
      </trkpt>
      <trkpt lat="48.47764" lon="-2.72882">
        <ele>105.6</ele>
        <time>2015-08-26T16:56:22Z</time>
      </trkpt>
      <trkpt lat="48.47772" lon="-2.72886">
        <ele>105.5</ele>
        <time>2015-08-26T16:56:24Z</time>
      </trkpt>
      <trkpt lat="48.47783" lon="-2.7289">
        <ele>105.3</ele>
        <time>2015-08-26T16:56:27Z</time>
      </trkpt>
      <trkpt lat="48.47793" lon="-2.72896">
        <ele>105.1</ele>
        <time>2015-08-26T16:56:31Z</time>
      </trkpt>
      <trkpt lat="48.47801" lon="-2.72905">
        <ele>105</ele>
        <time>2015-08-26T16:56:34Z</time>
      </trkpt>
      <trkpt lat="48.47809" lon="-2.72915">
        <ele>105</ele>
        <time>2015-08-26T16:56:37Z</time>
      </trkpt>
      <trkpt lat="48.47816" lon="-2.72924">
        <ele>105</ele>
        <time>2015-08-26T16:56:39Z</time>
      </trkpt>
      <trkpt lat="48.47825" lon="-2.72933">
        <ele>105.1</ele>
        <time>2015-08-26T16:56:41Z</time>
      </trkpt>
      <trkpt lat="48.47835" lon="-2.72944">
        <ele>105.4</ele>
        <time>2015-08-26T16:56:44Z</time>
      </trkpt>
      <trkpt lat="48.47843" lon="-2.72952">
        <ele>105.8</ele>
        <time>2015-08-26T16:56:47Z</time>
      </trkpt>
      <trkpt lat="48.47851" lon="-2.72961">
        <ele>106.3</ele>
        <time>2015-08-26T16:56:50Z</time>
      </trkpt>
      <trkpt lat="48.47859" lon="-2.7297">
        <ele>106.8</ele>
        <time>2015-08-26T16:56:53Z</time>
      </trkpt>
      <trkpt lat="48.47868" lon="-2.72979">
        <ele>107.2</ele>
        <time>2015-08-26T16:56:56Z</time>
      </trkpt>
      <trkpt lat="48.47876" lon="-2.72986">
        <ele>107.5</ele>
        <time>2015-08-26T16:56:59Z</time>
      </trkpt>
      <trkpt lat="48.47886" lon="-2.72993">
        <ele>108</ele>
        <time>2015-08-26T16:57:03Z</time>
      </trkpt>
      <trkpt lat="48.47894" lon="-2.72999">
        <ele>108.4</ele>
        <time>2015-08-26T16:57:06Z</time>
      </trkpt>
      <trkpt lat="48.47903" lon="-2.73006">
        <ele>108.9</ele>
        <time>2015-08-26T16:57:10Z</time>
      </trkpt>
      <trkpt lat="48.47913" lon="-2.73014">
        <ele>109.5</ele>
        <time>2015-08-26T16:57:14Z</time>
      </trkpt>
      <trkpt lat="48.47921" lon="-2.73022">
        <ele>110</ele>
        <time>2015-08-26T16:57:18Z</time>
      </trkpt>
      <trkpt lat="48.47929" lon="-2.73032">
        <ele>110.3</ele>
        <time>2015-08-26T16:57:21Z</time>
      </trkpt>
      <trkpt lat="48.47939" lon="-2.73042">
        <ele>110.7</ele>
        <time>2015-08-26T16:57:24Z</time>
      </trkpt>
      <trkpt lat="48.47948" lon="-2.73053">
        <ele>111</ele>
        <time>2015-08-26T16:57:27Z</time>
      </trkpt>
      <trkpt lat="48.47957" lon="-2.73064">
        <ele>111.2</ele>
        <time>2015-08-26T16:57:30Z</time>
      </trkpt>
      <trkpt lat="48.47966" lon="-2.73075">
        <ele>111.5</ele>
        <time>2015-08-26T16:57:33Z</time>
      </trkpt>
      <trkpt lat="48.47975" lon="-2.73084">
        <ele>111.6</ele>
        <time>2015-08-26T16:57:36Z</time>
      </trkpt>
      <trkpt lat="48.47985" lon="-2.73093">
        <ele>111.8</ele>
        <time>2015-08-26T16:57:39Z</time>
      </trkpt>
      <trkpt lat="48.47996" lon="-2.73099">
        <ele>111.9</ele>
        <time>2015-08-26T16:57:42Z</time>
      </trkpt>
      <trkpt lat="48.48007" lon="-2.73103">
        <ele>112</ele>
        <time>2015-08-26T16:57:45Z</time>
      </trkpt>
      <trkpt lat="48.48018" lon="-2.73106">
        <ele>112.1</ele>
        <time>2015-08-26T16:57:48Z</time>
      </trkpt>
      <trkpt lat="48.4803" lon="-2.73111">
        <ele>112.1</ele>
        <time>2015-08-26T16:57:51Z</time>
      </trkpt>
      <trkpt lat="48.48041" lon="-2.73118">
        <ele>112.2</ele>
        <time>2015-08-26T16:57:54Z</time>
      </trkpt>
      <trkpt lat="48.48052" lon="-2.73125">
        <ele>112.2</ele>
        <time>2015-08-26T16:57:57Z</time>
      </trkpt>
      <trkpt lat="48.48063" lon="-2.73133">
        <ele>112.3</ele>
        <time>2015-08-26T16:58:00Z</time>
      </trkpt>
      <trkpt lat="48.48074" lon="-2.7314">
        <ele>112.3</ele>
        <time>2015-08-26T16:58:03Z</time>
      </trkpt>
      <trkpt lat="48.48086" lon="-2.73146">
        <ele>112.3</ele>
        <time>2015-08-26T16:58:06Z</time>
      </trkpt>
      <trkpt lat="48.48098" lon="-2.73152">
        <ele>112.4</ele>
        <time>2015-08-26T16:58:09Z</time>
      </trkpt>
      <trkpt lat="48.4811" lon="-2.73158">
        <ele>112.4</ele>
        <time>2015-08-26T16:58:12Z</time>
      </trkpt>
      <trkpt lat="48.48122" lon="-2.73164">
        <ele>112.5</ele>
        <time>2015-08-26T16:58:15Z</time>
      </trkpt>
      <trkpt lat="48.48135" lon="-2.7317">
        <ele>112.5</ele>
        <time>2015-08-26T16:58:18Z</time>
      </trkpt>
      <trkpt lat="48.48147" lon="-2.73175">
        <ele>112.5</ele>
        <time>2015-08-26T16:58:21Z</time>
      </trkpt>
      <trkpt lat="48.48159" lon="-2.73181">
        <ele>112.5</ele>
        <time>2015-08-26T16:58:24Z</time>
      </trkpt>
      <trkpt lat="48.48171" lon="-2.73186">
        <ele>112.5</ele>
        <time>2015-08-26T16:58:27Z</time>
      </trkpt>
      <trkpt lat="48.48183" lon="-2.73193">
        <ele>112.6</ele>
        <time>2015-08-26T16:58:30Z</time>
      </trkpt>
      <trkpt lat="48.48195" lon="-2.73201">
        <ele>112.8</ele>
        <time>2015-08-26T16:58:33Z</time>
      </trkpt>
      <trkpt lat="48.482" lon="-2.73213">
        <ele>112.9</ele>
        <time>2015-08-26T16:58:36Z</time>
      </trkpt>
      <trkpt lat="48.48197" lon="-2.73228">
        <ele>113.2</ele>
        <time>2015-08-26T16:58:39Z</time>
      </trkpt>
      <trkpt lat="48.48193" lon="-2.73245">
        <ele>113.4</ele>
        <time>2015-08-26T16:58:42Z</time>
      </trkpt>
      <trkpt lat="48.48188" lon="-2.73263">
        <ele>113.8</ele>
        <time>2015-08-26T16:58:45Z</time>
      </trkpt>
      <trkpt lat="48.48183" lon="-2.7328">
        <ele>114.1</ele>
        <time>2015-08-26T16:58:48Z</time>
      </trkpt>
      <trkpt lat="48.48178" lon="-2.73297">
        <ele>114.5</ele>
        <time>2015-08-26T16:58:52Z</time>
      </trkpt>
      <trkpt lat="48.48173" lon="-2.73309">
        <ele>114.9</ele>
        <time>2015-08-26T16:58:55Z</time>
      </trkpt>
      <trkpt lat="48.48169" lon="-2.73322">
        <ele>115.3</ele>
        <time>2015-08-26T16:58:58Z</time>
      </trkpt>
      <trkpt lat="48.48164" lon="-2.73337">
        <ele>115.8</ele>
        <time>2015-08-26T16:59:01Z</time>
      </trkpt>
      <trkpt lat="48.4816" lon="-2.73352">
        <ele>116.2</ele>
        <time>2015-08-26T16:59:04Z</time>
      </trkpt>
      <trkpt lat="48.48157" lon="-2.73368">
        <ele>116.7</ele>
        <time>2015-08-26T16:59:07Z</time>
      </trkpt>
      <trkpt lat="48.48153" lon="-2.73382">
        <ele>117.2</ele>
        <time>2015-08-26T16:59:10Z</time>
      </trkpt>
      <trkpt lat="48.48149" lon="-2.73395">
        <ele>117.8</ele>
        <time>2015-08-26T16:59:13Z</time>
      </trkpt>
      <trkpt lat="48.48144" lon="-2.73408">
        <ele>118.4</ele>
        <time>2015-08-26T16:59:16Z</time>
      </trkpt>
      <trkpt lat="48.48138" lon="-2.73421">
        <ele>118.9</ele>
        <time>2015-08-26T16:59:19Z</time>
      </trkpt>
      <trkpt lat="48.48131" lon="-2.73432">
        <ele>119.4</ele>
        <time>2015-08-26T16:59:22Z</time>
      </trkpt>
      <trkpt lat="48.48127" lon="-2.73445">
        <ele>120.1</ele>
        <time>2015-08-26T16:59:26Z</time>
      </trkpt>
      <trkpt lat="48.48137" lon="-2.73453">
        <ele>120.7</ele>
        <time>2015-08-26T16:59:31Z</time>
      </trkpt>
      <trkpt lat="48.48144" lon="-2.73466">
        <ele>121.1</ele>
        <time>2015-08-26T16:59:35Z</time>
      </trkpt>
      <trkpt lat="48.4814" lon="-2.73483">
        <ele>121.6</ele>
        <time>2015-08-26T16:59:39Z</time>
      </trkpt>
      <trkpt lat="48.48136" lon="-2.73497">
        <ele>121.9</ele>
        <time>2015-08-26T16:59:42Z</time>
      </trkpt>
      <trkpt lat="48.48132" lon="-2.73511">
        <ele>122.2</ele>
        <time>2015-08-26T16:59:45Z</time>
      </trkpt>
      <trkpt lat="48.48127" lon="-2.73524">
        <ele>122.6</ele>
        <time>2015-08-26T16:59:48Z</time>
      </trkpt>
      <trkpt lat="48.48124" lon="-2.73541">
        <ele>123.1</ele>
        <time>2015-08-26T16:59:52Z</time>
      </trkpt>
      <trkpt lat="48.4812" lon="-2.73554">
        <ele>123.5</ele>
        <time>2015-08-26T16:59:55Z</time>
      </trkpt>
      <trkpt lat="48.48117" lon="-2.73567">
        <ele>123.9</ele>
        <time>2015-08-26T16:59:58Z</time>
      </trkpt>
      <trkpt lat="48.48113" lon="-2.73582">
        <ele>124.2</ele>
        <time>2015-08-26T17:00:01Z</time>
      </trkpt>
      <trkpt lat="48.4811" lon="-2.73599">
        <ele>124.5</ele>
        <time>2015-08-26T17:00:04Z</time>
      </trkpt>
      <trkpt lat="48.48105" lon="-2.73617">
        <ele>124.7</ele>
        <time>2015-08-26T17:00:07Z</time>
      </trkpt>
      <trkpt lat="48.48102" lon="-2.73635">
        <ele>124.9</ele>
        <time>2015-08-26T17:00:10Z</time>
      </trkpt>
      <trkpt lat="48.48098" lon="-2.73652">
        <ele>125.1</ele>
        <time>2015-08-26T17:00:13Z</time>
      </trkpt>
      <trkpt lat="48.48093" lon="-2.73669">
        <ele>125.4</ele>
        <time>2015-08-26T17:00:16Z</time>
      </trkpt>
      <trkpt lat="48.48089" lon="-2.73686">
        <ele>125.7</ele>
        <time>2015-08-26T17:00:19Z</time>
      </trkpt>
      <trkpt lat="48.48085" lon="-2.73703">
        <ele>126</ele>
        <time>2015-08-26T17:00:22Z</time>
      </trkpt>
      <trkpt lat="48.4808" lon="-2.7372">
        <ele>126.4</ele>
        <time>2015-08-26T17:00:25Z</time>
      </trkpt>
      <trkpt lat="48.48076" lon="-2.73735">
        <ele>126.8</ele>
        <time>2015-08-26T17:00:28Z</time>
      </trkpt>
      <trkpt lat="48.48073" lon="-2.73752">
        <ele>127.4</ele>
        <time>2015-08-26T17:00:31Z</time>
      </trkpt>
      <trkpt lat="48.48073" lon="-2.73768">
        <ele>127.8</ele>
        <time>2015-08-26T17:00:34Z</time>
      </trkpt>
      <trkpt lat="48.48072" lon="-2.73784">
        <ele>128.2</ele>
        <time>2015-08-26T17:00:37Z</time>
      </trkpt>
      <trkpt lat="48.48079" lon="-2.73797">
        <ele>128.6</ele>
        <time>2015-08-26T17:00:40Z</time>
      </trkpt>
      <trkpt lat="48.4809" lon="-2.73806">
        <ele>128.9</ele>
        <time>2015-08-26T17:00:43Z</time>
      </trkpt>
      <trkpt lat="48.481" lon="-2.73817">
        <ele>129.4</ele>
        <time>2015-08-26T17:00:46Z</time>
      </trkpt>
      <trkpt lat="48.48109" lon="-2.73828">
        <ele>129.8</ele>
        <time>2015-08-26T17:00:49Z</time>
      </trkpt>
      <trkpt lat="48.48118" lon="-2.7384">
        <ele>130.4</ele>
        <time>2015-08-26T17:00:52Z</time>
      </trkpt>
      <trkpt lat="48.48126" lon="-2.73851">
        <ele>130.9</ele>
        <time>2015-08-26T17:00:55Z</time>
      </trkpt>
      <trkpt lat="48.48134" lon="-2.73863">
        <ele>131.3</ele>
        <time>2015-08-26T17:00:58Z</time>
      </trkpt>
      <trkpt lat="48.48142" lon="-2.73875">
        <ele>131.8</ele>
        <time>2015-08-26T17:01:01Z</time>
      </trkpt>
      <trkpt lat="48.48149" lon="-2.73885">
        <ele>132.2</ele>
        <time>2015-08-26T17:01:04Z</time>
      </trkpt>
      <trkpt lat="48.48157" lon="-2.73896">
        <ele>132.7</ele>
        <time>2015-08-26T17:01:08Z</time>
      </trkpt>
      <trkpt lat="48.48166" lon="-2.73905">
        <ele>133.2</ele>
        <time>2015-08-26T17:01:12Z</time>
      </trkpt>
      <trkpt lat="48.48175" lon="-2.73909">
        <ele>133.5</ele>
        <time>2015-08-26T17:01:15Z</time>
      </trkpt>
      <trkpt lat="48.48186" lon="-2.73912">
        <ele>133.7</ele>
        <time>2015-08-26T17:01:18Z</time>
      </trkpt>
      <trkpt lat="48.48195" lon="-2.73917">
        <ele>134</ele>
        <time>2015-08-26T17:01:21Z</time>
      </trkpt>
      <trkpt lat="48.48199" lon="-2.7393">
        <ele>134.1</ele>
        <time>2015-08-26T17:01:24Z</time>
      </trkpt>
      <trkpt lat="48.48199" lon="-2.73947">
        <ele>134.3</ele>
        <time>2015-08-26T17:01:27Z</time>
      </trkpt>
      <trkpt lat="48.482" lon="-2.73965">
        <ele>134.4</ele>
        <time>2015-08-26T17:01:30Z</time>
      </trkpt>
      <trkpt lat="48.482" lon="-2.73983">
        <ele>134.5</ele>
        <time>2015-08-26T17:01:33Z</time>
      </trkpt>
      <trkpt lat="48.48201" lon="-2.74">
        <ele>134.7</ele>
        <time>2015-08-26T17:01:36Z</time>
      </trkpt>
      <trkpt lat="48.48201" lon="-2.74018">
        <ele>134.8</ele>
        <time>2015-08-26T17:01:39Z</time>
      </trkpt>
      <trkpt lat="48.48201" lon="-2.74033">
        <ele>135</ele>
        <time>2015-08-26T17:01:42Z</time>
      </trkpt>
      <trkpt lat="48.48202" lon="-2.74048">
        <ele>135.1</ele>
        <time>2015-08-26T17:01:45Z</time>
      </trkpt>
      <trkpt lat="48.48203" lon="-2.74064">
        <ele>135.3</ele>
        <time>2015-08-26T17:01:49Z</time>
      </trkpt>
      <trkpt lat="48.48198" lon="-2.74076">
        <ele>136.7</ele>
        <time>2015-08-26T17:02:44Z</time>
      </trkpt>
      <trkpt lat="48.48188" lon="-2.74079">
        <ele>136.8</ele>
        <time>2015-08-26T17:02:48Z</time>
      </trkpt>
      <trkpt lat="48.48176" lon="-2.74081">
        <ele>136.8</ele>
        <time>2015-08-26T17:02:52Z</time>
      </trkpt>
      <trkpt lat="48.48165" lon="-2.74085">
        <ele>136.9</ele>
        <time>2015-08-26T17:02:56Z</time>
      </trkpt>
      <trkpt lat="48.48156" lon="-2.74088">
        <ele>137</ele>
        <time>2015-08-26T17:02:59Z</time>
      </trkpt>
      <trkpt lat="48.48146" lon="-2.74091">
        <ele>137.2</ele>
        <time>2015-08-26T17:03:02Z</time>
      </trkpt>
      <trkpt lat="48.48136" lon="-2.74096">
        <ele>137.4</ele>
        <time>2015-08-26T17:03:05Z</time>
      </trkpt>
      <trkpt lat="48.48124" lon="-2.74102">
        <ele>137.5</ele>
        <time>2015-08-26T17:03:09Z</time>
      </trkpt>
      <trkpt lat="48.48115" lon="-2.74109">
        <ele>137.7</ele>
        <time>2015-08-26T17:03:12Z</time>
      </trkpt>
      <trkpt lat="48.48105" lon="-2.74115">
        <ele>137.8</ele>
        <time>2015-08-26T17:03:15Z</time>
      </trkpt>
      <trkpt lat="48.48099" lon="-2.74125">
        <ele>138</ele>
        <time>2015-08-26T17:03:19Z</time>
      </trkpt>
      <trkpt lat="48.48096" lon="-2.74139">
        <ele>138.1</ele>
        <time>2015-08-26T17:03:22Z</time>
      </trkpt>
      <trkpt lat="48.48092" lon="-2.74157">
        <ele>138.3</ele>
        <time>2015-08-26T17:03:25Z</time>
      </trkpt>
      <trkpt lat="48.48089" lon="-2.74171">
        <ele>138.4</ele>
        <time>2015-08-26T17:03:27Z</time>
      </trkpt>
      <trkpt lat="48.48087" lon="-2.74184">
        <ele>138.5</ele>
        <time>2015-08-26T17:03:29Z</time>
      </trkpt>
      <trkpt lat="48.48084" lon="-2.74197">
        <ele>138.7</ele>
        <time>2015-08-26T17:03:31Z</time>
      </trkpt>
      <trkpt lat="48.48082" lon="-2.74211">
        <ele>138.8</ele>
        <time>2015-08-26T17:03:33Z</time>
      </trkpt>
      <trkpt lat="48.48079" lon="-2.74225">
        <ele>138.9</ele>
        <time>2015-08-26T17:03:35Z</time>
      </trkpt>
      <trkpt lat="48.48077" lon="-2.74238">
        <ele>139</ele>
        <time>2015-08-26T17:03:37Z</time>
      </trkpt>
      <trkpt lat="48.48075" lon="-2.74252">
        <ele>139.1</ele>
        <time>2015-08-26T17:03:39Z</time>
      </trkpt>
      <trkpt lat="48.48071" lon="-2.74272">
        <ele>139.2</ele>
        <time>2015-08-26T17:03:42Z</time>
      </trkpt>
      <trkpt lat="48.48069" lon="-2.74286">
        <ele>139.3</ele>
        <time>2015-08-26T17:03:44Z</time>
      </trkpt>
      <trkpt lat="48.48065" lon="-2.743">
        <ele>139.4</ele>
        <time>2015-08-26T17:03:46Z</time>
      </trkpt>
      <trkpt lat="48.48059" lon="-2.74315">
        <ele>139.4</ele>
        <time>2015-08-26T17:03:49Z</time>
      </trkpt>
      <trkpt lat="48.48053" lon="-2.74328">
        <ele>139.5</ele>
        <time>2015-08-26T17:03:51Z</time>
      </trkpt>
      <trkpt lat="48.48048" lon="-2.74341">
        <ele>139.5</ele>
        <time>2015-08-26T17:03:53Z</time>
      </trkpt>
      <trkpt lat="48.48044" lon="-2.74356">
        <ele>139.4</ele>
        <time>2015-08-26T17:03:55Z</time>
      </trkpt>
      <trkpt lat="48.4804" lon="-2.74368">
        <ele>139.4</ele>
        <time>2015-08-26T17:03:57Z</time>
      </trkpt>
      <trkpt lat="48.48038" lon="-2.74383">
        <ele>139.4</ele>
        <time>2015-08-26T17:03:59Z</time>
      </trkpt>
      <trkpt lat="48.48036" lon="-2.74398">
        <ele>139.4</ele>
        <time>2015-08-26T17:04:01Z</time>
      </trkpt>
      <trkpt lat="48.48034" lon="-2.74414">
        <ele>139.4</ele>
        <time>2015-08-26T17:04:03Z</time>
      </trkpt>
      <trkpt lat="48.48032" lon="-2.7443">
        <ele>139.3</ele>
        <time>2015-08-26T17:04:05Z</time>
      </trkpt>
      <trkpt lat="48.48029" lon="-2.74446">
        <ele>139.3</ele>
        <time>2015-08-26T17:04:07Z</time>
      </trkpt>
      <trkpt lat="48.48026" lon="-2.7446">
        <ele>139.2</ele>
        <time>2015-08-26T17:04:09Z</time>
      </trkpt>
      <trkpt lat="48.48023" lon="-2.74474">
        <ele>139.2</ele>
        <time>2015-08-26T17:04:11Z</time>
      </trkpt>
      <trkpt lat="48.48019" lon="-2.74487">
        <ele>139.2</ele>
        <time>2015-08-26T17:04:13Z</time>
      </trkpt>
      <trkpt lat="48.48015" lon="-2.74501">
        <ele>139.1</ele>
        <time>2015-08-26T17:04:15Z</time>
      </trkpt>
      <trkpt lat="48.48012" lon="-2.74515">
        <ele>139.1</ele>
        <time>2015-08-26T17:04:17Z</time>
      </trkpt>
      <trkpt lat="48.48007" lon="-2.74533">
        <ele>139.1</ele>
        <time>2015-08-26T17:04:20Z</time>
      </trkpt>
      <trkpt lat="48.48004" lon="-2.74546">
        <ele>139.1</ele>
        <time>2015-08-26T17:04:22Z</time>
      </trkpt>
      <trkpt lat="48.48" lon="-2.74558">
        <ele>139</ele>
        <time>2015-08-26T17:04:24Z</time>
      </trkpt>
      <trkpt lat="48.47995" lon="-2.74577">
        <ele>139</ele>
        <time>2015-08-26T17:04:27Z</time>
      </trkpt>
      <trkpt lat="48.4799" lon="-2.74595">
        <ele>139</ele>
        <time>2015-08-26T17:04:30Z</time>
      </trkpt>
      <trkpt lat="48.47985" lon="-2.74614">
        <ele>139</ele>
        <time>2015-08-26T17:04:33Z</time>
      </trkpt>
      <trkpt lat="48.4798" lon="-2.74632">
        <ele>139</ele>
        <time>2015-08-26T17:04:36Z</time>
      </trkpt>
      <trkpt lat="48.47977" lon="-2.74648">
        <ele>139</ele>
        <time>2015-08-26T17:04:39Z</time>
      </trkpt>
      <trkpt lat="48.47984" lon="-2.74658">
        <ele>139</ele>
        <time>2015-08-26T17:04:42Z</time>
      </trkpt>
      <trkpt lat="48.47994" lon="-2.74665">
        <ele>139</ele>
        <time>2015-08-26T17:04:45Z</time>
      </trkpt>
      <trkpt lat="48.48005" lon="-2.74669">
        <ele>139</ele>
        <time>2015-08-26T17:04:48Z</time>
      </trkpt>
      <trkpt lat="48.48015" lon="-2.74673">
        <ele>139</ele>
        <time>2015-08-26T17:04:51Z</time>
      </trkpt>
      <trkpt lat="48.48021" lon="-2.74686">
        <ele>139.1</ele>
        <time>2015-08-26T17:04:54Z</time>
      </trkpt>
      <trkpt lat="48.48024" lon="-2.74702">
        <ele>139.2</ele>
        <time>2015-08-26T17:04:57Z</time>
      </trkpt>
      <trkpt lat="48.48026" lon="-2.7472">
        <ele>139.4</ele>
        <time>2015-08-26T17:05:00Z</time>
      </trkpt>
      <trkpt lat="48.48027" lon="-2.74734">
        <ele>139.5</ele>
        <time>2015-08-26T17:05:02Z</time>
      </trkpt>
      <trkpt lat="48.48027" lon="-2.7475">
        <ele>139.5</ele>
        <time>2015-08-26T17:05:04Z</time>
      </trkpt>
      <trkpt lat="48.48028" lon="-2.74768">
        <ele>139.4</ele>
        <time>2015-08-26T17:05:06Z</time>
      </trkpt>
      <trkpt lat="48.48028" lon="-2.74788">
        <ele>139.3</ele>
        <time>2015-08-26T17:05:08Z</time>
      </trkpt>
      <trkpt lat="48.48028" lon="-2.74809">
        <ele>139</ele>
        <time>2015-08-26T17:05:10Z</time>
      </trkpt>
      <trkpt lat="48.48029" lon="-2.74829">
        <ele>138.7</ele>
        <time>2015-08-26T17:05:12Z</time>
      </trkpt>
      <trkpt lat="48.48034" lon="-2.74848">
        <ele>138.3</ele>
        <time>2015-08-26T17:05:14Z</time>
      </trkpt>
      <trkpt lat="48.48045" lon="-2.7486">
        <ele>137.8</ele>
        <time>2015-08-26T17:05:16Z</time>
      </trkpt>
      <trkpt lat="48.48058" lon="-2.74865">
        <ele>137.3</ele>
        <time>2015-08-26T17:05:18Z</time>
      </trkpt>
      <trkpt lat="48.48071" lon="-2.74871">
        <ele>136.9</ele>
        <time>2015-08-26T17:05:20Z</time>
      </trkpt>
      <trkpt lat="48.48079" lon="-2.74879">
        <ele>136.3</ele>
        <time>2015-08-26T17:05:22Z</time>
      </trkpt>
      <trkpt lat="48.48085" lon="-2.74891">
        <ele>135.8</ele>
        <time>2015-08-26T17:05:24Z</time>
      </trkpt>
      <trkpt lat="48.48091" lon="-2.74904">
        <ele>135</ele>
        <time>2015-08-26T17:05:27Z</time>
      </trkpt>
      <trkpt lat="48.48097" lon="-2.74917">
        <ele>132.9</ele>
        <time>2015-08-26T17:05:36Z</time>
      </trkpt>
      <trkpt lat="48.48103" lon="-2.74936">
        <ele>132.4</ele>
        <time>2015-08-26T17:05:39Z</time>
      </trkpt>
      <trkpt lat="48.48109" lon="-2.7495">
        <ele>132</ele>
        <time>2015-08-26T17:05:41Z</time>
      </trkpt>
      <trkpt lat="48.48114" lon="-2.74964">
        <ele>131.5</ele>
        <time>2015-08-26T17:05:43Z</time>
      </trkpt>
      <trkpt lat="48.48113" lon="-2.7498">
        <ele>131.1</ele>
        <time>2015-08-26T17:05:45Z</time>
      </trkpt>
      <trkpt lat="48.48107" lon="-2.74992">
        <ele>130.7</ele>
        <time>2015-08-26T17:05:47Z</time>
      </trkpt>
      <trkpt lat="48.481" lon="-2.75003">
        <ele>130.2</ele>
        <time>2015-08-26T17:05:49Z</time>
      </trkpt>
      <trkpt lat="48.48103" lon="-2.75021">
        <ele>129.5</ele>
        <time>2015-08-26T17:05:52Z</time>
      </trkpt>
      <trkpt lat="48.48111" lon="-2.75031">
        <ele>129.2</ele>
        <time>2015-08-26T17:05:54Z</time>
      </trkpt>
      <trkpt lat="48.48118" lon="-2.7504">
        <ele>128.8</ele>
        <time>2015-08-26T17:05:56Z</time>
      </trkpt>
      <trkpt lat="48.48127" lon="-2.7505">
        <ele>128.4</ele>
        <time>2015-08-26T17:05:58Z</time>
      </trkpt>
      <trkpt lat="48.48135" lon="-2.75062">
        <ele>128.1</ele>
        <time>2015-08-26T17:06:00Z</time>
      </trkpt>
      <trkpt lat="48.48144" lon="-2.75073">
        <ele>127.8</ele>
        <time>2015-08-26T17:06:02Z</time>
      </trkpt>
      <trkpt lat="48.48156" lon="-2.75084">
        <ele>127.4</ele>
        <time>2015-08-26T17:06:04Z</time>
      </trkpt>
      <trkpt lat="48.48166" lon="-2.75095">
        <ele>127</ele>
        <time>2015-08-26T17:06:06Z</time>
      </trkpt>
      <trkpt lat="48.48176" lon="-2.75105">
        <ele>126.6</ele>
        <time>2015-08-26T17:06:08Z</time>
      </trkpt>
      <trkpt lat="48.48186" lon="-2.75115">
        <ele>126.1</ele>
        <time>2015-08-26T17:06:10Z</time>
      </trkpt>
      <trkpt lat="48.48198" lon="-2.75123">
        <ele>125.6</ele>
        <time>2015-08-26T17:06:12Z</time>
      </trkpt>
      <trkpt lat="48.4821" lon="-2.75128">
        <ele>125.2</ele>
        <time>2015-08-26T17:06:14Z</time>
      </trkpt>
      <trkpt lat="48.48219" lon="-2.75131">
        <ele>124.8</ele>
        <time>2015-08-26T17:06:16Z</time>
      </trkpt>
      <trkpt lat="48.4823" lon="-2.75136">
        <ele>124.3</ele>
        <time>2015-08-26T17:06:18Z</time>
      </trkpt>
      <trkpt lat="48.48245" lon="-2.75139">
        <ele>123.7</ele>
        <time>2015-08-26T17:06:21Z</time>
      </trkpt>
      <trkpt lat="48.48258" lon="-2.75139">
        <ele>123.3</ele>
        <time>2015-08-26T17:06:23Z</time>
      </trkpt>
      <trkpt lat="48.48271" lon="-2.75139">
        <ele>122.9</ele>
        <time>2015-08-26T17:06:25Z</time>
      </trkpt>
      <trkpt lat="48.48285" lon="-2.7514">
        <ele>122.5</ele>
        <time>2015-08-26T17:06:27Z</time>
      </trkpt>
      <trkpt lat="48.48298" lon="-2.75142">
        <ele>122</ele>
        <time>2015-08-26T17:06:29Z</time>
      </trkpt>
      <trkpt lat="48.48308" lon="-2.75145">
        <ele>121.3</ele>
        <time>2015-08-26T17:06:32Z</time>
      </trkpt>
      <trkpt lat="48.48316" lon="-2.75153">
        <ele>120.7</ele>
        <time>2015-08-26T17:06:35Z</time>
      </trkpt>
      <trkpt lat="48.4833" lon="-2.75159">
        <ele>120.1</ele>
        <time>2015-08-26T17:06:38Z</time>
      </trkpt>
      <trkpt lat="48.48341" lon="-2.75161">
        <ele>119.8</ele>
        <time>2015-08-26T17:06:40Z</time>
      </trkpt>
      <trkpt lat="48.48353" lon="-2.75163">
        <ele>119.5</ele>
        <time>2015-08-26T17:06:42Z</time>
      </trkpt>
      <trkpt lat="48.48367" lon="-2.75164">
        <ele>119.1</ele>
        <time>2015-08-26T17:06:44Z</time>
      </trkpt>
      <trkpt lat="48.4838" lon="-2.75166">
        <ele>118.8</ele>
        <time>2015-08-26T17:06:46Z</time>
      </trkpt>
      <trkpt lat="48.48394" lon="-2.75169">
        <ele>118.4</ele>
        <time>2015-08-26T17:06:48Z</time>
      </trkpt>
      <trkpt lat="48.48407" lon="-2.75172">
        <ele>118.1</ele>
        <time>2015-08-26T17:06:50Z</time>
      </trkpt>
      <trkpt lat="48.4842" lon="-2.75172">
        <ele>117.8</ele>
        <time>2015-08-26T17:06:52Z</time>
      </trkpt>
      <trkpt lat="48.48433" lon="-2.75173">
        <ele>117.4</ele>
        <time>2015-08-26T17:06:54Z</time>
      </trkpt>
      <trkpt lat="48.48445" lon="-2.75177">
        <ele>117.1</ele>
        <time>2015-08-26T17:06:56Z</time>
      </trkpt>
      <trkpt lat="48.48458" lon="-2.75183">
        <ele>116.7</ele>
        <time>2015-08-26T17:06:58Z</time>
      </trkpt>
      <trkpt lat="48.4847" lon="-2.75189">
        <ele>116.3</ele>
        <time>2015-08-26T17:07:00Z</time>
      </trkpt>
      <trkpt lat="48.48481" lon="-2.75199">
        <ele>116</ele>
        <time>2015-08-26T17:07:02Z</time>
      </trkpt>
      <trkpt lat="48.48491" lon="-2.75208">
        <ele>115.5</ele>
        <time>2015-08-26T17:07:04Z</time>
      </trkpt>
      <trkpt lat="48.485" lon="-2.75217">
        <ele>114.3</ele>
        <time>2015-08-26T17:07:09Z</time>
      </trkpt>
      <trkpt lat="48.48507" lon="-2.75227">
        <ele>113.4</ele>
        <time>2015-08-26T17:07:13Z</time>
      </trkpt>
      <trkpt lat="48.48514" lon="-2.75236">
        <ele>113.1</ele>
        <time>2015-08-26T17:07:15Z</time>
      </trkpt>
      <trkpt lat="48.48522" lon="-2.75245">
        <ele>112.7</ele>
        <time>2015-08-26T17:07:17Z</time>
      </trkpt>
      <trkpt lat="48.48532" lon="-2.75253">
        <ele>112.3</ele>
        <time>2015-08-26T17:07:19Z</time>
      </trkpt>
      <trkpt lat="48.48542" lon="-2.75256">
        <ele>111.9</ele>
        <time>2015-08-26T17:07:21Z</time>
      </trkpt>
      <trkpt lat="48.48554" lon="-2.75257">
        <ele>111.3</ele>
        <time>2015-08-26T17:07:24Z</time>
      </trkpt>
      <trkpt lat="48.48564" lon="-2.75258">
        <ele>110.9</ele>
        <time>2015-08-26T17:07:26Z</time>
      </trkpt>
      <trkpt lat="48.48573" lon="-2.75259">
        <ele>110.5</ele>
        <time>2015-08-26T17:07:28Z</time>
      </trkpt>
      <trkpt lat="48.48583" lon="-2.75262">
        <ele>110.2</ele>
        <time>2015-08-26T17:07:30Z</time>
      </trkpt>
      <trkpt lat="48.48592" lon="-2.75268">
        <ele>109.8</ele>
        <time>2015-08-26T17:07:32Z</time>
      </trkpt>
      <trkpt lat="48.48603" lon="-2.75271">
        <ele>109.4</ele>
        <time>2015-08-26T17:07:34Z</time>
      </trkpt>
      <trkpt lat="48.48614" lon="-2.75274">
        <ele>109.1</ele>
        <time>2015-08-26T17:07:36Z</time>
      </trkpt>
      <trkpt lat="48.48624" lon="-2.75278">
        <ele>108.7</ele>
        <time>2015-08-26T17:07:38Z</time>
      </trkpt>
      <trkpt lat="48.48636" lon="-2.75283">
        <ele>108.3</ele>
        <time>2015-08-26T17:07:40Z</time>
      </trkpt>
      <trkpt lat="48.48648" lon="-2.75287">
        <ele>108</ele>
        <time>2015-08-26T17:07:42Z</time>
      </trkpt>
      <trkpt lat="48.48659" lon="-2.75292">
        <ele>107.7</ele>
        <time>2015-08-26T17:07:44Z</time>
      </trkpt>
      <trkpt lat="48.48672" lon="-2.75295">
        <ele>107.3</ele>
        <time>2015-08-26T17:07:46Z</time>
      </trkpt>
      <trkpt lat="48.48683" lon="-2.75297">
        <ele>107.1</ele>
        <time>2015-08-26T17:07:48Z</time>
      </trkpt>
      <trkpt lat="48.48694" lon="-2.75301">
        <ele>106.8</ele>
        <time>2015-08-26T17:07:50Z</time>
      </trkpt>
      <trkpt lat="48.48703" lon="-2.75305">
        <ele>106.6</ele>
        <time>2015-08-26T17:07:52Z</time>
      </trkpt>
      <trkpt lat="48.48712" lon="-2.7531">
        <ele>106.4</ele>
        <time>2015-08-26T17:07:54Z</time>
      </trkpt>
      <trkpt lat="48.48723" lon="-2.75313">
        <ele>106.2</ele>
        <time>2015-08-26T17:07:56Z</time>
      </trkpt>
      <trkpt lat="48.48734" lon="-2.75314">
        <ele>105.9</ele>
        <time>2015-08-26T17:07:58Z</time>
      </trkpt>
      <trkpt lat="48.48747" lon="-2.75313">
        <ele>105.7</ele>
        <time>2015-08-26T17:08:00Z</time>
      </trkpt>
      <trkpt lat="48.4876" lon="-2.75317">
        <ele>105.3</ele>
        <time>2015-08-26T17:08:03Z</time>
      </trkpt>
      <trkpt lat="48.48765" lon="-2.7533">
        <ele>105.1</ele>
        <time>2015-08-26T17:08:05Z</time>
      </trkpt>
      <trkpt lat="48.48773" lon="-2.75345">
        <ele>105</ele>
        <time>2015-08-26T17:08:07Z</time>
      </trkpt>
      <trkpt lat="48.48781" lon="-2.75363">
        <ele>104.8</ele>
        <time>2015-08-26T17:08:09Z</time>
      </trkpt>
      <trkpt lat="48.48789" lon="-2.75378">
        <ele>104.6</ele>
        <time>2015-08-26T17:08:11Z</time>
      </trkpt>
      <trkpt lat="48.48798" lon="-2.75391">
        <ele>104.4</ele>
        <time>2015-08-26T17:08:13Z</time>
      </trkpt>
      <trkpt lat="48.48808" lon="-2.75402">
        <ele>104.2</ele>
        <time>2015-08-26T17:08:15Z</time>
      </trkpt>
      <trkpt lat="48.48816" lon="-2.7541">
        <ele>104</ele>
        <time>2015-08-26T17:08:17Z</time>
      </trkpt>
      <trkpt lat="48.48825" lon="-2.75418">
        <ele>103.8</ele>
        <time>2015-08-26T17:08:19Z</time>
      </trkpt>
      <trkpt lat="48.48836" lon="-2.75425">
        <ele>103.6</ele>
        <time>2015-08-26T17:08:21Z</time>
      </trkpt>
      <trkpt lat="48.48847" lon="-2.75431">
        <ele>103.4</ele>
        <time>2015-08-26T17:08:23Z</time>
      </trkpt>
      <trkpt lat="48.48859" lon="-2.75436">
        <ele>103.1</ele>
        <time>2015-08-26T17:08:25Z</time>
      </trkpt>
      <trkpt lat="48.48871" lon="-2.75438">
        <ele>102.8</ele>
        <time>2015-08-26T17:08:27Z</time>
      </trkpt>
      <trkpt lat="48.48883" lon="-2.75442">
        <ele>102.6</ele>
        <time>2015-08-26T17:08:29Z</time>
      </trkpt>
      <trkpt lat="48.48894" lon="-2.75448">
        <ele>102.3</ele>
        <time>2015-08-26T17:08:31Z</time>
      </trkpt>
      <trkpt lat="48.48905" lon="-2.75453">
        <ele>102.1</ele>
        <time>2015-08-26T17:08:33Z</time>
      </trkpt>
      <trkpt lat="48.48916" lon="-2.7546">
        <ele>101.9</ele>
        <time>2015-08-26T17:08:35Z</time>
      </trkpt>
      <trkpt lat="48.48927" lon="-2.75465">
        <ele>101.8</ele>
        <time>2015-08-26T17:08:37Z</time>
      </trkpt>
      <trkpt lat="48.48939" lon="-2.7547">
        <ele>101.6</ele>
        <time>2015-08-26T17:08:39Z</time>
      </trkpt>
      <trkpt lat="48.4895" lon="-2.75476">
        <ele>101.5</ele>
        <time>2015-08-26T17:08:41Z</time>
      </trkpt>
      <trkpt lat="48.48961" lon="-2.7548">
        <ele>101.3</ele>
        <time>2015-08-26T17:08:43Z</time>
      </trkpt>
      <trkpt lat="48.48971" lon="-2.75485">
        <ele>101</ele>
        <time>2015-08-26T17:08:45Z</time>
      </trkpt>
      <trkpt lat="48.48981" lon="-2.7549">
        <ele>100.6</ele>
        <time>2015-08-26T17:08:50Z</time>
      </trkpt>
      <trkpt lat="48.48988" lon="-2.7548">
        <ele>100.4</ele>
        <time>2015-08-26T17:08:53Z</time>
      </trkpt>
      <trkpt lat="48.48998" lon="-2.75476">
        <ele>100.2</ele>
        <time>2015-08-26T17:08:56Z</time>
      </trkpt>
      <trkpt lat="48.49012" lon="-2.75481">
        <ele>100.1</ele>
        <time>2015-08-26T17:08:59Z</time>
      </trkpt>
      <trkpt lat="48.49022" lon="-2.75485">
        <ele>100</ele>
        <time>2015-08-26T17:09:01Z</time>
      </trkpt>
      <trkpt lat="48.49034" lon="-2.75488">
        <ele>99.8</ele>
        <time>2015-08-26T17:09:03Z</time>
      </trkpt>
      <trkpt lat="48.49043" lon="-2.75493">
        <ele>99.6</ele>
        <time>2015-08-26T17:09:05Z</time>
      </trkpt>
      <trkpt lat="48.49054" lon="-2.75499">
        <ele>99.4</ele>
        <time>2015-08-26T17:09:07Z</time>
      </trkpt>
      <trkpt lat="48.49067" lon="-2.75508">
        <ele>99.1</ele>
        <time>2015-08-26T17:09:09Z</time>
      </trkpt>
      <trkpt lat="48.4908" lon="-2.75518">
        <ele>98.9</ele>
        <time>2015-08-26T17:09:11Z</time>
      </trkpt>
      <trkpt lat="48.49092" lon="-2.75528">
        <ele>98.7</ele>
        <time>2015-08-26T17:09:13Z</time>
      </trkpt>
      <trkpt lat="48.49103" lon="-2.75537">
        <ele>98.5</ele>
        <time>2015-08-26T17:09:15Z</time>
      </trkpt>
      <trkpt lat="48.49112" lon="-2.75546">
        <ele>98.3</ele>
        <time>2015-08-26T17:09:17Z</time>
      </trkpt>
      <trkpt lat="48.49123" lon="-2.75556">
        <ele>98.1</ele>
        <time>2015-08-26T17:09:19Z</time>
      </trkpt>
      <trkpt lat="48.49133" lon="-2.75563">
        <ele>97.9</ele>
        <time>2015-08-26T17:09:21Z</time>
      </trkpt>
      <trkpt lat="48.49145" lon="-2.7557">
        <ele>97.7</ele>
        <time>2015-08-26T17:09:23Z</time>
      </trkpt>
      <trkpt lat="48.49156" lon="-2.75574">
        <ele>97.5</ele>
        <time>2015-08-26T17:09:25Z</time>
      </trkpt>
      <trkpt lat="48.49164" lon="-2.75582">
        <ele>97.3</ele>
        <time>2015-08-26T17:09:27Z</time>
      </trkpt>
      <trkpt lat="48.49169" lon="-2.75594">
        <ele>97.1</ele>
        <time>2015-08-26T17:09:29Z</time>
      </trkpt>
      <trkpt lat="48.49168" lon="-2.75609">
        <ele>96.7</ele>
        <time>2015-08-26T17:09:33Z</time>
      </trkpt>
      <trkpt lat="48.4916" lon="-2.75617">
        <ele>96.4</ele>
        <time>2015-08-26T17:09:36Z</time>
      </trkpt>
      <trkpt lat="48.49148" lon="-2.75623">
        <ele>96.2</ele>
        <time>2015-08-26T17:09:39Z</time>
      </trkpt>
      <trkpt lat="48.49138" lon="-2.75626">
        <ele>96.1</ele>
        <time>2015-08-26T17:09:41Z</time>
      </trkpt>
      <trkpt lat="48.49129" lon="-2.75628">
        <ele>96.1</ele>
        <time>2015-08-26T17:09:43Z</time>
      </trkpt>
      <trkpt lat="48.4912" lon="-2.75629">
        <ele>96.1</ele>
        <time>2015-08-26T17:09:45Z</time>
      </trkpt>
      <trkpt lat="48.49107" lon="-2.75631">
        <ele>96.1</ele>
        <time>2015-08-26T17:09:48Z</time>
      </trkpt>
      <trkpt lat="48.49094" lon="-2.75632">
        <ele>96.3</ele>
        <time>2015-08-26T17:09:51Z</time>
      </trkpt>
      <trkpt lat="48.49081" lon="-2.75633">
        <ele>96.5</ele>
        <time>2015-08-26T17:09:54Z</time>
      </trkpt>
      <trkpt lat="48.49069" lon="-2.75634">
        <ele>96.8</ele>
        <time>2015-08-26T17:09:57Z</time>
      </trkpt>
      <trkpt lat="48.49056" lon="-2.75634">
        <ele>97</ele>
        <time>2015-08-26T17:10:00Z</time>
      </trkpt>
      <trkpt lat="48.49044" lon="-2.75635">
        <ele>97.4</ele>
        <time>2015-08-26T17:10:03Z</time>
      </trkpt>
      <trkpt lat="48.49031" lon="-2.75636">
        <ele>97.6</ele>
        <time>2015-08-26T17:10:06Z</time>
      </trkpt>
      <trkpt lat="48.49017" lon="-2.75636">
        <ele>97.9</ele>
        <time>2015-08-26T17:10:09Z</time>
      </trkpt>
      <trkpt lat="48.49004" lon="-2.75637">
        <ele>98.2</ele>
        <time>2015-08-26T17:10:12Z</time>
      </trkpt>
      <trkpt lat="48.48991" lon="-2.75638">
        <ele>98.5</ele>
        <time>2015-08-26T17:10:15Z</time>
      </trkpt>
      <trkpt lat="48.48979" lon="-2.75639">
        <ele>98.7</ele>
        <time>2015-08-26T17:10:18Z</time>
      </trkpt>
      <trkpt lat="48.48967" lon="-2.75642">
        <ele>98.9</ele>
        <time>2015-08-26T17:10:21Z</time>
      </trkpt>
      <trkpt lat="48.48956" lon="-2.75647">
        <ele>99.1</ele>
        <time>2015-08-26T17:10:24Z</time>
      </trkpt>
      <trkpt lat="48.48944" lon="-2.75652">
        <ele>99.4</ele>
        <time>2015-08-26T17:10:27Z</time>
      </trkpt>
      <trkpt lat="48.48932" lon="-2.75656">
        <ele>99.7</ele>
        <time>2015-08-26T17:10:30Z</time>
      </trkpt>
      <trkpt lat="48.4892" lon="-2.7566">
        <ele>100</ele>
        <time>2015-08-26T17:10:33Z</time>
      </trkpt>
      <trkpt lat="48.48907" lon="-2.75664">
        <ele>100.3</ele>
        <time>2015-08-26T17:10:36Z</time>
      </trkpt>
      <trkpt lat="48.48895" lon="-2.75668">
        <ele>100.6</ele>
        <time>2015-08-26T17:10:39Z</time>
      </trkpt>
      <trkpt lat="48.48882" lon="-2.75674">
        <ele>100.9</ele>
        <time>2015-08-26T17:10:42Z</time>
      </trkpt>
      <trkpt lat="48.4887" lon="-2.75679">
        <ele>101.2</ele>
        <time>2015-08-26T17:10:45Z</time>
      </trkpt>
      <trkpt lat="48.48857" lon="-2.75684">
        <ele>101.6</ele>
        <time>2015-08-26T17:10:48Z</time>
      </trkpt>
      <trkpt lat="48.48844" lon="-2.75688">
        <ele>101.9</ele>
        <time>2015-08-26T17:10:51Z</time>
      </trkpt>
      <trkpt lat="48.48835" lon="-2.75691">
        <ele>102.2</ele>
        <time>2015-08-26T17:10:53Z</time>
      </trkpt>
      <trkpt lat="48.48826" lon="-2.75694">
        <ele>102.5</ele>
        <time>2015-08-26T17:10:55Z</time>
      </trkpt>
      <trkpt lat="48.48813" lon="-2.75699">
        <ele>103</ele>
        <time>2015-08-26T17:10:58Z</time>
      </trkpt>
      <trkpt lat="48.48801" lon="-2.75704">
        <ele>103.5</ele>
        <time>2015-08-26T17:11:01Z</time>
      </trkpt>
      <trkpt lat="48.48789" lon="-2.75708">
        <ele>104.1</ele>
        <time>2015-08-26T17:11:04Z</time>
      </trkpt>
      <trkpt lat="48.48776" lon="-2.7571">
        <ele>104.7</ele>
        <time>2015-08-26T17:11:07Z</time>
      </trkpt>
      <trkpt lat="48.48764" lon="-2.75714">
        <ele>105.3</ele>
        <time>2015-08-26T17:11:10Z</time>
      </trkpt>
      <trkpt lat="48.48753" lon="-2.75719">
        <ele>105.8</ele>
        <time>2015-08-26T17:11:13Z</time>
      </trkpt>
      <trkpt lat="48.48741" lon="-2.75724">
        <ele>106.2</ele>
        <time>2015-08-26T17:11:16Z</time>
      </trkpt>
      <trkpt lat="48.4873" lon="-2.75728">
        <ele>106.6</ele>
        <time>2015-08-26T17:11:19Z</time>
      </trkpt>
      <trkpt lat="48.4872" lon="-2.75735">
        <ele>107.1</ele>
        <time>2015-08-26T17:11:22Z</time>
      </trkpt>
      <trkpt lat="48.48728" lon="-2.75744">
        <ele>107.8</ele>
        <time>2015-08-26T17:11:26Z</time>
      </trkpt>
      <trkpt lat="48.4874" lon="-2.75749">
        <ele>108.3</ele>
        <time>2015-08-26T17:11:29Z</time>
      </trkpt>
      <trkpt lat="48.48752" lon="-2.75756">
        <ele>108.7</ele>
        <time>2015-08-26T17:11:32Z</time>
      </trkpt>
      <trkpt lat="48.48764" lon="-2.75763">
        <ele>109.1</ele>
        <time>2015-08-26T17:11:35Z</time>
      </trkpt>
      <trkpt lat="48.48776" lon="-2.7577">
        <ele>109.5</ele>
        <time>2015-08-26T17:11:38Z</time>
      </trkpt>
      <trkpt lat="48.48787" lon="-2.75776">
        <ele>109.8</ele>
        <time>2015-08-26T17:11:41Z</time>
      </trkpt>
      <trkpt lat="48.48799" lon="-2.75785">
        <ele>110.1</ele>
        <time>2015-08-26T17:11:44Z</time>
      </trkpt>
      <trkpt lat="48.48807" lon="-2.75793">
        <ele>110.2</ele>
        <time>2015-08-26T17:11:46Z</time>
      </trkpt>
      <trkpt lat="48.48817" lon="-2.75804">
        <ele>110.3</ele>
        <time>2015-08-26T17:11:48Z</time>
      </trkpt>
      <trkpt lat="48.48827" lon="-2.75814">
        <ele>110.2</ele>
        <time>2015-08-26T17:11:50Z</time>
      </trkpt>
      <trkpt lat="48.48837" lon="-2.75826">
        <ele>110</ele>
        <time>2015-08-26T17:11:52Z</time>
      </trkpt>
      <trkpt lat="48.48846" lon="-2.75839">
        <ele>109.6</ele>
        <time>2015-08-26T17:11:54Z</time>
      </trkpt>
      <trkpt lat="48.48855" lon="-2.75851">
        <ele>109.1</ele>
        <time>2015-08-26T17:11:56Z</time>
      </trkpt>
      <trkpt lat="48.48862" lon="-2.75864">
        <ele>108.5</ele>
        <time>2015-08-26T17:11:58Z</time>
      </trkpt>
      <trkpt lat="48.48863" lon="-2.75884">
        <ele>107.7</ele>
        <time>2015-08-26T17:12:01Z</time>
      </trkpt>
      <trkpt lat="48.48862" lon="-2.75904">
        <ele>106.9</ele>
        <time>2015-08-26T17:12:04Z</time>
      </trkpt>
      <trkpt lat="48.48858" lon="-2.75923">
        <ele>106.1</ele>
        <time>2015-08-26T17:12:07Z</time>
      </trkpt>
      <trkpt lat="48.48854" lon="-2.75942">
        <ele>105.3</ele>
        <time>2015-08-26T17:12:10Z</time>
      </trkpt>
      <trkpt lat="48.48851" lon="-2.75956">
        <ele>104.8</ele>
        <time>2015-08-26T17:12:12Z</time>
      </trkpt>
      <trkpt lat="48.4885" lon="-2.75971">
        <ele>104.3</ele>
        <time>2015-08-26T17:12:14Z</time>
      </trkpt>
      <trkpt lat="48.48849" lon="-2.75987">
        <ele>103.9</ele>
        <time>2015-08-26T17:12:16Z</time>
      </trkpt>
      <trkpt lat="48.48849" lon="-2.76005">
        <ele>103.5</ele>
        <time>2015-08-26T17:12:18Z</time>
      </trkpt>
      <trkpt lat="48.48848" lon="-2.76023">
        <ele>103</ele>
        <time>2015-08-26T17:12:20Z</time>
      </trkpt>
      <trkpt lat="48.48848" lon="-2.76042">
        <ele>102.4</ele>
        <time>2015-08-26T17:12:22Z</time>
      </trkpt>
      <trkpt lat="48.48849" lon="-2.76061">
        <ele>101.9</ele>
        <time>2015-08-26T17:12:24Z</time>
      </trkpt>
      <trkpt lat="48.48852" lon="-2.76077">
        <ele>101.5</ele>
        <time>2015-08-26T17:12:26Z</time>
      </trkpt>
      <trkpt lat="48.48854" lon="-2.76094">
        <ele>101</ele>
        <time>2015-08-26T17:12:28Z</time>
      </trkpt>
      <trkpt lat="48.48856" lon="-2.76111">
        <ele>100.5</ele>
        <time>2015-08-26T17:12:30Z</time>
      </trkpt>
      <trkpt lat="48.48858" lon="-2.76128">
        <ele>100</ele>
        <time>2015-08-26T17:12:32Z</time>
      </trkpt>
      <trkpt lat="48.48859" lon="-2.76145">
        <ele>99.6</ele>
        <time>2015-08-26T17:12:34Z</time>
      </trkpt>
      <trkpt lat="48.4886" lon="-2.76162">
        <ele>99.3</ele>
        <time>2015-08-26T17:12:36Z</time>
      </trkpt>
      <trkpt lat="48.48861" lon="-2.76179">
        <ele>98.8</ele>
        <time>2015-08-26T17:12:38Z</time>
      </trkpt>
      <trkpt lat="48.48862" lon="-2.76197">
        <ele>98.4</ele>
        <time>2015-08-26T17:12:40Z</time>
      </trkpt>
      <trkpt lat="48.48862" lon="-2.76215">
        <ele>97.9</ele>
        <time>2015-08-26T17:12:42Z</time>
      </trkpt>
      <trkpt lat="48.48864" lon="-2.76232">
        <ele>97.5</ele>
        <time>2015-08-26T17:12:44Z</time>
      </trkpt>
      <trkpt lat="48.48866" lon="-2.76248">
        <ele>97.1</ele>
        <time>2015-08-26T17:12:46Z</time>
      </trkpt>
      <trkpt lat="48.4887" lon="-2.76263">
        <ele>96.8</ele>
        <time>2015-08-26T17:12:48Z</time>
      </trkpt>
      <trkpt lat="48.48878" lon="-2.76275">
        <ele>96.3</ele>
        <time>2015-08-26T17:12:50Z</time>
      </trkpt>
      <trkpt lat="48.48883" lon="-2.76289">
        <ele>96</ele>
        <time>2015-08-26T17:12:52Z</time>
      </trkpt>
      <trkpt lat="48.48884" lon="-2.76303">
        <ele>95.7</ele>
        <time>2015-08-26T17:12:54Z</time>
      </trkpt>
      <trkpt lat="48.48879" lon="-2.76317">
        <ele>95.4</ele>
        <time>2015-08-26T17:12:56Z</time>
      </trkpt>
      <trkpt lat="48.48875" lon="-2.76331">
        <ele>95.1</ele>
        <time>2015-08-26T17:12:58Z</time>
      </trkpt>
      <trkpt lat="48.48872" lon="-2.76344">
        <ele>94.8</ele>
        <time>2015-08-26T17:13:00Z</time>
      </trkpt>
      <trkpt lat="48.48871" lon="-2.76359">
        <ele>94.5</ele>
        <time>2015-08-26T17:13:02Z</time>
      </trkpt>
      <trkpt lat="48.48871" lon="-2.76374">
        <ele>94.3</ele>
        <time>2015-08-26T17:13:04Z</time>
      </trkpt>
      <trkpt lat="48.48869" lon="-2.7639">
        <ele>94</ele>
        <time>2015-08-26T17:13:06Z</time>
      </trkpt>
      <trkpt lat="48.48872" lon="-2.76404">
        <ele>93.8</ele>
        <time>2015-08-26T17:13:08Z</time>
      </trkpt>
      <trkpt lat="48.48874" lon="-2.7642">
        <ele>93.6</ele>
        <time>2015-08-26T17:13:10Z</time>
      </trkpt>
      <trkpt lat="48.48879" lon="-2.76434">
        <ele>93.4</ele>
        <time>2015-08-26T17:13:12Z</time>
      </trkpt>
      <trkpt lat="48.48886" lon="-2.76444">
        <ele>93.2</ele>
        <time>2015-08-26T17:13:14Z</time>
      </trkpt>
      <trkpt lat="48.48893" lon="-2.76459">
        <ele>93</ele>
        <time>2015-08-26T17:13:17Z</time>
      </trkpt>
      <trkpt lat="48.48895" lon="-2.76472">
        <ele>93</ele>
        <time>2015-08-26T17:13:19Z</time>
      </trkpt>
      <trkpt lat="48.48892" lon="-2.76485">
        <ele>93</ele>
        <time>2015-08-26T17:13:21Z</time>
      </trkpt>
      <trkpt lat="48.48883" lon="-2.76496">
        <ele>93</ele>
        <time>2015-08-26T17:13:24Z</time>
      </trkpt>
      <trkpt lat="48.48872" lon="-2.765">
        <ele>92.9</ele>
        <time>2015-08-26T17:13:27Z</time>
      </trkpt>
      <trkpt lat="48.48864" lon="-2.76512">
        <ele>93</ele>
        <time>2015-08-26T17:13:30Z</time>
      </trkpt>
      <trkpt lat="48.48858" lon="-2.76523">
        <ele>93</ele>
        <time>2015-08-26T17:13:33Z</time>
      </trkpt>
      <trkpt lat="48.4885" lon="-2.76533">
        <ele>93</ele>
        <time>2015-08-26T17:13:36Z</time>
      </trkpt>
      <trkpt lat="48.48841" lon="-2.76542">
        <ele>93</ele>
        <time>2015-08-26T17:13:39Z</time>
      </trkpt>
      <trkpt lat="48.48832" lon="-2.76553">
        <ele>93</ele>
        <time>2015-08-26T17:13:42Z</time>
      </trkpt>
      <trkpt lat="48.48827" lon="-2.76563">
        <ele>93</ele>
        <time>2015-08-26T17:13:44Z</time>
      </trkpt>
      <trkpt lat="48.4882" lon="-2.76574">
        <ele>93.1</ele>
        <time>2015-08-26T17:13:46Z</time>
      </trkpt>
      <trkpt lat="48.48813" lon="-2.76583">
        <ele>93.1</ele>
        <time>2015-08-26T17:13:48Z</time>
      </trkpt>
      <trkpt lat="48.48807" lon="-2.76594">
        <ele>93.2</ele>
        <time>2015-08-26T17:13:50Z</time>
      </trkpt>
      <trkpt lat="48.48801" lon="-2.76604">
        <ele>93.3</ele>
        <time>2015-08-26T17:13:52Z</time>
      </trkpt>
      <trkpt lat="48.48792" lon="-2.76619">
        <ele>93.4</ele>
        <time>2015-08-26T17:13:55Z</time>
      </trkpt>
      <trkpt lat="48.48782" lon="-2.76633">
        <ele>93.5</ele>
        <time>2015-08-26T17:13:58Z</time>
      </trkpt>
      <trkpt lat="48.48772" lon="-2.76645">
        <ele>93.6</ele>
        <time>2015-08-26T17:14:01Z</time>
      </trkpt>
      <trkpt lat="48.48759" lon="-2.76646">
        <ele>93.7</ele>
        <time>2015-08-26T17:14:04Z</time>
      </trkpt>
      <trkpt lat="48.48749" lon="-2.76642">
        <ele>93.8</ele>
        <time>2015-08-26T17:14:06Z</time>
      </trkpt>
      <trkpt lat="48.4874" lon="-2.76637">
        <ele>94</ele>
        <time>2015-08-26T17:14:08Z</time>
      </trkpt>
      <trkpt lat="48.48731" lon="-2.76634">
        <ele>94.2</ele>
        <time>2015-08-26T17:14:10Z</time>
      </trkpt>
      <trkpt lat="48.4872" lon="-2.7663">
        <ele>94.5</ele>
        <time>2015-08-26T17:14:13Z</time>
      </trkpt>
      <trkpt lat="48.48709" lon="-2.7663">
        <ele>94.9</ele>
        <time>2015-08-26T17:14:16Z</time>
      </trkpt>
      <trkpt lat="48.48699" lon="-2.76636">
        <ele>95.3</ele>
        <time>2015-08-26T17:14:19Z</time>
      </trkpt>
      <trkpt lat="48.4869" lon="-2.76644">
        <ele>96</ele>
        <time>2015-08-26T17:14:22Z</time>
      </trkpt>
      <trkpt lat="48.48681" lon="-2.76654">
        <ele>96.5</ele>
        <time>2015-08-26T17:14:25Z</time>
      </trkpt>
      <trkpt lat="48.48672" lon="-2.76664">
        <ele>97.2</ele>
        <time>2015-08-26T17:14:28Z</time>
      </trkpt>
      <trkpt lat="48.48663" lon="-2.76672">
        <ele>97.8</ele>
        <time>2015-08-26T17:14:31Z</time>
      </trkpt>
      <trkpt lat="48.48654" lon="-2.76678">
        <ele>98.3</ele>
        <time>2015-08-26T17:14:34Z</time>
      </trkpt>
      <trkpt lat="48.48644" lon="-2.76682">
        <ele>98.8</ele>
        <time>2015-08-26T17:14:37Z</time>
      </trkpt>
      <trkpt lat="48.48634" lon="-2.76688">
        <ele>99.2</ele>
        <time>2015-08-26T17:14:40Z</time>
      </trkpt>
      <trkpt lat="48.48623" lon="-2.76694">
        <ele>99.6</ele>
        <time>2015-08-26T17:14:43Z</time>
      </trkpt>
      <trkpt lat="48.48614" lon="-2.767">
        <ele>100.1</ele>
        <time>2015-08-26T17:14:46Z</time>
      </trkpt>
      <trkpt lat="48.48605" lon="-2.7671">
        <ele>100.5</ele>
        <time>2015-08-26T17:14:49Z</time>
      </trkpt>
      <trkpt lat="48.48596" lon="-2.76719">
        <ele>101.1</ele>
        <time>2015-08-26T17:14:52Z</time>
      </trkpt>
      <trkpt lat="48.48587" lon="-2.76725">
        <ele>101.5</ele>
        <time>2015-08-26T17:14:55Z</time>
      </trkpt>
      <trkpt lat="48.48577" lon="-2.76731">
        <ele>101.9</ele>
        <time>2015-08-26T17:14:58Z</time>
      </trkpt>
      <trkpt lat="48.48567" lon="-2.76736">
        <ele>102.3</ele>
        <time>2015-08-26T17:15:01Z</time>
      </trkpt>
      <trkpt lat="48.48556" lon="-2.7674">
        <ele>102.6</ele>
        <time>2015-08-26T17:15:04Z</time>
      </trkpt>
      <trkpt lat="48.48546" lon="-2.76746">
        <ele>103.1</ele>
        <time>2015-08-26T17:15:07Z</time>
      </trkpt>
      <trkpt lat="48.48536" lon="-2.76751">
        <ele>103.4</ele>
        <time>2015-08-26T17:15:10Z</time>
      </trkpt>
      <trkpt lat="48.48526" lon="-2.76755">
        <ele>103.9</ele>
        <time>2015-08-26T17:15:13Z</time>
      </trkpt>
      <trkpt lat="48.48516" lon="-2.76759">
        <ele>104.3</ele>
        <time>2015-08-26T17:15:16Z</time>
      </trkpt>
      <trkpt lat="48.48506" lon="-2.76763">
        <ele>104.7</ele>
        <time>2015-08-26T17:15:19Z</time>
      </trkpt>
      <trkpt lat="48.48496" lon="-2.76766">
        <ele>105.1</ele>
        <time>2015-08-26T17:15:22Z</time>
      </trkpt>
      <trkpt lat="48.48486" lon="-2.7677">
        <ele>105.6</ele>
        <time>2015-08-26T17:15:25Z</time>
      </trkpt>
      <trkpt lat="48.48476" lon="-2.76774">
        <ele>106.1</ele>
        <time>2015-08-26T17:15:28Z</time>
      </trkpt>
      <trkpt lat="48.48466" lon="-2.76778">
        <ele>106.7</ele>
        <time>2015-08-26T17:15:31Z</time>
      </trkpt>
      <trkpt lat="48.48456" lon="-2.76781">
        <ele>107.3</ele>
        <time>2015-08-26T17:15:34Z</time>
      </trkpt>
      <trkpt lat="48.48446" lon="-2.76784">
        <ele>107.8</ele>
        <time>2015-08-26T17:15:37Z</time>
      </trkpt>
      <trkpt lat="48.48436" lon="-2.76787">
        <ele>108.3</ele>
        <time>2015-08-26T17:15:40Z</time>
      </trkpt>
      <trkpt lat="48.48426" lon="-2.76788">
        <ele>108.9</ele>
        <time>2015-08-26T17:15:43Z</time>
      </trkpt>
      <trkpt lat="48.48417" lon="-2.76788">
        <ele>109.5</ele>
        <time>2015-08-26T17:15:46Z</time>
      </trkpt>
      <trkpt lat="48.48407" lon="-2.76788">
        <ele>110.1</ele>
        <time>2015-08-26T17:15:49Z</time>
      </trkpt>
      <trkpt lat="48.48398" lon="-2.76787">
        <ele>110.8</ele>
        <time>2015-08-26T17:15:52Z</time>
      </trkpt>
      <trkpt lat="48.48388" lon="-2.76786">
        <ele>111.3</ele>
        <time>2015-08-26T17:15:55Z</time>
      </trkpt>
      <trkpt lat="48.48378" lon="-2.76785">
        <ele>111.9</ele>
        <time>2015-08-26T17:15:58Z</time>
      </trkpt>
      <trkpt lat="48.48368" lon="-2.76784">
        <ele>112.5</ele>
        <time>2015-08-26T17:16:01Z</time>
      </trkpt>
      <trkpt lat="48.48358" lon="-2.76784">
        <ele>113.1</ele>
        <time>2015-08-26T17:16:04Z</time>
      </trkpt>
      <trkpt lat="48.48349" lon="-2.76785">
        <ele>113.6</ele>
        <time>2015-08-26T17:16:07Z</time>
      </trkpt>
      <trkpt lat="48.48339" lon="-2.76784">
        <ele>114.3</ele>
        <time>2015-08-26T17:16:10Z</time>
      </trkpt>
      <trkpt lat="48.48331" lon="-2.76778">
        <ele>114.8</ele>
        <time>2015-08-26T17:16:13Z</time>
      </trkpt>
      <trkpt lat="48.48323" lon="-2.76771">
        <ele>115.1</ele>
        <time>2015-08-26T17:16:15Z</time>
      </trkpt>
      <trkpt lat="48.48314" lon="-2.76764">
        <ele>115.4</ele>
        <time>2015-08-26T17:16:17Z</time>
      </trkpt>
      <trkpt lat="48.48305" lon="-2.76758">
        <ele>115.7</ele>
        <time>2015-08-26T17:16:19Z</time>
      </trkpt>
      <trkpt lat="48.48296" lon="-2.76752">
        <ele>115.9</ele>
        <time>2015-08-26T17:16:21Z</time>
      </trkpt>
      <trkpt lat="48.48286" lon="-2.76746">
        <ele>116.1</ele>
        <time>2015-08-26T17:16:23Z</time>
      </trkpt>
      <trkpt lat="48.48274" lon="-2.7674">
        <ele>116.3</ele>
        <time>2015-08-26T17:16:26Z</time>
      </trkpt>
      <trkpt lat="48.48264" lon="-2.7674">
        <ele>116.4</ele>
        <time>2015-08-26T17:16:29Z</time>
      </trkpt>
      <trkpt lat="48.48251" lon="-2.76737">
        <ele>116.5</ele>
        <time>2015-08-26T17:16:32Z</time>
      </trkpt>
      <trkpt lat="48.48242" lon="-2.76734">
        <ele>116.5</ele>
        <time>2015-08-26T17:16:34Z</time>
      </trkpt>
      <trkpt lat="48.48232" lon="-2.76729">
        <ele>116.6</ele>
        <time>2015-08-26T17:16:36Z</time>
      </trkpt>
      <trkpt lat="48.4822" lon="-2.76727">
        <ele>116.6</ele>
        <time>2015-08-26T17:16:39Z</time>
      </trkpt>
      <trkpt lat="48.48212" lon="-2.7673">
        <ele>116.6</ele>
        <time>2015-08-26T17:16:41Z</time>
      </trkpt>
      <trkpt lat="48.48204" lon="-2.76741">
        <ele>116.6</ele>
        <time>2015-08-26T17:16:43Z</time>
      </trkpt>
      <trkpt lat="48.48198" lon="-2.76758">
        <ele>116.7</ele>
        <time>2015-08-26T17:16:46Z</time>
      </trkpt>
      <trkpt lat="48.48195" lon="-2.76771">
        <ele>116.7</ele>
        <time>2015-08-26T17:16:48Z</time>
      </trkpt>
      <trkpt lat="48.48191" lon="-2.76786">
        <ele>116.6</ele>
        <time>2015-08-26T17:16:50Z</time>
      </trkpt>
      <trkpt lat="48.48193" lon="-2.76805">
        <ele>116.6</ele>
        <time>2015-08-26T17:16:53Z</time>
      </trkpt>
      <trkpt lat="48.48194" lon="-2.76825">
        <ele>116.5</ele>
        <time>2015-08-26T17:16:56Z</time>
      </trkpt>
      <trkpt lat="48.482" lon="-2.76836">
        <ele>116.4</ele>
        <time>2015-08-26T17:16:58Z</time>
      </trkpt>
      <trkpt lat="48.48204" lon="-2.76848">
        <ele>116.3</ele>
        <time>2015-08-26T17:17:00Z</time>
      </trkpt>
      <trkpt lat="48.48206" lon="-2.76863">
        <ele>116.3</ele>
        <time>2015-08-26T17:17:02Z</time>
      </trkpt>
      <trkpt lat="48.48207" lon="-2.76882">
        <ele>116.1</ele>
        <time>2015-08-26T17:17:04Z</time>
      </trkpt>
      <trkpt lat="48.48209" lon="-2.76898">
        <ele>116</ele>
        <time>2015-08-26T17:17:06Z</time>
      </trkpt>
      <trkpt lat="48.4821" lon="-2.76917">
        <ele>115.9</ele>
        <time>2015-08-26T17:17:08Z</time>
      </trkpt>
      <trkpt lat="48.48212" lon="-2.76933">
        <ele>115.6</ele>
        <time>2015-08-26T17:17:10Z</time>
      </trkpt>
      <trkpt lat="48.48214" lon="-2.76948">
        <ele>115.4</ele>
        <time>2015-08-26T17:17:12Z</time>
      </trkpt>
      <trkpt lat="48.48217" lon="-2.76965">
        <ele>115.2</ele>
        <time>2015-08-26T17:17:14Z</time>
      </trkpt>
      <trkpt lat="48.48221" lon="-2.76984">
        <ele>114.9</ele>
        <time>2015-08-26T17:17:16Z</time>
      </trkpt>
      <trkpt lat="48.48229" lon="-2.77001">
        <ele>114.6</ele>
        <time>2015-08-26T17:17:18Z</time>
      </trkpt>
      <trkpt lat="48.48238" lon="-2.7701">
        <ele>114.2</ele>
        <time>2015-08-26T17:17:20Z</time>
      </trkpt>
      <trkpt lat="48.48246" lon="-2.77017">
        <ele>113.8</ele>
        <time>2015-08-26T17:17:22Z</time>
      </trkpt>
      <trkpt lat="48.48255" lon="-2.77026">
        <ele>113.4</ele>
        <time>2015-08-26T17:17:24Z</time>
      </trkpt>
      <trkpt lat="48.48263" lon="-2.77033">
        <ele>113</ele>
        <time>2015-08-26T17:17:26Z</time>
      </trkpt>
      <trkpt lat="48.48269" lon="-2.77045">
        <ele>112.7</ele>
        <time>2015-08-26T17:17:28Z</time>
      </trkpt>
      <trkpt lat="48.48274" lon="-2.77059">
        <ele>112.5</ele>
        <time>2015-08-26T17:17:30Z</time>
      </trkpt>
      <trkpt lat="48.48275" lon="-2.77073">
        <ele>112.2</ele>
        <time>2015-08-26T17:17:32Z</time>
      </trkpt>
      <trkpt lat="48.48275" lon="-2.77088">
        <ele>112</ele>
        <time>2015-08-26T17:17:34Z</time>
      </trkpt>
      <trkpt lat="48.48275" lon="-2.77108">
        <ele>111.8</ele>
        <time>2015-08-26T17:17:37Z</time>
      </trkpt>
      <trkpt lat="48.48274" lon="-2.77124">
        <ele>111.6</ele>
        <time>2015-08-26T17:17:39Z</time>
      </trkpt>
      <trkpt lat="48.48272" lon="-2.77139">
        <ele>111.5</ele>
        <time>2015-08-26T17:17:41Z</time>
      </trkpt>
      <trkpt lat="48.4827" lon="-2.77155">
        <ele>111.4</ele>
        <time>2015-08-26T17:17:43Z</time>
      </trkpt>
      <trkpt lat="48.48268" lon="-2.7717">
        <ele>111.3</ele>
        <time>2015-08-26T17:17:45Z</time>
      </trkpt>
      <trkpt lat="48.48265" lon="-2.77185">
        <ele>111.2</ele>
        <time>2015-08-26T17:17:47Z</time>
      </trkpt>
      <trkpt lat="48.48261" lon="-2.77198">
        <ele>111.1</ele>
        <time>2015-08-26T17:17:49Z</time>
      </trkpt>
      <trkpt lat="48.48257" lon="-2.77215">
        <ele>111</ele>
        <time>2015-08-26T17:17:52Z</time>
      </trkpt>
      <trkpt lat="48.4825" lon="-2.77227">
        <ele>111</ele>
        <time>2015-08-26T17:17:55Z</time>
      </trkpt>
      <trkpt lat="48.48256" lon="-2.7724">
        <ele>110.8</ele>
        <time>2015-08-26T17:18:02Z</time>
      </trkpt>
      <trkpt lat="48.48268" lon="-2.77246">
        <ele>110.6</ele>
        <time>2015-08-26T17:18:05Z</time>
      </trkpt>
      <trkpt lat="48.48277" lon="-2.7725">
        <ele>110.5</ele>
        <time>2015-08-26T17:18:07Z</time>
      </trkpt>
      <trkpt lat="48.48286" lon="-2.77254">
        <ele>110.5</ele>
        <time>2015-08-26T17:18:09Z</time>
      </trkpt>
      <trkpt lat="48.48295" lon="-2.7726">
        <ele>110.3</ele>
        <time>2015-08-26T17:18:11Z</time>
      </trkpt>
      <trkpt lat="48.48307" lon="-2.77268">
        <ele>110.1</ele>
        <time>2015-08-26T17:18:14Z</time>
      </trkpt>
      <trkpt lat="48.48318" lon="-2.77276">
        <ele>109.9</ele>
        <time>2015-08-26T17:18:17Z</time>
      </trkpt>
      <trkpt lat="48.48331" lon="-2.77283">
        <ele>109.7</ele>
        <time>2015-08-26T17:18:20Z</time>
      </trkpt>
      <trkpt lat="48.4834" lon="-2.77286">
        <ele>109.6</ele>
        <time>2015-08-26T17:18:22Z</time>
      </trkpt>
      <trkpt lat="48.48349" lon="-2.77289">
        <ele>109.4</ele>
        <time>2015-08-26T17:18:24Z</time>
      </trkpt>
      <trkpt lat="48.48359" lon="-2.7729">
        <ele>109.2</ele>
        <time>2015-08-26T17:18:26Z</time>
      </trkpt>
      <trkpt lat="48.4837" lon="-2.77289">
        <ele>108.9</ele>
        <time>2015-08-26T17:18:28Z</time>
      </trkpt>
      <trkpt lat="48.48379" lon="-2.77287">
        <ele>108.7</ele>
        <time>2015-08-26T17:18:30Z</time>
      </trkpt>
      <trkpt lat="48.48388" lon="-2.77285">
        <ele>108.3</ele>
        <time>2015-08-26T17:18:32Z</time>
      </trkpt>
      <trkpt lat="48.48399" lon="-2.77284">
        <ele>108</ele>
        <time>2015-08-26T17:18:34Z</time>
      </trkpt>
      <trkpt lat="48.48411" lon="-2.77284">
        <ele>107.7</ele>
        <time>2015-08-26T17:18:36Z</time>
      </trkpt>
      <trkpt lat="48.48424" lon="-2.77286">
        <ele>107.4</ele>
        <time>2015-08-26T17:18:38Z</time>
      </trkpt>
      <trkpt lat="48.48436" lon="-2.77295">
        <ele>107.1</ele>
        <time>2015-08-26T17:18:40Z</time>
      </trkpt>
      <trkpt lat="48.48445" lon="-2.77308">
        <ele>106.7</ele>
        <time>2015-08-26T17:18:42Z</time>
      </trkpt>
      <trkpt lat="48.48452" lon="-2.77325">
        <ele>106.4</ele>
        <time>2015-08-26T17:18:44Z</time>
      </trkpt>
      <trkpt lat="48.48458" lon="-2.77343">
        <ele>106.1</ele>
        <time>2015-08-26T17:18:46Z</time>
      </trkpt>
      <trkpt lat="48.48462" lon="-2.77359">
        <ele>105.8</ele>
        <time>2015-08-26T17:18:48Z</time>
      </trkpt>
      <trkpt lat="48.48466" lon="-2.77373">
        <ele>105.6</ele>
        <time>2015-08-26T17:18:50Z</time>
      </trkpt>
      <trkpt lat="48.48469" lon="-2.77387">
        <ele>105.4</ele>
        <time>2015-08-26T17:18:52Z</time>
      </trkpt>
      <trkpt lat="48.48472" lon="-2.774">
        <ele>105.2</ele>
        <time>2015-08-26T17:18:54Z</time>
      </trkpt>
      <trkpt lat="48.48476" lon="-2.77414">
        <ele>105.2</ele>
        <time>2015-08-26T17:18:56Z</time>
      </trkpt>
      <trkpt lat="48.4848" lon="-2.77428">
        <ele>105.2</ele>
        <time>2015-08-26T17:18:58Z</time>
      </trkpt>
      <trkpt lat="48.48484" lon="-2.77442">
        <ele>105.3</ele>
        <time>2015-08-26T17:19:00Z</time>
      </trkpt>
      <trkpt lat="48.48488" lon="-2.77456">
        <ele>105.5</ele>
        <time>2015-08-26T17:19:02Z</time>
      </trkpt>
      <trkpt lat="48.48491" lon="-2.77468">
        <ele>105.7</ele>
        <time>2015-08-26T17:19:04Z</time>
      </trkpt>
      <trkpt lat="48.48496" lon="-2.77486">
        <ele>105.9</ele>
        <time>2015-08-26T17:19:07Z</time>
      </trkpt>
      <trkpt lat="48.48503" lon="-2.77504">
        <ele>106.3</ele>
        <time>2015-08-26T17:19:10Z</time>
      </trkpt>
      <trkpt lat="48.48508" lon="-2.77516">
        <ele>106.5</ele>
        <time>2015-08-26T17:19:12Z</time>
      </trkpt>
      <trkpt lat="48.48513" lon="-2.77528">
        <ele>106.7</ele>
        <time>2015-08-26T17:19:14Z</time>
      </trkpt>
      <trkpt lat="48.48519" lon="-2.77543">
        <ele>107.1</ele>
        <time>2015-08-26T17:19:17Z</time>
      </trkpt>
      <trkpt lat="48.48525" lon="-2.77555">
        <ele>107.3</ele>
        <time>2015-08-26T17:19:20Z</time>
      </trkpt>
      <trkpt lat="48.48532" lon="-2.77566">
        <ele>107.6</ele>
        <time>2015-08-26T17:19:23Z</time>
      </trkpt>
      <trkpt lat="48.4854" lon="-2.77582">
        <ele>108</ele>
        <time>2015-08-26T17:19:26Z</time>
      </trkpt>
      <trkpt lat="48.48547" lon="-2.77593">
        <ele>108.2</ele>
        <time>2015-08-26T17:19:28Z</time>
      </trkpt>
      <trkpt lat="48.48553" lon="-2.77604">
        <ele>108.5</ele>
        <time>2015-08-26T17:19:30Z</time>
      </trkpt>
      <trkpt lat="48.4856" lon="-2.77615">
        <ele>108.7</ele>
        <time>2015-08-26T17:19:32Z</time>
      </trkpt>
      <trkpt lat="48.48567" lon="-2.77625">
        <ele>108.8</ele>
        <time>2015-08-26T17:19:34Z</time>
      </trkpt>
      <trkpt lat="48.48574" lon="-2.77636">
        <ele>109</ele>
        <time>2015-08-26T17:19:36Z</time>
      </trkpt>
      <trkpt lat="48.4858" lon="-2.77648">
        <ele>109.1</ele>
        <time>2015-08-26T17:19:38Z</time>
      </trkpt>
      <trkpt lat="48.48586" lon="-2.7766">
        <ele>109.3</ele>
        <time>2015-08-26T17:19:40Z</time>
      </trkpt>
      <trkpt lat="48.48592" lon="-2.77672">
        <ele>109.4</ele>
        <time>2015-08-26T17:19:42Z</time>
      </trkpt>
      <trkpt lat="48.486" lon="-2.77684">
        <ele>109.5</ele>
        <time>2015-08-26T17:19:44Z</time>
      </trkpt>
      <trkpt lat="48.48608" lon="-2.77694">
        <ele>109.6</ele>
        <time>2015-08-26T17:19:46Z</time>
      </trkpt>
      <trkpt lat="48.48617" lon="-2.77704">
        <ele>109.6</ele>
        <time>2015-08-26T17:19:48Z</time>
      </trkpt>
      <trkpt lat="48.48626" lon="-2.77713">
        <ele>109.7</ele>
        <time>2015-08-26T17:19:50Z</time>
      </trkpt>
      <trkpt lat="48.48634" lon="-2.77723">
        <ele>109.8</ele>
        <time>2015-08-26T17:19:52Z</time>
      </trkpt>
      <trkpt lat="48.48642" lon="-2.77735">
        <ele>109.8</ele>
        <time>2015-08-26T17:19:54Z</time>
      </trkpt>
      <trkpt lat="48.48649" lon="-2.77748">
        <ele>109.9</ele>
        <time>2015-08-26T17:19:56Z</time>
      </trkpt>
      <trkpt lat="48.48656" lon="-2.77762">
        <ele>109.9</ele>
        <time>2015-08-26T17:19:58Z</time>
      </trkpt>
      <trkpt lat="48.48662" lon="-2.77776">
        <ele>109.9</ele>
        <time>2015-08-26T17:20:00Z</time>
      </trkpt>
      <trkpt lat="48.48668" lon="-2.7779">
        <ele>109.8</ele>
        <time>2015-08-26T17:20:02Z</time>
      </trkpt>
      <trkpt lat="48.48675" lon="-2.77804">
        <ele>109.7</ele>
        <time>2015-08-26T17:20:04Z</time>
      </trkpt>
      <trkpt lat="48.48681" lon="-2.77819">
        <ele>109.6</ele>
        <time>2015-08-26T17:20:06Z</time>
      </trkpt>
      <trkpt lat="48.48687" lon="-2.77834">
        <ele>109.4</ele>
        <time>2015-08-26T17:20:08Z</time>
      </trkpt>
      <trkpt lat="48.48693" lon="-2.77849">
        <ele>109.3</ele>
        <time>2015-08-26T17:20:10Z</time>
      </trkpt>
      <trkpt lat="48.48699" lon="-2.77864">
        <ele>109.2</ele>
        <time>2015-08-26T17:20:12Z</time>
      </trkpt>
      <trkpt lat="48.48706" lon="-2.77879">
        <ele>109</ele>
        <time>2015-08-26T17:20:14Z</time>
      </trkpt>
      <trkpt lat="48.48713" lon="-2.77893">
        <ele>108.8</ele>
        <time>2015-08-26T17:20:16Z</time>
      </trkpt>
      <trkpt lat="48.48722" lon="-2.77905">
        <ele>108.7</ele>
        <time>2015-08-26T17:20:18Z</time>
      </trkpt>
      <trkpt lat="48.48733" lon="-2.77914">
        <ele>108.5</ele>
        <time>2015-08-26T17:20:20Z</time>
      </trkpt>
      <trkpt lat="48.48745" lon="-2.77918">
        <ele>108.2</ele>
        <time>2015-08-26T17:20:22Z</time>
      </trkpt>
      <trkpt lat="48.48759" lon="-2.77919">
        <ele>107.9</ele>
        <time>2015-08-26T17:20:24Z</time>
      </trkpt>
      <trkpt lat="48.48774" lon="-2.77918">
        <ele>107.6</ele>
        <time>2015-08-26T17:20:26Z</time>
      </trkpt>
      <trkpt lat="48.48789" lon="-2.77916">
        <ele>107.2</ele>
        <time>2015-08-26T17:20:28Z</time>
      </trkpt>
      <trkpt lat="48.48804" lon="-2.77914">
        <ele>106.7</ele>
        <time>2015-08-26T17:20:30Z</time>
      </trkpt>
      <trkpt lat="48.48821" lon="-2.77912">
        <ele>106.2</ele>
        <time>2015-08-26T17:20:32Z</time>
      </trkpt>
      <trkpt lat="48.48837" lon="-2.77917">
        <ele>105.7</ele>
        <time>2015-08-26T17:20:34Z</time>
      </trkpt>
      <trkpt lat="48.48853" lon="-2.77926">
        <ele>105.1</ele>
        <time>2015-08-26T17:20:36Z</time>
      </trkpt>
      <trkpt lat="48.48861" lon="-2.77933">
        <ele>104.8</ele>
        <time>2015-08-26T17:20:37Z</time>
      </trkpt>
      <trkpt lat="48.48871" lon="-2.77949">
        <ele>104.3</ele>
        <time>2015-08-26T17:20:39Z</time>
      </trkpt>
      <trkpt lat="48.48876" lon="-2.77969">
        <ele>103.8</ele>
        <time>2015-08-26T17:20:41Z</time>
      </trkpt>
      <trkpt lat="48.48879" lon="-2.77987">
        <ele>103.4</ele>
        <time>2015-08-26T17:20:43Z</time>
      </trkpt>
      <trkpt lat="48.48882" lon="-2.78005">
        <ele>103</ele>
        <time>2015-08-26T17:20:45Z</time>
      </trkpt>
      <trkpt lat="48.48885" lon="-2.78023">
        <ele>102.9</ele>
        <time>2015-08-26T17:20:47Z</time>
      </trkpt>
      <trkpt lat="48.48888" lon="-2.7804">
        <ele>102.9</ele>
        <time>2015-08-26T17:20:49Z</time>
      </trkpt>
      <trkpt lat="48.48891" lon="-2.78058">
        <ele>103.1</ele>
        <time>2015-08-26T17:20:51Z</time>
      </trkpt>
      <trkpt lat="48.48893" lon="-2.78075">
        <ele>103.4</ele>
        <time>2015-08-26T17:20:53Z</time>
      </trkpt>
      <trkpt lat="48.48895" lon="-2.78091">
        <ele>103.8</ele>
        <time>2015-08-26T17:20:55Z</time>
      </trkpt>
      <trkpt lat="48.48897" lon="-2.78107">
        <ele>104.3</ele>
        <time>2015-08-26T17:20:57Z</time>
      </trkpt>
      <trkpt lat="48.48899" lon="-2.78121">
        <ele>104.8</ele>
        <time>2015-08-26T17:20:59Z</time>
      </trkpt>
      <trkpt lat="48.48902" lon="-2.78136">
        <ele>105.4</ele>
        <time>2015-08-26T17:21:01Z</time>
      </trkpt>
      <trkpt lat="48.48906" lon="-2.78154">
        <ele>106.4</ele>
        <time>2015-08-26T17:21:04Z</time>
      </trkpt>
      <trkpt lat="48.48912" lon="-2.78171">
        <ele>107.3</ele>
        <time>2015-08-26T17:21:07Z</time>
      </trkpt>
      <trkpt lat="48.48919" lon="-2.78186">
        <ele>108.4</ele>
        <time>2015-08-26T17:21:10Z</time>
      </trkpt>
      <trkpt lat="48.48928" lon="-2.78196">
        <ele>109.5</ele>
        <time>2015-08-26T17:21:13Z</time>
      </trkpt>
      <trkpt lat="48.48938" lon="-2.78203">
        <ele>110.7</ele>
        <time>2015-08-26T17:21:16Z</time>
      </trkpt>
      <trkpt lat="48.48949" lon="-2.7821">
        <ele>111.9</ele>
        <time>2015-08-26T17:21:19Z</time>
      </trkpt>
      <trkpt lat="48.48958" lon="-2.78215">
        <ele>113.2</ele>
        <time>2015-08-26T17:21:22Z</time>
      </trkpt>
      <trkpt lat="48.48968" lon="-2.7822">
        <ele>114.6</ele>
        <time>2015-08-26T17:21:26Z</time>
      </trkpt>
      <trkpt lat="48.48977" lon="-2.78226">
        <ele>115.9</ele>
        <time>2015-08-26T17:21:30Z</time>
      </trkpt>
      <trkpt lat="48.48987" lon="-2.78231">
        <ele>116.8</ele>
        <time>2015-08-26T17:21:34Z</time>
      </trkpt>
      <trkpt lat="48.48997" lon="-2.78238">
        <ele>117.5</ele>
        <time>2015-08-26T17:21:38Z</time>
      </trkpt>
      <trkpt lat="48.49005" lon="-2.78245">
        <ele>118.9</ele>
        <time>2015-08-26T17:21:53Z</time>
      </trkpt>
      <trkpt lat="48.49003" lon="-2.78259">
        <ele>119</ele>
        <time>2015-08-26T17:21:57Z</time>
      </trkpt>
      <trkpt lat="48.48998" lon="-2.78271">
        <ele>119.1</ele>
        <time>2015-08-26T17:22:01Z</time>
      </trkpt>
      <trkpt lat="48.48993" lon="-2.78285">
        <ele>119.4</ele>
        <time>2015-08-26T17:22:05Z</time>
      </trkpt>
      <trkpt lat="48.48986" lon="-2.78297">
        <ele>119.6</ele>
        <time>2015-08-26T17:22:08Z</time>
      </trkpt>
      <trkpt lat="48.48979" lon="-2.7831">
        <ele>119.9</ele>
        <time>2015-08-26T17:22:11Z</time>
      </trkpt>
      <trkpt lat="48.48972" lon="-2.78323">
        <ele>120</ele>
        <time>2015-08-26T17:22:14Z</time>
      </trkpt>
      <trkpt lat="48.48963" lon="-2.78338">
        <ele>120.2</ele>
        <time>2015-08-26T17:22:17Z</time>
      </trkpt>
      <trkpt lat="48.48956" lon="-2.78352">
        <ele>120.4</ele>
        <time>2015-08-26T17:22:20Z</time>
      </trkpt>
      <trkpt lat="48.48948" lon="-2.78366">
        <ele>120.5</ele>
        <time>2015-08-26T17:22:23Z</time>
      </trkpt>
      <trkpt lat="48.4894" lon="-2.7838">
        <ele>120.7</ele>
        <time>2015-08-26T17:22:26Z</time>
      </trkpt>
      <trkpt lat="48.48933" lon="-2.78393">
        <ele>120.9</ele>
        <time>2015-08-26T17:22:29Z</time>
      </trkpt>
      <trkpt lat="48.48925" lon="-2.78406">
        <ele>121.1</ele>
        <time>2015-08-26T17:22:32Z</time>
      </trkpt>
      <trkpt lat="48.48917" lon="-2.7842">
        <ele>121.2</ele>
        <time>2015-08-26T17:22:35Z</time>
      </trkpt>
      <trkpt lat="48.4891" lon="-2.78433">
        <ele>121.4</ele>
        <time>2015-08-26T17:22:38Z</time>
      </trkpt>
      <trkpt lat="48.48902" lon="-2.78445">
        <ele>121.6</ele>
        <time>2015-08-26T17:22:41Z</time>
      </trkpt>
      <trkpt lat="48.48895" lon="-2.78457">
        <ele>121.9</ele>
        <time>2015-08-26T17:22:44Z</time>
      </trkpt>
      <trkpt lat="48.48888" lon="-2.7847">
        <ele>122.2</ele>
        <time>2015-08-26T17:22:47Z</time>
      </trkpt>
      <trkpt lat="48.48881" lon="-2.78483">
        <ele>122.5</ele>
        <time>2015-08-26T17:22:50Z</time>
      </trkpt>
      <trkpt lat="48.48882" lon="-2.78499">
        <ele>122.8</ele>
        <time>2015-08-26T17:22:53Z</time>
      </trkpt>
      <trkpt lat="48.4889" lon="-2.78516">
        <ele>123</ele>
        <time>2015-08-26T17:22:56Z</time>
      </trkpt>
      <trkpt lat="48.48896" lon="-2.78527">
        <ele>123.1</ele>
        <time>2015-08-26T17:22:58Z</time>
      </trkpt>
      <trkpt lat="48.48902" lon="-2.78537">
        <ele>123.2</ele>
        <time>2015-08-26T17:23:00Z</time>
      </trkpt>
      <trkpt lat="48.4891" lon="-2.78548">
        <ele>123.3</ele>
        <time>2015-08-26T17:23:02Z</time>
      </trkpt>
      <trkpt lat="48.48918" lon="-2.7856">
        <ele>123.3</ele>
        <time>2015-08-26T17:23:04Z</time>
      </trkpt>
      <trkpt lat="48.48927" lon="-2.78571">
        <ele>123.4</ele>
        <time>2015-08-26T17:23:06Z</time>
      </trkpt>
      <trkpt lat="48.48934" lon="-2.78583">
        <ele>123.5</ele>
        <time>2015-08-26T17:23:08Z</time>
      </trkpt>
      <trkpt lat="48.48942" lon="-2.78595">
        <ele>123.6</ele>
        <time>2015-08-26T17:23:10Z</time>
      </trkpt>
      <trkpt lat="48.48949" lon="-2.78607">
        <ele>123.7</ele>
        <time>2015-08-26T17:23:12Z</time>
      </trkpt>
      <trkpt lat="48.48955" lon="-2.78621">
        <ele>123.7</ele>
        <time>2015-08-26T17:23:14Z</time>
      </trkpt>
      <trkpt lat="48.48961" lon="-2.78637">
        <ele>123.8</ele>
        <time>2015-08-26T17:23:16Z</time>
      </trkpt>
      <trkpt lat="48.48965" lon="-2.78654">
        <ele>123.8</ele>
        <time>2015-08-26T17:23:18Z</time>
      </trkpt>
      <trkpt lat="48.48969" lon="-2.78672">
        <ele>123.9</ele>
        <time>2015-08-26T17:23:20Z</time>
      </trkpt>
      <trkpt lat="48.48972" lon="-2.7869">
        <ele>123.9</ele>
        <time>2015-08-26T17:23:22Z</time>
      </trkpt>
      <trkpt lat="48.48974" lon="-2.78709">
        <ele>123.9</ele>
        <time>2015-08-26T17:23:24Z</time>
      </trkpt>
      <trkpt lat="48.48976" lon="-2.78729">
        <ele>123.9</ele>
        <time>2015-08-26T17:23:26Z</time>
      </trkpt>
      <trkpt lat="48.48977" lon="-2.7875">
        <ele>123.8</ele>
        <time>2015-08-26T17:23:28Z</time>
      </trkpt>
      <trkpt lat="48.48979" lon="-2.78771">
        <ele>123.6</ele>
        <time>2015-08-26T17:23:30Z</time>
      </trkpt>
      <trkpt lat="48.48981" lon="-2.78793">
        <ele>123.3</ele>
        <time>2015-08-26T17:23:32Z</time>
      </trkpt>
      <trkpt lat="48.48985" lon="-2.78816">
        <ele>123</ele>
        <time>2015-08-26T17:23:34Z</time>
      </trkpt>
      <trkpt lat="48.48991" lon="-2.78838">
        <ele>122.6</ele>
        <time>2015-08-26T17:23:36Z</time>
      </trkpt>
      <trkpt lat="48.48999" lon="-2.78862">
        <ele>122.2</ele>
        <time>2015-08-26T17:23:38Z</time>
      </trkpt>
      <trkpt lat="48.49007" lon="-2.78884">
        <ele>121.6</ele>
        <time>2015-08-26T17:23:40Z</time>
      </trkpt>
      <trkpt lat="48.49017" lon="-2.78908">
        <ele>121</ele>
        <time>2015-08-26T17:23:42Z</time>
      </trkpt>
      <trkpt lat="48.49025" lon="-2.78931">
        <ele>120.6</ele>
        <time>2015-08-26T17:23:44Z</time>
      </trkpt>
      <trkpt lat="48.49032" lon="-2.78955">
        <ele>120.1</ele>
        <time>2015-08-26T17:23:46Z</time>
      </trkpt>
      <trkpt lat="48.49036" lon="-2.78978">
        <ele>119.8</ele>
        <time>2015-08-26T17:23:48Z</time>
      </trkpt>
      <trkpt lat="48.49039" lon="-2.79">
        <ele>119.5</ele>
        <time>2015-08-26T17:23:50Z</time>
      </trkpt>
      <trkpt lat="48.4904" lon="-2.79022">
        <ele>119.3</ele>
        <time>2015-08-26T17:23:52Z</time>
      </trkpt>
      <trkpt lat="48.49039" lon="-2.79045">
        <ele>119.2</ele>
        <time>2015-08-26T17:23:54Z</time>
      </trkpt>
      <trkpt lat="48.49038" lon="-2.79066">
        <ele>119.3</ele>
        <time>2015-08-26T17:23:56Z</time>
      </trkpt>
      <trkpt lat="48.49037" lon="-2.79089">
        <ele>119.4</ele>
        <time>2015-08-26T17:23:58Z</time>
      </trkpt>
      <trkpt lat="48.49035" lon="-2.79111">
        <ele>119.7</ele>
        <time>2015-08-26T17:24:00Z</time>
      </trkpt>
      <trkpt lat="48.49031" lon="-2.79134">
        <ele>119.9</ele>
        <time>2015-08-26T17:24:02Z</time>
      </trkpt>
      <trkpt lat="48.49027" lon="-2.79156">
        <ele>120.1</ele>
        <time>2015-08-26T17:24:04Z</time>
      </trkpt>
      <trkpt lat="48.49022" lon="-2.79176">
        <ele>120.3</ele>
        <time>2015-08-26T17:24:06Z</time>
      </trkpt>
      <trkpt lat="48.49017" lon="-2.79194">
        <ele>120.6</ele>
        <time>2015-08-26T17:24:08Z</time>
      </trkpt>
      <trkpt lat="48.49012" lon="-2.79211">
        <ele>120.9</ele>
        <time>2015-08-26T17:24:10Z</time>
      </trkpt>
      <trkpt lat="48.49007" lon="-2.79225">
        <ele>121.3</ele>
        <time>2015-08-26T17:24:12Z</time>
      </trkpt>
      <trkpt lat="48.49002" lon="-2.79239">
        <ele>121.7</ele>
        <time>2015-08-26T17:24:14Z</time>
      </trkpt>
      <trkpt lat="48.48996" lon="-2.79255">
        <ele>122.3</ele>
        <time>2015-08-26T17:24:17Z</time>
      </trkpt>
      <trkpt lat="48.48985" lon="-2.79259">
        <ele>122.9</ele>
        <time>2015-08-26T17:24:20Z</time>
      </trkpt>
      <trkpt lat="48.48975" lon="-2.79256">
        <ele>123.5</ele>
        <time>2015-08-26T17:24:23Z</time>
      </trkpt>
      <trkpt lat="48.48964" lon="-2.7925">
        <ele>123.9</ele>
        <time>2015-08-26T17:24:26Z</time>
      </trkpt>
      <trkpt lat="48.48954" lon="-2.79245">
        <ele>124.3</ele>
        <time>2015-08-26T17:24:29Z</time>
      </trkpt>
      <trkpt lat="48.48943" lon="-2.79239">
        <ele>124.6</ele>
        <time>2015-08-26T17:24:32Z</time>
      </trkpt>
      <trkpt lat="48.48931" lon="-2.79233">
        <ele>124.8</ele>
        <time>2015-08-26T17:24:35Z</time>
      </trkpt>
      <trkpt lat="48.48922" lon="-2.79229">
        <ele>125</ele>
        <time>2015-08-26T17:24:37Z</time>
      </trkpt>
      <trkpt lat="48.4891" lon="-2.79232">
        <ele>125.1</ele>
        <time>2015-08-26T17:24:40Z</time>
      </trkpt>
      <trkpt lat="48.48906" lon="-2.79246">
        <ele>125.3</ele>
        <time>2015-08-26T17:24:43Z</time>
      </trkpt>
      <trkpt lat="48.48903" lon="-2.7926">
        <ele>125.4</ele>
        <time>2015-08-26T17:24:46Z</time>
      </trkpt>
      <trkpt lat="48.48901" lon="-2.79276">
        <ele>125.7</ele>
        <time>2015-08-26T17:24:50Z</time>
      </trkpt>
      <trkpt lat="48.48899" lon="-2.79292">
        <ele>126.2</ele>
        <time>2015-08-26T17:24:54Z</time>
      </trkpt>
      <trkpt lat="48.489" lon="-2.79306">
        <ele>126.6</ele>
        <time>2015-08-26T17:24:57Z</time>
      </trkpt>
      <trkpt lat="48.48902" lon="-2.7932">
        <ele>127.2</ele>
        <time>2015-08-26T17:25:02Z</time>
      </trkpt>
      <trkpt lat="48.48904" lon="-2.79322">
        <ele>128.3</ele>
        <time>2015-08-26T17:25:19Z</time>
      </trkpt>
    </trkseg>
  </trk>
</gpx>